<?xml version='1.0' encoding='UTF-8'?><gpx version="1.1" creator="JPX - https://github.com/jenetics/jpx" xmlns="http://www.topografix.com/GPX/1/1"><trk><trkseg><trkpt lat="41.3071951" lon="1.9911361"><ele>47.0</ele><time>2026-03-28T09:58:58.298Z</time></trkpt><trkpt lat="41.3071922" lon="1.9910271"><ele>47.0</ele><time>2026-03-28T09:59:02.297Z</time></trkpt><trkpt lat="41.3071315" lon="1.9909204"><ele>47.0</ele><time>2026-03-28T09:59:05.298Z</time></trkpt><trkpt lat="41.3070904" lon="1.99082"><ele>47.0</ele><time>2026-03-28T09:59:07.298Z</time></trkpt><trkpt lat="41.3071498" lon="1.9907404"><ele>47.0</ele><time>2026-03-28T09:59:10.298Z</time></trkpt><trkpt lat="41.307249" lon="1.9907338"><ele>47.83333333333333</ele><time>2026-03-28T09:59:12.297Z</time></trkpt><trkpt lat="41.3073405" lon="1.9907229"><ele>48.666666666666664</ele><time>2026-03-28T09:59:15.298Z</time></trkpt><trkpt lat="41.3074176" lon="1.9907331"><ele>49.5</ele><time>2026-03-28T09:59:19.298Z</time></trkpt><trkpt lat="41.3074962" lon="1.9907674"><ele>50.33333333333333</ele><time>2026-03-28T09:59:22.297Z</time></trkpt><trkpt lat="41.3075635" lon="1.9908275"><ele>51.166666666666664</ele><time>2026-03-28T09:59:24.297Z</time></trkpt><trkpt lat="41.30765" lon="1.9909241"><ele>52.0</ele><time>2026-03-28T09:59:26.298Z</time></trkpt><trkpt lat="41.307769" lon="1.9909806"><ele>51.99999999999999</ele><time>2026-03-28T09:59:28.298Z</time></trkpt><trkpt lat="41.3078435" lon="1.9909638"><ele>52.0</ele><time>2026-03-28T09:59:29.298Z</time></trkpt><trkpt lat="41.3079078" lon="1.9909188"><ele>52.0</ele><time>2026-03-28T09:59:30.298Z</time></trkpt><trkpt lat="41.3079507" lon="1.9908453"><ele>52.0</ele><time>2026-03-28T09:59:31.298Z</time></trkpt><trkpt lat="41.3079708" lon="1.9907554"><ele>51.99999999999999</ele><time>2026-03-28T09:59:32.297Z</time></trkpt><trkpt lat="41.3079671" lon="1.9906479"><ele>52.0</ele><time>2026-03-28T09:59:33.298Z</time></trkpt><trkpt lat="41.3079423" lon="1.9905263"><ele>52.6</ele><time>2026-03-28T09:59:34.297Z</time></trkpt><trkpt lat="41.3079027" lon="1.9903938"><ele>53.2</ele><time>2026-03-28T09:59:35.298Z</time></trkpt><trkpt lat="41.3078607" lon="1.990262"><ele>53.8</ele><time>2026-03-28T09:59:36.298Z</time></trkpt><trkpt lat="41.3078146" lon="1.9901466"><ele>54.4</ele><time>2026-03-28T09:59:37.298Z</time></trkpt><trkpt lat="41.3077742" lon="1.990051"><ele>55.0</ele><time>2026-03-28T09:59:38.298Z</time></trkpt><trkpt lat="41.3077354" lon="1.9899588"><ele>56.14285714285714</ele><time>2026-03-28T09:59:39.298Z</time></trkpt><trkpt lat="41.3076951" lon="1.9898683"><ele>57.285714285714285</ele><time>2026-03-28T09:59:40.298Z</time></trkpt><trkpt lat="41.3076535" lon="1.989779"><ele>58.42857142857143</ele><time>2026-03-28T09:59:41.298Z</time></trkpt><trkpt lat="41.30761" lon="1.98971"><ele>59.57142857142857</ele><time>2026-03-28T09:59:42.298Z</time></trkpt><trkpt lat="41.3075614" lon="1.9896417"><ele>60.714285714285715</ele><time>2026-03-28T09:59:43.298Z</time></trkpt><trkpt lat="41.3075066" lon="1.9895798"><ele>61.857142857142854</ele><time>2026-03-28T09:59:44.298Z</time></trkpt><trkpt lat="41.3074442" lon="1.9895172"><ele>63.0</ele><time>2026-03-28T09:59:45.298Z</time></trkpt><trkpt lat="41.3073739" lon="1.9894574"><ele>63.0</ele><time>2026-03-28T09:59:46.298Z</time></trkpt><trkpt lat="41.3072956" lon="1.9893859"><ele>63.0</ele><time>2026-03-28T09:59:47.298Z</time></trkpt><trkpt lat="41.3072187" lon="1.9893095"><ele>63.0</ele><time>2026-03-28T09:59:48.298Z</time></trkpt><trkpt lat="41.3071463" lon="1.9892316"><ele>63.0</ele><time>2026-03-28T09:59:49.298Z</time></trkpt><trkpt lat="41.3070725" lon="1.9891507"><ele>63.0</ele><time>2026-03-28T09:59:50.298Z</time></trkpt><trkpt lat="41.3069856" lon="1.9890699"><ele>64.25</ele><time>2026-03-28T09:59:51.298Z</time></trkpt><trkpt lat="41.306895" lon="1.9889822"><ele>65.5</ele><time>2026-03-28T09:59:52.298Z</time></trkpt><trkpt lat="41.306809" lon="1.9888793"><ele>66.75</ele><time>2026-03-28T09:59:53.298Z</time></trkpt><trkpt lat="41.3067272" lon="1.9887539"><ele>68.0</ele><time>2026-03-28T09:59:54.298Z</time></trkpt><trkpt lat="41.3066726" lon="1.9886003"><ele>68.0</ele><time>2026-03-28T09:59:55.298Z</time></trkpt><trkpt lat="41.3066552" lon="1.9884383"><ele>68.0</ele><time>2026-03-28T09:59:56.298Z</time></trkpt><trkpt lat="41.3066632" lon="1.9882678"><ele>68.0</ele><time>2026-03-28T09:59:57.298Z</time></trkpt><trkpt lat="41.3066785" lon="1.9880959"><ele>68.0</ele><time>2026-03-28T09:59:58.298Z</time></trkpt><trkpt lat="41.3067018" lon="1.9879269"><ele>69.5</ele><time>2026-03-28T09:59:59.298Z</time></trkpt><trkpt lat="41.3067504" lon="1.9877551"><ele>71.0</ele><time>2026-03-28T10:00:00.298Z</time></trkpt><trkpt lat="41.3068162" lon="1.9875939"><ele>72.5</ele><time>2026-03-28T10:00:01.298Z</time></trkpt><trkpt lat="41.3068991" lon="1.9874476"><ele>74.0</ele><time>2026-03-28T10:00:02.298Z</time></trkpt><trkpt lat="41.3069808" lon="1.9873088"><ele>74.25</ele><time>2026-03-28T10:00:03.298Z</time></trkpt><trkpt lat="41.3070496" lon="1.9871679"><ele>74.5</ele><time>2026-03-28T10:00:04.298Z</time></trkpt><trkpt lat="41.3070942" lon="1.9870202"><ele>74.75</ele><time>2026-03-28T10:00:05.298Z</time></trkpt><trkpt lat="41.3071193" lon="1.9868664"><ele>75.0</ele><time>2026-03-28T10:00:06.298Z</time></trkpt><trkpt lat="41.3071311" lon="1.9867178"><ele>75.2</ele><time>2026-03-28T10:00:07.298Z</time></trkpt><trkpt lat="41.3071444" lon="1.9865816"><ele>75.4</ele><time>2026-03-28T10:00:08.298Z</time></trkpt><trkpt lat="41.3071528" lon="1.986439"><ele>75.6</ele><time>2026-03-28T10:00:09.298Z</time></trkpt><trkpt lat="41.307161" lon="1.9862902"><ele>75.8</ele><time>2026-03-28T10:00:10.298Z</time></trkpt><trkpt lat="41.3071699" lon="1.9861261"><ele>76.0</ele><time>2026-03-28T10:00:11.298Z</time></trkpt><trkpt lat="41.3071923" lon="1.9859391"><ele>75.5</ele><time>2026-03-28T10:00:12.298Z</time></trkpt><trkpt lat="41.3072299" lon="1.9857426"><ele>75.0</ele><time>2026-03-28T10:00:13.298Z</time></trkpt><trkpt lat="41.3072798" lon="1.9855603"><ele>74.5</ele><time>2026-03-28T10:00:14.298Z</time></trkpt><trkpt lat="41.3073168" lon="1.9853991"><ele>74.0</ele><time>2026-03-28T10:00:15.298Z</time></trkpt><trkpt lat="41.3073476" lon="1.9852655"><ele>78.5</ele><time>2026-03-28T10:00:16.298Z</time></trkpt><trkpt lat="41.307364" lon="1.985166"><ele>83.0</ele><time>2026-03-28T10:00:17.298Z</time></trkpt><trkpt lat="41.3073871" lon="1.9850159"><ele>87.5</ele><time>2026-03-28T10:00:19.298Z</time></trkpt><trkpt lat="41.3074021" lon="1.9849058"><ele>92.0</ele><time>2026-03-28T10:00:21.298Z</time></trkpt><trkpt lat="41.307409" lon="1.9848113"><ele>96.49999999999999</ele><time>2026-03-28T10:00:24.298Z</time></trkpt><trkpt lat="41.3074145" lon="1.9846969"><ele>101.0</ele><time>2026-03-28T10:00:26.298Z</time></trkpt><trkpt lat="41.3074228" lon="1.9845754"><ele>101.0</ele><time>2026-03-28T10:00:28.298Z</time></trkpt><trkpt lat="41.3074265" lon="1.9844699"><ele>101.0</ele><time>2026-03-28T10:00:30.298Z</time></trkpt><trkpt lat="41.3074324" lon="1.9843609"><ele>101.0</ele><time>2026-03-28T10:00:32.298Z</time></trkpt><trkpt lat="41.3074412" lon="1.9842234"><ele>101.0</ele><time>2026-03-28T10:00:34.298Z</time></trkpt><trkpt lat="41.3074706" lon="1.9840748"><ele>101.0</ele><time>2026-03-28T10:00:36.298Z</time></trkpt><trkpt lat="41.3075337" lon="1.983931"><ele>100.99999999999999</ele><time>2026-03-28T10:00:38.298Z</time></trkpt><trkpt lat="41.307577" lon="1.9838573"><ele>101.0</ele><time>2026-03-28T10:00:39.298Z</time></trkpt><trkpt lat="41.3076265" lon="1.9837961"><ele>101.0</ele><time>2026-03-28T10:00:40.298Z</time></trkpt><trkpt lat="41.3076811" lon="1.9837405"><ele>101.0</ele><time>2026-03-28T10:00:41.298Z</time></trkpt><trkpt lat="41.3077498" lon="1.9836791"><ele>100.99999999999999</ele><time>2026-03-28T10:00:42.298Z</time></trkpt><trkpt lat="41.3078266" lon="1.9836183"><ele>101.0</ele><time>2026-03-28T10:00:43.298Z</time></trkpt><trkpt lat="41.3079097" lon="1.9835544"><ele>101.0</ele><time>2026-03-28T10:00:44.298Z</time></trkpt><trkpt lat="41.3079909" lon="1.9834902"><ele>101.0</ele><time>2026-03-28T10:00:45.298Z</time></trkpt><trkpt lat="41.3080724" lon="1.9834359"><ele>101.0</ele><time>2026-03-28T10:00:46.298Z</time></trkpt><trkpt lat="41.3081615" lon="1.9833922"><ele>101.0</ele><time>2026-03-28T10:00:47.298Z</time></trkpt><trkpt lat="41.3082673" lon="1.983375"><ele>101.0</ele><time>2026-03-28T10:00:48.297Z</time></trkpt><trkpt lat="41.308365" lon="1.9833665"><ele>102.66666666666666</ele><time>2026-03-28T10:00:49.298Z</time></trkpt><trkpt lat="41.3084555" lon="1.983358"><ele>104.33333333333333</ele><time>2026-03-28T10:00:50.298Z</time></trkpt><trkpt lat="41.308532" lon="1.9833499"><ele>106.0</ele><time>2026-03-28T10:00:51.298Z</time></trkpt><trkpt lat="41.3086049" lon="1.9833287"><ele>107.66666666666666</ele><time>2026-03-28T10:00:52.298Z</time></trkpt><trkpt lat="41.308678" lon="1.9832936"><ele>109.33333333333333</ele><time>2026-03-28T10:00:53.298Z</time></trkpt><trkpt lat="41.3087459" lon="1.9832377"><ele>111.0</ele><time>2026-03-28T10:00:54.298Z</time></trkpt><trkpt lat="41.3087933" lon="1.9831526"><ele>111.0</ele><time>2026-03-28T10:00:55.298Z</time></trkpt><trkpt lat="41.3088211" lon="1.9830462"><ele>111.0</ele><time>2026-03-28T10:00:56.298Z</time></trkpt><trkpt lat="41.3088108" lon="1.9829401"><ele>111.0</ele><time>2026-03-28T10:00:57.298Z</time></trkpt><trkpt lat="41.3087678" lon="1.9828367"><ele>111.0</ele><time>2026-03-28T10:00:58.298Z</time></trkpt><trkpt lat="41.3086945" lon="1.9827329"><ele>111.0</ele><time>2026-03-28T10:00:59.298Z</time></trkpt><trkpt lat="41.3086082" lon="1.9826313"><ele>111.0</ele><time>2026-03-28T10:01:00.298Z</time></trkpt><trkpt lat="41.3085326" lon="1.9825403"><ele>111.0</ele><time>2026-03-28T10:01:01.298Z</time></trkpt><trkpt lat="41.3084673" lon="1.9824613"><ele>111.0</ele><time>2026-03-28T10:01:02.298Z</time></trkpt><trkpt lat="41.3084069" lon="1.9823861"><ele>111.0</ele><time>2026-03-28T10:01:03.298Z</time></trkpt><trkpt lat="41.3083668" lon="1.9822994"><ele>111.0</ele><time>2026-03-28T10:01:04.298Z</time></trkpt><trkpt lat="41.3083555" lon="1.9822032"><ele>111.0</ele><time>2026-03-28T10:01:05.298Z</time></trkpt><trkpt lat="41.3083717" lon="1.9820775"><ele>110.8</ele><time>2026-03-28T10:01:06.298Z</time></trkpt><trkpt lat="41.3084085" lon="1.9819593"><ele>110.6</ele><time>2026-03-28T10:01:07.298Z</time></trkpt><trkpt lat="41.3084686" lon="1.9818524"><ele>110.4</ele><time>2026-03-28T10:01:08.298Z</time></trkpt><trkpt lat="41.3085349" lon="1.9817696"><ele>110.2</ele><time>2026-03-28T10:01:09.298Z</time></trkpt><trkpt lat="41.3086009" lon="1.9816985"><ele>110.0</ele><time>2026-03-28T10:01:10.298Z</time></trkpt><trkpt lat="41.3086667" lon="1.9816293"><ele>110.66666666666666</ele><time>2026-03-28T10:01:11.298Z</time></trkpt><trkpt lat="41.3087292" lon="1.9815495"><ele>111.33333333333333</ele><time>2026-03-28T10:01:12.298Z</time></trkpt><trkpt lat="41.3087806" lon="1.9814577"><ele>112.0</ele><time>2026-03-28T10:01:13.298Z</time></trkpt><trkpt lat="41.3088123" lon="1.9813474"><ele>112.66666666666666</ele><time>2026-03-28T10:01:14.298Z</time></trkpt><trkpt lat="41.3088103" lon="1.9812277"><ele>113.33333333333333</ele><time>2026-03-28T10:01:15.298Z</time></trkpt><trkpt lat="41.3087809" lon="1.981111"><ele>114.0</ele><time>2026-03-28T10:01:16.298Z</time></trkpt><trkpt lat="41.3087434" lon="1.9809993"><ele>114.0</ele><time>2026-03-28T10:01:17.298Z</time></trkpt><trkpt lat="41.3087256" lon="1.9808919"><ele>114.0</ele><time>2026-03-28T10:01:18.298Z</time></trkpt><trkpt lat="41.3087271" lon="1.9807817"><ele>114.0</ele><time>2026-03-28T10:01:19.298Z</time></trkpt><trkpt lat="41.3087523" lon="1.9806725"><ele>114.0</ele><time>2026-03-28T10:01:20.298Z</time></trkpt><trkpt lat="41.3088009" lon="1.9805661"><ele>114.0</ele><time>2026-03-28T10:01:21.298Z</time></trkpt><trkpt lat="41.3088647" lon="1.980465"><ele>114.0</ele><time>2026-03-28T10:01:22.298Z</time></trkpt><trkpt lat="41.3089385" lon="1.98038"><ele>116.80000000000001</ele><time>2026-03-28T10:01:23.298Z</time></trkpt><trkpt lat="41.309025" lon="1.9803014"><ele>119.60000000000001</ele><time>2026-03-28T10:01:24.298Z</time></trkpt><trkpt lat="41.3091097" lon="1.9802274"><ele>122.4</ele><time>2026-03-28T10:01:25.297Z</time></trkpt><trkpt lat="41.3091927" lon="1.9801538"><ele>125.2</ele><time>2026-03-28T10:01:26.298Z</time></trkpt><trkpt lat="41.3092646" lon="1.9800707"><ele>128.0</ele><time>2026-03-28T10:01:27.298Z</time></trkpt><trkpt lat="41.3093245" lon="1.9799639"><ele>128.0</ele><time>2026-03-28T10:01:28.298Z</time></trkpt><trkpt lat="41.3093573" lon="1.9798335"><ele>128.0</ele><time>2026-03-28T10:01:29.298Z</time></trkpt><trkpt lat="41.3093688" lon="1.9796895"><ele>128.0</ele><time>2026-03-28T10:01:30.298Z</time></trkpt><trkpt lat="41.3093616" lon="1.9795466"><ele>128.0</ele><time>2026-03-28T10:01:31.298Z</time></trkpt><trkpt lat="41.3093433" lon="1.9793997"><ele>128.0</ele><time>2026-03-28T10:01:32.298Z</time></trkpt><trkpt lat="41.3093317" lon="1.9792414"><ele>127.25</ele><time>2026-03-28T10:01:33.298Z</time></trkpt><trkpt lat="41.3093284" lon="1.9790692"><ele>126.5</ele><time>2026-03-28T10:01:34.298Z</time></trkpt><trkpt lat="41.3093371" lon="1.9788942"><ele>125.75</ele><time>2026-03-28T10:01:35.298Z</time></trkpt><trkpt lat="41.3093574" lon="1.9787243"><ele>125.0</ele><time>2026-03-28T10:01:36.298Z</time></trkpt><trkpt lat="41.3093866" lon="1.9785584"><ele>125.0</ele><time>2026-03-28T10:01:37.298Z</time></trkpt><trkpt lat="41.3094223" lon="1.9783989"><ele>125.0</ele><time>2026-03-28T10:01:38.298Z</time></trkpt><trkpt lat="41.3094561" lon="1.9782405"><ele>125.0</ele><time>2026-03-28T10:01:39.298Z</time></trkpt><trkpt lat="41.3094931" lon="1.9780839"><ele>125.0</ele><time>2026-03-28T10:01:40.298Z</time></trkpt><trkpt lat="41.3095283" lon="1.977931"><ele>125.0</ele><time>2026-03-28T10:01:41.298Z</time></trkpt><trkpt lat="41.3095646" lon="1.9777763"><ele>125.0</ele><time>2026-03-28T10:01:42.298Z</time></trkpt><trkpt lat="41.3096012" lon="1.9776182"><ele>125.0</ele><time>2026-03-28T10:01:43.298Z</time></trkpt><trkpt lat="41.3096387" lon="1.9774554"><ele>125.0</ele><time>2026-03-28T10:01:44.297Z</time></trkpt><trkpt lat="41.3096692" lon="1.9773019"><ele>125.75</ele><time>2026-03-28T10:01:45.298Z</time></trkpt><trkpt lat="41.3097028" lon="1.9771395"><ele>126.5</ele><time>2026-03-28T10:01:46.298Z</time></trkpt><trkpt lat="41.309741" lon="1.9769716"><ele>127.25</ele><time>2026-03-28T10:01:47.298Z</time></trkpt><trkpt lat="41.3097771" lon="1.9768087"><ele>128.0</ele><time>2026-03-28T10:01:48.298Z</time></trkpt><trkpt lat="41.3098119" lon="1.976651"><ele>133.5</ele><time>2026-03-28T10:01:49.298Z</time></trkpt><trkpt lat="41.3098439" lon="1.9764985"><ele>139.0</ele><time>2026-03-28T10:01:50.298Z</time></trkpt><trkpt lat="41.309879" lon="1.9763464"><ele>144.5</ele><time>2026-03-28T10:01:51.298Z</time></trkpt><trkpt lat="41.3099114" lon="1.9762025"><ele>150.0</ele><time>2026-03-28T10:01:52.298Z</time></trkpt><trkpt lat="41.3099423" lon="1.9760611"><ele>150.0</ele><time>2026-03-28T10:01:53.297Z</time></trkpt><trkpt lat="41.3099792" lon="1.9759236"><ele>150.0</ele><time>2026-03-28T10:01:54.298Z</time></trkpt><trkpt lat="41.3100204" lon="1.9758057"><ele>150.0</ele><time>2026-03-28T10:01:55.298Z</time></trkpt><trkpt lat="41.3100662" lon="1.9757077"><ele>150.0</ele><time>2026-03-28T10:01:56.298Z</time></trkpt><trkpt lat="41.3101122" lon="1.9756179"><ele>150.0</ele><time>2026-03-28T10:01:57.298Z</time></trkpt><trkpt lat="41.3101664" lon="1.9755332"><ele>151.0</ele><time>2026-03-28T10:01:58.298Z</time></trkpt><trkpt lat="41.3102296" lon="1.9754502"><ele>152.0</ele><time>2026-03-28T10:01:59.297Z</time></trkpt><trkpt lat="41.3102982" lon="1.9753767"><ele>153.0</ele><time>2026-03-28T10:02:00.297Z</time></trkpt><trkpt lat="41.3103748" lon="1.9753106"><ele>154.0</ele><time>2026-03-28T10:02:01.298Z</time></trkpt><trkpt lat="41.3104614" lon="1.9752425"><ele>155.0</ele><time>2026-03-28T10:02:02.297Z</time></trkpt><trkpt lat="41.3105505" lon="1.9751727"><ele>157.5</ele><time>2026-03-28T10:02:03.298Z</time></trkpt><trkpt lat="41.3106466" lon="1.9751092"><ele>160.0</ele><time>2026-03-28T10:02:04.298Z</time></trkpt><trkpt lat="41.3107493" lon="1.9750475"><ele>162.5</ele><time>2026-03-28T10:02:05.298Z</time></trkpt><trkpt lat="41.3108469" lon="1.9749577"><ele>165.0</ele><time>2026-03-28T10:02:06.298Z</time></trkpt><trkpt lat="41.3109297" lon="1.9748345"><ele>165.0</ele><time>2026-03-28T10:02:07.298Z</time></trkpt><trkpt lat="41.3109954" lon="1.974695"><ele>165.0</ele><time>2026-03-28T10:02:08.297Z</time></trkpt><trkpt lat="41.3110462" lon="1.9745249"><ele>165.0</ele><time>2026-03-28T10:02:09.297Z</time></trkpt><trkpt lat="41.311082" lon="1.9743592"><ele>165.0</ele><time>2026-03-28T10:02:10.298Z</time></trkpt><trkpt lat="41.3111054" lon="1.9742173"><ele>163.16666666666666</ele><time>2026-03-28T10:02:11.298Z</time></trkpt><trkpt lat="41.311121" lon="1.9741074"><ele>161.33333333333334</ele><time>2026-03-28T10:02:12.297Z</time></trkpt><trkpt lat="41.3111334" lon="1.9740101"><ele>159.5</ele><time>2026-03-28T10:02:13.298Z</time></trkpt><trkpt lat="41.3111524" lon="1.9739155"><ele>157.66666666666669</ele><time>2026-03-28T10:02:14.298Z</time></trkpt><trkpt lat="41.3111668" lon="1.9738077"><ele>155.83333333333334</ele><time>2026-03-28T10:02:15.298Z</time></trkpt><trkpt lat="41.3111848" lon="1.9736957"><ele>154.0</ele><time>2026-03-28T10:02:16.298Z</time></trkpt><trkpt lat="41.3112023" lon="1.9735795"><ele>154.0</ele><time>2026-03-28T10:02:17.298Z</time></trkpt><trkpt lat="41.3112208" lon="1.9734642"><ele>154.0</ele><time>2026-03-28T10:02:18.298Z</time></trkpt><trkpt lat="41.3112441" lon="1.9733527"><ele>154.0</ele><time>2026-03-28T10:02:19.298Z</time></trkpt><trkpt lat="41.3112681" lon="1.9732432"><ele>154.0</ele><time>2026-03-28T10:02:20.298Z</time></trkpt><trkpt lat="41.3112965" lon="1.9731384"><ele>154.0</ele><time>2026-03-28T10:02:21.298Z</time></trkpt><trkpt lat="41.3113325" lon="1.9730361"><ele>154.0</ele><time>2026-03-28T10:02:22.297Z</time></trkpt><trkpt lat="41.3113907" lon="1.9729504"><ele>159.0</ele><time>2026-03-28T10:02:23.298Z</time></trkpt><trkpt lat="41.3114702" lon="1.9728904"><ele>164.0</ele><time>2026-03-28T10:02:24.298Z</time></trkpt><trkpt lat="41.3115613" lon="1.9728451"><ele>169.0</ele><time>2026-03-28T10:02:25.298Z</time></trkpt><trkpt lat="41.3116476" lon="1.9727956"><ele>174.0</ele><time>2026-03-28T10:02:26.297Z</time></trkpt><trkpt lat="41.3117289" lon="1.97272"><ele>179.0</ele><time>2026-03-28T10:02:27.298Z</time></trkpt><trkpt lat="41.3117935" lon="1.9726196"><ele>176.75</ele><time>2026-03-28T10:02:28.298Z</time></trkpt><trkpt lat="41.3118443" lon="1.9724962"><ele>174.5</ele><time>2026-03-28T10:02:29.298Z</time></trkpt><trkpt lat="41.3118929" lon="1.97234"><ele>172.25</ele><time>2026-03-28T10:02:30.298Z</time></trkpt><trkpt lat="41.3119431" lon="1.9721843"><ele>170.0</ele><time>2026-03-28T10:02:31.298Z</time></trkpt><trkpt lat="41.3119938" lon="1.9720399"><ele>170.0</ele><time>2026-03-28T10:02:32.298Z</time></trkpt><trkpt lat="41.3120516" lon="1.9718959"><ele>170.0</ele><time>2026-03-28T10:02:33.298Z</time></trkpt><trkpt lat="41.3121083" lon="1.9717652"><ele>170.0</ele><time>2026-03-28T10:02:34.298Z</time></trkpt><trkpt lat="41.3121706" lon="1.9716305"><ele>170.0</ele><time>2026-03-28T10:02:35.298Z</time></trkpt><trkpt lat="41.3122392" lon="1.9714919"><ele>173.75</ele><time>2026-03-28T10:02:36.298Z</time></trkpt><trkpt lat="41.312307" lon="1.9713502"><ele>177.5</ele><time>2026-03-28T10:02:37.298Z</time></trkpt><trkpt lat="41.3123734" lon="1.9711985"><ele>181.25</ele><time>2026-03-28T10:02:38.298Z</time></trkpt><trkpt lat="41.3124417" lon="1.9710476"><ele>185.0</ele><time>2026-03-28T10:02:39.298Z</time></trkpt><trkpt lat="41.3125108" lon="1.9708962"><ele>185.0</ele><time>2026-03-28T10:02:40.298Z</time></trkpt><trkpt lat="41.3125812" lon="1.9707426"><ele>185.0</ele><time>2026-03-28T10:02:41.298Z</time></trkpt><trkpt lat="41.3126468" lon="1.970587"><ele>185.0</ele><time>2026-03-28T10:02:42.298Z</time></trkpt><trkpt lat="41.3127141" lon="1.9704274"><ele>185.0</ele><time>2026-03-28T10:02:43.298Z</time></trkpt><trkpt lat="41.3127808" lon="1.9702617"><ele>185.0</ele><time>2026-03-28T10:02:44.298Z</time></trkpt><trkpt lat="41.312846" lon="1.9700953"><ele>185.0</ele><time>2026-03-28T10:02:45.298Z</time></trkpt><trkpt lat="41.3129097" lon="1.969928"><ele>185.0</ele><time>2026-03-28T10:02:46.298Z</time></trkpt><trkpt lat="41.3129763" lon="1.9697666"><ele>185.0</ele><time>2026-03-28T10:02:47.298Z</time></trkpt><trkpt lat="41.3130374" lon="1.9696215"><ele>185.0</ele><time>2026-03-28T10:02:48.298Z</time></trkpt><trkpt lat="41.3130925" lon="1.9694769"><ele>185.0</ele><time>2026-03-28T10:02:49.298Z</time></trkpt><trkpt lat="41.3131524" lon="1.9693295"><ele>185.0</ele><time>2026-03-28T10:02:50.298Z</time></trkpt><trkpt lat="41.3132129" lon="1.969191"><ele>185.0</ele><time>2026-03-28T10:02:51.298Z</time></trkpt><trkpt lat="41.3132703" lon="1.9690483"><ele>186.8</ele><time>2026-03-28T10:02:52.298Z</time></trkpt><trkpt lat="41.3133267" lon="1.9689031"><ele>188.6</ele><time>2026-03-28T10:02:53.297Z</time></trkpt><trkpt lat="41.3133843" lon="1.9687642"><ele>190.39999999999998</ele><time>2026-03-28T10:02:54.298Z</time></trkpt><trkpt lat="41.3134344" lon="1.96864"><ele>192.2</ele><time>2026-03-28T10:02:55.298Z</time></trkpt><trkpt lat="41.3134809" lon="1.9685227"><ele>194.0</ele><time>2026-03-28T10:02:56.297Z</time></trkpt><trkpt lat="41.3135282" lon="1.9683993"><ele>195.79999999999998</ele><time>2026-03-28T10:02:57.298Z</time></trkpt><trkpt lat="41.3135743" lon="1.9682737"><ele>197.6</ele><time>2026-03-28T10:02:58.298Z</time></trkpt><trkpt lat="41.3136168" lon="1.9681468"><ele>199.4</ele><time>2026-03-28T10:02:59.297Z</time></trkpt><trkpt lat="41.3136388" lon="1.968024"><ele>201.2</ele><time>2026-03-28T10:03:00.298Z</time></trkpt><trkpt lat="41.3136515" lon="1.967904"><ele>203.0</ele><time>2026-03-28T10:03:01.298Z</time></trkpt><trkpt lat="41.3136623" lon="1.9677858"><ele>203.0</ele><time>2026-03-28T10:03:02.298Z</time></trkpt><trkpt lat="41.3136805" lon="1.967666"><ele>203.0</ele><time>2026-03-28T10:03:03.298Z</time></trkpt><trkpt lat="41.3136815" lon="1.9675353"><ele>203.0</ele><time>2026-03-28T10:03:04.298Z</time></trkpt><trkpt lat="41.3136753" lon="1.9673932"><ele>203.0</ele><time>2026-03-28T10:03:05.298Z</time></trkpt><trkpt lat="41.3136759" lon="1.9672583"><ele>203.0</ele><time>2026-03-28T10:03:06.298Z</time></trkpt><trkpt lat="41.3136845" lon="1.9671446"><ele>203.00000000000003</ele><time>2026-03-28T10:03:07.298Z</time></trkpt><trkpt lat="41.3136969" lon="1.9670473"><ele>203.0</ele><time>2026-03-28T10:03:08.298Z</time></trkpt><trkpt lat="41.3137256" lon="1.9669073"><ele>203.0</ele><time>2026-03-28T10:03:10.298Z</time></trkpt><trkpt lat="41.3137456" lon="1.9668241"><ele>203.0</ele><time>2026-03-28T10:03:12.298Z</time></trkpt><trkpt lat="41.3137904" lon="1.9666965"><ele>203.00000000000003</ele><time>2026-03-28T10:03:15.298Z</time></trkpt><trkpt lat="41.3138278" lon="1.9666054"><ele>203.0</ele><time>2026-03-28T10:03:17.297Z</time></trkpt><trkpt lat="41.3138719" lon="1.9665169"><ele>208.4</ele><time>2026-03-28T10:03:19.298Z</time></trkpt><trkpt lat="41.3139304" lon="1.9664271"><ele>213.8</ele><time>2026-03-28T10:03:21.298Z</time></trkpt><trkpt lat="41.3139924" lon="1.9663262"><ele>219.2</ele><time>2026-03-28T10:03:23.298Z</time></trkpt><trkpt lat="41.3140598" lon="1.9662268"><ele>224.6</ele><time>2026-03-28T10:03:25.297Z</time></trkpt><trkpt lat="41.314128" lon="1.966125"><ele>230.0</ele><time>2026-03-28T10:03:27.298Z</time></trkpt><trkpt lat="41.3142103" lon="1.9660131"><ele>230.00000000000003</ele><time>2026-03-28T10:03:29.298Z</time></trkpt><trkpt lat="41.3142949" lon="1.9658921"><ele>230.0</ele><time>2026-03-28T10:03:31.297Z</time></trkpt><trkpt lat="41.314345" lon="1.9658225"><ele>230.0</ele><time>2026-03-28T10:03:32.298Z</time></trkpt><trkpt lat="41.3143914" lon="1.9657508"><ele>230.0</ele><time>2026-03-28T10:03:33.298Z</time></trkpt><trkpt lat="41.3144386" lon="1.9656724"><ele>230.00000000000003</ele><time>2026-03-28T10:03:34.298Z</time></trkpt><trkpt lat="41.3144838" lon="1.965595"><ele>230.0</ele><time>2026-03-28T10:03:35.298Z</time></trkpt><trkpt lat="41.3145259" lon="1.9655249"><ele>228.33333333333334</ele><time>2026-03-28T10:03:36.298Z</time></trkpt><trkpt lat="41.3145734" lon="1.9654504"><ele>226.66666666666669</ele><time>2026-03-28T10:03:37.298Z</time></trkpt><trkpt lat="41.3146223" lon="1.9653666"><ele>225.0</ele><time>2026-03-28T10:03:38.298Z</time></trkpt><trkpt lat="41.3146621" lon="1.9652702"><ele>223.33333333333331</ele><time>2026-03-28T10:03:39.298Z</time></trkpt><trkpt lat="41.3146849" lon="1.9651613"><ele>221.66666666666666</ele><time>2026-03-28T10:03:40.298Z</time></trkpt><trkpt lat="41.3146909" lon="1.965049"><ele>220.0</ele><time>2026-03-28T10:03:41.298Z</time></trkpt><trkpt lat="41.3146862" lon="1.9649324"><ele>218.0</ele><time>2026-03-28T10:03:42.298Z</time></trkpt><trkpt lat="41.3146689" lon="1.9648166"><ele>216.0</ele><time>2026-03-28T10:03:43.298Z</time></trkpt><trkpt lat="41.314648" lon="1.9646914"><ele>214.0</ele><time>2026-03-28T10:03:44.298Z</time></trkpt><trkpt lat="41.3146482" lon="1.9645412"><ele>212.0</ele><time>2026-03-28T10:03:45.298Z</time></trkpt><trkpt lat="41.3146653" lon="1.9643667"><ele>210.0</ele><time>2026-03-28T10:03:46.298Z</time></trkpt><trkpt lat="41.3146937" lon="1.9641926"><ele>209.0</ele><time>2026-03-28T10:03:47.298Z</time></trkpt><trkpt lat="41.3147266" lon="1.9640143"><ele>208.0</ele><time>2026-03-28T10:03:48.298Z</time></trkpt><trkpt lat="41.3147598" lon="1.9638531"><ele>207.0</ele><time>2026-03-28T10:03:49.298Z</time></trkpt><trkpt lat="41.3147879" lon="1.9636965"><ele>206.0</ele><time>2026-03-28T10:03:50.298Z</time></trkpt><trkpt lat="41.3148024" lon="1.9635472"><ele>214.20000000000002</ele><time>2026-03-28T10:03:51.298Z</time></trkpt><trkpt lat="41.3148079" lon="1.9634121"><ele>222.4</ele><time>2026-03-28T10:03:52.298Z</time></trkpt><trkpt lat="41.3148014" lon="1.9632903"><ele>230.6</ele><time>2026-03-28T10:03:53.298Z</time></trkpt><trkpt lat="41.3147843" lon="1.9631712"><ele>238.8</ele><time>2026-03-28T10:03:54.298Z</time></trkpt><trkpt lat="41.3147627" lon="1.9630433"><ele>247.0</ele><time>2026-03-28T10:03:55.298Z</time></trkpt><trkpt lat="41.3147478" lon="1.9629048"><ele>247.0</ele><time>2026-03-28T10:03:56.298Z</time></trkpt><trkpt lat="41.3147408" lon="1.9627592"><ele>247.0</ele><time>2026-03-28T10:03:57.297Z</time></trkpt><trkpt lat="41.3147431" lon="1.9626119"><ele>247.0</ele><time>2026-03-28T10:03:58.298Z</time></trkpt><trkpt lat="41.31475" lon="1.9624664"><ele>247.0</ele><time>2026-03-28T10:03:59.298Z</time></trkpt><trkpt lat="41.3147565" lon="1.9623232"><ele>247.0</ele><time>2026-03-28T10:04:00.298Z</time></trkpt><trkpt lat="41.3147691" lon="1.9621758"><ele>246.75</ele><time>2026-03-28T10:04:01.298Z</time></trkpt><trkpt lat="41.314773" lon="1.9620169"><ele>246.5</ele><time>2026-03-28T10:04:02.298Z</time></trkpt><trkpt lat="41.3147792" lon="1.9618574"><ele>246.25</ele><time>2026-03-28T10:04:03.298Z</time></trkpt><trkpt lat="41.3147865" lon="1.9616952"><ele>246.0</ele><time>2026-03-28T10:04:04.298Z</time></trkpt><trkpt lat="41.3147973" lon="1.9615311"><ele>245.75</ele><time>2026-03-28T10:04:05.298Z</time></trkpt><trkpt lat="41.3148086" lon="1.9613508"><ele>245.5</ele><time>2026-03-28T10:04:06.298Z</time></trkpt><trkpt lat="41.3148181" lon="1.9611673"><ele>245.25</ele><time>2026-03-28T10:04:07.298Z</time></trkpt><trkpt lat="41.3148428" lon="1.9609804"><ele>245.0</ele><time>2026-03-28T10:04:08.298Z</time></trkpt><trkpt lat="41.3148958" lon="1.960784"><ele>245.0</ele><time>2026-03-28T10:04:09.298Z</time></trkpt><trkpt lat="41.3149818" lon="1.960575"><ele>245.0</ele><time>2026-03-28T10:04:10.298Z</time></trkpt><trkpt lat="41.3150596" lon="1.9603745"><ele>245.0</ele><time>2026-03-28T10:04:11.298Z</time></trkpt><trkpt lat="41.3151156" lon="1.9601786"><ele>248.25</ele><time>2026-03-28T10:04:12.298Z</time></trkpt><trkpt lat="41.3151784" lon="1.9600025"><ele>251.5</ele><time>2026-03-28T10:04:13.298Z</time></trkpt><trkpt lat="41.3152676" lon="1.9598554"><ele>254.75</ele><time>2026-03-28T10:04:14.298Z</time></trkpt><trkpt lat="41.3153625" lon="1.9597441"><ele>258.0</ele><time>2026-03-28T10:04:15.298Z</time></trkpt><trkpt lat="41.3154754" lon="1.9597015"><ele>258.0</ele><time>2026-03-28T10:04:16.298Z</time></trkpt><trkpt lat="41.3155691" lon="1.9596585"><ele>258.0</ele><time>2026-03-28T10:04:17.298Z</time></trkpt><trkpt lat="41.3156462" lon="1.9596004"><ele>258.0</ele><time>2026-03-28T10:04:18.297Z</time></trkpt><trkpt lat="41.315696" lon="1.9595272"><ele>258.0</ele><time>2026-03-28T10:04:19.298Z</time></trkpt><trkpt lat="41.3157273" lon="1.9594383"><ele>258.0</ele><time>2026-03-28T10:04:20.298Z</time></trkpt><trkpt lat="41.3157505" lon="1.9593274"><ele>258.0</ele><time>2026-03-28T10:04:21.298Z</time></trkpt><trkpt lat="41.3157614" lon="1.9592074"><ele>257.4</ele><time>2026-03-28T10:04:22.298Z</time></trkpt><trkpt lat="41.3157788" lon="1.9590821"><ele>256.8</ele><time>2026-03-28T10:04:23.298Z</time></trkpt><trkpt lat="41.3157986" lon="1.9589547"><ele>256.2</ele><time>2026-03-28T10:04:24.298Z</time></trkpt><trkpt lat="41.315814" lon="1.9588228"><ele>255.6</ele><time>2026-03-28T10:04:25.298Z</time></trkpt><trkpt lat="41.3158301" lon="1.9586944"><ele>255.0</ele><time>2026-03-28T10:04:26.298Z</time></trkpt><trkpt lat="41.3158459" lon="1.958571"><ele>255.0</ele><time>2026-03-28T10:04:27.298Z</time></trkpt><trkpt lat="41.3158496" lon="1.9584457"><ele>255.0</ele><time>2026-03-28T10:04:28.298Z</time></trkpt><trkpt lat="41.315836" lon="1.9583295"><ele>255.0</ele><time>2026-03-28T10:04:29.298Z</time></trkpt><trkpt lat="41.3157954" lon="1.958205"><ele>255.0</ele><time>2026-03-28T10:04:30.298Z</time></trkpt><trkpt lat="41.3157363" lon="1.9580887"><ele>255.0</ele><time>2026-03-28T10:04:31.298Z</time></trkpt><trkpt lat="41.3156835" lon="1.9579684"><ele>256.0</ele><time>2026-03-28T10:04:32.298Z</time></trkpt><trkpt lat="41.3156465" lon="1.9578303"><ele>257.0</ele><time>2026-03-28T10:04:33.298Z</time></trkpt><trkpt lat="41.315629" lon="1.9576822"><ele>258.0</ele><time>2026-03-28T10:04:34.298Z</time></trkpt><trkpt lat="41.3156413" lon="1.957527"><ele>259.0</ele><time>2026-03-28T10:04:35.298Z</time></trkpt><trkpt lat="41.3156832" lon="1.9573727"><ele>260.0</ele><time>2026-03-28T10:04:36.298Z</time></trkpt><trkpt lat="41.3157455" lon="1.9572264"><ele>261.0</ele><time>2026-03-28T10:04:37.298Z</time></trkpt><trkpt lat="41.315811" lon="1.9570948"><ele>262.0</ele><time>2026-03-28T10:04:38.297Z</time></trkpt><trkpt lat="41.3158765" lon="1.9569655"><ele>263.0</ele><time>2026-03-28T10:04:39.298Z</time></trkpt><trkpt lat="41.3159416" lon="1.9568317"><ele>263.0</ele><time>2026-03-28T10:04:40.298Z</time></trkpt><trkpt lat="41.3160026" lon="1.9567049"><ele>263.0</ele><time>2026-03-28T10:04:41.298Z</time></trkpt><trkpt lat="41.3160613" lon="1.9565899"><ele>263.0</ele><time>2026-03-28T10:04:42.298Z</time></trkpt><trkpt lat="41.3161212" lon="1.9564721"><ele>263.0</ele><time>2026-03-28T10:04:43.298Z</time></trkpt><trkpt lat="41.3161828" lon="1.9563505"><ele>263.0</ele><time>2026-03-28T10:04:44.298Z</time></trkpt><trkpt lat="41.3162366" lon="1.9562272"><ele>267.0</ele><time>2026-03-28T10:04:45.298Z</time></trkpt><trkpt lat="41.3162846" lon="1.956092"><ele>271.0</ele><time>2026-03-28T10:04:46.298Z</time></trkpt><trkpt lat="41.3163233" lon="1.9559453"><ele>275.0</ele><time>2026-03-28T10:04:47.298Z</time></trkpt><trkpt lat="41.3163578" lon="1.9558021"><ele>279.0</ele><time>2026-03-28T10:04:48.298Z</time></trkpt><trkpt lat="41.3163931" lon="1.9556607"><ele>280.3333333333333</ele><time>2026-03-28T10:04:49.298Z</time></trkpt><trkpt lat="41.3164314" lon="1.9555303"><ele>281.6666666666667</ele><time>2026-03-28T10:04:50.298Z</time></trkpt><trkpt lat="41.3164743" lon="1.9554051"><ele>283.0</ele><time>2026-03-28T10:04:51.298Z</time></trkpt><trkpt lat="41.3165165" lon="1.9552986"><ele>284.33333333333337</ele><time>2026-03-28T10:04:52.298Z</time></trkpt><trkpt lat="41.3165545" lon="1.9552106"><ele>285.6666666666667</ele><time>2026-03-28T10:04:53.298Z</time></trkpt><trkpt lat="41.3165841" lon="1.9551342"><ele>287.0</ele><time>2026-03-28T10:04:54.298Z</time></trkpt><trkpt lat="41.3166377" lon="1.9550075"><ele>287.0</ele><time>2026-03-28T10:04:56.297Z</time></trkpt><trkpt lat="41.3166972" lon="1.9549211"><ele>287.0</ele><time>2026-03-28T10:04:58.298Z</time></trkpt><trkpt lat="41.3168155" lon="1.9548877"><ele>287.0</ele><time>2026-03-28T10:05:00.298Z</time></trkpt><trkpt lat="41.3168842" lon="1.9549283"><ele>287.0</ele><time>2026-03-28T10:05:01.298Z</time></trkpt><trkpt lat="41.3169388" lon="1.9549978"><ele>287.0</ele><time>2026-03-28T10:05:02.298Z</time></trkpt><trkpt lat="41.3169973" lon="1.9550819"><ele>287.0</ele><time>2026-03-28T10:05:03.297Z</time></trkpt><trkpt lat="41.3170526" lon="1.9551713"><ele>286.0</ele><time>2026-03-28T10:05:04.298Z</time></trkpt><trkpt lat="41.3171047" lon="1.9552586"><ele>285.0</ele><time>2026-03-28T10:05:05.298Z</time></trkpt><trkpt lat="41.3171584" lon="1.9553332"><ele>284.0</ele><time>2026-03-28T10:05:06.297Z</time></trkpt><trkpt lat="41.3172151" lon="1.9553966"><ele>283.0</ele><time>2026-03-28T10:05:07.297Z</time></trkpt><trkpt lat="41.3172743" lon="1.9554499"><ele>282.0</ele><time>2026-03-28T10:05:08.298Z</time></trkpt><trkpt lat="41.317352" lon="1.9555129"><ele>281.0</ele><time>2026-03-28T10:05:09.298Z</time></trkpt><trkpt lat="41.3174217" lon="1.9555793"><ele>281.0</ele><time>2026-03-28T10:05:10.298Z</time></trkpt><trkpt lat="41.3174899" lon="1.9556552"><ele>281.0</ele><time>2026-03-28T10:05:11.298Z</time></trkpt><trkpt lat="41.3175547" lon="1.9557409"><ele>281.0</ele><time>2026-03-28T10:05:12.298Z</time></trkpt><trkpt lat="41.3176169" lon="1.9558314"><ele>281.0</ele><time>2026-03-28T10:05:13.298Z</time></trkpt><trkpt lat="41.3176732" lon="1.9559258"><ele>281.0</ele><time>2026-03-28T10:05:14.297Z</time></trkpt><trkpt lat="41.3177235" lon="1.9560233"><ele>278.28571428571433</ele><time>2026-03-28T10:05:15.298Z</time></trkpt><trkpt lat="41.3177667" lon="1.9561147"><ele>275.57142857142856</ele><time>2026-03-28T10:05:16.298Z</time></trkpt><trkpt lat="41.3178071" lon="1.9561954"><ele>272.8571428571429</ele><time>2026-03-28T10:05:17.298Z</time></trkpt><trkpt lat="41.3178508" lon="1.9562654"><ele>270.14285714285717</ele><time>2026-03-28T10:05:18.298Z</time></trkpt><trkpt lat="41.3178975" lon="1.9563272"><ele>267.42857142857144</ele><time>2026-03-28T10:05:19.298Z</time></trkpt><trkpt lat="41.3179488" lon="1.9563863"><ele>264.7142857142857</ele><time>2026-03-28T10:05:20.298Z</time></trkpt><trkpt lat="41.3180014" lon="1.9564437"><ele>262.0</ele><time>2026-03-28T10:05:21.297Z</time></trkpt><trkpt lat="41.3180522" lon="1.9564997"><ele>263.7142857142857</ele><time>2026-03-28T10:05:22.298Z</time></trkpt><trkpt lat="41.3181017" lon="1.9565604"><ele>265.42857142857144</ele><time>2026-03-28T10:05:23.298Z</time></trkpt><trkpt lat="41.3181462" lon="1.9566261"><ele>267.14285714285717</ele><time>2026-03-28T10:05:24.298Z</time></trkpt><trkpt lat="41.3181884" lon="1.9566933"><ele>268.8571428571429</ele><time>2026-03-28T10:05:25.297Z</time></trkpt><trkpt lat="41.3182324" lon="1.9567616"><ele>270.57142857142856</ele><time>2026-03-28T10:05:26.298Z</time></trkpt><trkpt lat="41.3182762" lon="1.956831"><ele>272.28571428571433</ele><time>2026-03-28T10:05:27.297Z</time></trkpt><trkpt lat="41.3183168" lon="1.9569118"><ele>274.0</ele><time>2026-03-28T10:05:28.298Z</time></trkpt><trkpt lat="41.318359" lon="1.9569926"><ele>274.0</ele><time>2026-03-28T10:05:29.298Z</time></trkpt><trkpt lat="41.3183923" lon="1.9570774"><ele>274.0</ele><time>2026-03-28T10:05:30.298Z</time></trkpt><trkpt lat="41.3184203" lon="1.9571623"><ele>274.0</ele><time>2026-03-28T10:05:31.298Z</time></trkpt><trkpt lat="41.3184439" lon="1.9572482"><ele>274.0</ele><time>2026-03-28T10:05:32.298Z</time></trkpt><trkpt lat="41.3184683" lon="1.9573324"><ele>274.0</ele><time>2026-03-28T10:05:33.298Z</time></trkpt><trkpt lat="41.3184927" lon="1.9574117"><ele>274.0</ele><time>2026-03-28T10:05:34.298Z</time></trkpt><trkpt lat="41.3185414" lon="1.9575568"><ele>273.8</ele><time>2026-03-28T10:05:36.298Z</time></trkpt><trkpt lat="41.3185948" lon="1.9576816"><ele>273.59999999999997</ele><time>2026-03-28T10:05:38.298Z</time></trkpt><trkpt lat="41.3186569" lon="1.9577873"><ele>273.4</ele><time>2026-03-28T10:05:40.298Z</time></trkpt><trkpt lat="41.3187208" lon="1.9578775"><ele>273.2</ele><time>2026-03-28T10:05:42.298Z</time></trkpt><trkpt lat="41.3188093" lon="1.9579399"><ele>273.0</ele><time>2026-03-28T10:05:44.298Z</time></trkpt><trkpt lat="41.3189172" lon="1.9579343"><ele>273.0</ele><time>2026-03-28T10:05:46.298Z</time></trkpt><trkpt lat="41.3189712" lon="1.9578898"><ele>273.0</ele><time>2026-03-28T10:05:47.298Z</time></trkpt><trkpt lat="41.3190169" lon="1.9578221"><ele>273.0</ele><time>2026-03-28T10:05:48.298Z</time></trkpt><trkpt lat="41.3190496" lon="1.9577401"><ele>273.0</ele><time>2026-03-28T10:05:49.298Z</time></trkpt><trkpt lat="41.3190659" lon="1.9576503"><ele>273.0</ele><time>2026-03-28T10:05:50.297Z</time></trkpt><trkpt lat="41.3190741" lon="1.9575599"><ele>273.0</ele><time>2026-03-28T10:05:51.298Z</time></trkpt><trkpt lat="41.3190761" lon="1.9574679"><ele>273.0</ele><time>2026-03-28T10:05:52.298Z</time></trkpt><trkpt lat="41.3190775" lon="1.9573831"><ele>274.1666666666667</ele><time>2026-03-28T10:05:53.298Z</time></trkpt><trkpt lat="41.3190918" lon="1.9572411"><ele>275.3333333333333</ele><time>2026-03-28T10:05:55.298Z</time></trkpt><trkpt lat="41.3191212" lon="1.9571291"><ele>276.5</ele><time>2026-03-28T10:05:57.298Z</time></trkpt><trkpt lat="41.3191553" lon="1.9570369"><ele>277.66666666666663</ele><time>2026-03-28T10:05:59.298Z</time></trkpt><trkpt lat="41.3192005" lon="1.9569538"><ele>278.8333333333333</ele><time>2026-03-28T10:06:01.298Z</time></trkpt><trkpt lat="41.3192557" lon="1.9568726"><ele>280.0</ele><time>2026-03-28T10:06:03.298Z</time></trkpt><trkpt lat="41.3193303" lon="1.9567783"><ele>282.4</ele><time>2026-03-28T10:06:05.298Z</time></trkpt><trkpt lat="41.319411" lon="1.9566613"><ele>284.8</ele><time>2026-03-28T10:06:07.298Z</time></trkpt><trkpt lat="41.3194697" lon="1.9565125"><ele>287.2</ele><time>2026-03-28T10:06:09.298Z</time></trkpt><trkpt lat="41.3194865" lon="1.9563483"><ele>289.6</ele><time>2026-03-28T10:06:11.298Z</time></trkpt><trkpt lat="41.3194837" lon="1.9562641"><ele>292.0</ele><time>2026-03-28T10:06:12.298Z</time></trkpt><trkpt lat="41.319475" lon="1.9561793"><ele>292.0</ele><time>2026-03-28T10:06:13.298Z</time></trkpt><trkpt lat="41.3194406" lon="1.9560227"><ele>292.0</ele><time>2026-03-28T10:06:15.298Z</time></trkpt><trkpt lat="41.3194145" lon="1.9559457"><ele>292.0</ele><time>2026-03-28T10:06:16.298Z</time></trkpt><trkpt lat="41.3193837" lon="1.9558705"><ele>292.0</ele><time>2026-03-28T10:06:17.298Z</time></trkpt><trkpt lat="41.3193514" lon="1.9557924"><ele>292.0</ele><time>2026-03-28T10:06:18.298Z</time></trkpt><trkpt lat="41.3193181" lon="1.9557131"><ele>292.0</ele><time>2026-03-28T10:06:19.298Z</time></trkpt><trkpt lat="41.319287" lon="1.9556381"><ele>293.0</ele><time>2026-03-28T10:06:20.298Z</time></trkpt><trkpt lat="41.3192545" lon="1.955564"><ele>294.0</ele><time>2026-03-28T10:06:21.298Z</time></trkpt><trkpt lat="41.3192053" lon="1.9554194"><ele>295.0</ele><time>2026-03-28T10:06:23.298Z</time></trkpt><trkpt lat="41.3191995" lon="1.9552368"><ele>296.0</ele><time>2026-03-28T10:06:26.296Z</time></trkpt><trkpt lat="41.3192119" lon="1.955154"><ele>297.0</ele><time>2026-03-28T10:06:28.297Z</time></trkpt><trkpt lat="41.3192418" lon="1.9550362"><ele>297.2</ele><time>2026-03-28T10:06:30.301Z</time></trkpt><trkpt lat="41.3192726" lon="1.954904"><ele>297.4</ele><time>2026-03-28T10:06:32.297Z</time></trkpt><trkpt lat="41.3192957" lon="1.9547537"><ele>297.6</ele><time>2026-03-28T10:06:34.297Z</time></trkpt><trkpt lat="41.3192867" lon="1.9545762"><ele>297.8</ele><time>2026-03-28T10:06:36.297Z</time></trkpt><trkpt lat="41.3192702" lon="1.954487"><ele>298.0</ele><time>2026-03-28T10:06:37.296Z</time></trkpt><trkpt lat="41.3192542" lon="1.9543986"><ele>298.0</ele><time>2026-03-28T10:06:38.296Z</time></trkpt><trkpt lat="41.3192454" lon="1.9543042"><ele>298.0</ele><time>2026-03-28T10:06:39.297Z</time></trkpt><trkpt lat="41.3192416" lon="1.9542029"><ele>298.0</ele><time>2026-03-28T10:06:40.297Z</time></trkpt><trkpt lat="41.3192452" lon="1.954099"><ele>298.0</ele><time>2026-03-28T10:06:41.297Z</time></trkpt><trkpt lat="41.3192555" lon="1.9539991"><ele>298.0</ele><time>2026-03-28T10:06:42.297Z</time></trkpt><trkpt lat="41.3192709" lon="1.9538939"><ele>298.0</ele><time>2026-03-28T10:06:43.297Z</time></trkpt><trkpt lat="41.3192932" lon="1.9537814"><ele>299.66666666666663</ele><time>2026-03-28T10:06:44.297Z</time></trkpt><trkpt lat="41.319314" lon="1.9536726"><ele>301.3333333333333</ele><time>2026-03-28T10:06:45.297Z</time></trkpt><trkpt lat="41.3193354" lon="1.9535665"><ele>303.0</ele><time>2026-03-28T10:06:46.297Z</time></trkpt><trkpt lat="41.3193602" lon="1.9534604"><ele>304.6666666666667</ele><time>2026-03-28T10:06:47.297Z</time></trkpt><trkpt lat="41.3193828" lon="1.9533593"><ele>306.33333333333337</ele><time>2026-03-28T10:06:48.297Z</time></trkpt><trkpt lat="41.3194069" lon="1.9532637"><ele>308.0</ele><time>2026-03-28T10:06:49.297Z</time></trkpt><trkpt lat="41.3194415" lon="1.953179"><ele>306.5</ele><time>2026-03-28T10:06:50.297Z</time></trkpt><trkpt lat="41.319484" lon="1.9531137"><ele>305.0</ele><time>2026-03-28T10:06:51.297Z</time></trkpt><trkpt lat="41.3195398" lon="1.9530672"><ele>303.5</ele><time>2026-03-28T10:06:52.297Z</time></trkpt><trkpt lat="41.3196134" lon="1.95304"><ele>302.0</ele><time>2026-03-28T10:06:53.297Z</time></trkpt><trkpt lat="41.3196919" lon="1.9530352"><ele>300.5</ele><time>2026-03-28T10:06:54.297Z</time></trkpt><trkpt lat="41.3197772" lon="1.9530581"><ele>299.0</ele><time>2026-03-28T10:06:55.297Z</time></trkpt><trkpt lat="41.3198592" lon="1.9531157"><ele>299.0</ele><time>2026-03-28T10:06:56.297Z</time></trkpt><trkpt lat="41.319938" lon="1.9532046"><ele>299.0</ele><time>2026-03-28T10:06:57.297Z</time></trkpt><trkpt lat="41.3200135" lon="1.9533093"><ele>299.0</ele><time>2026-03-28T10:06:58.297Z</time></trkpt><trkpt lat="41.3200968" lon="1.9534012"><ele>299.0</ele><time>2026-03-28T10:06:59.297Z</time></trkpt><trkpt lat="41.3201922" lon="1.9534704"><ele>299.0</ele><time>2026-03-28T10:07:00.297Z</time></trkpt><trkpt lat="41.3202933" lon="1.953504"><ele>295.8</ele><time>2026-03-28T10:07:01.296Z</time></trkpt><trkpt lat="41.320397" lon="1.9535229"><ele>292.59999999999997</ele><time>2026-03-28T10:07:02.297Z</time></trkpt><trkpt lat="41.320507" lon="1.9535389"><ele>289.4</ele><time>2026-03-28T10:07:03.297Z</time></trkpt><trkpt lat="41.3206175" lon="1.9535515"><ele>286.2</ele><time>2026-03-28T10:07:04.297Z</time></trkpt><trkpt lat="41.3207199" lon="1.9535592"><ele>283.0</ele><time>2026-03-28T10:07:05.297Z</time></trkpt><trkpt lat="41.3208161" lon="1.9535545"><ele>283.0</ele><time>2026-03-28T10:07:06.297Z</time></trkpt><trkpt lat="41.3209096" lon="1.9535233"><ele>283.0</ele><time>2026-03-28T10:07:07.297Z</time></trkpt><trkpt lat="41.3209899" lon="1.9534647"><ele>283.0</ele><time>2026-03-28T10:07:08.296Z</time></trkpt><trkpt lat="41.3210551" lon="1.9533684"><ele>283.0</ele><time>2026-03-28T10:07:09.297Z</time></trkpt><trkpt lat="41.3211094" lon="1.9532455"><ele>283.0</ele><time>2026-03-28T10:07:10.297Z</time></trkpt><trkpt lat="41.3211555" lon="1.9531189"><ele>284.66666666666663</ele><time>2026-03-28T10:07:11.297Z</time></trkpt><trkpt lat="41.3211999" lon="1.953002"><ele>286.3333333333333</ele><time>2026-03-28T10:07:12.297Z</time></trkpt><trkpt lat="41.3212413" lon="1.9528909"><ele>288.0</ele><time>2026-03-28T10:07:13.297Z</time></trkpt><trkpt lat="41.32129" lon="1.952788"><ele>289.6666666666667</ele><time>2026-03-28T10:07:14.297Z</time></trkpt><trkpt lat="41.3213449" lon="1.9527066"><ele>291.33333333333337</ele><time>2026-03-28T10:07:15.297Z</time></trkpt><trkpt lat="41.3214066" lon="1.9526319"><ele>293.0</ele><time>2026-03-28T10:07:16.297Z</time></trkpt><trkpt lat="41.3214768" lon="1.9525643"><ele>296.1666666666667</ele><time>2026-03-28T10:07:17.297Z</time></trkpt><trkpt lat="41.3215438" lon="1.952496"><ele>299.33333333333337</ele><time>2026-03-28T10:07:18.297Z</time></trkpt><trkpt lat="41.3216066" lon="1.9524259"><ele>302.5</ele><time>2026-03-28T10:07:19.297Z</time></trkpt><trkpt lat="41.3216641" lon="1.9523465"><ele>305.6666666666667</ele><time>2026-03-28T10:07:20.297Z</time></trkpt><trkpt lat="41.3217171" lon="1.9522594"><ele>308.8333333333333</ele><time>2026-03-28T10:07:21.297Z</time></trkpt><trkpt lat="41.3217563" lon="1.9521605"><ele>312.0</ele><time>2026-03-28T10:07:22.297Z</time></trkpt><trkpt lat="41.3217764" lon="1.9520503"><ele>312.0</ele><time>2026-03-28T10:07:23.297Z</time></trkpt><trkpt lat="41.3217744" lon="1.9519383"><ele>312.0</ele><time>2026-03-28T10:07:24.297Z</time></trkpt><trkpt lat="41.3217566" lon="1.9518383"><ele>312.0</ele><time>2026-03-28T10:07:25.297Z</time></trkpt><trkpt lat="41.3217377" lon="1.9517421"><ele>312.0</ele><time>2026-03-28T10:07:26.297Z</time></trkpt><trkpt lat="41.3217263" lon="1.9516368"><ele>312.0</ele><time>2026-03-28T10:07:27.297Z</time></trkpt><trkpt lat="41.321731" lon="1.9515346"><ele>312.0</ele><time>2026-03-28T10:07:28.297Z</time></trkpt><trkpt lat="41.3217515" lon="1.951442"><ele>315.1666666666667</ele><time>2026-03-28T10:07:29.297Z</time></trkpt><trkpt lat="41.3217827" lon="1.9513542"><ele>318.3333333333333</ele><time>2026-03-28T10:07:30.297Z</time></trkpt><trkpt lat="41.3218293" lon="1.9512604"><ele>321.5</ele><time>2026-03-28T10:07:31.297Z</time></trkpt><trkpt lat="41.3218916" lon="1.9511734"><ele>324.66666666666663</ele><time>2026-03-28T10:07:32.297Z</time></trkpt><trkpt lat="41.3219632" lon="1.9510986"><ele>327.8333333333333</ele><time>2026-03-28T10:07:33.297Z</time></trkpt><trkpt lat="41.3220484" lon="1.9510367"><ele>331.0</ele><time>2026-03-28T10:07:34.297Z</time></trkpt><trkpt lat="41.3221527" lon="1.9509985"><ele>323.75</ele><time>2026-03-28T10:07:35.297Z</time></trkpt><trkpt lat="41.3222721" lon="1.9509766"><ele>316.5</ele><time>2026-03-28T10:07:36.297Z</time></trkpt><trkpt lat="41.3223928" lon="1.9509605"><ele>309.25</ele><time>2026-03-28T10:07:37.297Z</time></trkpt><trkpt lat="41.3225122" lon="1.9509412"><ele>302.0</ele><time>2026-03-28T10:07:38.296Z</time></trkpt><trkpt lat="41.3226267" lon="1.9509128"><ele>302.0</ele><time>2026-03-28T10:07:39.297Z</time></trkpt><trkpt lat="41.3227406" lon="1.9508754"><ele>302.0</ele><time>2026-03-28T10:07:40.297Z</time></trkpt><trkpt lat="41.3228577" lon="1.9508351"><ele>302.0</ele><time>2026-03-28T10:07:41.297Z</time></trkpt><trkpt lat="41.3229649" lon="1.9507932"><ele>302.0</ele><time>2026-03-28T10:07:42.297Z</time></trkpt><trkpt lat="41.3230612" lon="1.9507476"><ele>307.0</ele><time>2026-03-28T10:07:43.297Z</time></trkpt><trkpt lat="41.3231494" lon="1.9506953"><ele>312.0</ele><time>2026-03-28T10:07:44.297Z</time></trkpt><trkpt lat="41.3232285" lon="1.9506441"><ele>317.0</ele><time>2026-03-28T10:07:45.296Z</time></trkpt><trkpt lat="41.3233144" lon="1.9505887"><ele>322.0</ele><time>2026-03-28T10:07:46.297Z</time></trkpt><trkpt lat="41.3234069" lon="1.9505308"><ele>327.0</ele><time>2026-03-28T10:07:47.297Z</time></trkpt><trkpt lat="41.3235089" lon="1.9504731"><ele>327.0</ele><time>2026-03-28T10:07:48.297Z</time></trkpt><trkpt lat="41.3236176" lon="1.950438"><ele>327.0</ele><time>2026-03-28T10:07:49.297Z</time></trkpt><trkpt lat="41.3237219" lon="1.9504178"><ele>327.0</ele><time>2026-03-28T10:07:50.297Z</time></trkpt><trkpt lat="41.3238384" lon="1.9504066"><ele>327.0</ele><time>2026-03-28T10:07:51.297Z</time></trkpt><trkpt lat="41.3239645" lon="1.950398"><ele>327.0</ele><time>2026-03-28T10:07:52.297Z</time></trkpt><trkpt lat="41.324084" lon="1.9503926"><ele>327.0</ele><time>2026-03-28T10:07:53.297Z</time></trkpt><trkpt lat="41.3241955" lon="1.9503941"><ele>327.0</ele><time>2026-03-28T10:07:54.297Z</time></trkpt><trkpt lat="41.3243029" lon="1.9504113"><ele>327.0</ele><time>2026-03-28T10:07:55.297Z</time></trkpt><trkpt lat="41.324405" lon="1.9504409"><ele>327.0</ele><time>2026-03-28T10:07:56.297Z</time></trkpt><trkpt lat="41.3245096" lon="1.9504589"><ele>327.0</ele><time>2026-03-28T10:07:57.297Z</time></trkpt><trkpt lat="41.324621" lon="1.950445"><ele>327.0</ele><time>2026-03-28T10:07:58.297Z</time></trkpt><trkpt lat="41.3247254" lon="1.9503989"><ele>327.0</ele><time>2026-03-28T10:07:59.297Z</time></trkpt><trkpt lat="41.3248212" lon="1.9503448"><ele>327.0</ele><time>2026-03-28T10:08:00.297Z</time></trkpt><trkpt lat="41.3249094" lon="1.9502689"><ele>327.0</ele><time>2026-03-28T10:08:01.297Z</time></trkpt><trkpt lat="41.3249871" lon="1.9502025"><ele>327.1666666666667</ele><time>2026-03-28T10:08:02.297Z</time></trkpt><trkpt lat="41.3250528" lon="1.9501415"><ele>327.3333333333333</ele><time>2026-03-28T10:08:03.297Z</time></trkpt><trkpt lat="41.3251383" lon="1.9500596"><ele>327.5</ele><time>2026-03-28T10:08:05.297Z</time></trkpt><trkpt lat="41.325197" lon="1.9500013"><ele>327.66666666666663</ele><time>2026-03-28T10:08:07.297Z</time></trkpt><trkpt lat="41.3252667" lon="1.9499411"><ele>327.8333333333333</ele><time>2026-03-28T10:08:10.297Z</time></trkpt><trkpt lat="41.3253265" lon="1.9498805"><ele>328.0</ele><time>2026-03-28T10:08:12.297Z</time></trkpt><trkpt lat="41.3253928" lon="1.9498287"><ele>331.5</ele><time>2026-03-28T10:08:14.296Z</time></trkpt><trkpt lat="41.3254505" lon="1.9497918"><ele>335.0</ele><time>2026-03-28T10:08:17.297Z</time></trkpt><trkpt lat="41.3255383" lon="1.9497488"><ele>338.5</ele><time>2026-03-28T10:08:20.296Z</time></trkpt><trkpt lat="41.325621" lon="1.9497295"><ele>342.0</ele><time>2026-03-28T10:08:22.297Z</time></trkpt><trkpt lat="41.3256997" lon="1.9497271"><ele>345.5</ele><time>2026-03-28T10:08:24.297Z</time></trkpt><trkpt lat="41.3257794" lon="1.9497315"><ele>349.0</ele><time>2026-03-28T10:08:26.297Z</time></trkpt><trkpt lat="41.3258625" lon="1.9497276"><ele>349.0</ele><time>2026-03-28T10:08:28.297Z</time></trkpt><trkpt lat="41.32593" lon="1.9496972"><ele>349.0</ele><time>2026-03-28T10:08:30.297Z</time></trkpt><trkpt lat="41.3259861" lon="1.94963"><ele>349.0</ele><time>2026-03-28T10:08:33.297Z</time></trkpt><trkpt lat="41.3260219" lon="1.949528"><ele>349.0</ele><time>2026-03-28T10:08:35.297Z</time></trkpt><trkpt lat="41.3260021" lon="1.9494101"><ele>349.0</ele><time>2026-03-28T10:08:37.297Z</time></trkpt><trkpt lat="41.3259348" lon="1.9493307"><ele>349.0</ele><time>2026-03-28T10:08:39.297Z</time></trkpt><trkpt lat="41.325854" lon="1.9493117"><ele>349.0</ele><time>2026-03-28T10:08:41.297Z</time></trkpt><trkpt lat="41.3257712" lon="1.9493193"><ele>349.0</ele><time>2026-03-28T10:08:43.297Z</time></trkpt><trkpt lat="41.3256858" lon="1.9493461"><ele>349.0</ele><time>2026-03-28T10:08:45.297Z</time></trkpt><trkpt lat="41.3255932" lon="1.9493789"><ele>349.0</ele><time>2026-03-28T10:08:47.297Z</time></trkpt><trkpt lat="41.3254903" lon="1.9494223"><ele>349.0</ele><time>2026-03-28T10:08:49.297Z</time></trkpt><trkpt lat="41.3253769" lon="1.9494664"><ele>350.79999999999995</ele><time>2026-03-28T10:08:51.297Z</time></trkpt><trkpt lat="41.3252653" lon="1.9495127"><ele>352.59999999999997</ele><time>2026-03-28T10:08:53.297Z</time></trkpt><trkpt lat="41.3251701" lon="1.9495456"><ele>354.4</ele><time>2026-03-28T10:08:55.297Z</time></trkpt><trkpt lat="41.3250443" lon="1.9496158"><ele>356.2</ele><time>2026-03-28T10:08:57.297Z</time></trkpt><trkpt lat="41.3249527" lon="1.9496591"><ele>358.0</ele><time>2026-03-28T10:08:58.297Z</time></trkpt><trkpt lat="41.3248565" lon="1.9496918"><ele>358.0</ele><time>2026-03-28T10:08:59.297Z</time></trkpt><trkpt lat="41.3247766" lon="1.9497084"><ele>358.0</ele><time>2026-03-28T10:09:00.297Z</time></trkpt><trkpt lat="41.3247038" lon="1.9497232"><ele>358.0</ele><time>2026-03-28T10:09:01.297Z</time></trkpt><trkpt lat="41.3245959" lon="1.9497288"><ele>358.0</ele><time>2026-03-28T10:09:03.297Z</time></trkpt><trkpt lat="41.3245086" lon="1.9497234"><ele>358.0</ele><time>2026-03-28T10:09:05.297Z</time></trkpt><trkpt lat="41.3243884" lon="1.9496865"><ele>358.66666666666663</ele><time>2026-03-28T10:09:07.297Z</time></trkpt><trkpt lat="41.3243095" lon="1.949656"><ele>359.3333333333333</ele><time>2026-03-28T10:09:08.296Z</time></trkpt><trkpt lat="41.324229" lon="1.9496135"><ele>360.0</ele><time>2026-03-28T10:09:09.297Z</time></trkpt><trkpt lat="41.3241485" lon="1.9495747"><ele>360.6666666666667</ele><time>2026-03-28T10:09:10.297Z</time></trkpt><trkpt lat="41.3240776" lon="1.949547"><ele>361.33333333333337</ele><time>2026-03-28T10:09:11.297Z</time></trkpt><trkpt lat="41.3239678" lon="1.9495292"><ele>362.0</ele><time>2026-03-28T10:09:13.297Z</time></trkpt><trkpt lat="41.3238991" lon="1.9495303"><ele>362.6</ele><time>2026-03-28T10:09:14.297Z</time></trkpt><trkpt lat="41.3238002" lon="1.9495445"><ele>363.20000000000005</ele><time>2026-03-28T10:09:15.297Z</time></trkpt><trkpt lat="41.3236908" lon="1.9495623"><ele>363.8</ele><time>2026-03-28T10:09:16.297Z</time></trkpt><trkpt lat="41.3236121" lon="1.9495769"><ele>364.4</ele><time>2026-03-28T10:09:17.297Z</time></trkpt><trkpt lat="41.3235441" lon="1.9495856"><ele>365.0</ele><time>2026-03-28T10:09:18.297Z</time></trkpt><trkpt lat="41.32342" lon="1.9495981"><ele>365.0</ele><time>2026-03-28T10:09:20.297Z</time></trkpt><trkpt lat="41.3233108" lon="1.949618"><ele>365.0</ele><time>2026-03-28T10:09:22.297Z</time></trkpt><trkpt lat="41.3231752" lon="1.9496332"><ele>365.0</ele><time>2026-03-28T10:09:24.297Z</time></trkpt><trkpt lat="41.3231057" lon="1.9496444"><ele>365.0</ele><time>2026-03-28T10:09:25.297Z</time></trkpt><trkpt lat="41.3230391" lon="1.9496566"><ele>365.0</ele><time>2026-03-28T10:09:26.297Z</time></trkpt><trkpt lat="41.3229677" lon="1.9496799"><ele>367.1666666666667</ele><time>2026-03-28T10:09:27.297Z</time></trkpt><trkpt lat="41.3228655" lon="1.9497214"><ele>369.33333333333337</ele><time>2026-03-28T10:09:29.297Z</time></trkpt><trkpt lat="41.322785" lon="1.9497585"><ele>371.5</ele><time>2026-03-28T10:09:31.297Z</time></trkpt><trkpt lat="41.3227254" lon="1.9497924"><ele>373.6666666666667</ele><time>2026-03-28T10:09:34.297Z</time></trkpt><trkpt lat="41.3226579" lon="1.9498256"><ele>375.8333333333333</ele><time>2026-03-28T10:09:37.297Z</time></trkpt><trkpt lat="41.3225804" lon="1.949814"><ele>378.0</ele><time>2026-03-28T10:09:39.297Z</time></trkpt><trkpt lat="41.322549" lon="1.9497266"><ele>378.0</ele><time>2026-03-28T10:09:41.297Z</time></trkpt><trkpt lat="41.3226275" lon="1.9496236"><ele>378.0</ele><time>2026-03-28T10:09:43.297Z</time></trkpt><trkpt lat="41.3226995" lon="1.949592"><ele>378.0</ele><time>2026-03-28T10:09:44.297Z</time></trkpt><trkpt lat="41.3227887" lon="1.9495615"><ele>378.0</ele><time>2026-03-28T10:09:45.297Z</time></trkpt><trkpt lat="41.3228942" lon="1.9495261"><ele>378.0</ele><time>2026-03-28T10:09:46.296Z</time></trkpt><trkpt lat="41.3230044" lon="1.9494847"><ele>375.4</ele><time>2026-03-28T10:09:47.296Z</time></trkpt><trkpt lat="41.3231071" lon="1.949446"><ele>372.79999999999995</ele><time>2026-03-28T10:09:48.297Z</time></trkpt><trkpt lat="41.3231942" lon="1.9494129"><ele>370.2</ele><time>2026-03-28T10:09:49.297Z</time></trkpt><trkpt lat="41.3232745" lon="1.949378"><ele>367.6</ele><time>2026-03-28T10:09:50.296Z</time></trkpt><trkpt lat="41.3233548" lon="1.9493412"><ele>365.0</ele><time>2026-03-28T10:09:51.297Z</time></trkpt><trkpt lat="41.3234374" lon="1.9493026"><ele>365.0</ele><time>2026-03-28T10:09:52.297Z</time></trkpt><trkpt lat="41.3235225" lon="1.9492656"><ele>365.0</ele><time>2026-03-28T10:09:53.297Z</time></trkpt><trkpt lat="41.3236026" lon="1.9492261"><ele>365.0</ele><time>2026-03-28T10:09:54.297Z</time></trkpt><trkpt lat="41.3236902" lon="1.9491888"><ele>365.0</ele><time>2026-03-28T10:09:55.297Z</time></trkpt><trkpt lat="41.3237776" lon="1.9491552"><ele>365.0</ele><time>2026-03-28T10:09:56.297Z</time></trkpt><trkpt lat="41.3238631" lon="1.9491304"><ele>365.0</ele><time>2026-03-28T10:09:57.296Z</time></trkpt><trkpt lat="41.323949" lon="1.9491096"><ele>372.0</ele><time>2026-03-28T10:09:58.297Z</time></trkpt><trkpt lat="41.3240437" lon="1.949099"><ele>379.0</ele><time>2026-03-28T10:09:59.297Z</time></trkpt><trkpt lat="41.3241457" lon="1.9491039"><ele>386.0</ele><time>2026-03-28T10:10:00.297Z</time></trkpt><trkpt lat="41.3242486" lon="1.949115"><ele>393.0</ele><time>2026-03-28T10:10:01.297Z</time></trkpt><trkpt lat="41.3243419" lon="1.9491253"><ele>400.0</ele><time>2026-03-28T10:10:02.297Z</time></trkpt><trkpt lat="41.3244289" lon="1.9491308"><ele>400.00000000000006</ele><time>2026-03-28T10:10:03.297Z</time></trkpt><trkpt lat="41.3245131" lon="1.9491248"><ele>400.0</ele><time>2026-03-28T10:10:04.297Z</time></trkpt><trkpt lat="41.3245928" lon="1.9491105"><ele>400.0</ele><time>2026-03-28T10:10:05.297Z</time></trkpt><trkpt lat="41.3246638" lon="1.9490914"><ele>400.0</ele><time>2026-03-28T10:10:06.297Z</time></trkpt><trkpt lat="41.3247301" lon="1.9490642"><ele>400.0</ele><time>2026-03-28T10:10:07.296Z</time></trkpt><trkpt lat="41.3247953" lon="1.9490275"><ele>400.00000000000006</ele><time>2026-03-28T10:10:08.297Z</time></trkpt><trkpt lat="41.3248498" lon="1.9489844"><ele>400.0</ele><time>2026-03-28T10:10:09.297Z</time></trkpt><trkpt lat="41.3249117" lon="1.9489235"><ele>398.2</ele><time>2026-03-28T10:10:10.297Z</time></trkpt><trkpt lat="41.3249798" lon="1.9488592"><ele>396.4</ele><time>2026-03-28T10:10:11.297Z</time></trkpt><trkpt lat="41.3250521" lon="1.9487854"><ele>394.6</ele><time>2026-03-28T10:10:12.297Z</time></trkpt><trkpt lat="41.3251251" lon="1.9487018"><ele>392.8</ele><time>2026-03-28T10:10:13.297Z</time></trkpt><trkpt lat="41.325194" lon="1.9486053"><ele>391.0</ele><time>2026-03-28T10:10:14.297Z</time></trkpt><trkpt lat="41.3252583" lon="1.9485005"><ele>391.0</ele><time>2026-03-28T10:10:15.297Z</time></trkpt><trkpt lat="41.3253197" lon="1.9483872"><ele>391.0</ele><time>2026-03-28T10:10:16.296Z</time></trkpt><trkpt lat="41.3253722" lon="1.9482704"><ele>391.0</ele><time>2026-03-28T10:10:17.297Z</time></trkpt><trkpt lat="41.3254214" lon="1.9481502"><ele>391.0</ele><time>2026-03-28T10:10:18.297Z</time></trkpt><trkpt lat="41.3254774" lon="1.9480315"><ele>391.0</ele><time>2026-03-28T10:10:19.297Z</time></trkpt><trkpt lat="41.3255394" lon="1.9479199"><ele>391.0</ele><time>2026-03-28T10:10:20.297Z</time></trkpt><trkpt lat="41.3256046" lon="1.9478054"><ele>391.0</ele><time>2026-03-28T10:10:21.297Z</time></trkpt><trkpt lat="41.3256746" lon="1.9476907"><ele>391.0</ele><time>2026-03-28T10:10:22.297Z</time></trkpt><trkpt lat="41.3257472" lon="1.9475792"><ele>391.0</ele><time>2026-03-28T10:10:23.297Z</time></trkpt><trkpt lat="41.3258263" lon="1.9474713"><ele>391.0</ele><time>2026-03-28T10:10:24.297Z</time></trkpt><trkpt lat="41.3259038" lon="1.9473787"><ele>395.4</ele><time>2026-03-28T10:10:25.297Z</time></trkpt><trkpt lat="41.3259854" lon="1.947305"><ele>399.8</ele><time>2026-03-28T10:10:26.297Z</time></trkpt><trkpt lat="41.3260689" lon="1.9472423"><ele>404.2</ele><time>2026-03-28T10:10:27.297Z</time></trkpt><trkpt lat="41.3261551" lon="1.9471996"><ele>408.59999999999997</ele><time>2026-03-28T10:10:28.297Z</time></trkpt><trkpt lat="41.3262413" lon="1.9471606"><ele>413.0</ele><time>2026-03-28T10:10:29.297Z</time></trkpt><trkpt lat="41.3263167" lon="1.9471257"><ele>412.99999999999994</ele><time>2026-03-28T10:10:30.296Z</time></trkpt><trkpt lat="41.3263817" lon="1.9470932"><ele>413.0</ele><time>2026-03-28T10:10:31.297Z</time></trkpt><trkpt lat="41.3264414" lon="1.9470655"><ele>413.0</ele><time>2026-03-28T10:10:32.297Z</time></trkpt><trkpt lat="41.3265025" lon="1.9470301"><ele>413.0</ele><time>2026-03-28T10:10:33.297Z</time></trkpt><trkpt lat="41.3265855" lon="1.9469523"><ele>412.99999999999994</ele><time>2026-03-28T10:10:35.296Z</time></trkpt><trkpt lat="41.3266495" lon="1.9468689"><ele>413.0</ele><time>2026-03-28T10:10:37.297Z</time></trkpt><trkpt lat="41.3267074" lon="1.94679"><ele>412.66666666666663</ele><time>2026-03-28T10:10:39.297Z</time></trkpt><trkpt lat="41.3267959" lon="1.9467125"><ele>412.3333333333333</ele><time>2026-03-28T10:10:41.297Z</time></trkpt><trkpt lat="41.3268562" lon="1.9466839"><ele>412.0</ele><time>2026-03-28T10:10:42.297Z</time></trkpt><trkpt lat="41.3269212" lon="1.9466466"><ele>411.66666666666663</ele><time>2026-03-28T10:10:43.297Z</time></trkpt><trkpt lat="41.3269844" lon="1.946593"><ele>411.3333333333333</ele><time>2026-03-28T10:10:44.297Z</time></trkpt><trkpt lat="41.327027" lon="1.9465143"><ele>411.0</ele><time>2026-03-28T10:10:45.297Z</time></trkpt><trkpt lat="41.3270436" lon="1.9464172"><ele>411.0</ele><time>2026-03-28T10:10:46.297Z</time></trkpt><trkpt lat="41.3270385" lon="1.9463005"><ele>411.0</ele><time>2026-03-28T10:10:47.297Z</time></trkpt><trkpt lat="41.3270338" lon="1.9461799"><ele>411.0</ele><time>2026-03-28T10:10:48.296Z</time></trkpt><trkpt lat="41.3270579" lon="1.946058"><ele>411.0</ele><time>2026-03-28T10:10:49.297Z</time></trkpt><trkpt lat="41.3271064" lon="1.9459258"><ele>411.0</ele><time>2026-03-28T10:10:50.297Z</time></trkpt><trkpt lat="41.3271583" lon="1.9457843"><ele>410.75</ele><time>2026-03-28T10:10:51.296Z</time></trkpt><trkpt lat="41.3272083" lon="1.9456436"><ele>410.5</ele><time>2026-03-28T10:10:52.297Z</time></trkpt><trkpt lat="41.3272589" lon="1.9454993"><ele>410.25</ele><time>2026-03-28T10:10:53.297Z</time></trkpt><trkpt lat="41.3273097" lon="1.9453617"><ele>410.0</ele><time>2026-03-28T10:10:54.297Z</time></trkpt><trkpt lat="41.3273573" lon="1.9452259"><ele>410.0</ele><time>2026-03-28T10:10:55.297Z</time></trkpt><trkpt lat="41.3274105" lon="1.9450758"><ele>410.0</ele><time>2026-03-28T10:10:56.297Z</time></trkpt><trkpt lat="41.3274605" lon="1.9449184"><ele>410.0</ele><time>2026-03-28T10:10:57.297Z</time></trkpt><trkpt lat="41.3275134" lon="1.9447517"><ele>410.0</ele><time>2026-03-28T10:10:58.297Z</time></trkpt><trkpt lat="41.3275629" lon="1.9445801"><ele>409.0</ele><time>2026-03-28T10:10:59.297Z</time></trkpt><trkpt lat="41.3276022" lon="1.9444107"><ele>408.0</ele><time>2026-03-28T10:11:00.297Z</time></trkpt><trkpt lat="41.3276332" lon="1.9442406"><ele>407.0</ele><time>2026-03-28T10:11:01.297Z</time></trkpt><trkpt lat="41.3276631" lon="1.9440673"><ele>406.0</ele><time>2026-03-28T10:11:02.297Z</time></trkpt><trkpt lat="41.3276901" lon="1.9438943"><ele>405.75</ele><time>2026-03-28T10:11:03.297Z</time></trkpt><trkpt lat="41.3277112" lon="1.9437131"><ele>405.5</ele><time>2026-03-28T10:11:04.297Z</time></trkpt><trkpt lat="41.3277354" lon="1.9435256"><ele>405.25</ele><time>2026-03-28T10:11:05.297Z</time></trkpt><trkpt lat="41.3277599" lon="1.9433287"><ele>405.0</ele><time>2026-03-28T10:11:06.297Z</time></trkpt><trkpt lat="41.3277859" lon="1.9431291"><ele>404.0</ele><time>2026-03-28T10:11:07.297Z</time></trkpt><trkpt lat="41.3278113" lon="1.9429306"><ele>403.0</ele><time>2026-03-28T10:11:08.297Z</time></trkpt><trkpt lat="41.3278376" lon="1.9427237"><ele>402.0</ele><time>2026-03-28T10:11:09.297Z</time></trkpt><trkpt lat="41.3278645" lon="1.9425237"><ele>401.0</ele><time>2026-03-28T10:11:10.296Z</time></trkpt><trkpt lat="41.3278902" lon="1.9423208"><ele>400.0</ele><time>2026-03-28T10:11:11.296Z</time></trkpt><trkpt lat="41.3279153" lon="1.942118"><ele>399.0</ele><time>2026-03-28T10:11:12.297Z</time></trkpt><trkpt lat="41.3279414" lon="1.941917"><ele>397.66666666666663</ele><time>2026-03-28T10:11:13.296Z</time></trkpt><trkpt lat="41.3279652" lon="1.9417125"><ele>396.3333333333333</ele><time>2026-03-28T10:11:14.297Z</time></trkpt><trkpt lat="41.327994" lon="1.9415065"><ele>395.0</ele><time>2026-03-28T10:11:15.297Z</time></trkpt><trkpt lat="41.3280194" lon="1.9412925"><ele>395.0</ele><time>2026-03-28T10:11:16.296Z</time></trkpt><trkpt lat="41.3280476" lon="1.9410754"><ele>395.0</ele><time>2026-03-28T10:11:17.297Z</time></trkpt><trkpt lat="41.3280749" lon="1.9408702"><ele>395.0</ele><time>2026-03-28T10:11:18.297Z</time></trkpt><trkpt lat="41.3281004" lon="1.9406686"><ele>394.5</ele><time>2026-03-28T10:11:19.297Z</time></trkpt><trkpt lat="41.3281232" lon="1.940467"><ele>394.0</ele><time>2026-03-28T10:11:20.297Z</time></trkpt><trkpt lat="41.3281467" lon="1.9402694"><ele>393.5</ele><time>2026-03-28T10:11:21.297Z</time></trkpt><trkpt lat="41.3281691" lon="1.9400825"><ele>393.0</ele><time>2026-03-28T10:11:22.297Z</time></trkpt><trkpt lat="41.3281905" lon="1.9399136"><ele>393.0</ele><time>2026-03-28T10:11:23.297Z</time></trkpt><trkpt lat="41.3282082" lon="1.9397485"><ele>393.0</ele><time>2026-03-28T10:11:24.297Z</time></trkpt><trkpt lat="41.328223" lon="1.9395886"><ele>393.0</ele><time>2026-03-28T10:11:25.297Z</time></trkpt><trkpt lat="41.3282353" lon="1.9394364"><ele>393.0</ele><time>2026-03-28T10:11:26.297Z</time></trkpt><trkpt lat="41.3282455" lon="1.9392779"><ele>393.4</ele><time>2026-03-28T10:11:27.296Z</time></trkpt><trkpt lat="41.3282502" lon="1.9391185"><ele>393.79999999999995</ele><time>2026-03-28T10:11:28.297Z</time></trkpt><trkpt lat="41.3282489" lon="1.9389726"><ele>394.2</ele><time>2026-03-28T10:11:29.297Z</time></trkpt><trkpt lat="41.3282436" lon="1.9388435"><ele>394.6</ele><time>2026-03-28T10:11:30.297Z</time></trkpt><trkpt lat="41.3282375" lon="1.93873"><ele>395.0</ele><time>2026-03-28T10:11:31.297Z</time></trkpt><trkpt lat="41.3282301" lon="1.9386374"><ele>395.0</ele><time>2026-03-28T10:11:32.297Z</time></trkpt><trkpt lat="41.3282232" lon="1.9385478"><ele>395.0</ele><time>2026-03-28T10:11:33.297Z</time></trkpt><trkpt lat="41.328236" lon="1.9383755"><ele>395.0</ele><time>2026-03-28T10:11:35.296Z</time></trkpt><trkpt lat="41.3282671" lon="1.9382771"><ele>395.0</ele><time>2026-03-28T10:11:36.297Z</time></trkpt><trkpt lat="41.3283135" lon="1.9381711"><ele>395.0</ele><time>2026-03-28T10:11:37.297Z</time></trkpt><trkpt lat="41.3283409" lon="1.9380693"><ele>394.4</ele><time>2026-03-28T10:11:38.297Z</time></trkpt><trkpt lat="41.3283464" lon="1.937969"><ele>393.8</ele><time>2026-03-28T10:11:39.297Z</time></trkpt><trkpt lat="41.3283224" lon="1.9378533"><ele>393.20000000000005</ele><time>2026-03-28T10:11:40.297Z</time></trkpt><trkpt lat="41.3282876" lon="1.9377272"><ele>392.6</ele><time>2026-03-28T10:11:41.297Z</time></trkpt><trkpt lat="41.3282624" lon="1.9375962"><ele>392.0</ele><time>2026-03-28T10:11:42.297Z</time></trkpt><trkpt lat="41.3282536" lon="1.9374661"><ele>392.0</ele><time>2026-03-28T10:11:43.297Z</time></trkpt><trkpt lat="41.328257" lon="1.9373252"><ele>392.0</ele><time>2026-03-28T10:11:44.297Z</time></trkpt><trkpt lat="41.3282665" lon="1.937181"><ele>392.0</ele><time>2026-03-28T10:11:45.297Z</time></trkpt><trkpt lat="41.3282766" lon="1.9370437"><ele>392.0</ele><time>2026-03-28T10:11:46.297Z</time></trkpt><trkpt lat="41.3282883" lon="1.9369193"><ele>392.0</ele><time>2026-03-28T10:11:47.297Z</time></trkpt><trkpt lat="41.3282954" lon="1.9367978"><ele>391.66666666666663</ele><time>2026-03-28T10:11:48.297Z</time></trkpt><trkpt lat="41.3283015" lon="1.9366874"><ele>391.3333333333333</ele><time>2026-03-28T10:11:49.297Z</time></trkpt><trkpt lat="41.3283069" lon="1.9365768"><ele>391.0</ele><time>2026-03-28T10:11:50.296Z</time></trkpt><trkpt lat="41.3283127" lon="1.9364631"><ele>390.66666666666663</ele><time>2026-03-28T10:11:51.297Z</time></trkpt><trkpt lat="41.3283177" lon="1.9363563"><ele>390.3333333333333</ele><time>2026-03-28T10:11:52.297Z</time></trkpt><trkpt lat="41.3283214" lon="1.9362577"><ele>390.0</ele><time>2026-03-28T10:11:53.297Z</time></trkpt><trkpt lat="41.3283258" lon="1.9361573"><ele>390.0</ele><time>2026-03-28T10:11:54.297Z</time></trkpt><trkpt lat="41.328325" lon="1.9360366"><ele>390.0</ele><time>2026-03-28T10:11:55.297Z</time></trkpt><trkpt lat="41.3283239" lon="1.9359035"><ele>390.0</ele><time>2026-03-28T10:11:56.296Z</time></trkpt><trkpt lat="41.3283208" lon="1.9357663"><ele>390.0</ele><time>2026-03-28T10:11:57.297Z</time></trkpt><trkpt lat="41.328309" lon="1.9356175"><ele>390.0</ele><time>2026-03-28T10:11:58.297Z</time></trkpt><trkpt lat="41.3282889" lon="1.9354595"><ele>389.75</ele><time>2026-03-28T10:11:59.297Z</time></trkpt><trkpt lat="41.3282595" lon="1.9352947"><ele>389.5</ele><time>2026-03-28T10:12:00.297Z</time></trkpt><trkpt lat="41.3282198" lon="1.9351156"><ele>389.25</ele><time>2026-03-28T10:12:01.297Z</time></trkpt><trkpt lat="41.3281669" lon="1.934915"><ele>389.0</ele><time>2026-03-28T10:12:02.297Z</time></trkpt><trkpt lat="41.3281128" lon="1.9347069"><ele>390.0</ele><time>2026-03-28T10:12:03.297Z</time></trkpt><trkpt lat="41.3280529" lon="1.9344883"><ele>391.0</ele><time>2026-03-28T10:12:04.297Z</time></trkpt><trkpt lat="41.3279898" lon="1.9342582"><ele>392.0</ele><time>2026-03-28T10:12:05.297Z</time></trkpt><trkpt lat="41.3279314" lon="1.9340372"><ele>392.0</ele><time>2026-03-28T10:12:06.297Z</time></trkpt><trkpt lat="41.3278774" lon="1.9337925"><ele>392.0</ele><time>2026-03-28T10:12:07.297Z</time></trkpt><trkpt lat="41.3278316" lon="1.9335223"><ele>392.0</ele><time>2026-03-28T10:12:08.296Z</time></trkpt><trkpt lat="41.3278028" lon="1.9332315"><ele>391.66666666666663</ele><time>2026-03-28T10:12:09.296Z</time></trkpt><trkpt lat="41.3277979" lon="1.9329441"><ele>391.33333333333337</ele><time>2026-03-28T10:12:10.297Z</time></trkpt><trkpt lat="41.3278077" lon="1.9326699"><ele>391.0</ele><time>2026-03-28T10:12:11.297Z</time></trkpt><trkpt lat="41.3278182" lon="1.9324045"><ele>390.0</ele><time>2026-03-28T10:12:12.297Z</time></trkpt><trkpt lat="41.3278309" lon="1.932128"><ele>389.0</ele><time>2026-03-28T10:12:13.297Z</time></trkpt><trkpt lat="41.327843" lon="1.9318586"><ele>388.0</ele><time>2026-03-28T10:12:14.297Z</time></trkpt><trkpt lat="41.3278566" lon="1.9315971"><ele>386.0</ele><time>2026-03-28T10:12:15.297Z</time></trkpt><trkpt lat="41.3278693" lon="1.9313571"><ele>384.0</ele><time>2026-03-28T10:12:16.297Z</time></trkpt><trkpt lat="41.3278857" lon="1.9311254"><ele>382.0</ele><time>2026-03-28T10:12:17.297Z</time></trkpt><trkpt lat="41.3279021" lon="1.9308963"><ele>380.0</ele><time>2026-03-28T10:12:18.296Z</time></trkpt><trkpt lat="41.3279138" lon="1.930667"><ele>378.0</ele><time>2026-03-28T10:12:19.297Z</time></trkpt><trkpt lat="41.3279286" lon="1.9304298"><ele>376.0</ele><time>2026-03-28T10:12:20.296Z</time></trkpt><trkpt lat="41.3279427" lon="1.9301779"><ele>378.66666666666663</ele><time>2026-03-28T10:12:21.297Z</time></trkpt><trkpt lat="41.3279575" lon="1.9299379"><ele>381.3333333333333</ele><time>2026-03-28T10:12:22.297Z</time></trkpt><trkpt lat="41.3279717" lon="1.9297023"><ele>384.0</ele><time>2026-03-28T10:12:23.297Z</time></trkpt><trkpt lat="41.3279898" lon="1.9294687"><ele>384.0</ele><time>2026-03-28T10:12:24.297Z</time></trkpt><trkpt lat="41.3280109" lon="1.9292302"><ele>384.0</ele><time>2026-03-28T10:12:25.296Z</time></trkpt><trkpt lat="41.3280287" lon="1.9289953"><ele>384.0</ele><time>2026-03-28T10:12:26.297Z</time></trkpt><trkpt lat="41.3280481" lon="1.9287623"><ele>382.0</ele><time>2026-03-28T10:12:27.296Z</time></trkpt><trkpt lat="41.3280662" lon="1.9285294"><ele>380.0</ele><time>2026-03-28T10:12:28.297Z</time></trkpt><trkpt lat="41.3280877" lon="1.928302"><ele>378.0</ele><time>2026-03-28T10:12:29.297Z</time></trkpt><trkpt lat="41.3281121" lon="1.9280838"><ele>377.75</ele><time>2026-03-28T10:12:30.297Z</time></trkpt><trkpt lat="41.3281398" lon="1.9278826"><ele>377.5</ele><time>2026-03-28T10:12:31.297Z</time></trkpt><trkpt lat="41.3281656" lon="1.9277043"><ele>377.25</ele><time>2026-03-28T10:12:32.297Z</time></trkpt><trkpt lat="41.3281886" lon="1.927548"><ele>377.0</ele><time>2026-03-28T10:12:33.297Z</time></trkpt><trkpt lat="41.32821" lon="1.9274017"><ele>377.0</ele><time>2026-03-28T10:12:34.297Z</time></trkpt><trkpt lat="41.3282325" lon="1.9272703"><ele>377.0</ele><time>2026-03-28T10:12:35.297Z</time></trkpt><trkpt lat="41.3282523" lon="1.927154"><ele>377.0</ele><time>2026-03-28T10:12:36.296Z</time></trkpt><trkpt lat="41.3282731" lon="1.9270437"><ele>377.0</ele><time>2026-03-28T10:12:37.297Z</time></trkpt><trkpt lat="41.3283135" lon="1.9269343"><ele>377.0</ele><time>2026-03-28T10:12:38.297Z</time></trkpt><trkpt lat="41.328373" lon="1.9268363"><ele>377.0</ele><time>2026-03-28T10:12:39.297Z</time></trkpt><trkpt lat="41.3284286" lon="1.926739"><ele>377.0</ele><time>2026-03-28T10:12:40.297Z</time></trkpt><trkpt lat="41.3284647" lon="1.9266245"><ele>377.0</ele><time>2026-03-28T10:12:41.297Z</time></trkpt><trkpt lat="41.3284762" lon="1.9264851"><ele>377.0</ele><time>2026-03-28T10:12:42.297Z</time></trkpt><trkpt lat="41.3284667" lon="1.9263391"><ele>377.0</ele><time>2026-03-28T10:12:43.297Z</time></trkpt><trkpt lat="41.3284714" lon="1.9261999"><ele>376.75</ele><time>2026-03-28T10:12:44.297Z</time></trkpt><trkpt lat="41.3284934" lon="1.9260615"><ele>376.5</ele><time>2026-03-28T10:12:45.297Z</time></trkpt><trkpt lat="41.3285275" lon="1.9258998"><ele>376.25</ele><time>2026-03-28T10:12:46.297Z</time></trkpt><trkpt lat="41.328565" lon="1.9257093"><ele>376.0</ele><time>2026-03-28T10:12:47.297Z</time></trkpt><trkpt lat="41.3286028" lon="1.9255068"><ele>375.0</ele><time>2026-03-28T10:12:48.297Z</time></trkpt><trkpt lat="41.328645" lon="1.9252897"><ele>374.0</ele><time>2026-03-28T10:12:49.296Z</time></trkpt><trkpt lat="41.3286819" lon="1.9250752"><ele>373.0</ele><time>2026-03-28T10:12:50.297Z</time></trkpt><trkpt lat="41.3287119" lon="1.9248679"><ele>372.66666666666663</ele><time>2026-03-28T10:12:51.297Z</time></trkpt><trkpt lat="41.3287399" lon="1.9246667"><ele>372.3333333333333</ele><time>2026-03-28T10:12:52.297Z</time></trkpt><trkpt lat="41.3287669" lon="1.9244662"><ele>372.0</ele><time>2026-03-28T10:12:53.297Z</time></trkpt><trkpt lat="41.3287909" lon="1.9242723"><ele>371.75</ele><time>2026-03-28T10:12:54.297Z</time></trkpt><trkpt lat="41.3288103" lon="1.9240787"><ele>371.5</ele><time>2026-03-28T10:12:55.297Z</time></trkpt><trkpt lat="41.328829" lon="1.9238876"><ele>371.25</ele><time>2026-03-28T10:12:56.297Z</time></trkpt><trkpt lat="41.3288469" lon="1.9236916"><ele>371.0</ele><time>2026-03-28T10:12:57.297Z</time></trkpt><trkpt lat="41.3288602" lon="1.9234961"><ele>371.0</ele><time>2026-03-28T10:12:58.297Z</time></trkpt><trkpt lat="41.3288705" lon="1.9232988"><ele>371.0</ele><time>2026-03-28T10:12:59.297Z</time></trkpt><trkpt lat="41.3288779" lon="1.9230933"><ele>371.0</ele><time>2026-03-28T10:13:00.297Z</time></trkpt><trkpt lat="41.3288828" lon="1.9228908"><ele>371.0</ele><time>2026-03-28T10:13:01.297Z</time></trkpt><trkpt lat="41.3288885" lon="1.9226852"><ele>371.0</ele><time>2026-03-28T10:13:02.297Z</time></trkpt><trkpt lat="41.328895" lon="1.9224835"><ele>371.0</ele><time>2026-03-28T10:13:03.297Z</time></trkpt><trkpt lat="41.3288963" lon="1.9222823"><ele>371.0</ele><time>2026-03-28T10:13:04.297Z</time></trkpt><trkpt lat="41.3288957" lon="1.9220864"><ele>371.0</ele><time>2026-03-28T10:13:05.297Z</time></trkpt><trkpt lat="41.3288949" lon="1.921894"><ele>371.0</ele><time>2026-03-28T10:13:06.296Z</time></trkpt><trkpt lat="41.3288959" lon="1.9217074"><ele>371.0</ele><time>2026-03-28T10:13:07.297Z</time></trkpt><trkpt lat="41.328899" lon="1.9215368"><ele>370.6666666666667</ele><time>2026-03-28T10:13:08.297Z</time></trkpt><trkpt lat="41.3289024" lon="1.921395"><ele>370.33333333333337</ele><time>2026-03-28T10:13:09.297Z</time></trkpt><trkpt lat="41.3289004" lon="1.92127"><ele>370.0</ele><time>2026-03-28T10:13:10.297Z</time></trkpt><trkpt lat="41.3289027" lon="1.9211558"><ele>369.6666666666667</ele><time>2026-03-28T10:13:11.297Z</time></trkpt><trkpt lat="41.3289041" lon="1.921051"><ele>369.3333333333333</ele><time>2026-03-28T10:13:12.297Z</time></trkpt><trkpt lat="41.3289015" lon="1.9209524"><ele>369.0</ele><time>2026-03-28T10:13:13.296Z</time></trkpt><trkpt lat="41.3289002" lon="1.9208629"><ele>369.0</ele><time>2026-03-28T10:13:14.297Z</time></trkpt><trkpt lat="41.3289036" lon="1.9207743"><ele>369.0</ele><time>2026-03-28T10:13:15.297Z</time></trkpt><trkpt lat="41.3289086" lon="1.9206865"><ele>369.0</ele><time>2026-03-28T10:13:16.297Z</time></trkpt><trkpt lat="41.3289298" lon="1.9205974"><ele>369.0</ele><time>2026-03-28T10:13:17.297Z</time></trkpt><trkpt lat="41.328972" lon="1.9205141"><ele>369.0</ele><time>2026-03-28T10:13:18.297Z</time></trkpt><trkpt lat="41.3290209" lon="1.920435"><ele>369.0</ele><time>2026-03-28T10:13:19.297Z</time></trkpt><trkpt lat="41.3290543" lon="1.9203487"><ele>369.0</ele><time>2026-03-28T10:13:20.297Z</time></trkpt><trkpt lat="41.3290635" lon="1.92026"><ele>369.0</ele><time>2026-03-28T10:13:21.297Z</time></trkpt><trkpt lat="41.3290463" lon="1.9201696"><ele>369.0</ele><time>2026-03-28T10:13:22.297Z</time></trkpt><trkpt lat="41.3290077" lon="1.920072"><ele>369.0</ele><time>2026-03-28T10:13:23.297Z</time></trkpt><trkpt lat="41.3289581" lon="1.9199739"><ele>369.0</ele><time>2026-03-28T10:13:24.297Z</time></trkpt><trkpt lat="41.3289215" lon="1.9198658"><ele>369.0</ele><time>2026-03-28T10:13:25.297Z</time></trkpt><trkpt lat="41.3289044" lon="1.9197402"><ele>369.0</ele><time>2026-03-28T10:13:26.297Z</time></trkpt><trkpt lat="41.3288997" lon="1.9195886"><ele>369.25</ele><time>2026-03-28T10:13:27.297Z</time></trkpt><trkpt lat="41.3289014" lon="1.9194234"><ele>369.5</ele><time>2026-03-28T10:13:28.297Z</time></trkpt><trkpt lat="41.3289004" lon="1.9192573"><ele>369.75</ele><time>2026-03-28T10:13:29.297Z</time></trkpt><trkpt lat="41.3289002" lon="1.9190981"><ele>370.0</ele><time>2026-03-28T10:13:30.297Z</time></trkpt><trkpt lat="41.3288958" lon="1.9189335"><ele>370.25</ele><time>2026-03-28T10:13:31.297Z</time></trkpt><trkpt lat="41.3288878" lon="1.918761"><ele>370.5</ele><time>2026-03-28T10:13:32.297Z</time></trkpt><trkpt lat="41.3288805" lon="1.918583"><ele>370.75</ele><time>2026-03-28T10:13:33.297Z</time></trkpt><trkpt lat="41.3288735" lon="1.9183947"><ele>371.0</ele><time>2026-03-28T10:13:34.297Z</time></trkpt><trkpt lat="41.3288589" lon="1.9181831"><ele>371.0</ele><time>2026-03-28T10:13:35.297Z</time></trkpt><trkpt lat="41.3288429" lon="1.9179559"><ele>371.0</ele><time>2026-03-28T10:13:36.297Z</time></trkpt><trkpt lat="41.3288229" lon="1.91773"><ele>371.0</ele><time>2026-03-28T10:13:37.297Z</time></trkpt><trkpt lat="41.328799" lon="1.9175073"><ele>370.33333333333337</ele><time>2026-03-28T10:13:38.297Z</time></trkpt><trkpt lat="41.3287707" lon="1.9172699"><ele>369.6666666666667</ele><time>2026-03-28T10:13:39.297Z</time></trkpt><trkpt lat="41.328739" lon="1.9170368"><ele>369.0</ele><time>2026-03-28T10:13:40.297Z</time></trkpt><trkpt lat="41.3287085" lon="1.9168087"><ele>370.0</ele><time>2026-03-28T10:13:41.297Z</time></trkpt><trkpt lat="41.3286751" lon="1.9165807"><ele>371.0</ele><time>2026-03-28T10:13:42.297Z</time></trkpt><trkpt lat="41.3286417" lon="1.9163528"><ele>372.0</ele><time>2026-03-28T10:13:43.297Z</time></trkpt><trkpt lat="41.3286094" lon="1.9161247"><ele>373.3333333333333</ele><time>2026-03-28T10:13:44.297Z</time></trkpt><trkpt lat="41.3285828" lon="1.9158873"><ele>374.66666666666663</ele><time>2026-03-28T10:13:45.297Z</time></trkpt><trkpt lat="41.3285606" lon="1.9156511"><ele>376.0</ele><time>2026-03-28T10:13:46.297Z</time></trkpt><trkpt lat="41.3285431" lon="1.9154167"><ele>376.0</ele><time>2026-03-28T10:13:47.297Z</time></trkpt><trkpt lat="41.328533" lon="1.9151795"><ele>376.0</ele><time>2026-03-28T10:13:48.297Z</time></trkpt><trkpt lat="41.3285281" lon="1.9149338"><ele>376.0</ele><time>2026-03-28T10:13:49.297Z</time></trkpt><trkpt lat="41.328528" lon="1.9146926"><ele>376.3333333333333</ele><time>2026-03-28T10:13:50.297Z</time></trkpt><trkpt lat="41.3285356" lon="1.9144444"><ele>376.6666666666667</ele><time>2026-03-28T10:13:51.297Z</time></trkpt><trkpt lat="41.3285494" lon="1.9141921"><ele>377.0</ele><time>2026-03-28T10:13:52.296Z</time></trkpt><trkpt lat="41.3285711" lon="1.9139439"><ele>377.0</ele><time>2026-03-28T10:13:53.297Z</time></trkpt><trkpt lat="41.3285923" lon="1.9136966"><ele>377.0</ele><time>2026-03-28T10:13:54.297Z</time></trkpt><trkpt lat="41.3286228" lon="1.9134568"><ele>377.0</ele><time>2026-03-28T10:13:55.297Z</time></trkpt><trkpt lat="41.3286573" lon="1.9132224"><ele>377.0</ele><time>2026-03-28T10:13:56.296Z</time></trkpt><trkpt lat="41.328698" lon="1.9129882"><ele>377.0</ele><time>2026-03-28T10:13:57.297Z</time></trkpt><trkpt lat="41.3287468" lon="1.9127539"><ele>377.0</ele><time>2026-03-28T10:13:58.297Z</time></trkpt><trkpt lat="41.3288025" lon="1.912522"><ele>376.0</ele><time>2026-03-28T10:13:59.297Z</time></trkpt><trkpt lat="41.3288647" lon="1.9122785"><ele>375.0</ele><time>2026-03-28T10:14:00.297Z</time></trkpt><trkpt lat="41.3289349" lon="1.912035"><ele>374.0</ele><time>2026-03-28T10:14:01.297Z</time></trkpt><trkpt lat="41.3290098" lon="1.9118031"><ele>374.0</ele><time>2026-03-28T10:14:02.297Z</time></trkpt><trkpt lat="41.3290869" lon="1.9115809"><ele>374.0</ele><time>2026-03-28T10:14:03.297Z</time></trkpt><trkpt lat="41.3291682" lon="1.9113688"><ele>374.0</ele><time>2026-03-28T10:14:04.297Z</time></trkpt><trkpt lat="41.3292532" lon="1.9111586"><ele>374.0</ele><time>2026-03-28T10:14:05.297Z</time></trkpt><trkpt lat="41.3293451" lon="1.9109536"><ele>374.0</ele><time>2026-03-28T10:14:06.297Z</time></trkpt><trkpt lat="41.3294406" lon="1.9107499"><ele>374.0</ele><time>2026-03-28T10:14:07.297Z</time></trkpt><trkpt lat="41.3295356" lon="1.9105489"><ele>374.0</ele><time>2026-03-28T10:14:08.297Z</time></trkpt><trkpt lat="41.3296418" lon="1.9103608"><ele>374.0</ele><time>2026-03-28T10:14:09.297Z</time></trkpt><trkpt lat="41.3297472" lon="1.9101782"><ele>374.0</ele><time>2026-03-28T10:14:10.297Z</time></trkpt><trkpt lat="41.3298568" lon="1.9099976"><ele>371.6666666666667</ele><time>2026-03-28T10:14:11.297Z</time></trkpt><trkpt lat="41.3299711" lon="1.9098237"><ele>369.3333333333333</ele><time>2026-03-28T10:14:12.297Z</time></trkpt><trkpt lat="41.3300836" lon="1.9096577"><ele>367.0</ele><time>2026-03-28T10:14:13.297Z</time></trkpt><trkpt lat="41.3302017" lon="1.9094983"><ele>367.0</ele><time>2026-03-28T10:14:14.297Z</time></trkpt><trkpt lat="41.3303218" lon="1.909338"><ele>367.0</ele><time>2026-03-28T10:14:15.297Z</time></trkpt><trkpt lat="41.3304398" lon="1.9091776"><ele>367.0</ele><time>2026-03-28T10:14:16.297Z</time></trkpt><trkpt lat="41.3305538" lon="1.9090212"><ele>365.3333333333333</ele><time>2026-03-28T10:14:17.297Z</time></trkpt><trkpt lat="41.3306687" lon="1.9088693"><ele>363.6666666666667</ele><time>2026-03-28T10:14:18.297Z</time></trkpt><trkpt lat="41.3307859" lon="1.9087167"><ele>362.0</ele><time>2026-03-28T10:14:19.297Z</time></trkpt><trkpt lat="41.3308997" lon="1.9085641"><ele>362.0</ele><time>2026-03-28T10:14:20.297Z</time></trkpt><trkpt lat="41.3310156" lon="1.9084143"><ele>362.0</ele><time>2026-03-28T10:14:21.297Z</time></trkpt><trkpt lat="41.3311303" lon="1.9082624"><ele>362.0</ele><time>2026-03-28T10:14:22.297Z</time></trkpt><trkpt lat="41.3312469" lon="1.9081128"><ele>362.0</ele><time>2026-03-28T10:14:23.297Z</time></trkpt><trkpt lat="41.3313602" lon="1.9079618"><ele>362.0</ele><time>2026-03-28T10:14:24.297Z</time></trkpt><trkpt lat="41.3314752" lon="1.9078109"><ele>362.0</ele><time>2026-03-28T10:14:25.297Z</time></trkpt><trkpt lat="41.3315946" lon="1.9076463"><ele>361.33333333333337</ele><time>2026-03-28T10:14:26.297Z</time></trkpt><trkpt lat="41.3317274" lon="1.9074627"><ele>360.6666666666667</ele><time>2026-03-28T10:14:27.297Z</time></trkpt><trkpt lat="41.3318572" lon="1.9072897"><ele>360.0</ele><time>2026-03-28T10:14:28.297Z</time></trkpt><trkpt lat="41.3319832" lon="1.9071156"><ele>360.0</ele><time>2026-03-28T10:14:29.297Z</time></trkpt><trkpt lat="41.3321151" lon="1.9069404"><ele>360.0</ele><time>2026-03-28T10:14:30.297Z</time></trkpt><trkpt lat="41.3322464" lon="1.9067668"><ele>360.0</ele><time>2026-03-28T10:14:31.297Z</time></trkpt><trkpt lat="41.3323801" lon="1.906589"><ele>358.3333333333333</ele><time>2026-03-28T10:14:32.297Z</time></trkpt><trkpt lat="41.3325123" lon="1.9064134"><ele>356.66666666666663</ele><time>2026-03-28T10:14:33.297Z</time></trkpt><trkpt lat="41.3326421" lon="1.9062413"><ele>355.0</ele><time>2026-03-28T10:14:34.297Z</time></trkpt><trkpt lat="41.3327709" lon="1.9060706"><ele>355.0</ele><time>2026-03-28T10:14:35.297Z</time></trkpt><trkpt lat="41.3329034" lon="1.9059006"><ele>355.0</ele><time>2026-03-28T10:14:36.297Z</time></trkpt><trkpt lat="41.3330334" lon="1.9057329"><ele>355.0</ele><time>2026-03-28T10:14:37.297Z</time></trkpt><trkpt lat="41.3331603" lon="1.9055632"><ele>355.3333333333333</ele><time>2026-03-28T10:14:38.297Z</time></trkpt><trkpt lat="41.3332866" lon="1.9053946"><ele>355.6666666666667</ele><time>2026-03-28T10:14:39.297Z</time></trkpt><trkpt lat="41.3334142" lon="1.9052327"><ele>356.0</ele><time>2026-03-28T10:14:40.296Z</time></trkpt><trkpt lat="41.3335428" lon="1.9050742"><ele>356.0</ele><time>2026-03-28T10:14:41.297Z</time></trkpt><trkpt lat="41.3336758" lon="1.9049242"><ele>356.0</ele><time>2026-03-28T10:14:42.297Z</time></trkpt><trkpt lat="41.3338099" lon="1.9047876"><ele>356.0</ele><time>2026-03-28T10:14:43.297Z</time></trkpt><trkpt lat="41.3339451" lon="1.904654"><ele>356.0</ele><time>2026-03-28T10:14:44.297Z</time></trkpt><trkpt lat="41.3340885" lon="1.9045274"><ele>356.0</ele><time>2026-03-28T10:14:45.297Z</time></trkpt><trkpt lat="41.3342411" lon="1.9043993"><ele>356.0</ele><time>2026-03-28T10:14:46.297Z</time></trkpt><trkpt lat="41.3344074" lon="1.9042665"><ele>355.33333333333337</ele><time>2026-03-28T10:14:47.297Z</time></trkpt><trkpt lat="41.3345776" lon="1.9041449"><ele>354.6666666666667</ele><time>2026-03-28T10:14:48.297Z</time></trkpt><trkpt lat="41.3347459" lon="1.9040382"><ele>354.0</ele><time>2026-03-28T10:14:49.297Z</time></trkpt><trkpt lat="41.3349134" lon="1.9039435"><ele>354.0</ele><time>2026-03-28T10:14:50.297Z</time></trkpt><trkpt lat="41.3350754" lon="1.9038627"><ele>354.0</ele><time>2026-03-28T10:14:51.297Z</time></trkpt><trkpt lat="41.3352224" lon="1.9037991"><ele>354.0</ele><time>2026-03-28T10:14:52.297Z</time></trkpt><trkpt lat="41.3353427" lon="1.9037528"><ele>354.0</ele><time>2026-03-28T10:14:53.297Z</time></trkpt><trkpt lat="41.3354456" lon="1.9037182"><ele>354.0</ele><time>2026-03-28T10:14:54.297Z</time></trkpt><trkpt lat="41.3355415" lon="1.9036865"><ele>354.0</ele><time>2026-03-28T10:14:55.297Z</time></trkpt><trkpt lat="41.3356268" lon="1.903656"><ele>354.0</ele><time>2026-03-28T10:14:56.297Z</time></trkpt><trkpt lat="41.3357006" lon="1.903631"><ele>354.0</ele><time>2026-03-28T10:14:57.297Z</time></trkpt><trkpt lat="41.3357705" lon="1.9036163"><ele>354.0</ele><time>2026-03-28T10:14:58.297Z</time></trkpt><trkpt lat="41.3358444" lon="1.9036177"><ele>354.8333333333333</ele><time>2026-03-28T10:14:59.297Z</time></trkpt><trkpt lat="41.3359181" lon="1.9036559"><ele>355.6666666666667</ele><time>2026-03-28T10:15:00.297Z</time></trkpt><trkpt lat="41.3359844" lon="1.9037289"><ele>356.5</ele><time>2026-03-28T10:15:01.297Z</time></trkpt><trkpt lat="41.3360525" lon="1.9037923"><ele>357.33333333333337</ele><time>2026-03-28T10:15:02.297Z</time></trkpt><trkpt lat="41.3361337" lon="1.9038221"><ele>358.1666666666667</ele><time>2026-03-28T10:15:03.297Z</time></trkpt><trkpt lat="41.3362115" lon="1.9038057"><ele>359.0</ele><time>2026-03-28T10:15:04.297Z</time></trkpt><trkpt lat="41.3362797" lon="1.9037477"><ele>359.0</ele><time>2026-03-28T10:15:05.297Z</time></trkpt><trkpt lat="41.3363351" lon="1.9036462"><ele>359.0</ele><time>2026-03-28T10:15:06.297Z</time></trkpt><trkpt lat="41.33639" lon="1.9035237"><ele>359.0</ele><time>2026-03-28T10:15:07.297Z</time></trkpt><trkpt lat="41.3364722" lon="1.9033358"><ele>359.0</ele><time>2026-03-28T10:15:08.297Z</time></trkpt><trkpt lat="41.3365538" lon="1.9031483"><ele>360.33333333333337</ele><time>2026-03-28T10:15:09.297Z</time></trkpt><trkpt lat="41.336628" lon="1.9029178"><ele>361.6666666666667</ele><time>2026-03-28T10:15:10.297Z</time></trkpt><trkpt lat="41.3366859" lon="1.9026481"><ele>363.0</ele><time>2026-03-28T10:15:11.296Z</time></trkpt><trkpt lat="41.3367267" lon="1.9023816"><ele>360.3333333333333</ele><time>2026-03-28T10:15:12.296Z</time></trkpt><trkpt lat="41.3367661" lon="1.902126"><ele>357.66666666666663</ele><time>2026-03-28T10:15:13.297Z</time></trkpt><trkpt lat="41.336803" lon="1.9018899"><ele>355.0</ele><time>2026-03-28T10:15:14.297Z</time></trkpt><trkpt lat="41.3368387" lon="1.9016657"><ele>354.66666666666663</ele><time>2026-03-28T10:15:15.297Z</time></trkpt><trkpt lat="41.3368674" lon="1.9014539"><ele>354.3333333333333</ele><time>2026-03-28T10:15:16.297Z</time></trkpt><trkpt lat="41.3368944" lon="1.9012575"><ele>354.0</ele><time>2026-03-28T10:15:17.297Z</time></trkpt><trkpt lat="41.3369209" lon="1.9010692"><ele>353.75</ele><time>2026-03-28T10:15:18.296Z</time></trkpt><trkpt lat="41.3369455" lon="1.9008936"><ele>353.5</ele><time>2026-03-28T10:15:19.297Z</time></trkpt><trkpt lat="41.3369694" lon="1.9007225"><ele>353.25</ele><time>2026-03-28T10:15:20.297Z</time></trkpt><trkpt lat="41.3369925" lon="1.9005644"><ele>353.0</ele><time>2026-03-28T10:15:21.297Z</time></trkpt><trkpt lat="41.3370139" lon="1.9004209"><ele>353.0</ele><time>2026-03-28T10:15:22.296Z</time></trkpt><trkpt lat="41.3370314" lon="1.9002866"><ele>353.0</ele><time>2026-03-28T10:15:23.297Z</time></trkpt><trkpt lat="41.3370442" lon="1.9001634"><ele>353.0</ele><time>2026-03-28T10:15:24.297Z</time></trkpt><trkpt lat="41.3370761" lon="1.9000566"><ele>353.0</ele><time>2026-03-28T10:15:25.297Z</time></trkpt><trkpt lat="41.3371304" lon="1.8999642"><ele>353.0</ele><time>2026-03-28T10:15:26.297Z</time></trkpt><trkpt lat="41.3371851" lon="1.899865"><ele>352.83333333333337</ele><time>2026-03-28T10:15:27.297Z</time></trkpt><trkpt lat="41.3372133" lon="1.8997645"><ele>352.6666666666667</ele><time>2026-03-28T10:15:28.297Z</time></trkpt><trkpt lat="41.3372115" lon="1.8996511"><ele>352.5</ele><time>2026-03-28T10:15:29.297Z</time></trkpt><trkpt lat="41.3371803" lon="1.8995389"><ele>352.3333333333333</ele><time>2026-03-28T10:15:30.297Z</time></trkpt><trkpt lat="41.3371645" lon="1.899422"><ele>352.16666666666663</ele><time>2026-03-28T10:15:31.297Z</time></trkpt><trkpt lat="41.3371787" lon="1.8992952"><ele>352.0</ele><time>2026-03-28T10:15:32.297Z</time></trkpt><trkpt lat="41.3372164" lon="1.899176"><ele>352.8</ele><time>2026-03-28T10:15:33.296Z</time></trkpt><trkpt lat="41.3372652" lon="1.8990634"><ele>353.6</ele><time>2026-03-28T10:15:34.297Z</time></trkpt><trkpt lat="41.3373209" lon="1.8989493"><ele>354.40000000000003</ele><time>2026-03-28T10:15:35.297Z</time></trkpt><trkpt lat="41.3373837" lon="1.8988356"><ele>355.20000000000005</ele><time>2026-03-28T10:15:36.297Z</time></trkpt><trkpt lat="41.3374497" lon="1.8987327"><ele>356.0</ele><time>2026-03-28T10:15:37.297Z</time></trkpt><trkpt lat="41.3375139" lon="1.8986288"><ele>356.0</ele><time>2026-03-28T10:15:38.297Z</time></trkpt><trkpt lat="41.3375847" lon="1.8985165"><ele>356.0</ele><time>2026-03-28T10:15:39.296Z</time></trkpt><trkpt lat="41.3376565" lon="1.8983925"><ele>356.0</ele><time>2026-03-28T10:15:40.297Z</time></trkpt><trkpt lat="41.3377323" lon="1.8982754"><ele>356.0</ele><time>2026-03-28T10:15:41.297Z</time></trkpt><trkpt lat="41.3378046" lon="1.8981535"><ele>355.25</ele><time>2026-03-28T10:15:42.297Z</time></trkpt><trkpt lat="41.3378799" lon="1.898033"><ele>354.5</ele><time>2026-03-28T10:15:43.297Z</time></trkpt><trkpt lat="41.3379507" lon="1.8979127"><ele>353.75</ele><time>2026-03-28T10:15:44.297Z</time></trkpt><trkpt lat="41.3380241" lon="1.8977842"><ele>353.0</ele><time>2026-03-28T10:15:45.297Z</time></trkpt><trkpt lat="41.3381043" lon="1.8976493"><ele>355.0</ele><time>2026-03-28T10:15:46.297Z</time></trkpt><trkpt lat="41.3381728" lon="1.8975101"><ele>357.0</ele><time>2026-03-28T10:15:47.297Z</time></trkpt><trkpt lat="41.3382384" lon="1.8973644"><ele>359.0</ele><time>2026-03-28T10:15:48.297Z</time></trkpt><trkpt lat="41.3383104" lon="1.8972106"><ele>361.0</ele><time>2026-03-28T10:15:49.297Z</time></trkpt><trkpt lat="41.3383804" lon="1.8970498"><ele>361.0</ele><time>2026-03-28T10:15:50.297Z</time></trkpt><trkpt lat="41.3384551" lon="1.8968869"><ele>361.0</ele><time>2026-03-28T10:15:51.297Z</time></trkpt><trkpt lat="41.3385284" lon="1.8967179"><ele>361.0</ele><time>2026-03-28T10:15:52.297Z</time></trkpt><trkpt lat="41.3385989" lon="1.8965484"><ele>361.0</ele><time>2026-03-28T10:15:53.297Z</time></trkpt><trkpt lat="41.3386676" lon="1.8963696"><ele>359.3333333333333</ele><time>2026-03-28T10:15:54.297Z</time></trkpt><trkpt lat="41.3387334" lon="1.8961794"><ele>357.6666666666667</ele><time>2026-03-28T10:15:55.297Z</time></trkpt><trkpt lat="41.3387953" lon="1.8959721"><ele>356.0</ele><time>2026-03-28T10:15:56.297Z</time></trkpt><trkpt lat="41.338852" lon="1.8957524"><ele>363.33333333333337</ele><time>2026-03-28T10:15:57.297Z</time></trkpt><trkpt lat="41.3388949" lon="1.8955401"><ele>370.6666666666667</ele><time>2026-03-28T10:15:58.297Z</time></trkpt><trkpt lat="41.3389213" lon="1.8952923"><ele>378.0</ele><time>2026-03-28T10:15:59.297Z</time></trkpt><trkpt lat="41.3389262" lon="1.8950319"><ele>378.0</ele><time>2026-03-28T10:16:00.297Z</time></trkpt><trkpt lat="41.3389" lon="1.8947746"><ele>378.0</ele><time>2026-03-28T10:16:01.297Z</time></trkpt><trkpt lat="41.3388516" lon="1.8945081"><ele>378.0</ele><time>2026-03-28T10:16:02.297Z</time></trkpt><trkpt lat="41.3387604" lon="1.8942431"><ele>370.6666666666667</ele><time>2026-03-28T10:16:03.297Z</time></trkpt><trkpt lat="41.3386474" lon="1.894"><ele>363.33333333333337</ele><time>2026-03-28T10:16:04.297Z</time></trkpt><trkpt lat="41.3385388" lon="1.8937713"><ele>356.0</ele><time>2026-03-28T10:16:05.297Z</time></trkpt><trkpt lat="41.3384362" lon="1.8935547"><ele>357.6666666666667</ele><time>2026-03-28T10:16:06.296Z</time></trkpt><trkpt lat="41.3383388" lon="1.8933547"><ele>359.3333333333333</ele><time>2026-03-28T10:16:07.297Z</time></trkpt><trkpt lat="41.3382447" lon="1.8931749"><ele>361.0</ele><time>2026-03-28T10:16:08.297Z</time></trkpt><trkpt lat="41.3381568" lon="1.8930047"><ele>361.0</ele><time>2026-03-28T10:16:09.297Z</time></trkpt><trkpt lat="41.3380712" lon="1.892844"><ele>361.0</ele><time>2026-03-28T10:16:10.297Z</time></trkpt><trkpt lat="41.3379969" lon="1.8926939"><ele>361.0</ele><time>2026-03-28T10:16:11.297Z</time></trkpt><trkpt lat="41.3379339" lon="1.8925585"><ele>361.0</ele><time>2026-03-28T10:16:12.297Z</time></trkpt><trkpt lat="41.3378861" lon="1.8924246"><ele>358.25</ele><time>2026-03-28T10:16:13.297Z</time></trkpt><trkpt lat="41.3378548" lon="1.8922905"><ele>355.5</ele><time>2026-03-28T10:16:14.297Z</time></trkpt><trkpt lat="41.3378303" lon="1.8921543"><ele>352.75</ele><time>2026-03-28T10:16:15.297Z</time></trkpt><trkpt lat="41.337812" lon="1.8919927"><ele>350.0</ele><time>2026-03-28T10:16:16.297Z</time></trkpt><trkpt lat="41.3378024" lon="1.8918186"><ele>350.33333333333337</ele><time>2026-03-28T10:16:17.297Z</time></trkpt><trkpt lat="41.3378024" lon="1.8916291"><ele>350.6666666666667</ele><time>2026-03-28T10:16:18.297Z</time></trkpt><trkpt lat="41.3378031" lon="1.8914276"><ele>351.0</ele><time>2026-03-28T10:16:19.297Z</time></trkpt><trkpt lat="41.3377937" lon="1.891217"><ele>351.0</ele><time>2026-03-28T10:16:20.297Z</time></trkpt><trkpt lat="41.3377752" lon="1.8910028"><ele>351.0</ele><time>2026-03-28T10:16:21.296Z</time></trkpt><trkpt lat="41.3377463" lon="1.8907823"><ele>351.0</ele><time>2026-03-28T10:16:22.297Z</time></trkpt><trkpt lat="41.3377045" lon="1.890553"><ele>351.3333333333333</ele><time>2026-03-28T10:16:23.297Z</time></trkpt><trkpt lat="41.3376556" lon="1.8903293"><ele>351.66666666666663</ele><time>2026-03-28T10:16:24.297Z</time></trkpt><trkpt lat="41.3376035" lon="1.8901131"><ele>352.0</ele><time>2026-03-28T10:16:25.297Z</time></trkpt><trkpt lat="41.3375523" lon="1.8899129"><ele>352.66666666666663</ele><time>2026-03-28T10:16:26.297Z</time></trkpt><trkpt lat="41.3375013" lon="1.8897194"><ele>353.3333333333333</ele><time>2026-03-28T10:16:27.297Z</time></trkpt><trkpt lat="41.3374504" lon="1.8895325"><ele>354.0</ele><time>2026-03-28T10:16:28.297Z</time></trkpt><trkpt lat="41.3373955" lon="1.889344"><ele>353.75</ele><time>2026-03-28T10:16:29.297Z</time></trkpt><trkpt lat="41.3373438" lon="1.8891529"><ele>353.5</ele><time>2026-03-28T10:16:30.297Z</time></trkpt><trkpt lat="41.3372942" lon="1.8889629"><ele>353.25</ele><time>2026-03-28T10:16:31.296Z</time></trkpt><trkpt lat="41.3372474" lon="1.8887832"><ele>353.0</ele><time>2026-03-28T10:16:32.297Z</time></trkpt><trkpt lat="41.3371994" lon="1.8886101"><ele>351.75</ele><time>2026-03-28T10:16:33.296Z</time></trkpt><trkpt lat="41.3371523" lon="1.8884378"><ele>350.5</ele><time>2026-03-28T10:16:34.297Z</time></trkpt><trkpt lat="41.3371073" lon="1.8882589"><ele>349.25</ele><time>2026-03-28T10:16:35.297Z</time></trkpt><trkpt lat="41.3370593" lon="1.8880768"><ele>348.0</ele><time>2026-03-28T10:16:36.297Z</time></trkpt><trkpt lat="41.3370104" lon="1.887907"><ele>347.5</ele><time>2026-03-28T10:16:37.296Z</time></trkpt><trkpt lat="41.3369506" lon="1.8877414"><ele>347.0</ele><time>2026-03-28T10:16:38.296Z</time></trkpt><trkpt lat="41.3368748" lon="1.8875821"><ele>346.5</ele><time>2026-03-28T10:16:39.297Z</time></trkpt><trkpt lat="41.3367881" lon="1.8874331"><ele>346.0</ele><time>2026-03-28T10:16:40.297Z</time></trkpt><trkpt lat="41.3366894" lon="1.8873043"><ele>346.0</ele><time>2026-03-28T10:16:41.296Z</time></trkpt><trkpt lat="41.336569" lon="1.8871951"><ele>346.0</ele><time>2026-03-28T10:16:42.297Z</time></trkpt><trkpt lat="41.3364499" lon="1.8870997"><ele>346.0</ele><time>2026-03-28T10:16:43.297Z</time></trkpt><trkpt lat="41.3363339" lon="1.8870187"><ele>346.0</ele><time>2026-03-28T10:16:44.297Z</time></trkpt><trkpt lat="41.3362366" lon="1.8869385"><ele>345.25</ele><time>2026-03-28T10:16:45.297Z</time></trkpt><trkpt lat="41.3361601" lon="1.8868526"><ele>344.5</ele><time>2026-03-28T10:16:46.297Z</time></trkpt><trkpt lat="41.3360952" lon="1.8867353"><ele>343.75</ele><time>2026-03-28T10:16:47.297Z</time></trkpt><trkpt lat="41.3360397" lon="1.8865962"><ele>343.0</ele><time>2026-03-28T10:16:48.297Z</time></trkpt><trkpt lat="41.3360046" lon="1.8864274"><ele>343.0</ele><time>2026-03-28T10:16:49.296Z</time></trkpt><trkpt lat="41.3359956" lon="1.886244"><ele>343.0</ele><time>2026-03-28T10:16:50.297Z</time></trkpt><trkpt lat="41.3360083" lon="1.8860561"><ele>343.0</ele><time>2026-03-28T10:16:51.297Z</time></trkpt><trkpt lat="41.3360341" lon="1.8858568"><ele>343.0</ele><time>2026-03-28T10:16:52.297Z</time></trkpt><trkpt lat="41.3360525" lon="1.8856631"><ele>343.5</ele><time>2026-03-28T10:16:53.296Z</time></trkpt><trkpt lat="41.3360573" lon="1.885477"><ele>344.0</ele><time>2026-03-28T10:16:54.297Z</time></trkpt><trkpt lat="41.336032" lon="1.885295"><ele>344.5</ele><time>2026-03-28T10:16:55.297Z</time></trkpt><trkpt lat="41.3359872" lon="1.8851205"><ele>345.0</ele><time>2026-03-28T10:16:56.297Z</time></trkpt><trkpt lat="41.3359321" lon="1.8849555"><ele>345.25</ele><time>2026-03-28T10:16:57.297Z</time></trkpt><trkpt lat="41.3358761" lon="1.8848023"><ele>345.5</ele><time>2026-03-28T10:16:58.297Z</time></trkpt><trkpt lat="41.3358306" lon="1.8846562"><ele>345.75</ele><time>2026-03-28T10:16:59.297Z</time></trkpt><trkpt lat="41.3357877" lon="1.8845199"><ele>346.0</ele><time>2026-03-28T10:17:00.297Z</time></trkpt><trkpt lat="41.3357426" lon="1.8843864"><ele>344.25</ele><time>2026-03-28T10:17:01.297Z</time></trkpt><trkpt lat="41.3356806" lon="1.8842442"><ele>342.5</ele><time>2026-03-28T10:17:02.297Z</time></trkpt><trkpt lat="41.3356078" lon="1.884106"><ele>340.75</ele><time>2026-03-28T10:17:03.297Z</time></trkpt><trkpt lat="41.3355304" lon="1.8839711"><ele>339.0</ele><time>2026-03-28T10:17:04.297Z</time></trkpt><trkpt lat="41.3354473" lon="1.8838359"><ele>339.0</ele><time>2026-03-28T10:17:05.297Z</time></trkpt><trkpt lat="41.3353541" lon="1.8837121"><ele>339.0</ele><time>2026-03-28T10:17:06.297Z</time></trkpt><trkpt lat="41.3352562" lon="1.8836028"><ele>339.0</ele><time>2026-03-28T10:17:07.297Z</time></trkpt><trkpt lat="41.3351514" lon="1.8835042"><ele>339.0</ele><time>2026-03-28T10:17:08.297Z</time></trkpt><trkpt lat="41.3350433" lon="1.8834147"><ele>337.75</ele><time>2026-03-28T10:17:09.297Z</time></trkpt><trkpt lat="41.3349413" lon="1.8833271"><ele>336.5</ele><time>2026-03-28T10:17:10.297Z</time></trkpt><trkpt lat="41.3348404" lon="1.8832417"><ele>335.25</ele><time>2026-03-28T10:17:11.297Z</time></trkpt><trkpt lat="41.3347413" lon="1.8831568"><ele>334.0</ele><time>2026-03-28T10:17:12.297Z</time></trkpt><trkpt lat="41.3346527" lon="1.8830697"><ele>334.0</ele><time>2026-03-28T10:17:13.297Z</time></trkpt><trkpt lat="41.3345712" lon="1.8829685"><ele>334.0</ele><time>2026-03-28T10:17:14.297Z</time></trkpt><trkpt lat="41.3344939" lon="1.8828329"><ele>334.0</ele><time>2026-03-28T10:17:15.297Z</time></trkpt><trkpt lat="41.3344316" lon="1.8826773"><ele>334.0</ele><time>2026-03-28T10:17:16.297Z</time></trkpt><trkpt lat="41.3344029" lon="1.8824841"><ele>335.0</ele><time>2026-03-28T10:17:17.297Z</time></trkpt><trkpt lat="41.3343952" lon="1.8822814"><ele>336.0</ele><time>2026-03-28T10:17:18.296Z</time></trkpt><trkpt lat="41.3344141" lon="1.8820579"><ele>337.0</ele><time>2026-03-28T10:17:19.296Z</time></trkpt><trkpt lat="41.3344593" lon="1.8818238"><ele>336.3333333333333</ele><time>2026-03-28T10:17:20.297Z</time></trkpt><trkpt lat="41.334522" lon="1.8816084"><ele>335.6666666666667</ele><time>2026-03-28T10:17:21.297Z</time></trkpt><trkpt lat="41.3345914" lon="1.8813971"><ele>335.0</ele><time>2026-03-28T10:17:22.297Z</time></trkpt><trkpt lat="41.3346509" lon="1.8812021"><ele>335.0</ele><time>2026-03-28T10:17:23.296Z</time></trkpt><trkpt lat="41.3347037" lon="1.8810274"><ele>335.0</ele><time>2026-03-28T10:17:24.297Z</time></trkpt><trkpt lat="41.3347517" lon="1.8808646"><ele>335.0</ele><time>2026-03-28T10:17:25.297Z</time></trkpt><trkpt lat="41.3347935" lon="1.8807094"><ele>335.0</ele><time>2026-03-28T10:17:26.297Z</time></trkpt><trkpt lat="41.3348149" lon="1.8805623"><ele>335.0</ele><time>2026-03-28T10:17:27.296Z</time></trkpt><trkpt lat="41.3348105" lon="1.8804139"><ele>335.0</ele><time>2026-03-28T10:17:28.296Z</time></trkpt><trkpt lat="41.3347685" lon="1.8802664"><ele>335.0</ele><time>2026-03-28T10:17:29.297Z</time></trkpt><trkpt lat="41.3346957" lon="1.8801245"><ele>335.0</ele><time>2026-03-28T10:17:30.297Z</time></trkpt><trkpt lat="41.334625" lon="1.879983"><ele>335.0</ele><time>2026-03-28T10:17:31.296Z</time></trkpt><trkpt lat="41.3345612" lon="1.8798335"><ele>335.0</ele><time>2026-03-28T10:17:32.297Z</time></trkpt><trkpt lat="41.3345238" lon="1.8796615"><ele>335.0</ele><time>2026-03-28T10:17:33.297Z</time></trkpt><trkpt lat="41.3345019" lon="1.879501"><ele>335.0</ele><time>2026-03-28T10:17:34.296Z</time></trkpt><trkpt lat="41.3344899" lon="1.8793506"><ele>335.6</ele><time>2026-03-28T10:17:35.297Z</time></trkpt><trkpt lat="41.3344759" lon="1.8792034"><ele>336.2</ele><time>2026-03-28T10:17:36.297Z</time></trkpt><trkpt lat="41.3344573" lon="1.8790559"><ele>336.79999999999995</ele><time>2026-03-28T10:17:37.297Z</time></trkpt><trkpt lat="41.3344401" lon="1.8789081"><ele>337.4</ele><time>2026-03-28T10:17:38.297Z</time></trkpt><trkpt lat="41.334425" lon="1.8787654"><ele>338.0</ele><time>2026-03-28T10:17:39.296Z</time></trkpt><trkpt lat="41.3344131" lon="1.8786257"><ele>338.0</ele><time>2026-03-28T10:17:40.297Z</time></trkpt><trkpt lat="41.3343996" lon="1.878488"><ele>338.0</ele><time>2026-03-28T10:17:41.296Z</time></trkpt><trkpt lat="41.3343871" lon="1.8783539"><ele>338.0</ele><time>2026-03-28T10:17:42.296Z</time></trkpt><trkpt lat="41.3343747" lon="1.8782218"><ele>338.0</ele><time>2026-03-28T10:17:43.297Z</time></trkpt><trkpt lat="41.3343643" lon="1.8780858"><ele>338.0</ele><time>2026-03-28T10:17:44.297Z</time></trkpt><trkpt lat="41.3343573" lon="1.8779488"><ele>337.75</ele><time>2026-03-28T10:17:45.297Z</time></trkpt><trkpt lat="41.3343717" lon="1.87781"><ele>337.5</ele><time>2026-03-28T10:17:46.297Z</time></trkpt><trkpt lat="41.3344209" lon="1.8776591"><ele>337.25</ele><time>2026-03-28T10:17:47.297Z</time></trkpt><trkpt lat="41.3345041" lon="1.8775124"><ele>337.0</ele><time>2026-03-28T10:17:48.297Z</time></trkpt><trkpt lat="41.3346165" lon="1.877386"><ele>336.0</ele><time>2026-03-28T10:17:49.297Z</time></trkpt><trkpt lat="41.3347326" lon="1.8772806"><ele>335.0</ele><time>2026-03-28T10:17:50.296Z</time></trkpt><trkpt lat="41.3348482" lon="1.8771769"><ele>334.0</ele><time>2026-03-28T10:17:51.297Z</time></trkpt><trkpt lat="41.334958" lon="1.8770715"><ele>333.0</ele><time>2026-03-28T10:17:52.297Z</time></trkpt><trkpt lat="41.3350579" lon="1.8769697"><ele>333.0</ele><time>2026-03-28T10:17:53.297Z</time></trkpt><trkpt lat="41.3351415" lon="1.8768755"><ele>333.0</ele><time>2026-03-28T10:17:54.297Z</time></trkpt><trkpt lat="41.3352175" lon="1.8767874"><ele>333.0</ele><time>2026-03-28T10:17:55.297Z</time></trkpt><trkpt lat="41.3352836" lon="1.8766994"><ele>333.0</ele><time>2026-03-28T10:17:56.297Z</time></trkpt><trkpt lat="41.3353452" lon="1.8766119"><ele>333.0</ele><time>2026-03-28T10:17:57.297Z</time></trkpt><trkpt lat="41.3354052" lon="1.8765126"><ele>332.79999999999995</ele><time>2026-03-28T10:17:58.297Z</time></trkpt><trkpt lat="41.3354463" lon="1.8763921"><ele>332.6</ele><time>2026-03-28T10:17:59.297Z</time></trkpt><trkpt lat="41.3354627" lon="1.8762564"><ele>332.4</ele><time>2026-03-28T10:18:00.297Z</time></trkpt><trkpt lat="41.3354485" lon="1.876115"><ele>332.20000000000005</ele><time>2026-03-28T10:18:01.297Z</time></trkpt><trkpt lat="41.3354128" lon="1.8759613"><ele>332.0</ele><time>2026-03-28T10:18:02.297Z</time></trkpt><trkpt lat="41.3353705" lon="1.8757897"><ele>332.0</ele><time>2026-03-28T10:18:03.297Z</time></trkpt><trkpt lat="41.3353309" lon="1.8756183"><ele>332.0</ele><time>2026-03-28T10:18:04.297Z</time></trkpt><trkpt lat="41.3352979" lon="1.8754484"><ele>332.0</ele><time>2026-03-28T10:18:05.297Z</time></trkpt><trkpt lat="41.3352877" lon="1.8752859"><ele>332.0</ele><time>2026-03-28T10:18:06.297Z</time></trkpt><trkpt lat="41.3352936" lon="1.875121"><ele>331.25</ele><time>2026-03-28T10:18:07.297Z</time></trkpt><trkpt lat="41.3353095" lon="1.8749599"><ele>330.5</ele><time>2026-03-28T10:18:08.297Z</time></trkpt><trkpt lat="41.3353222" lon="1.8747985"><ele>329.75</ele><time>2026-03-28T10:18:09.297Z</time></trkpt><trkpt lat="41.3353272" lon="1.8746449"><ele>329.0</ele><time>2026-03-28T10:18:10.297Z</time></trkpt><trkpt lat="41.3353298" lon="1.8745023"><ele>329.0</ele><time>2026-03-28T10:18:11.297Z</time></trkpt><trkpt lat="41.3353241" lon="1.8743619"><ele>329.0</ele><time>2026-03-28T10:18:12.296Z</time></trkpt><trkpt lat="41.3353074" lon="1.8742284"><ele>329.0</ele><time>2026-03-28T10:18:13.297Z</time></trkpt><trkpt lat="41.335287" lon="1.8740795"><ele>329.0</ele><time>2026-03-28T10:18:14.297Z</time></trkpt><trkpt lat="41.3352622" lon="1.8739224"><ele>329.0</ele><time>2026-03-28T10:18:15.296Z</time></trkpt><trkpt lat="41.3352357" lon="1.873757"><ele>328.25</ele><time>2026-03-28T10:18:16.296Z</time></trkpt><trkpt lat="41.3352053" lon="1.8735853"><ele>327.5</ele><time>2026-03-28T10:18:17.297Z</time></trkpt><trkpt lat="41.3351693" lon="1.873419"><ele>326.75</ele><time>2026-03-28T10:18:18.297Z</time></trkpt><trkpt lat="41.3351247" lon="1.8732611"><ele>326.0</ele><time>2026-03-28T10:18:19.296Z</time></trkpt><trkpt lat="41.3350799" lon="1.873121"><ele>325.0</ele><time>2026-03-28T10:18:20.297Z</time></trkpt><trkpt lat="41.3350258" lon="1.8729929"><ele>324.0</ele><time>2026-03-28T10:18:21.296Z</time></trkpt><trkpt lat="41.3349631" lon="1.8728735"><ele>323.0</ele><time>2026-03-28T10:18:22.297Z</time></trkpt><trkpt lat="41.3348831" lon="1.8727598"><ele>322.0</ele><time>2026-03-28T10:18:23.297Z</time></trkpt><trkpt lat="41.3347894" lon="1.872653"><ele>320.25</ele><time>2026-03-28T10:18:24.297Z</time></trkpt><trkpt lat="41.3346898" lon="1.8725645"><ele>318.5</ele><time>2026-03-28T10:18:25.297Z</time></trkpt><trkpt lat="41.3345786" lon="1.8724709"><ele>316.75</ele><time>2026-03-28T10:18:26.297Z</time></trkpt><trkpt lat="41.3344694" lon="1.8723748"><ele>315.0</ele><time>2026-03-28T10:18:27.296Z</time></trkpt><trkpt lat="41.33436" lon="1.8722723"><ele>315.0</ele><time>2026-03-28T10:18:28.297Z</time></trkpt><trkpt lat="41.334249" lon="1.8721643"><ele>315.0</ele><time>2026-03-28T10:18:29.297Z</time></trkpt><trkpt lat="41.3341428" lon="1.8720474"><ele>315.0</ele><time>2026-03-28T10:18:30.297Z</time></trkpt><trkpt lat="41.3340501" lon="1.8719267"><ele>315.0</ele><time>2026-03-28T10:18:31.297Z</time></trkpt><trkpt lat="41.3339635" lon="1.8718058"><ele>314.25</ele><time>2026-03-28T10:18:32.297Z</time></trkpt><trkpt lat="41.3338883" lon="1.8716874"><ele>313.5</ele><time>2026-03-28T10:18:33.296Z</time></trkpt><trkpt lat="41.3338284" lon="1.8715639"><ele>312.75</ele><time>2026-03-28T10:18:34.297Z</time></trkpt><trkpt lat="41.3337952" lon="1.8714216"><ele>312.0</ele><time>2026-03-28T10:18:35.297Z</time></trkpt><trkpt lat="41.3337883" lon="1.871253"><ele>312.0</ele><time>2026-03-28T10:18:36.297Z</time></trkpt><trkpt lat="41.3338099" lon="1.8710724"><ele>312.0</ele><time>2026-03-28T10:18:37.297Z</time></trkpt><trkpt lat="41.333837" lon="1.8709056"><ele>312.0</ele><time>2026-03-28T10:18:38.297Z</time></trkpt><trkpt lat="41.3338604" lon="1.8707499"><ele>312.0</ele><time>2026-03-28T10:18:39.297Z</time></trkpt><trkpt lat="41.3338881" lon="1.870599"><ele>313.5</ele><time>2026-03-28T10:18:40.297Z</time></trkpt><trkpt lat="41.3339262" lon="1.8704513"><ele>315.0</ele><time>2026-03-28T10:18:41.297Z</time></trkpt><trkpt lat="41.33398" lon="1.8702998"><ele>316.5</ele><time>2026-03-28T10:18:42.297Z</time></trkpt><trkpt lat="41.334044" lon="1.8701551"><ele>318.0</ele><time>2026-03-28T10:18:43.297Z</time></trkpt><trkpt lat="41.3341112" lon="1.8700209"><ele>318.0</ele><time>2026-03-28T10:18:44.297Z</time></trkpt><trkpt lat="41.3341853" lon="1.8698861"><ele>318.0</ele><time>2026-03-28T10:18:45.297Z</time></trkpt><trkpt lat="41.334262" lon="1.8697479"><ele>318.0</ele><time>2026-03-28T10:18:46.297Z</time></trkpt><trkpt lat="41.334336" lon="1.8696103"><ele>318.0</ele><time>2026-03-28T10:18:47.297Z</time></trkpt><trkpt lat="41.3344026" lon="1.8694809"><ele>318.0</ele><time>2026-03-28T10:18:48.297Z</time></trkpt><trkpt lat="41.3344692" lon="1.8693591"><ele>318.0</ele><time>2026-03-28T10:18:49.297Z</time></trkpt><trkpt lat="41.3345271" lon="1.8692337"><ele>318.0</ele><time>2026-03-28T10:18:50.297Z</time></trkpt><trkpt lat="41.3345784" lon="1.8690969"><ele>318.0</ele><time>2026-03-28T10:18:51.297Z</time></trkpt><trkpt lat="41.3346267" lon="1.8689466"><ele>318.25</ele><time>2026-03-28T10:18:52.297Z</time></trkpt><trkpt lat="41.3346679" lon="1.8687873"><ele>318.5</ele><time>2026-03-28T10:18:53.296Z</time></trkpt><trkpt lat="41.3347003" lon="1.8686256"><ele>318.75</ele><time>2026-03-28T10:18:54.297Z</time></trkpt><trkpt lat="41.3347282" lon="1.868481"><ele>319.0</ele><time>2026-03-28T10:18:55.297Z</time></trkpt><trkpt lat="41.3347554" lon="1.8683541"><ele>319.0</ele><time>2026-03-28T10:18:56.296Z</time></trkpt><trkpt lat="41.3347776" lon="1.8682296"><ele>319.0</ele><time>2026-03-28T10:18:57.297Z</time></trkpt><trkpt lat="41.3348053" lon="1.8681013"><ele>319.0</ele><time>2026-03-28T10:18:58.297Z</time></trkpt><trkpt lat="41.3348319" lon="1.8679691"><ele>319.0</ele><time>2026-03-28T10:18:59.297Z</time></trkpt><trkpt lat="41.3348565" lon="1.8678376"><ele>319.0</ele><time>2026-03-28T10:19:00.296Z</time></trkpt><trkpt lat="41.3348867" lon="1.8677076"><ele>318.59999999999997</ele><time>2026-03-28T10:19:01.297Z</time></trkpt><trkpt lat="41.3349186" lon="1.8675753"><ele>318.2</ele><time>2026-03-28T10:19:02.297Z</time></trkpt><trkpt lat="41.3349453" lon="1.8674386"><ele>317.79999999999995</ele><time>2026-03-28T10:19:03.297Z</time></trkpt><trkpt lat="41.3349656" lon="1.8673"><ele>317.4</ele><time>2026-03-28T10:19:04.297Z</time></trkpt><trkpt lat="41.3349797" lon="1.8671543"><ele>317.0</ele><time>2026-03-28T10:19:05.296Z</time></trkpt><trkpt lat="41.3349863" lon="1.866989"><ele>317.0</ele><time>2026-03-28T10:19:06.297Z</time></trkpt><trkpt lat="41.3349872" lon="1.8668017"><ele>317.0</ele><time>2026-03-28T10:19:07.297Z</time></trkpt><trkpt lat="41.3349794" lon="1.8666152"><ele>317.0</ele><time>2026-03-28T10:19:08.297Z</time></trkpt><trkpt lat="41.3349712" lon="1.8664242"><ele>317.0</ele><time>2026-03-28T10:19:09.297Z</time></trkpt><trkpt lat="41.3349562" lon="1.8662422"><ele>317.25</ele><time>2026-03-28T10:19:10.297Z</time></trkpt><trkpt lat="41.33494" lon="1.8660703"><ele>317.5</ele><time>2026-03-28T10:19:11.297Z</time></trkpt><trkpt lat="41.3349212" lon="1.8659032"><ele>317.75</ele><time>2026-03-28T10:19:12.297Z</time></trkpt><trkpt lat="41.3348947" lon="1.865742"><ele>318.0</ele><time>2026-03-28T10:19:13.297Z</time></trkpt><trkpt lat="41.3348576" lon="1.8655807"><ele>318.3333333333333</ele><time>2026-03-28T10:19:14.297Z</time></trkpt><trkpt lat="41.3348005" lon="1.8654078"><ele>318.66666666666663</ele><time>2026-03-28T10:19:15.297Z</time></trkpt><trkpt lat="41.334722" lon="1.8652318"><ele>319.0</ele><time>2026-03-28T10:19:16.297Z</time></trkpt><trkpt lat="41.3346357" lon="1.8650607"><ele>316.0</ele><time>2026-03-28T10:19:17.297Z</time></trkpt><trkpt lat="41.3345527" lon="1.864903"><ele>313.0</ele><time>2026-03-28T10:19:18.297Z</time></trkpt><trkpt lat="41.3344725" lon="1.8647465"><ele>310.0</ele><time>2026-03-28T10:19:19.297Z</time></trkpt><trkpt lat="41.3344045" lon="1.8645933"><ele>307.0</ele><time>2026-03-28T10:19:20.297Z</time></trkpt><trkpt lat="41.3343489" lon="1.8644502"><ele>307.0</ele><time>2026-03-28T10:19:21.297Z</time></trkpt><trkpt lat="41.3343045" lon="1.8643159"><ele>307.0</ele><time>2026-03-28T10:19:22.297Z</time></trkpt><trkpt lat="41.3342643" lon="1.8641918"><ele>307.0</ele><time>2026-03-28T10:19:23.297Z</time></trkpt><trkpt lat="41.334227" lon="1.8640276"><ele>307.0</ele><time>2026-03-28T10:19:24.297Z</time></trkpt><trkpt lat="41.3341923" lon="1.8638685"><ele>307.0</ele><time>2026-03-28T10:19:25.296Z</time></trkpt><trkpt lat="41.3341657" lon="1.8637013"><ele>307.0</ele><time>2026-03-28T10:19:26.297Z</time></trkpt><trkpt lat="41.3341565" lon="1.8635292"><ele>307.0</ele><time>2026-03-28T10:19:27.297Z</time></trkpt><trkpt lat="41.3341718" lon="1.8633564"><ele>307.0</ele><time>2026-03-28T10:19:28.296Z</time></trkpt><trkpt lat="41.3342046" lon="1.8631836"><ele>307.0</ele><time>2026-03-28T10:19:29.297Z</time></trkpt><trkpt lat="41.3342598" lon="1.863018"><ele>307.0</ele><time>2026-03-28T10:19:30.297Z</time></trkpt><trkpt lat="41.334341" lon="1.8628689"><ele>307.0</ele><time>2026-03-28T10:19:31.297Z</time></trkpt><trkpt lat="41.3344496" lon="1.8627472"><ele>307.0</ele><time>2026-03-28T10:19:32.297Z</time></trkpt><trkpt lat="41.334575" lon="1.8626595"><ele>306.5</ele><time>2026-03-28T10:19:33.297Z</time></trkpt><trkpt lat="41.3347145" lon="1.8626094"><ele>306.0</ele><time>2026-03-28T10:19:34.297Z</time></trkpt><trkpt lat="41.33486" lon="1.8625976"><ele>305.5</ele><time>2026-03-28T10:19:35.297Z</time></trkpt><trkpt lat="41.3350084" lon="1.8626264"><ele>305.0</ele><time>2026-03-28T10:19:36.297Z</time></trkpt><trkpt lat="41.3351472" lon="1.8626991"><ele>305.5</ele><time>2026-03-28T10:19:37.297Z</time></trkpt><trkpt lat="41.3352818" lon="1.8627996"><ele>306.0</ele><time>2026-03-28T10:19:38.297Z</time></trkpt><trkpt lat="41.3354085" lon="1.8629023"><ele>306.5</ele><time>2026-03-28T10:19:39.297Z</time></trkpt><trkpt lat="41.3355309" lon="1.8630009"><ele>307.0</ele><time>2026-03-28T10:19:40.297Z</time></trkpt><trkpt lat="41.335643" lon="1.8630907"><ele>307.0</ele><time>2026-03-28T10:19:41.297Z</time></trkpt><trkpt lat="41.3357469" lon="1.8631712"><ele>307.0</ele><time>2026-03-28T10:19:42.297Z</time></trkpt><trkpt lat="41.3358405" lon="1.8632372"><ele>307.0</ele><time>2026-03-28T10:19:43.297Z</time></trkpt><trkpt lat="41.3359331" lon="1.8632995"><ele>307.0</ele><time>2026-03-28T10:19:44.297Z</time></trkpt><trkpt lat="41.3360371" lon="1.8633535"><ele>307.0</ele><time>2026-03-28T10:19:45.297Z</time></trkpt><trkpt lat="41.336153" lon="1.8633906"><ele>307.0</ele><time>2026-03-28T10:19:46.297Z</time></trkpt><trkpt lat="41.3362851" lon="1.8634048"><ele>307.0</ele><time>2026-03-28T10:19:47.296Z</time></trkpt><trkpt lat="41.3364237" lon="1.8633952"><ele>307.0</ele><time>2026-03-28T10:19:48.297Z</time></trkpt><trkpt lat="41.3365631" lon="1.8633542"><ele>307.0</ele><time>2026-03-28T10:19:49.296Z</time></trkpt><trkpt lat="41.3366946" lon="1.8632779"><ele>308.0</ele><time>2026-03-28T10:19:50.296Z</time></trkpt><trkpt lat="41.3368158" lon="1.8631707"><ele>309.0</ele><time>2026-03-28T10:19:51.297Z</time></trkpt><trkpt lat="41.3369307" lon="1.8630351"><ele>310.0</ele><time>2026-03-28T10:19:52.297Z</time></trkpt><trkpt lat="41.3370371" lon="1.8628804"><ele>310.0</ele><time>2026-03-28T10:19:53.297Z</time></trkpt><trkpt lat="41.3371365" lon="1.8627214"><ele>310.0</ele><time>2026-03-28T10:19:54.297Z</time></trkpt><trkpt lat="41.337234" lon="1.8625574"><ele>310.0</ele><time>2026-03-28T10:19:55.297Z</time></trkpt><trkpt lat="41.3373369" lon="1.862395"><ele>311.25</ele><time>2026-03-28T10:19:56.297Z</time></trkpt><trkpt lat="41.3374314" lon="1.8622418"><ele>312.5</ele><time>2026-03-28T10:19:57.297Z</time></trkpt><trkpt lat="41.337529" lon="1.8620955"><ele>313.75</ele><time>2026-03-28T10:19:58.296Z</time></trkpt><trkpt lat="41.3376238" lon="1.8619632"><ele>315.0</ele><time>2026-03-28T10:19:59.297Z</time></trkpt><trkpt lat="41.3377018" lon="1.861844"><ele>310.75</ele><time>2026-03-28T10:20:00.296Z</time></trkpt><trkpt lat="41.3377754" lon="1.8617235"><ele>306.5</ele><time>2026-03-28T10:20:01.297Z</time></trkpt><trkpt lat="41.3378519" lon="1.8616048"><ele>302.25</ele><time>2026-03-28T10:20:02.297Z</time></trkpt><trkpt lat="41.3379253" lon="1.8614816"><ele>298.0</ele><time>2026-03-28T10:20:03.297Z</time></trkpt><trkpt lat="41.3379996" lon="1.8613408"><ele>299.0</ele><time>2026-03-28T10:20:04.297Z</time></trkpt><trkpt lat="41.3380709" lon="1.8611983"><ele>300.0</ele><time>2026-03-28T10:20:05.297Z</time></trkpt><trkpt lat="41.3381357" lon="1.8610495"><ele>301.0</ele><time>2026-03-28T10:20:06.297Z</time></trkpt><trkpt lat="41.3381914" lon="1.8609055"><ele>302.0</ele><time>2026-03-28T10:20:07.297Z</time></trkpt><trkpt lat="41.3382452" lon="1.8607733"><ele>302.0</ele><time>2026-03-28T10:20:08.297Z</time></trkpt><trkpt lat="41.3383049" lon="1.8606333"><ele>302.0</ele><time>2026-03-28T10:20:09.297Z</time></trkpt><trkpt lat="41.3383798" lon="1.8604954"><ele>302.0</ele><time>2026-03-28T10:20:10.297Z</time></trkpt><trkpt lat="41.3384604" lon="1.8603645"><ele>302.0</ele><time>2026-03-28T10:20:11.297Z</time></trkpt><trkpt lat="41.3385412" lon="1.8602427"><ele>302.0</ele><time>2026-03-28T10:20:12.297Z</time></trkpt><trkpt lat="41.3386158" lon="1.8601205"><ele>302.0</ele><time>2026-03-28T10:20:13.296Z</time></trkpt><trkpt lat="41.3386943" lon="1.8600023"><ele>302.0</ele><time>2026-03-28T10:20:14.297Z</time></trkpt><trkpt lat="41.3387731" lon="1.8598933"><ele>302.0</ele><time>2026-03-28T10:20:15.297Z</time></trkpt><trkpt lat="41.3388573" lon="1.8598041"><ele>302.0</ele><time>2026-03-28T10:20:16.296Z</time></trkpt><trkpt lat="41.3389535" lon="1.8597394"><ele>302.0</ele><time>2026-03-28T10:20:17.297Z</time></trkpt><trkpt lat="41.3390603" lon="1.8597002"><ele>302.0</ele><time>2026-03-28T10:20:18.297Z</time></trkpt><trkpt lat="41.3391806" lon="1.8596898"><ele>302.0</ele><time>2026-03-28T10:20:19.297Z</time></trkpt><trkpt lat="41.339311" lon="1.8597181"><ele>302.0</ele><time>2026-03-28T10:20:20.296Z</time></trkpt><trkpt lat="41.3394403" lon="1.8597702"><ele>302.0</ele><time>2026-03-28T10:20:21.297Z</time></trkpt><trkpt lat="41.3395718" lon="1.8598347"><ele>302.0</ele><time>2026-03-28T10:20:22.297Z</time></trkpt><trkpt lat="41.3396992" lon="1.8599001"><ele>302.0</ele><time>2026-03-28T10:20:23.297Z</time></trkpt><trkpt lat="41.3398254" lon="1.859966"><ele>301.5</ele><time>2026-03-28T10:20:24.296Z</time></trkpt><trkpt lat="41.3399498" lon="1.8600246"><ele>301.0</ele><time>2026-03-28T10:20:25.297Z</time></trkpt><trkpt lat="41.3400661" lon="1.8600836"><ele>300.5</ele><time>2026-03-28T10:20:26.297Z</time></trkpt><trkpt lat="41.3401789" lon="1.8601018"><ele>300.0</ele><time>2026-03-28T10:20:27.297Z</time></trkpt><trkpt lat="41.340285" lon="1.8600715"><ele>300.0</ele><time>2026-03-28T10:20:28.297Z</time></trkpt><trkpt lat="41.3403691" lon="1.859991"><ele>300.0</ele><time>2026-03-28T10:20:29.297Z</time></trkpt><trkpt lat="41.3404399" lon="1.8598711"><ele>300.0</ele><time>2026-03-28T10:20:30.297Z</time></trkpt><trkpt lat="41.3405137" lon="1.8597358"><ele>300.0</ele><time>2026-03-28T10:20:31.297Z</time></trkpt><trkpt lat="41.3406115" lon="1.8596078"><ele>299.75</ele><time>2026-03-28T10:20:32.297Z</time></trkpt><trkpt lat="41.3407305" lon="1.8594864"><ele>299.5</ele><time>2026-03-28T10:20:33.297Z</time></trkpt><trkpt lat="41.3408512" lon="1.8593738"><ele>299.25</ele><time>2026-03-28T10:20:34.297Z</time></trkpt><trkpt lat="41.340967" lon="1.8592713"><ele>299.0</ele><time>2026-03-28T10:20:35.297Z</time></trkpt><trkpt lat="41.3410815" lon="1.8591762"><ele>297.25</ele><time>2026-03-28T10:20:36.297Z</time></trkpt><trkpt lat="41.3411884" lon="1.8590881"><ele>295.5</ele><time>2026-03-28T10:20:37.297Z</time></trkpt><trkpt lat="41.3412893" lon="1.8590036"><ele>293.75</ele><time>2026-03-28T10:20:38.296Z</time></trkpt><trkpt lat="41.3413811" lon="1.858923"><ele>292.0</ele><time>2026-03-28T10:20:39.297Z</time></trkpt><trkpt lat="41.3414659" lon="1.8588473"><ele>291.2</ele><time>2026-03-28T10:20:40.297Z</time></trkpt><trkpt lat="41.3415428" lon="1.858785"><ele>290.4</ele><time>2026-03-28T10:20:41.297Z</time></trkpt><trkpt lat="41.3416201" lon="1.8587233"><ele>289.6</ele><time>2026-03-28T10:20:42.297Z</time></trkpt><trkpt lat="41.3417074" lon="1.8586714"><ele>288.8</ele><time>2026-03-28T10:20:43.297Z</time></trkpt><trkpt lat="41.3418031" lon="1.8586244"><ele>288.0</ele><time>2026-03-28T10:20:44.297Z</time></trkpt><trkpt lat="41.3419024" lon="1.8585925"><ele>288.0</ele><time>2026-03-28T10:20:45.297Z</time></trkpt><trkpt lat="41.3420025" lon="1.8585869"><ele>288.0</ele><time>2026-03-28T10:20:46.297Z</time></trkpt><trkpt lat="41.3421061" lon="1.858644"><ele>288.0</ele><time>2026-03-28T10:20:47.297Z</time></trkpt><trkpt lat="41.3421928" lon="1.8587325"><ele>288.0</ele><time>2026-03-28T10:20:48.297Z</time></trkpt><trkpt lat="41.3422674" lon="1.8588378"><ele>288.0</ele><time>2026-03-28T10:20:49.297Z</time></trkpt><trkpt lat="41.3423484" lon="1.858913"><ele>288.0</ele><time>2026-03-28T10:20:50.297Z</time></trkpt><trkpt lat="41.342439" lon="1.8589643"><ele>288.0</ele><time>2026-03-28T10:20:51.297Z</time></trkpt><trkpt lat="41.3425469" lon="1.8589337"><ele>288.0</ele><time>2026-03-28T10:20:52.297Z</time></trkpt><trkpt lat="41.3426579" lon="1.8588337"><ele>288.0</ele><time>2026-03-28T10:20:53.297Z</time></trkpt><trkpt lat="41.3427722" lon="1.8587022"><ele>288.0</ele><time>2026-03-28T10:20:54.297Z</time></trkpt><trkpt lat="41.3428817" lon="1.8585392"><ele>288.0</ele><time>2026-03-28T10:20:55.296Z</time></trkpt><trkpt lat="41.3429999" lon="1.8583657"><ele>288.0</ele><time>2026-03-28T10:20:56.297Z</time></trkpt><trkpt lat="41.3431148" lon="1.858204"><ele>288.0</ele><time>2026-03-28T10:20:57.297Z</time></trkpt><trkpt lat="41.3432242" lon="1.8580602"><ele>288.0</ele><time>2026-03-28T10:20:58.297Z</time></trkpt><trkpt lat="41.3433338" lon="1.8579282"><ele>288.0</ele><time>2026-03-28T10:20:59.297Z</time></trkpt><trkpt lat="41.3434342" lon="1.8578221"><ele>288.0</ele><time>2026-03-28T10:21:00.297Z</time></trkpt><trkpt lat="41.3435401" lon="1.8577311"><ele>288.0</ele><time>2026-03-28T10:21:01.297Z</time></trkpt><trkpt lat="41.34365" lon="1.8576526"><ele>288.0</ele><time>2026-03-28T10:21:02.297Z</time></trkpt><trkpt lat="41.3437548" lon="1.8575786"><ele>288.0</ele><time>2026-03-28T10:21:03.297Z</time></trkpt><trkpt lat="41.3438685" lon="1.8575084"><ele>288.0</ele><time>2026-03-28T10:21:04.297Z</time></trkpt><trkpt lat="41.3439778" lon="1.8574491"><ele>288.0</ele><time>2026-03-28T10:21:05.297Z</time></trkpt><trkpt lat="41.3440893" lon="1.8574033"><ele>288.0</ele><time>2026-03-28T10:21:06.297Z</time></trkpt><trkpt lat="41.344209" lon="1.8573787"><ele>288.0</ele><time>2026-03-28T10:21:07.297Z</time></trkpt><trkpt lat="41.3443382" lon="1.8573721"><ele>288.0</ele><time>2026-03-28T10:21:08.297Z</time></trkpt><trkpt lat="41.3444653" lon="1.8573732"><ele>288.0</ele><time>2026-03-28T10:21:09.297Z</time></trkpt><trkpt lat="41.3445767" lon="1.8573845"><ele>288.0</ele><time>2026-03-28T10:21:10.296Z</time></trkpt><trkpt lat="41.3446837" lon="1.8574106"><ele>288.0</ele><time>2026-03-28T10:21:11.297Z</time></trkpt><trkpt lat="41.3447953" lon="1.8574585"><ele>288.0</ele><time>2026-03-28T10:21:12.297Z</time></trkpt><trkpt lat="41.3449029" lon="1.8575284"><ele>285.5</ele><time>2026-03-28T10:21:13.296Z</time></trkpt><trkpt lat="41.3450049" lon="1.8576205"><ele>283.0</ele><time>2026-03-28T10:21:14.297Z</time></trkpt><trkpt lat="41.3450912" lon="1.857729"><ele>280.5</ele><time>2026-03-28T10:21:15.297Z</time></trkpt><trkpt lat="41.3451764" lon="1.8578434"><ele>278.0</ele><time>2026-03-28T10:21:16.297Z</time></trkpt><trkpt lat="41.3452605" lon="1.8579526"><ele>278.0</ele><time>2026-03-28T10:21:17.297Z</time></trkpt><trkpt lat="41.3453387" lon="1.8580611"><ele>278.0</ele><time>2026-03-28T10:21:18.296Z</time></trkpt><trkpt lat="41.3454208" lon="1.8581451"><ele>278.0</ele><time>2026-03-28T10:21:19.297Z</time></trkpt><trkpt lat="41.3455167" lon="1.858203"><ele>278.0</ele><time>2026-03-28T10:21:20.297Z</time></trkpt><trkpt lat="41.3456298" lon="1.8582324"><ele>278.0</ele><time>2026-03-28T10:21:21.297Z</time></trkpt><trkpt lat="41.3457508" lon="1.858224"><ele>279.0</ele><time>2026-03-28T10:21:22.297Z</time></trkpt><trkpt lat="41.3458839" lon="1.8581773"><ele>280.0</ele><time>2026-03-28T10:21:23.297Z</time></trkpt><trkpt lat="41.3460166" lon="1.8580891"><ele>281.0</ele><time>2026-03-28T10:21:24.297Z</time></trkpt><trkpt lat="41.3461379" lon="1.8579793"><ele>282.0</ele><time>2026-03-28T10:21:25.297Z</time></trkpt><trkpt lat="41.3462562" lon="1.8578666"><ele>281.3333333333333</ele><time>2026-03-28T10:21:26.296Z</time></trkpt><trkpt lat="41.3463787" lon="1.8577439"><ele>280.66666666666663</ele><time>2026-03-28T10:21:27.297Z</time></trkpt><trkpt lat="41.3465031" lon="1.8576195"><ele>280.0</ele><time>2026-03-28T10:21:28.297Z</time></trkpt><trkpt lat="41.346619" lon="1.8574905"><ele>280.0</ele><time>2026-03-28T10:21:29.297Z</time></trkpt><trkpt lat="41.3467324" lon="1.8573759"><ele>280.0</ele><time>2026-03-28T10:21:30.296Z</time></trkpt><trkpt lat="41.346828" lon="1.8572628"><ele>280.0</ele><time>2026-03-28T10:21:31.297Z</time></trkpt><trkpt lat="41.3469015" lon="1.8571477"><ele>280.0</ele><time>2026-03-28T10:21:32.297Z</time></trkpt><trkpt lat="41.3469584" lon="1.8570161"><ele>280.0</ele><time>2026-03-28T10:21:33.297Z</time></trkpt><trkpt lat="41.3470003" lon="1.8568663"><ele>280.0</ele><time>2026-03-28T10:21:34.297Z</time></trkpt><trkpt lat="41.3470305" lon="1.8566967"><ele>280.0</ele><time>2026-03-28T10:21:35.297Z</time></trkpt><trkpt lat="41.3470381" lon="1.8565135"><ele>280.0</ele><time>2026-03-28T10:21:36.297Z</time></trkpt><trkpt lat="41.3470332" lon="1.8563397"><ele>280.75</ele><time>2026-03-28T10:21:37.297Z</time></trkpt><trkpt lat="41.3470107" lon="1.8561668"><ele>281.5</ele><time>2026-03-28T10:21:38.297Z</time></trkpt><trkpt lat="41.3469637" lon="1.856005"><ele>282.25</ele><time>2026-03-28T10:21:39.297Z</time></trkpt><trkpt lat="41.3468935" lon="1.8558461"><ele>283.0</ele><time>2026-03-28T10:21:40.297Z</time></trkpt><trkpt lat="41.3468047" lon="1.8556956"><ele>281.25</ele><time>2026-03-28T10:21:41.296Z</time></trkpt><trkpt lat="41.3467162" lon="1.8555388"><ele>279.5</ele><time>2026-03-28T10:21:42.297Z</time></trkpt><trkpt lat="41.3466369" lon="1.8553797"><ele>277.75</ele><time>2026-03-28T10:21:43.297Z</time></trkpt><trkpt lat="41.3465677" lon="1.8552215"><ele>276.0</ele><time>2026-03-28T10:21:44.297Z</time></trkpt><trkpt lat="41.3464991" lon="1.8550697"><ele>276.0</ele><time>2026-03-28T10:21:45.297Z</time></trkpt><trkpt lat="41.3464338" lon="1.8549302"><ele>276.0</ele><time>2026-03-28T10:21:46.297Z</time></trkpt><trkpt lat="41.3463787" lon="1.8547921"><ele>276.0</ele><time>2026-03-28T10:21:47.297Z</time></trkpt><trkpt lat="41.3463234" lon="1.8546533"><ele>276.0</ele><time>2026-03-28T10:21:48.297Z</time></trkpt><trkpt lat="41.346272" lon="1.8545022"><ele>276.0</ele><time>2026-03-28T10:21:49.297Z</time></trkpt><trkpt lat="41.3462217" lon="1.8543466"><ele>276.0</ele><time>2026-03-28T10:21:50.297Z</time></trkpt><trkpt lat="41.3461771" lon="1.8541834"><ele>276.0</ele><time>2026-03-28T10:21:51.297Z</time></trkpt><trkpt lat="41.3461377" lon="1.854023"><ele>276.0</ele><time>2026-03-28T10:21:52.297Z</time></trkpt><trkpt lat="41.346101" lon="1.8538589"><ele>274.75</ele><time>2026-03-28T10:21:53.297Z</time></trkpt><trkpt lat="41.3460686" lon="1.853705"><ele>273.5</ele><time>2026-03-28T10:21:54.296Z</time></trkpt><trkpt lat="41.3460499" lon="1.8535337"><ele>272.25</ele><time>2026-03-28T10:21:55.297Z</time></trkpt><trkpt lat="41.3460368" lon="1.8533694"><ele>271.0</ele><time>2026-03-28T10:21:56.297Z</time></trkpt><trkpt lat="41.3460368" lon="1.8531951"><ele>271.0</ele><time>2026-03-28T10:21:57.297Z</time></trkpt><trkpt lat="41.3460494" lon="1.8530201"><ele>271.0</ele><time>2026-03-28T10:21:58.297Z</time></trkpt><trkpt lat="41.3460674" lon="1.852851"><ele>271.0</ele><time>2026-03-28T10:21:59.297Z</time></trkpt><trkpt lat="41.3460847" lon="1.8526806"><ele>271.0</ele><time>2026-03-28T10:22:00.297Z</time></trkpt><trkpt lat="41.3461047" lon="1.8525102"><ele>270.75</ele><time>2026-03-28T10:22:01.297Z</time></trkpt><trkpt lat="41.3461196" lon="1.8523375"><ele>270.5</ele><time>2026-03-28T10:22:02.297Z</time></trkpt><trkpt lat="41.346138" lon="1.8521736"><ele>270.25</ele><time>2026-03-28T10:22:03.297Z</time></trkpt><trkpt lat="41.3461572" lon="1.8520097"><ele>270.0</ele><time>2026-03-28T10:22:04.296Z</time></trkpt><trkpt lat="41.3461782" lon="1.8518492"><ele>269.0</ele><time>2026-03-28T10:22:05.297Z</time></trkpt><trkpt lat="41.3461982" lon="1.8516894"><ele>268.0</ele><time>2026-03-28T10:22:06.297Z</time></trkpt><trkpt lat="41.3462115" lon="1.8515264"><ele>267.0</ele><time>2026-03-28T10:22:07.296Z</time></trkpt><trkpt lat="41.3462291" lon="1.8513676"><ele>266.0</ele><time>2026-03-28T10:22:08.297Z</time></trkpt><trkpt lat="41.346247" lon="1.8512108"><ele>266.0</ele><time>2026-03-28T10:22:09.297Z</time></trkpt><trkpt lat="41.3462685" lon="1.8510487"><ele>266.0</ele><time>2026-03-28T10:22:10.297Z</time></trkpt><trkpt lat="41.3462921" lon="1.8508802"><ele>266.0</ele><time>2026-03-28T10:22:11.297Z</time></trkpt><trkpt lat="41.3463108" lon="1.8507121"><ele>266.0</ele><time>2026-03-28T10:22:12.297Z</time></trkpt><trkpt lat="41.3463268" lon="1.8505483"><ele>265.5</ele><time>2026-03-28T10:22:13.297Z</time></trkpt><trkpt lat="41.3463447" lon="1.8503809"><ele>265.0</ele><time>2026-03-28T10:22:14.297Z</time></trkpt><trkpt lat="41.3463663" lon="1.8502146"><ele>264.5</ele><time>2026-03-28T10:22:15.296Z</time></trkpt><trkpt lat="41.3463881" lon="1.8500433"><ele>264.0</ele><time>2026-03-28T10:22:16.297Z</time></trkpt><trkpt lat="41.3464074" lon="1.8498655"><ele>265.75</ele><time>2026-03-28T10:22:17.297Z</time></trkpt><trkpt lat="41.3464281" lon="1.8496815"><ele>267.5</ele><time>2026-03-28T10:22:18.297Z</time></trkpt><trkpt lat="41.3464516" lon="1.8494851"><ele>269.25</ele><time>2026-03-28T10:22:19.297Z</time></trkpt><trkpt lat="41.3464717" lon="1.8492898"><ele>271.0</ele><time>2026-03-28T10:22:20.297Z</time></trkpt><trkpt lat="41.3464872" lon="1.8490973"><ele>271.0</ele><time>2026-03-28T10:22:21.297Z</time></trkpt><trkpt lat="41.3464979" lon="1.8489097"><ele>271.0</ele><time>2026-03-28T10:22:22.297Z</time></trkpt><trkpt lat="41.3465066" lon="1.8487307"><ele>271.0</ele><time>2026-03-28T10:22:23.296Z</time></trkpt><trkpt lat="41.3465116" lon="1.8485604"><ele>271.0</ele><time>2026-03-28T10:22:24.297Z</time></trkpt><trkpt lat="41.3465179" lon="1.8484082"><ele>270.8</ele><time>2026-03-28T10:22:25.297Z</time></trkpt><trkpt lat="41.346526" lon="1.8482725"><ele>270.6</ele><time>2026-03-28T10:22:26.297Z</time></trkpt><trkpt lat="41.3465434" lon="1.8481328"><ele>270.4</ele><time>2026-03-28T10:22:27.297Z</time></trkpt><trkpt lat="41.3465682" lon="1.8479918"><ele>270.2</ele><time>2026-03-28T10:22:28.297Z</time></trkpt><trkpt lat="41.3466043" lon="1.8478572"><ele>270.0</ele><time>2026-03-28T10:22:29.297Z</time></trkpt><trkpt lat="41.3466346" lon="1.8477376"><ele>270.0</ele><time>2026-03-28T10:22:30.297Z</time></trkpt><trkpt lat="41.3466584" lon="1.8476453"><ele>270.0</ele><time>2026-03-28T10:22:31.297Z</time></trkpt><trkpt lat="41.3466819" lon="1.8475612"><ele>270.0</ele><time>2026-03-28T10:22:32.297Z</time></trkpt><trkpt lat="41.3467222" lon="1.8473974"><ele>270.0</ele><time>2026-03-28T10:22:34.297Z</time></trkpt><trkpt lat="41.3467469" lon="1.8472981"><ele>270.0</ele><time>2026-03-28T10:22:35.297Z</time></trkpt><trkpt lat="41.346776" lon="1.8471734"><ele>270.0</ele><time>2026-03-28T10:22:36.297Z</time></trkpt><trkpt lat="41.346797" lon="1.84703"><ele>269.0</ele><time>2026-03-28T10:22:37.297Z</time></trkpt><trkpt lat="41.3468203" lon="1.8468669"><ele>268.0</ele><time>2026-03-28T10:22:38.297Z</time></trkpt><trkpt lat="41.3468407" lon="1.8467023"><ele>267.0</ele><time>2026-03-28T10:22:39.297Z</time></trkpt><trkpt lat="41.3468597" lon="1.8465348"><ele>266.0</ele><time>2026-03-28T10:22:40.297Z</time></trkpt><trkpt lat="41.346876" lon="1.8463695"><ele>265.0</ele><time>2026-03-28T10:22:41.297Z</time></trkpt><trkpt lat="41.3468849" lon="1.8462065"><ele>264.0</ele><time>2026-03-28T10:22:42.296Z</time></trkpt><trkpt lat="41.34689" lon="1.846037"><ele>263.0</ele><time>2026-03-28T10:22:43.296Z</time></trkpt><trkpt lat="41.3468929" lon="1.8458713"><ele>262.0</ele><time>2026-03-28T10:22:44.297Z</time></trkpt><trkpt lat="41.3469025" lon="1.8457126"><ele>261.8</ele><time>2026-03-28T10:22:45.297Z</time></trkpt><trkpt lat="41.3469137" lon="1.845571"><ele>261.6</ele><time>2026-03-28T10:22:46.297Z</time></trkpt><trkpt lat="41.3469258" lon="1.8454471"><ele>261.40000000000003</ele><time>2026-03-28T10:22:47.297Z</time></trkpt><trkpt lat="41.3469375" lon="1.8453274"><ele>261.2</ele><time>2026-03-28T10:22:48.297Z</time></trkpt><trkpt lat="41.3469503" lon="1.8452063"><ele>261.0</ele><time>2026-03-28T10:22:49.297Z</time></trkpt><trkpt lat="41.3469477" lon="1.8450905"><ele>261.5</ele><time>2026-03-28T10:22:50.297Z</time></trkpt><trkpt lat="41.3469207" lon="1.8449856"><ele>262.0</ele><time>2026-03-28T10:22:51.297Z</time></trkpt><trkpt lat="41.3468643" lon="1.8449058"><ele>262.5</ele><time>2026-03-28T10:22:52.297Z</time></trkpt><trkpt lat="41.3467917" lon="1.8448591"><ele>263.0</ele><time>2026-03-28T10:22:53.297Z</time></trkpt><trkpt lat="41.3467098" lon="1.8448317"><ele>263.5</ele><time>2026-03-28T10:22:54.297Z</time></trkpt><trkpt lat="41.3466228" lon="1.8448079"><ele>264.0</ele><time>2026-03-28T10:22:55.297Z</time></trkpt><trkpt lat="41.3465349" lon="1.8447806"><ele>264.0</ele><time>2026-03-28T10:22:56.297Z</time></trkpt><trkpt lat="41.3464424" lon="1.8447542"><ele>264.0</ele><time>2026-03-28T10:22:57.297Z</time></trkpt><trkpt lat="41.3463426" lon="1.8447261"><ele>264.0</ele><time>2026-03-28T10:22:58.297Z</time></trkpt><trkpt lat="41.3462411" lon="1.8446883"><ele>264.0</ele><time>2026-03-28T10:22:59.297Z</time></trkpt><trkpt lat="41.3461447" lon="1.8446367"><ele>264.0</ele><time>2026-03-28T10:23:00.297Z</time></trkpt><trkpt lat="41.346056" lon="1.8445702"><ele>263.59999999999997</ele><time>2026-03-28T10:23:01.297Z</time></trkpt><trkpt lat="41.3459715" lon="1.8444958"><ele>263.2</ele><time>2026-03-28T10:23:02.297Z</time></trkpt><trkpt lat="41.3458923" lon="1.8444142"><ele>262.79999999999995</ele><time>2026-03-28T10:23:03.297Z</time></trkpt><trkpt lat="41.3458135" lon="1.8443267"><ele>262.4</ele><time>2026-03-28T10:23:04.296Z</time></trkpt><trkpt lat="41.3457338" lon="1.8442408"><ele>262.0</ele><time>2026-03-28T10:23:05.297Z</time></trkpt><trkpt lat="41.3456531" lon="1.8441518"><ele>262.0</ele><time>2026-03-28T10:23:06.297Z</time></trkpt><trkpt lat="41.345569" lon="1.8440624"><ele>262.0</ele><time>2026-03-28T10:23:07.297Z</time></trkpt><trkpt lat="41.3454816" lon="1.8439716"><ele>262.0</ele><time>2026-03-28T10:23:08.297Z</time></trkpt><trkpt lat="41.3453949" lon="1.8438794"><ele>262.0</ele><time>2026-03-28T10:23:09.297Z</time></trkpt><trkpt lat="41.3453088" lon="1.8437848"><ele>262.0</ele><time>2026-03-28T10:23:10.297Z</time></trkpt><trkpt lat="41.3452257" lon="1.8436946"><ele>262.0</ele><time>2026-03-28T10:23:11.297Z</time></trkpt><trkpt lat="41.345145" lon="1.8436093"><ele>262.0</ele><time>2026-03-28T10:23:12.297Z</time></trkpt><trkpt lat="41.3450618" lon="1.8435168"><ele>262.0</ele><time>2026-03-28T10:23:13.297Z</time></trkpt><trkpt lat="41.3449816" lon="1.8434077"><ele>262.0</ele><time>2026-03-28T10:23:14.297Z</time></trkpt><trkpt lat="41.3449064" lon="1.8432796"><ele>262.0</ele><time>2026-03-28T10:23:15.297Z</time></trkpt><trkpt lat="41.3448389" lon="1.8431459"><ele>261.25</ele><time>2026-03-28T10:23:16.297Z</time></trkpt><trkpt lat="41.3447752" lon="1.8430091"><ele>260.5</ele><time>2026-03-28T10:23:17.297Z</time></trkpt><trkpt lat="41.3447081" lon="1.8428686"><ele>259.75</ele><time>2026-03-28T10:23:18.297Z</time></trkpt><trkpt lat="41.3446353" lon="1.842726"><ele>259.0</ele><time>2026-03-28T10:23:19.297Z</time></trkpt><trkpt lat="41.3445643" lon="1.8425893"><ele>260.5</ele><time>2026-03-28T10:23:20.297Z</time></trkpt><trkpt lat="41.3444922" lon="1.8424527"><ele>262.0</ele><time>2026-03-28T10:23:21.297Z</time></trkpt><trkpt lat="41.344427" lon="1.8423282"><ele>263.5</ele><time>2026-03-28T10:23:22.297Z</time></trkpt><trkpt lat="41.3443644" lon="1.8422101"><ele>265.0</ele><time>2026-03-28T10:23:23.297Z</time></trkpt><trkpt lat="41.3443018" lon="1.8420896"><ele>265.0</ele><time>2026-03-28T10:23:24.297Z</time></trkpt><trkpt lat="41.3442431" lon="1.8419747"><ele>265.0</ele><time>2026-03-28T10:23:25.297Z</time></trkpt><trkpt lat="41.344193" lon="1.8418553"><ele>265.0</ele><time>2026-03-28T10:23:26.297Z</time></trkpt><trkpt lat="41.3441659" lon="1.8417372"><ele>265.0</ele><time>2026-03-28T10:23:27.297Z</time></trkpt><trkpt lat="41.3441712" lon="1.8416185"><ele>265.0</ele><time>2026-03-28T10:23:28.297Z</time></trkpt><trkpt lat="41.3442157" lon="1.8415177"><ele>266.4</ele><time>2026-03-28T10:23:29.297Z</time></trkpt><trkpt lat="41.344289" lon="1.8414433"><ele>267.8</ele><time>2026-03-28T10:23:30.297Z</time></trkpt><trkpt lat="41.3443801" lon="1.8413892"><ele>269.2</ele><time>2026-03-28T10:23:31.296Z</time></trkpt><trkpt lat="41.3444761" lon="1.8413433"><ele>270.6</ele><time>2026-03-28T10:23:32.297Z</time></trkpt><trkpt lat="41.3445789" lon="1.8412955"><ele>272.0</ele><time>2026-03-28T10:23:33.297Z</time></trkpt><trkpt lat="41.344684" lon="1.8412483"><ele>273.75</ele><time>2026-03-28T10:23:34.296Z</time></trkpt><trkpt lat="41.3447913" lon="1.8411975"><ele>275.5</ele><time>2026-03-28T10:23:35.297Z</time></trkpt><trkpt lat="41.3449005" lon="1.8411436"><ele>277.25</ele><time>2026-03-28T10:23:36.297Z</time></trkpt><trkpt lat="41.3450084" lon="1.8410881"><ele>279.0</ele><time>2026-03-28T10:23:37.297Z</time></trkpt><trkpt lat="41.3451134" lon="1.8410381"><ele>279.0</ele><time>2026-03-28T10:23:38.297Z</time></trkpt><trkpt lat="41.345215" lon="1.8409858"><ele>279.0</ele><time>2026-03-28T10:23:39.296Z</time></trkpt><trkpt lat="41.3453172" lon="1.8409344"><ele>279.0</ele><time>2026-03-28T10:23:40.297Z</time></trkpt><trkpt lat="41.3454177" lon="1.8408823"><ele>279.0</ele><time>2026-03-28T10:23:41.297Z</time></trkpt><trkpt lat="41.3455174" lon="1.8408459"><ele>279.0</ele><time>2026-03-28T10:23:42.297Z</time></trkpt><trkpt lat="41.3456228" lon="1.840826"><ele>278.0</ele><time>2026-03-28T10:23:43.297Z</time></trkpt><trkpt lat="41.3457332" lon="1.8408429"><ele>277.0</ele><time>2026-03-28T10:23:44.297Z</time></trkpt><trkpt lat="41.3458372" lon="1.8408879"><ele>276.0</ele><time>2026-03-28T10:23:45.297Z</time></trkpt><trkpt lat="41.3459337" lon="1.8409421"><ele>275.0</ele><time>2026-03-28T10:23:46.296Z</time></trkpt><trkpt lat="41.3460212" lon="1.8409918"><ele>274.0</ele><time>2026-03-28T10:23:47.297Z</time></trkpt><trkpt lat="41.346107" lon="1.8410308"><ele>275.3333333333333</ele><time>2026-03-28T10:23:48.297Z</time></trkpt><trkpt lat="41.3461953" lon="1.8410609"><ele>276.66666666666663</ele><time>2026-03-28T10:23:49.297Z</time></trkpt><trkpt lat="41.3462786" lon="1.8410573"><ele>278.0</ele><time>2026-03-28T10:23:50.297Z</time></trkpt><trkpt lat="41.3463576" lon="1.8410093"><ele>279.3333333333333</ele><time>2026-03-28T10:23:51.296Z</time></trkpt><trkpt lat="41.346412" lon="1.8409158"><ele>280.6666666666667</ele><time>2026-03-28T10:23:52.297Z</time></trkpt><trkpt lat="41.3464474" lon="1.840795"><ele>282.0</ele><time>2026-03-28T10:23:53.297Z</time></trkpt><trkpt lat="41.3464805" lon="1.8406579"><ele>282.0</ele><time>2026-03-28T10:23:54.297Z</time></trkpt><trkpt lat="41.346515" lon="1.8405182"><ele>282.0</ele><time>2026-03-28T10:23:55.297Z</time></trkpt><trkpt lat="41.346556" lon="1.8403822"><ele>282.0</ele><time>2026-03-28T10:23:56.296Z</time></trkpt><trkpt lat="41.3466093" lon="1.8402519"><ele>282.0</ele><time>2026-03-28T10:23:57.297Z</time></trkpt><trkpt lat="41.3466877" lon="1.8401264"><ele>279.75</ele><time>2026-03-28T10:23:58.297Z</time></trkpt><trkpt lat="41.3467835" lon="1.8400211"><ele>277.5</ele><time>2026-03-28T10:23:59.296Z</time></trkpt><trkpt lat="41.3468804" lon="1.8399417"><ele>275.25</ele><time>2026-03-28T10:24:00.297Z</time></trkpt><trkpt lat="41.3469741" lon="1.8398797"><ele>273.0</ele><time>2026-03-28T10:24:01.297Z</time></trkpt><trkpt lat="41.3470742" lon="1.8398267"><ele>273.0</ele><time>2026-03-28T10:24:02.297Z</time></trkpt><trkpt lat="41.3471899" lon="1.8398054"><ele>273.0</ele><time>2026-03-28T10:24:03.297Z</time></trkpt><trkpt lat="41.3473045" lon="1.8398118"><ele>273.0</ele><time>2026-03-28T10:24:04.297Z</time></trkpt><trkpt lat="41.347409" lon="1.8398471"><ele>273.0</ele><time>2026-03-28T10:24:05.297Z</time></trkpt><trkpt lat="41.3475032" lon="1.8398981"><ele>273.0</ele><time>2026-03-28T10:24:06.297Z</time></trkpt><trkpt lat="41.3476" lon="1.8399548"><ele>274.6</ele><time>2026-03-28T10:24:07.297Z</time></trkpt><trkpt lat="41.347692" lon="1.8399954"><ele>276.20000000000005</ele><time>2026-03-28T10:24:08.297Z</time></trkpt><trkpt lat="41.3477775" lon="1.8400284"><ele>277.8</ele><time>2026-03-28T10:24:09.297Z</time></trkpt><trkpt lat="41.3478681" lon="1.840039"><ele>279.40000000000003</ele><time>2026-03-28T10:24:10.297Z</time></trkpt><trkpt lat="41.3479663" lon="1.8400164"><ele>281.0</ele><time>2026-03-28T10:24:11.297Z</time></trkpt><trkpt lat="41.348057" lon="1.8399645"><ele>281.40000000000003</ele><time>2026-03-28T10:24:12.297Z</time></trkpt><trkpt lat="41.3481306" lon="1.8398802"><ele>281.8</ele><time>2026-03-28T10:24:13.297Z</time></trkpt><trkpt lat="41.3481806" lon="1.839766"><ele>282.20000000000005</ele><time>2026-03-28T10:24:14.297Z</time></trkpt><trkpt lat="41.3482039" lon="1.8396274"><ele>282.6</ele><time>2026-03-28T10:24:15.297Z</time></trkpt><trkpt lat="41.3481992" lon="1.839475"><ele>283.0</ele><time>2026-03-28T10:24:16.297Z</time></trkpt><trkpt lat="41.3481814" lon="1.83932"><ele>282.25</ele><time>2026-03-28T10:24:17.297Z</time></trkpt><trkpt lat="41.3481302" lon="1.8391594"><ele>281.5</ele><time>2026-03-28T10:24:18.297Z</time></trkpt><trkpt lat="41.348038" lon="1.8390114"><ele>280.75</ele><time>2026-03-28T10:24:19.297Z</time></trkpt><trkpt lat="41.3479353" lon="1.8388799"><ele>280.0</ele><time>2026-03-28T10:24:20.297Z</time></trkpt><trkpt lat="41.3478426" lon="1.8387492"><ele>279.0</ele><time>2026-03-28T10:24:21.297Z</time></trkpt><trkpt lat="41.3477712" lon="1.8386209"><ele>278.0</ele><time>2026-03-28T10:24:22.296Z</time></trkpt><trkpt lat="41.3477236" lon="1.8384944"><ele>277.0</ele><time>2026-03-28T10:24:23.297Z</time></trkpt><trkpt lat="41.3477063" lon="1.8383455"><ele>276.0</ele><time>2026-03-28T10:24:24.297Z</time></trkpt><trkpt lat="41.3477078" lon="1.8381922"><ele>276.0</ele><time>2026-03-28T10:24:25.297Z</time></trkpt><trkpt lat="41.3477175" lon="1.8380507"><ele>276.0</ele><time>2026-03-28T10:24:26.297Z</time></trkpt><trkpt lat="41.3477405" lon="1.8379135"><ele>276.0</ele><time>2026-03-28T10:24:27.297Z</time></trkpt><trkpt lat="41.3477805" lon="1.8377826"><ele>276.0</ele><time>2026-03-28T10:24:28.297Z</time></trkpt><trkpt lat="41.3478588" lon="1.8376307"><ele>278.0</ele><time>2026-03-28T10:24:29.297Z</time></trkpt><trkpt lat="41.3479642" lon="1.8374686"><ele>280.0</ele><time>2026-03-28T10:24:30.296Z</time></trkpt><trkpt lat="41.3480812" lon="1.8373079"><ele>282.0</ele><time>2026-03-28T10:24:31.297Z</time></trkpt><trkpt lat="41.348218" lon="1.8371282"><ele>284.3333333333333</ele><time>2026-03-28T10:24:32.297Z</time></trkpt><trkpt lat="41.3483686" lon="1.8369324"><ele>286.66666666666663</ele><time>2026-03-28T10:24:33.297Z</time></trkpt><trkpt lat="41.348529" lon="1.8367294"><ele>289.0</ele><time>2026-03-28T10:24:34.297Z</time></trkpt><trkpt lat="41.3486954" lon="1.8365208"><ele>289.0</ele><time>2026-03-28T10:24:35.297Z</time></trkpt><trkpt lat="41.3488732" lon="1.8363154"><ele>289.0</ele><time>2026-03-28T10:24:36.297Z</time></trkpt><trkpt lat="41.3490525" lon="1.8361163"><ele>293.5</ele><time>2026-03-28T10:24:37.297Z</time></trkpt><trkpt lat="41.3492242" lon="1.8359159"><ele>298.0</ele><time>2026-03-28T10:24:38.297Z</time></trkpt><trkpt lat="41.3493997" lon="1.8357286"><ele>298.0</ele><time>2026-03-28T10:24:39.297Z</time></trkpt><trkpt lat="41.3495731" lon="1.8355814"><ele>298.0</ele><time>2026-03-28T10:24:40.297Z</time></trkpt><trkpt lat="41.3497467" lon="1.8354578"><ele>298.0</ele><time>2026-03-28T10:24:41.297Z</time></trkpt><trkpt lat="41.3498992" lon="1.8353477"><ele>299.25</ele><time>2026-03-28T10:24:42.297Z</time></trkpt><trkpt lat="41.3500279" lon="1.8352485"><ele>300.5</ele><time>2026-03-28T10:24:43.297Z</time></trkpt><trkpt lat="41.3501322" lon="1.835162"><ele>301.75</ele><time>2026-03-28T10:24:44.297Z</time></trkpt><trkpt lat="41.3501956" lon="1.8350693"><ele>303.0</ele><time>2026-03-28T10:24:45.297Z</time></trkpt><trkpt lat="41.3502155" lon="1.8349604"><ele>303.0</ele><time>2026-03-28T10:24:46.297Z</time></trkpt><trkpt lat="41.3501925" lon="1.834851"><ele>303.0</ele><time>2026-03-28T10:24:47.297Z</time></trkpt><trkpt lat="41.3501327" lon="1.834764"><ele>303.0</ele><time>2026-03-28T10:24:48.297Z</time></trkpt><trkpt lat="41.3500402" lon="1.8347302"><ele>303.0</ele><time>2026-03-28T10:24:49.296Z</time></trkpt><trkpt lat="41.3499214" lon="1.8347291"><ele>303.0</ele><time>2026-03-28T10:24:50.296Z</time></trkpt><trkpt lat="41.3497809" lon="1.8347345"><ele>302.75</ele><time>2026-03-28T10:24:51.296Z</time></trkpt><trkpt lat="41.3496332" lon="1.8347414"><ele>302.5</ele><time>2026-03-28T10:24:52.296Z</time></trkpt><trkpt lat="41.3494975" lon="1.8347412"><ele>302.25</ele><time>2026-03-28T10:24:53.297Z</time></trkpt><trkpt lat="41.3493665" lon="1.8347471"><ele>302.0</ele><time>2026-03-28T10:24:54.296Z</time></trkpt><trkpt lat="41.3492499" lon="1.8347425"><ele>302.0</ele><time>2026-03-28T10:24:55.296Z</time></trkpt><trkpt lat="41.3491493" lon="1.834716"><ele>302.0</ele><time>2026-03-28T10:24:56.296Z</time></trkpt><trkpt lat="41.3490825" lon="1.8346554"><ele>302.0</ele><time>2026-03-28T10:24:57.297Z</time></trkpt><trkpt lat="41.3490487" lon="1.834573"><ele>302.0</ele><time>2026-03-28T10:24:58.297Z</time></trkpt><trkpt lat="41.3490381" lon="1.8344551"><ele>302.0</ele><time>2026-03-28T10:24:59.297Z</time></trkpt><trkpt lat="41.3490536" lon="1.8342967"><ele>302.25</ele><time>2026-03-28T10:25:00.297Z</time></trkpt><trkpt lat="41.3490803" lon="1.8341575"><ele>302.5</ele><time>2026-03-28T10:25:01.297Z</time></trkpt><trkpt lat="41.349136" lon="1.8340349"><ele>302.75</ele><time>2026-03-28T10:25:02.297Z</time></trkpt><trkpt lat="41.3492273" lon="1.8339337"><ele>303.0</ele><time>2026-03-28T10:25:03.297Z</time></trkpt><trkpt lat="41.3493561" lon="1.8338388"><ele>303.0</ele><time>2026-03-28T10:25:04.296Z</time></trkpt><trkpt lat="41.3494873" lon="1.8337385"><ele>303.0</ele><time>2026-03-28T10:25:05.296Z</time></trkpt><trkpt lat="41.3496218" lon="1.8336178"><ele>303.0</ele><time>2026-03-28T10:25:06.297Z</time></trkpt><trkpt lat="41.3497535" lon="1.8334639"><ele>305.3333333333333</ele><time>2026-03-28T10:25:07.297Z</time></trkpt><trkpt lat="41.3498602" lon="1.8332896"><ele>307.66666666666663</ele><time>2026-03-28T10:25:08.297Z</time></trkpt><trkpt lat="41.3499297" lon="1.8331094"><ele>310.0</ele><time>2026-03-28T10:25:09.297Z</time></trkpt><trkpt lat="41.3499611" lon="1.8329199"><ele>310.0</ele><time>2026-03-28T10:25:10.297Z</time></trkpt><trkpt lat="41.3499505" lon="1.8327305"><ele>310.0</ele><time>2026-03-28T10:25:11.297Z</time></trkpt><trkpt lat="41.3499032" lon="1.8325651"><ele>310.0</ele><time>2026-03-28T10:25:12.297Z</time></trkpt><trkpt lat="41.349812" lon="1.8323992"><ele>310.0</ele><time>2026-03-28T10:25:13.297Z</time></trkpt><trkpt lat="41.3497297" lon="1.8322229"><ele>307.66666666666663</ele><time>2026-03-28T10:25:14.297Z</time></trkpt><trkpt lat="41.3496723" lon="1.8320193"><ele>305.3333333333333</ele><time>2026-03-28T10:25:15.297Z</time></trkpt><trkpt lat="41.3496163" lon="1.8317979"><ele>303.0</ele><time>2026-03-28T10:25:16.296Z</time></trkpt><trkpt lat="41.3495384" lon="1.8315927"><ele>303.0</ele><time>2026-03-28T10:25:17.296Z</time></trkpt><trkpt lat="41.3494252" lon="1.8314006"><ele>303.0</ele><time>2026-03-28T10:25:18.297Z</time></trkpt><trkpt lat="41.3492972" lon="1.8312326"><ele>303.0</ele><time>2026-03-28T10:25:19.297Z</time></trkpt><trkpt lat="41.3491892" lon="1.8310464"><ele>305.0</ele><time>2026-03-28T10:25:20.297Z</time></trkpt><trkpt lat="41.3491039" lon="1.8308427"><ele>307.0</ele><time>2026-03-28T10:25:21.297Z</time></trkpt><trkpt lat="41.3490469" lon="1.8306417"><ele>309.0</ele><time>2026-03-28T10:25:22.297Z</time></trkpt><trkpt lat="41.3490221" lon="1.8304438"><ele>309.0</ele><time>2026-03-28T10:25:23.297Z</time></trkpt><trkpt lat="41.3490348" lon="1.8302484"><ele>309.0</ele><time>2026-03-28T10:25:24.297Z</time></trkpt><trkpt lat="41.349075" lon="1.8300664"><ele>309.0</ele><time>2026-03-28T10:25:25.297Z</time></trkpt><trkpt lat="41.3491299" lon="1.829875"><ele>309.0</ele><time>2026-03-28T10:25:26.297Z</time></trkpt><trkpt lat="41.349184" lon="1.8296873"><ele>308.6666666666667</ele><time>2026-03-28T10:25:27.297Z</time></trkpt><trkpt lat="41.3492339" lon="1.8294926"><ele>308.33333333333337</ele><time>2026-03-28T10:25:28.297Z</time></trkpt><trkpt lat="41.3492634" lon="1.8292934"><ele>308.0</ele><time>2026-03-28T10:25:29.297Z</time></trkpt><trkpt lat="41.3492656" lon="1.8290807"><ele>307.75</ele><time>2026-03-28T10:25:30.297Z</time></trkpt><trkpt lat="41.3492446" lon="1.8288705"><ele>307.5</ele><time>2026-03-28T10:25:31.297Z</time></trkpt><trkpt lat="41.3492317" lon="1.8286742"><ele>307.25</ele><time>2026-03-28T10:25:32.297Z</time></trkpt><trkpt lat="41.3492436" lon="1.828504"><ele>307.0</ele><time>2026-03-28T10:25:33.297Z</time></trkpt><trkpt lat="41.3492885" lon="1.8283672"><ele>307.25</ele><time>2026-03-28T10:25:34.297Z</time></trkpt><trkpt lat="41.349363" lon="1.8282691"><ele>307.5</ele><time>2026-03-28T10:25:35.297Z</time></trkpt><trkpt lat="41.3494742" lon="1.8282004"><ele>307.75</ele><time>2026-03-28T10:25:36.297Z</time></trkpt><trkpt lat="41.3496112" lon="1.8281662"><ele>308.0</ele><time>2026-03-28T10:25:37.297Z</time></trkpt><trkpt lat="41.3497635" lon="1.8281784"><ele>308.0</ele><time>2026-03-28T10:25:38.297Z</time></trkpt><trkpt lat="41.3499202" lon="1.8282392"><ele>308.0</ele><time>2026-03-28T10:25:39.297Z</time></trkpt><trkpt lat="41.3500663" lon="1.8283438"><ele>308.0</ele><time>2026-03-28T10:25:40.297Z</time></trkpt><trkpt lat="41.3502179" lon="1.8284791"><ele>309.0</ele><time>2026-03-28T10:25:41.297Z</time></trkpt><trkpt lat="41.3503699" lon="1.8286092"><ele>310.0</ele><time>2026-03-28T10:25:42.297Z</time></trkpt><trkpt lat="41.3505206" lon="1.8287312"><ele>311.0</ele><time>2026-03-28T10:25:43.297Z</time></trkpt><trkpt lat="41.3506628" lon="1.8288444"><ele>310.33333333333337</ele><time>2026-03-28T10:25:44.296Z</time></trkpt><trkpt lat="41.3507818" lon="1.828969"><ele>309.6666666666667</ele><time>2026-03-28T10:25:45.297Z</time></trkpt><trkpt lat="41.3508733" lon="1.8291256"><ele>309.0</ele><time>2026-03-28T10:25:46.296Z</time></trkpt><trkpt lat="41.350941" lon="1.8293118"><ele>309.0</ele><time>2026-03-28T10:25:47.296Z</time></trkpt><trkpt lat="41.3510097" lon="1.8294821"><ele>309.0</ele><time>2026-03-28T10:25:48.297Z</time></trkpt><trkpt lat="41.3510923" lon="1.8296266"><ele>309.0</ele><time>2026-03-28T10:25:49.297Z</time></trkpt><trkpt lat="41.3511973" lon="1.829728"><ele>309.0</ele><time>2026-03-28T10:25:50.297Z</time></trkpt><trkpt lat="41.3513166" lon="1.8297809"><ele>304.75</ele><time>2026-03-28T10:25:51.297Z</time></trkpt><trkpt lat="41.351437" lon="1.8297955"><ele>300.5</ele><time>2026-03-28T10:25:52.297Z</time></trkpt><trkpt lat="41.3515678" lon="1.8297195"><ele>296.25</ele><time>2026-03-28T10:25:53.297Z</time></trkpt><trkpt lat="41.3517085" lon="1.829627"><ele>292.0</ele><time>2026-03-28T10:25:54.297Z</time></trkpt><trkpt lat="41.3518569" lon="1.8295315"><ele>292.0</ele><time>2026-03-28T10:25:55.297Z</time></trkpt><trkpt lat="41.3520105" lon="1.829434"><ele>292.0</ele><time>2026-03-28T10:25:56.296Z</time></trkpt><trkpt lat="41.3521612" lon="1.829335"><ele>292.0</ele><time>2026-03-28T10:25:57.296Z</time></trkpt><trkpt lat="41.3523032" lon="1.8292347"><ele>290.5</ele><time>2026-03-28T10:25:58.297Z</time></trkpt><trkpt lat="41.3524332" lon="1.8291159"><ele>289.0</ele><time>2026-03-28T10:25:59.297Z</time></trkpt><trkpt lat="41.3525372" lon="1.8289759"><ele>287.5</ele><time>2026-03-28T10:26:00.297Z</time></trkpt><trkpt lat="41.352608" lon="1.8288386"><ele>286.0</ele><time>2026-03-28T10:26:01.297Z</time></trkpt><trkpt lat="41.3526435" lon="1.8287101"><ele>286.0</ele><time>2026-03-28T10:26:02.297Z</time></trkpt><trkpt lat="41.3526295" lon="1.8285859"><ele>286.0</ele><time>2026-03-28T10:26:03.297Z</time></trkpt><trkpt lat="41.3525711" lon="1.8284731"><ele>286.0</ele><time>2026-03-28T10:26:04.297Z</time></trkpt><trkpt lat="41.3524963" lon="1.8283538"><ele>286.0</ele><time>2026-03-28T10:26:05.296Z</time></trkpt><trkpt lat="41.3524338" lon="1.8281947"><ele>286.0</ele><time>2026-03-28T10:26:06.297Z</time></trkpt><trkpt lat="41.3524021" lon="1.8280043"><ele>285.25</ele><time>2026-03-28T10:26:07.297Z</time></trkpt><trkpt lat="41.352389" lon="1.8278129"><ele>284.5</ele><time>2026-03-28T10:26:08.297Z</time></trkpt><trkpt lat="41.3523771" lon="1.8276231"><ele>283.75</ele><time>2026-03-28T10:26:09.297Z</time></trkpt><trkpt lat="41.3523683" lon="1.8274412"><ele>283.0</ele><time>2026-03-28T10:26:10.297Z</time></trkpt><trkpt lat="41.3523738" lon="1.8272835"><ele>284.2</ele><time>2026-03-28T10:26:11.296Z</time></trkpt><trkpt lat="41.3523963" lon="1.8271558"><ele>285.4</ele><time>2026-03-28T10:26:12.297Z</time></trkpt><trkpt lat="41.3524317" lon="1.8270371"><ele>286.59999999999997</ele><time>2026-03-28T10:26:13.297Z</time></trkpt><trkpt lat="41.3524536" lon="1.8269154"><ele>287.8</ele><time>2026-03-28T10:26:14.297Z</time></trkpt><trkpt lat="41.3524485" lon="1.8267833"><ele>289.0</ele><time>2026-03-28T10:26:15.296Z</time></trkpt><trkpt lat="41.3523992" lon="1.8266559"><ele>289.25</ele><time>2026-03-28T10:26:16.297Z</time></trkpt><trkpt lat="41.352306" lon="1.8265528"><ele>289.5</ele><time>2026-03-28T10:26:17.297Z</time></trkpt><trkpt lat="41.3522015" lon="1.8264657"><ele>289.75</ele><time>2026-03-28T10:26:18.297Z</time></trkpt><trkpt lat="41.3521026" lon="1.8263751"><ele>290.0</ele><time>2026-03-28T10:26:19.297Z</time></trkpt><trkpt lat="41.3520236" lon="1.8262621"><ele>288.25</ele><time>2026-03-28T10:26:20.296Z</time></trkpt><trkpt lat="41.3519679" lon="1.826127"><ele>286.5</ele><time>2026-03-28T10:26:21.297Z</time></trkpt><trkpt lat="41.3519275" lon="1.8259573"><ele>284.75</ele><time>2026-03-28T10:26:22.297Z</time></trkpt><trkpt lat="41.3518863" lon="1.8257899"><ele>283.0</ele><time>2026-03-28T10:26:23.297Z</time></trkpt><trkpt lat="41.3518676" lon="1.8256319"><ele>283.0</ele><time>2026-03-28T10:26:24.297Z</time></trkpt><trkpt lat="41.3518909" lon="1.8254763"><ele>283.0</ele><time>2026-03-28T10:26:25.297Z</time></trkpt><trkpt lat="41.3519498" lon="1.8253214"><ele>283.0</ele><time>2026-03-28T10:26:26.297Z</time></trkpt><trkpt lat="41.3520209" lon="1.8251736"><ele>283.0</ele><time>2026-03-28T10:26:27.296Z</time></trkpt><trkpt lat="41.3520764" lon="1.8250504"><ele>283.4</ele><time>2026-03-28T10:26:28.297Z</time></trkpt><trkpt lat="41.352121" lon="1.8249391"><ele>283.8</ele><time>2026-03-28T10:26:29.297Z</time></trkpt><trkpt lat="41.3521467" lon="1.824826"><ele>284.2</ele><time>2026-03-28T10:26:30.297Z</time></trkpt><trkpt lat="41.3521513" lon="1.8247025"><ele>284.6</ele><time>2026-03-28T10:26:31.297Z</time></trkpt><trkpt lat="41.3521289" lon="1.8245696"><ele>285.0</ele><time>2026-03-28T10:26:32.297Z</time></trkpt><trkpt lat="41.352082" lon="1.8244479"><ele>285.0</ele><time>2026-03-28T10:26:33.297Z</time></trkpt><trkpt lat="41.3520256" lon="1.8243324"><ele>285.0</ele><time>2026-03-28T10:26:34.297Z</time></trkpt><trkpt lat="41.3519911" lon="1.8242067"><ele>285.0</ele><time>2026-03-28T10:26:35.297Z</time></trkpt><trkpt lat="41.3519988" lon="1.8240736"><ele>285.0</ele><time>2026-03-28T10:26:36.297Z</time></trkpt><trkpt lat="41.3520265" lon="1.8239383"><ele>285.0</ele><time>2026-03-28T10:26:37.296Z</time></trkpt><trkpt lat="41.3520294" lon="1.8238046"><ele>285.25</ele><time>2026-03-28T10:26:38.297Z</time></trkpt><trkpt lat="41.3520042" lon="1.8236815"><ele>285.5</ele><time>2026-03-28T10:26:39.297Z</time></trkpt><trkpt lat="41.351922" lon="1.8235763"><ele>285.75</ele><time>2026-03-28T10:26:40.297Z</time></trkpt><trkpt lat="41.3518152" lon="1.8234729"><ele>286.0</ele><time>2026-03-28T10:26:41.297Z</time></trkpt><trkpt lat="41.3517167" lon="1.8233697"><ele>288.0</ele><time>2026-03-28T10:26:42.297Z</time></trkpt><trkpt lat="41.3516547" lon="1.8232402"><ele>290.0</ele><time>2026-03-28T10:26:43.297Z</time></trkpt><trkpt lat="41.351618" lon="1.8230863"><ele>292.0</ele><time>2026-03-28T10:26:44.297Z</time></trkpt><trkpt lat="41.351599" lon="1.822921"><ele>294.0</ele><time>2026-03-28T10:26:45.297Z</time></trkpt><trkpt lat="41.3515949" lon="1.8227712"><ele>294.59999999999997</ele><time>2026-03-28T10:26:46.297Z</time></trkpt><trkpt lat="41.3516088" lon="1.8226321"><ele>295.2</ele><time>2026-03-28T10:26:47.297Z</time></trkpt><trkpt lat="41.3516346" lon="1.8225066"><ele>295.79999999999995</ele><time>2026-03-28T10:26:48.297Z</time></trkpt><trkpt lat="41.3516587" lon="1.8223926"><ele>296.4</ele><time>2026-03-28T10:26:49.297Z</time></trkpt><trkpt lat="41.3516722" lon="1.8222862"><ele>297.0</ele><time>2026-03-28T10:26:50.297Z</time></trkpt><trkpt lat="41.3516671" lon="1.8221763"><ele>297.0</ele><time>2026-03-28T10:26:51.297Z</time></trkpt><trkpt lat="41.3516358" lon="1.8220713"><ele>297.0</ele><time>2026-03-28T10:26:52.297Z</time></trkpt><trkpt lat="41.3515524" lon="1.8219983"><ele>297.0</ele><time>2026-03-28T10:26:53.297Z</time></trkpt><trkpt lat="41.351455" lon="1.8219277"><ele>297.0</ele><time>2026-03-28T10:26:54.297Z</time></trkpt><trkpt lat="41.3513301" lon="1.8218672"><ele>297.0</ele><time>2026-03-28T10:26:55.297Z</time></trkpt><trkpt lat="41.3511715" lon="1.821811"><ele>296.75</ele><time>2026-03-28T10:26:56.297Z</time></trkpt><trkpt lat="41.3510325" lon="1.8217416"><ele>296.5</ele><time>2026-03-28T10:26:57.297Z</time></trkpt><trkpt lat="41.3508853" lon="1.8216863"><ele>296.25</ele><time>2026-03-28T10:26:58.297Z</time></trkpt><trkpt lat="41.3507522" lon="1.8216325"><ele>296.0</ele><time>2026-03-28T10:26:59.297Z</time></trkpt><trkpt lat="41.3506225" lon="1.8215781"><ele>294.0</ele><time>2026-03-28T10:27:00.297Z</time></trkpt><trkpt lat="41.3505101" lon="1.8215036"><ele>292.0</ele><time>2026-03-28T10:27:01.297Z</time></trkpt><trkpt lat="41.3504249" lon="1.8213916"><ele>290.0</ele><time>2026-03-28T10:27:02.296Z</time></trkpt><trkpt lat="41.3503598" lon="1.8212522"><ele>288.0</ele><time>2026-03-28T10:27:03.297Z</time></trkpt><trkpt lat="41.3503134" lon="1.8211028"><ele>290.0</ele><time>2026-03-28T10:27:04.296Z</time></trkpt><trkpt lat="41.3502704" lon="1.8209527"><ele>292.0</ele><time>2026-03-28T10:27:05.297Z</time></trkpt><trkpt lat="41.3502206" lon="1.8208214"><ele>294.0</ele><time>2026-03-28T10:27:06.297Z</time></trkpt><trkpt lat="41.3501623" lon="1.8207039"><ele>296.0</ele><time>2026-03-28T10:27:07.297Z</time></trkpt><trkpt lat="41.3500781" lon="1.8206039"><ele>296.0</ele><time>2026-03-28T10:27:08.297Z</time></trkpt><trkpt lat="41.3499737" lon="1.8205221"><ele>296.0</ele><time>2026-03-28T10:27:09.297Z</time></trkpt><trkpt lat="41.3498548" lon="1.8204691"><ele>296.0</ele><time>2026-03-28T10:27:10.297Z</time></trkpt><trkpt lat="41.3497444" lon="1.8204117"><ele>296.0</ele><time>2026-03-28T10:27:11.297Z</time></trkpt><trkpt lat="41.349649" lon="1.8203438"><ele>295.40000000000003</ele><time>2026-03-28T10:27:12.297Z</time></trkpt><trkpt lat="41.3495757" lon="1.8202457"><ele>294.8</ele><time>2026-03-28T10:27:13.297Z</time></trkpt><trkpt lat="41.3495258" lon="1.8201089"><ele>294.20000000000005</ele><time>2026-03-28T10:27:14.297Z</time></trkpt><trkpt lat="41.3495008" lon="1.8199616"><ele>293.6</ele><time>2026-03-28T10:27:15.296Z</time></trkpt><trkpt lat="41.3494853" lon="1.8198084"><ele>293.0</ele><time>2026-03-28T10:27:16.297Z</time></trkpt><trkpt lat="41.349468" lon="1.8196569"><ele>293.0</ele><time>2026-03-28T10:27:17.297Z</time></trkpt><trkpt lat="41.3494628" lon="1.8195059"><ele>293.0</ele><time>2026-03-28T10:27:18.297Z</time></trkpt><trkpt lat="41.3494849" lon="1.8193655"><ele>293.0</ele><time>2026-03-28T10:27:19.297Z</time></trkpt><trkpt lat="41.3495382" lon="1.819251"><ele>293.0</ele><time>2026-03-28T10:27:20.297Z</time></trkpt><trkpt lat="41.349622" lon="1.8191682"><ele>293.0</ele><time>2026-03-28T10:27:21.297Z</time></trkpt><trkpt lat="41.3497085" lon="1.8191018"><ele>294.8</ele><time>2026-03-28T10:27:22.296Z</time></trkpt><trkpt lat="41.3498414" lon="1.8191315"><ele>296.6</ele><time>2026-03-28T10:27:23.297Z</time></trkpt><trkpt lat="41.3499536" lon="1.8191356"><ele>298.4</ele><time>2026-03-28T10:27:24.297Z</time></trkpt><trkpt lat="41.3500523" lon="1.8191233"><ele>300.2</ele><time>2026-03-28T10:27:25.297Z</time></trkpt><trkpt lat="41.3501297" lon="1.8190649"><ele>302.0</ele><time>2026-03-28T10:27:26.297Z</time></trkpt><trkpt lat="41.3501739" lon="1.8189598"><ele>302.0</ele><time>2026-03-28T10:27:27.297Z</time></trkpt><trkpt lat="41.3501759" lon="1.8188312"><ele>302.0</ele><time>2026-03-28T10:27:28.297Z</time></trkpt><trkpt lat="41.3501343" lon="1.8186757"><ele>302.0</ele><time>2026-03-28T10:27:29.297Z</time></trkpt><trkpt lat="41.3500749" lon="1.8185044"><ele>302.0</ele><time>2026-03-28T10:27:30.297Z</time></trkpt><trkpt lat="41.3500076" lon="1.8183366"><ele>301.6666666666667</ele><time>2026-03-28T10:27:31.297Z</time></trkpt><trkpt lat="41.3499113" lon="1.8181788"><ele>301.3333333333333</ele><time>2026-03-28T10:27:32.297Z</time></trkpt><trkpt lat="41.3497969" lon="1.818023"><ele>301.0</ele><time>2026-03-28T10:27:33.297Z</time></trkpt><trkpt lat="41.3496776" lon="1.8178747"><ele>300.75</ele><time>2026-03-28T10:27:34.297Z</time></trkpt><trkpt lat="41.349568" lon="1.8177322"><ele>300.5</ele><time>2026-03-28T10:27:35.297Z</time></trkpt><trkpt lat="41.34947" lon="1.8175889"><ele>300.25</ele><time>2026-03-28T10:27:36.297Z</time></trkpt><trkpt lat="41.3493823" lon="1.817442"><ele>300.0</ele><time>2026-03-28T10:27:37.297Z</time></trkpt><trkpt lat="41.3493079" lon="1.8172733"><ele>300.0</ele><time>2026-03-28T10:27:38.297Z</time></trkpt><trkpt lat="41.3492459" lon="1.8170809"><ele>300.0</ele><time>2026-03-28T10:27:39.297Z</time></trkpt><trkpt lat="41.3492015" lon="1.8168744"><ele>300.0</ele><time>2026-03-28T10:27:40.297Z</time></trkpt><trkpt lat="41.3491611" lon="1.8166759"><ele>299.3333333333333</ele><time>2026-03-28T10:27:41.297Z</time></trkpt><trkpt lat="41.3491307" lon="1.8164675"><ele>298.66666666666663</ele><time>2026-03-28T10:27:42.297Z</time></trkpt><trkpt lat="41.3491038" lon="1.8162535"><ele>298.0</ele><time>2026-03-28T10:27:43.297Z</time></trkpt><trkpt lat="41.349086" lon="1.8160363"><ele>299.3333333333333</ele><time>2026-03-28T10:27:44.296Z</time></trkpt><trkpt lat="41.3490719" lon="1.8158157"><ele>300.6666666666667</ele><time>2026-03-28T10:27:45.297Z</time></trkpt><trkpt lat="41.3490593" lon="1.8155989"><ele>302.0</ele><time>2026-03-28T10:27:46.297Z</time></trkpt><trkpt lat="41.3490459" lon="1.8153853"><ele>302.0</ele><time>2026-03-28T10:27:47.297Z</time></trkpt><trkpt lat="41.3490293" lon="1.8151728"><ele>302.0</ele><time>2026-03-28T10:27:48.297Z</time></trkpt><trkpt lat="41.349024" lon="1.8149584"><ele>302.0</ele><time>2026-03-28T10:27:49.297Z</time></trkpt><trkpt lat="41.3490332" lon="1.8147473"><ele>301.75</ele><time>2026-03-28T10:27:50.297Z</time></trkpt><trkpt lat="41.3490531" lon="1.8145497"><ele>301.5</ele><time>2026-03-28T10:27:51.297Z</time></trkpt><trkpt lat="41.3490734" lon="1.814355"><ele>301.25</ele><time>2026-03-28T10:27:52.297Z</time></trkpt><trkpt lat="41.3490922" lon="1.8141656"><ele>301.0</ele><time>2026-03-28T10:27:53.297Z</time></trkpt><trkpt lat="41.3491165" lon="1.8139909"><ele>299.0</ele><time>2026-03-28T10:27:54.297Z</time></trkpt><trkpt lat="41.3491687" lon="1.8138291"><ele>297.0</ele><time>2026-03-28T10:27:55.297Z</time></trkpt><trkpt lat="41.3492565" lon="1.8136901"><ele>295.0</ele><time>2026-03-28T10:27:56.297Z</time></trkpt><trkpt lat="41.3493683" lon="1.8135842"><ele>293.0</ele><time>2026-03-28T10:27:57.297Z</time></trkpt><trkpt lat="41.3494875" lon="1.8134955"><ele>290.25</ele><time>2026-03-28T10:27:58.297Z</time></trkpt><trkpt lat="41.3496062" lon="1.813414"><ele>287.5</ele><time>2026-03-28T10:27:59.297Z</time></trkpt><trkpt lat="41.3497166" lon="1.813352"><ele>284.75</ele><time>2026-03-28T10:28:00.297Z</time></trkpt><trkpt lat="41.3498252" lon="1.813318"><ele>282.0</ele><time>2026-03-28T10:28:01.297Z</time></trkpt><trkpt lat="41.3499358" lon="1.8133325"><ele>281.75</ele><time>2026-03-28T10:28:02.297Z</time></trkpt><trkpt lat="41.3500521" lon="1.8133913"><ele>281.5</ele><time>2026-03-28T10:28:03.297Z</time></trkpt><trkpt lat="41.3501669" lon="1.8134806"><ele>281.25</ele><time>2026-03-28T10:28:04.297Z</time></trkpt><trkpt lat="41.3502758" lon="1.8135766"><ele>281.0</ele><time>2026-03-28T10:28:05.297Z</time></trkpt><trkpt lat="41.3503736" lon="1.8136666"><ele>283.0</ele><time>2026-03-28T10:28:06.297Z</time></trkpt><trkpt lat="41.3504648" lon="1.8137473"><ele>285.0</ele><time>2026-03-28T10:28:07.297Z</time></trkpt><trkpt lat="41.350557" lon="1.8138001"><ele>287.0</ele><time>2026-03-28T10:28:08.296Z</time></trkpt><trkpt lat="41.3506492" lon="1.8138165"><ele>289.0</ele><time>2026-03-28T10:28:09.297Z</time></trkpt><trkpt lat="41.3507306" lon="1.8137843"><ele>291.0</ele><time>2026-03-28T10:28:10.297Z</time></trkpt><trkpt lat="41.3507943" lon="1.8136945"><ele>291.0</ele><time>2026-03-28T10:28:11.297Z</time></trkpt><trkpt lat="41.3508404" lon="1.8135555"><ele>291.0</ele><time>2026-03-28T10:28:12.297Z</time></trkpt><trkpt lat="41.3508806" lon="1.8133785"><ele>291.0</ele><time>2026-03-28T10:28:13.297Z</time></trkpt><trkpt lat="41.3509194" lon="1.813198"><ele>291.0</ele><time>2026-03-28T10:28:14.297Z</time></trkpt><trkpt lat="41.3509642" lon="1.8130245"><ele>287.75</ele><time>2026-03-28T10:28:15.297Z</time></trkpt><trkpt lat="41.3510258" lon="1.812863"><ele>284.5</ele><time>2026-03-28T10:28:16.297Z</time></trkpt><trkpt lat="41.3511055" lon="1.8127234"><ele>281.25</ele><time>2026-03-28T10:28:17.297Z</time></trkpt><trkpt lat="41.3512015" lon="1.8126274"><ele>278.0</ele><time>2026-03-28T10:28:18.297Z</time></trkpt><trkpt lat="41.3513132" lon="1.8125873"><ele>277.33333333333337</ele><time>2026-03-28T10:28:19.297Z</time></trkpt><trkpt lat="41.3514334" lon="1.8125863"><ele>276.6666666666667</ele><time>2026-03-28T10:28:20.297Z</time></trkpt><trkpt lat="41.3515342" lon="1.8126191"><ele>276.0</ele><time>2026-03-28T10:28:21.296Z</time></trkpt><trkpt lat="41.3516152" lon="1.8126395"><ele>275.3333333333333</ele><time>2026-03-28T10:28:22.297Z</time></trkpt><trkpt lat="41.3516855" lon="1.8126225"><ele>274.66666666666663</ele><time>2026-03-28T10:28:23.297Z</time></trkpt><trkpt lat="41.3517342" lon="1.8125647"><ele>274.0</ele><time>2026-03-28T10:28:24.297Z</time></trkpt><trkpt lat="41.351748" lon="1.8124773"><ele>274.0</ele><time>2026-03-28T10:28:25.296Z</time></trkpt><trkpt lat="41.3517291" lon="1.8123697"><ele>274.0</ele><time>2026-03-28T10:28:26.297Z</time></trkpt><trkpt lat="41.3516708" lon="1.8122591"><ele>274.0</ele><time>2026-03-28T10:28:27.297Z</time></trkpt><trkpt lat="41.3515809" lon="1.812173"><ele>274.0</ele><time>2026-03-28T10:28:28.297Z</time></trkpt><trkpt lat="41.3514744" lon="1.8121216"><ele>274.0</ele><time>2026-03-28T10:28:29.297Z</time></trkpt><trkpt lat="41.3513726" lon="1.8120688"><ele>272.5</ele><time>2026-03-28T10:28:30.297Z</time></trkpt><trkpt lat="41.3512758" lon="1.8119671"><ele>271.0</ele><time>2026-03-28T10:28:31.296Z</time></trkpt><trkpt lat="41.3511826" lon="1.811839"><ele>269.5</ele><time>2026-03-28T10:28:32.297Z</time></trkpt><trkpt lat="41.3510931" lon="1.8117272"><ele>268.0</ele><time>2026-03-28T10:28:33.297Z</time></trkpt><trkpt lat="41.3510182" lon="1.8116386"><ele>267.2</ele><time>2026-03-28T10:28:34.297Z</time></trkpt><trkpt lat="41.3509549" lon="1.8115504"><ele>266.4</ele><time>2026-03-28T10:28:35.297Z</time></trkpt><trkpt lat="41.3509182" lon="1.8114446"><ele>265.59999999999997</ele><time>2026-03-28T10:28:36.297Z</time></trkpt><trkpt lat="41.3508989" lon="1.8113374"><ele>264.8</ele><time>2026-03-28T10:28:37.297Z</time></trkpt><trkpt lat="41.3509399" lon="1.8111857"><ele>264.0</ele><time>2026-03-28T10:28:38.297Z</time></trkpt><trkpt lat="41.350987" lon="1.8110372"><ele>263.25</ele><time>2026-03-28T10:28:39.297Z</time></trkpt><trkpt lat="41.3510371" lon="1.8108705"><ele>262.5</ele><time>2026-03-28T10:28:40.297Z</time></trkpt><trkpt lat="41.3510862" lon="1.8107051"><ele>261.75</ele><time>2026-03-28T10:28:41.297Z</time></trkpt><trkpt lat="41.3511264" lon="1.8105382"><ele>261.0</ele><time>2026-03-28T10:28:42.297Z</time></trkpt><trkpt lat="41.3511554" lon="1.8103763"><ele>261.0</ele><time>2026-03-28T10:28:43.297Z</time></trkpt><trkpt lat="41.3511662" lon="1.8102142"><ele>261.0</ele><time>2026-03-28T10:28:44.297Z</time></trkpt><trkpt lat="41.3511046" lon="1.8100453"><ele>261.0</ele><time>2026-03-28T10:28:45.297Z</time></trkpt><trkpt lat="41.3510441" lon="1.8098826"><ele>261.0</ele><time>2026-03-28T10:28:46.297Z</time></trkpt><trkpt lat="41.3509705" lon="1.809701"><ele>260.0</ele><time>2026-03-28T10:28:47.297Z</time></trkpt><trkpt lat="41.3509135" lon="1.8095206"><ele>259.0</ele><time>2026-03-28T10:28:48.297Z</time></trkpt><trkpt lat="41.3508834" lon="1.8093367"><ele>258.0</ele><time>2026-03-28T10:28:49.297Z</time></trkpt><trkpt lat="41.3508759" lon="1.8091508"><ele>257.0</ele><time>2026-03-28T10:28:50.296Z</time></trkpt><trkpt lat="41.3508564" lon="1.8089552"><ele>257.0</ele><time>2026-03-28T10:28:51.296Z</time></trkpt><trkpt lat="41.3508128" lon="1.8088052"><ele>257.0</ele><time>2026-03-28T10:28:52.297Z</time></trkpt><trkpt lat="41.3507487" lon="1.8086496"><ele>257.0</ele><time>2026-03-28T10:28:53.297Z</time></trkpt><trkpt lat="41.3506605" lon="1.8084903"><ele>257.0</ele><time>2026-03-28T10:28:54.297Z</time></trkpt><trkpt lat="41.35056" lon="1.808348"><ele>256.0</ele><time>2026-03-28T10:28:55.297Z</time></trkpt><trkpt lat="41.350466" lon="1.808198"><ele>255.0</ele><time>2026-03-28T10:28:56.297Z</time></trkpt><trkpt lat="41.3503869" lon="1.8080418"><ele>254.0</ele><time>2026-03-28T10:28:57.297Z</time></trkpt><trkpt lat="41.3503188" lon="1.8078645"><ele>253.0</ele><time>2026-03-28T10:28:58.297Z</time></trkpt><trkpt lat="41.3502685" lon="1.8076855"><ele>251.25</ele><time>2026-03-28T10:28:59.297Z</time></trkpt><trkpt lat="41.3502221" lon="1.8075075"><ele>249.5</ele><time>2026-03-28T10:29:00.297Z</time></trkpt><trkpt lat="41.3501958" lon="1.8073323"><ele>247.75</ele><time>2026-03-28T10:29:01.297Z</time></trkpt><trkpt lat="41.3501999" lon="1.8071309"><ele>246.0</ele><time>2026-03-28T10:29:02.297Z</time></trkpt><trkpt lat="41.3502144" lon="1.8069244"><ele>244.66666666666669</ele><time>2026-03-28T10:29:03.297Z</time></trkpt><trkpt lat="41.3502287" lon="1.806715"><ele>243.33333333333334</ele><time>2026-03-28T10:29:04.297Z</time></trkpt><trkpt lat="41.3502433" lon="1.8064994"><ele>242.0</ele><time>2026-03-28T10:29:05.297Z</time></trkpt><trkpt lat="41.3502549" lon="1.8062884"><ele>242.0</ele><time>2026-03-28T10:29:06.297Z</time></trkpt><trkpt lat="41.3502623" lon="1.80609"><ele>242.0</ele><time>2026-03-28T10:29:07.297Z</time></trkpt><trkpt lat="41.3502702" lon="1.8058958"><ele>242.0</ele><time>2026-03-28T10:29:08.297Z</time></trkpt><trkpt lat="41.3502834" lon="1.8057033"><ele>242.0</ele><time>2026-03-28T10:29:09.297Z</time></trkpt><trkpt lat="41.3503013" lon="1.8055048"><ele>240.33333333333334</ele><time>2026-03-28T10:29:10.296Z</time></trkpt><trkpt lat="41.3503264" lon="1.805307"><ele>238.66666666666669</ele><time>2026-03-28T10:29:11.297Z</time></trkpt><trkpt lat="41.3503547" lon="1.8050996"><ele>237.0</ele><time>2026-03-28T10:29:12.297Z</time></trkpt><trkpt lat="41.3503879" lon="1.8048994"><ele>236.33333333333331</ele><time>2026-03-28T10:29:13.297Z</time></trkpt><trkpt lat="41.3504197" lon="1.8046976"><ele>235.66666666666666</ele><time>2026-03-28T10:29:14.297Z</time></trkpt><trkpt lat="41.3504486" lon="1.8045048"><ele>235.0</ele><time>2026-03-28T10:29:15.297Z</time></trkpt><trkpt lat="41.3504782" lon="1.80431"><ele>234.0</ele><time>2026-03-28T10:29:16.296Z</time></trkpt><trkpt lat="41.3505068" lon="1.8041123"><ele>233.0</ele><time>2026-03-28T10:29:17.297Z</time></trkpt><trkpt lat="41.3505324" lon="1.8039271"><ele>232.0</ele><time>2026-03-28T10:29:18.297Z</time></trkpt><trkpt lat="41.350556" lon="1.8037345"><ele>231.0</ele><time>2026-03-28T10:29:19.297Z</time></trkpt><trkpt lat="41.3505606" lon="1.8035322"><ele>231.0</ele><time>2026-03-28T10:29:20.297Z</time></trkpt><trkpt lat="41.3505523" lon="1.8033383"><ele>231.0</ele><time>2026-03-28T10:29:21.297Z</time></trkpt><trkpt lat="41.3505358" lon="1.8031677"><ele>231.0</ele><time>2026-03-28T10:29:22.297Z</time></trkpt><trkpt lat="41.3505359" lon="1.8030174"><ele>231.0</ele><time>2026-03-28T10:29:23.297Z</time></trkpt><trkpt lat="41.3505605" lon="1.8028846"><ele>231.5</ele><time>2026-03-28T10:29:24.297Z</time></trkpt><trkpt lat="41.3506212" lon="1.8027726"><ele>232.0</ele><time>2026-03-28T10:29:25.297Z</time></trkpt><trkpt lat="41.3507099" lon="1.8026865"><ele>232.5</ele><time>2026-03-28T10:29:26.297Z</time></trkpt><trkpt lat="41.3508225" lon="1.8026363"><ele>233.0</ele><time>2026-03-28T10:29:27.297Z</time></trkpt><trkpt lat="41.3509582" lon="1.802598"><ele>233.33333333333334</ele><time>2026-03-28T10:29:28.297Z</time></trkpt><trkpt lat="41.3511009" lon="1.8025528"><ele>233.66666666666669</ele><time>2026-03-28T10:29:29.297Z</time></trkpt><trkpt lat="41.351253" lon="1.8024921"><ele>234.0</ele><time>2026-03-28T10:29:30.297Z</time></trkpt><trkpt lat="41.3514004" lon="1.8024042"><ele>234.0</ele><time>2026-03-28T10:29:31.297Z</time></trkpt><trkpt lat="41.3515287" lon="1.802297"><ele>234.0</ele><time>2026-03-28T10:29:32.297Z</time></trkpt><trkpt lat="41.3516472" lon="1.8021436"><ele>234.0</ele><time>2026-03-28T10:29:33.297Z</time></trkpt><trkpt lat="41.3517538" lon="1.8019532"><ele>238.33333333333331</ele><time>2026-03-28T10:29:34.296Z</time></trkpt><trkpt lat="41.3518461" lon="1.8017698"><ele>242.66666666666666</ele><time>2026-03-28T10:29:35.296Z</time></trkpt><trkpt lat="41.3519397" lon="1.8016014"><ele>247.0</ele><time>2026-03-28T10:29:36.297Z</time></trkpt><trkpt lat="41.3520517" lon="1.8014696"><ele>247.0</ele><time>2026-03-28T10:29:37.297Z</time></trkpt><trkpt lat="41.3521922" lon="1.8013703"><ele>247.0</ele><time>2026-03-28T10:29:38.297Z</time></trkpt><trkpt lat="41.3523246" lon="1.8012931"><ele>247.0</ele><time>2026-03-28T10:29:39.296Z</time></trkpt><trkpt lat="41.3524712" lon="1.8012166"><ele>245.66666666666666</ele><time>2026-03-28T10:29:40.297Z</time></trkpt><trkpt lat="41.3526285" lon="1.801152"><ele>244.33333333333331</ele><time>2026-03-28T10:29:41.297Z</time></trkpt><trkpt lat="41.3527937" lon="1.8011088"><ele>243.0</ele><time>2026-03-28T10:29:42.297Z</time></trkpt><trkpt lat="41.3529578" lon="1.8010881"><ele>243.33333333333331</ele><time>2026-03-28T10:29:43.297Z</time></trkpt><trkpt lat="41.3531165" lon="1.8010858"><ele>243.66666666666666</ele><time>2026-03-28T10:29:44.297Z</time></trkpt><trkpt lat="41.353268" lon="1.8011174"><ele>244.0</ele><time>2026-03-28T10:29:45.297Z</time></trkpt><trkpt lat="41.3534147" lon="1.8011831"><ele>244.0</ele><time>2026-03-28T10:29:46.297Z</time></trkpt><trkpt lat="41.3535573" lon="1.8012416"><ele>244.0</ele><time>2026-03-28T10:29:47.297Z</time></trkpt><trkpt lat="41.3536991" lon="1.8012829"><ele>244.0</ele><time>2026-03-28T10:29:48.296Z</time></trkpt><trkpt lat="41.3538418" lon="1.8013081"><ele>244.0</ele><time>2026-03-28T10:29:49.297Z</time></trkpt><trkpt lat="41.353985" lon="1.8013035"><ele>244.0</ele><time>2026-03-28T10:29:50.297Z</time></trkpt><trkpt lat="41.3541215" lon="1.8012646"><ele>244.0</ele><time>2026-03-28T10:29:51.297Z</time></trkpt><trkpt lat="41.3542488" lon="1.8012025"><ele>244.0</ele><time>2026-03-28T10:29:52.297Z</time></trkpt><trkpt lat="41.3543663" lon="1.8011348"><ele>244.0</ele><time>2026-03-28T10:29:53.297Z</time></trkpt><trkpt lat="41.3544749" lon="1.8010607"><ele>248.25</ele><time>2026-03-28T10:29:54.297Z</time></trkpt><trkpt lat="41.3545387" lon="1.8009461"><ele>252.5</ele><time>2026-03-28T10:29:55.297Z</time></trkpt><trkpt lat="41.354595" lon="1.8007945"><ele>256.75</ele><time>2026-03-28T10:29:56.297Z</time></trkpt><trkpt lat="41.3546458" lon="1.8006169"><ele>261.0</ele><time>2026-03-28T10:29:57.297Z</time></trkpt><trkpt lat="41.3546941" lon="1.8004367"><ele>262.3333333333333</ele><time>2026-03-28T10:29:58.297Z</time></trkpt><trkpt lat="41.3547471" lon="1.8002327"><ele>263.66666666666663</ele><time>2026-03-28T10:29:59.297Z</time></trkpt><trkpt lat="41.3548053" lon="1.8000156"><ele>265.0</ele><time>2026-03-28T10:30:00.296Z</time></trkpt><trkpt lat="41.3548621" lon="1.7998008"><ele>265.0</ele><time>2026-03-28T10:30:01.297Z</time></trkpt><trkpt lat="41.3549188" lon="1.7995919"><ele>265.0</ele><time>2026-03-28T10:30:02.297Z</time></trkpt><trkpt lat="41.3549753" lon="1.7993723"><ele>265.0</ele><time>2026-03-28T10:30:03.297Z</time></trkpt><trkpt lat="41.3550359" lon="1.7991397"><ele>263.66666666666663</ele><time>2026-03-28T10:30:04.297Z</time></trkpt><trkpt lat="41.3550948" lon="1.798905"><ele>262.3333333333333</ele><time>2026-03-28T10:30:05.297Z</time></trkpt><trkpt lat="41.3551569" lon="1.7986683"><ele>261.0</ele><time>2026-03-28T10:30:06.297Z</time></trkpt><trkpt lat="41.3552208" lon="1.798433"><ele>259.0</ele><time>2026-03-28T10:30:07.297Z</time></trkpt><trkpt lat="41.3552812" lon="1.7982051"><ele>257.0</ele><time>2026-03-28T10:30:08.297Z</time></trkpt><trkpt lat="41.3553399" lon="1.7979815"><ele>255.0</ele><time>2026-03-28T10:30:09.297Z</time></trkpt><trkpt lat="41.3554028" lon="1.7977599"><ele>254.0</ele><time>2026-03-28T10:30:10.297Z</time></trkpt><trkpt lat="41.3554625" lon="1.7975349"><ele>253.0</ele><time>2026-03-28T10:30:11.297Z</time></trkpt><trkpt lat="41.3555234" lon="1.797303"><ele>252.0</ele><time>2026-03-28T10:30:12.297Z</time></trkpt><trkpt lat="41.3555847" lon="1.7970677"><ele>251.33333333333331</ele><time>2026-03-28T10:30:13.297Z</time></trkpt><trkpt lat="41.3556419" lon="1.7968349"><ele>250.66666666666666</ele><time>2026-03-28T10:30:14.297Z</time></trkpt><trkpt lat="41.3556846" lon="1.7966009"><ele>250.0</ele><time>2026-03-28T10:30:15.297Z</time></trkpt><trkpt lat="41.355719" lon="1.7963606"><ele>250.0</ele><time>2026-03-28T10:30:16.297Z</time></trkpt><trkpt lat="41.3557559" lon="1.7961176"><ele>250.0</ele><time>2026-03-28T10:30:17.297Z</time></trkpt><trkpt lat="41.3557916" lon="1.7958704"><ele>250.0</ele><time>2026-03-28T10:30:18.297Z</time></trkpt><trkpt lat="41.3558268" lon="1.7956145"><ele>249.66666666666666</ele><time>2026-03-28T10:30:19.297Z</time></trkpt><trkpt lat="41.3558598" lon="1.7953698"><ele>249.33333333333331</ele><time>2026-03-28T10:30:20.297Z</time></trkpt><trkpt lat="41.3558868" lon="1.7951244"><ele>249.0</ele><time>2026-03-28T10:30:21.297Z</time></trkpt><trkpt lat="41.355914" lon="1.7948714"><ele>248.66666666666669</ele><time>2026-03-28T10:30:22.297Z</time></trkpt><trkpt lat="41.3559366" lon="1.7946152"><ele>248.33333333333334</ele><time>2026-03-28T10:30:23.297Z</time></trkpt><trkpt lat="41.3559611" lon="1.7943586"><ele>248.0</ele><time>2026-03-28T10:30:24.297Z</time></trkpt><trkpt lat="41.3559822" lon="1.7941016"><ele>249.33333333333334</ele><time>2026-03-28T10:30:25.297Z</time></trkpt><trkpt lat="41.3559985" lon="1.7938532"><ele>250.66666666666669</ele><time>2026-03-28T10:30:26.297Z</time></trkpt><trkpt lat="41.3560055" lon="1.7936104"><ele>252.0</ele><time>2026-03-28T10:30:27.297Z</time></trkpt><trkpt lat="41.3560007" lon="1.7933676"><ele>253.66666666666669</ele><time>2026-03-28T10:30:28.297Z</time></trkpt><trkpt lat="41.3559909" lon="1.7931171"><ele>255.33333333333334</ele><time>2026-03-28T10:30:29.297Z</time></trkpt><trkpt lat="41.3559812" lon="1.7928645"><ele>257.0</ele><time>2026-03-28T10:30:30.297Z</time></trkpt><trkpt lat="41.3559754" lon="1.7926123"><ele>257.0</ele><time>2026-03-28T10:30:31.297Z</time></trkpt><trkpt lat="41.3559704" lon="1.7923764"><ele>257.0</ele><time>2026-03-28T10:30:32.297Z</time></trkpt><trkpt lat="41.3559644" lon="1.7921516"><ele>257.0</ele><time>2026-03-28T10:30:33.297Z</time></trkpt><trkpt lat="41.3559567" lon="1.7919447"><ele>258.25</ele><time>2026-03-28T10:30:34.297Z</time></trkpt><trkpt lat="41.3559542" lon="1.7917543"><ele>259.5</ele><time>2026-03-28T10:30:35.297Z</time></trkpt><trkpt lat="41.3559581" lon="1.7915857"><ele>260.75</ele><time>2026-03-28T10:30:36.296Z</time></trkpt><trkpt lat="41.3559889" lon="1.7914263"><ele>262.0</ele><time>2026-03-28T10:30:37.297Z</time></trkpt><trkpt lat="41.3560601" lon="1.7912623"><ele>262.0</ele><time>2026-03-28T10:30:38.297Z</time></trkpt><trkpt lat="41.356153" lon="1.7910877"><ele>262.0</ele><time>2026-03-28T10:30:39.297Z</time></trkpt><trkpt lat="41.3562554" lon="1.7909041"><ele>262.0</ele><time>2026-03-28T10:30:40.297Z</time></trkpt><trkpt lat="41.3563501" lon="1.7907285"><ele>265.0</ele><time>2026-03-28T10:30:41.297Z</time></trkpt><trkpt lat="41.3564492" lon="1.790554"><ele>268.0</ele><time>2026-03-28T10:30:42.296Z</time></trkpt><trkpt lat="41.3565601" lon="1.7903885"><ele>271.0</ele><time>2026-03-28T10:30:43.297Z</time></trkpt><trkpt lat="41.3566953" lon="1.7902338"><ele>269.0</ele><time>2026-03-28T10:30:44.297Z</time></trkpt><trkpt lat="41.3568383" lon="1.7900882"><ele>267.0</ele><time>2026-03-28T10:30:45.297Z</time></trkpt><trkpt lat="41.3569734" lon="1.789958"><ele>265.0</ele><time>2026-03-28T10:30:46.297Z</time></trkpt><trkpt lat="41.3570988" lon="1.7898236"><ele>265.66666666666663</ele><time>2026-03-28T10:30:47.297Z</time></trkpt><trkpt lat="41.3572123" lon="1.7896743"><ele>266.3333333333333</ele><time>2026-03-28T10:30:48.297Z</time></trkpt><trkpt lat="41.3573133" lon="1.7894823"><ele>267.0</ele><time>2026-03-28T10:30:49.297Z</time></trkpt><trkpt lat="41.3574016" lon="1.7892549"><ele>267.0</ele><time>2026-03-28T10:30:50.297Z</time></trkpt><trkpt lat="41.3574758" lon="1.7890147"><ele>267.0</ele><time>2026-03-28T10:30:51.297Z</time></trkpt><trkpt lat="41.3575449" lon="1.7887729"><ele>267.0</ele><time>2026-03-28T10:30:52.297Z</time></trkpt><trkpt lat="41.3576093" lon="1.7885354"><ele>267.6666666666667</ele><time>2026-03-28T10:30:53.297Z</time></trkpt><trkpt lat="41.3576722" lon="1.7883037"><ele>268.33333333333337</ele><time>2026-03-28T10:30:54.297Z</time></trkpt><trkpt lat="41.3577335" lon="1.7880784"><ele>269.0</ele><time>2026-03-28T10:30:55.297Z</time></trkpt><trkpt lat="41.3577903" lon="1.7878544"><ele>271.6666666666667</ele><time>2026-03-28T10:30:56.297Z</time></trkpt><trkpt lat="41.3578424" lon="1.7876376"><ele>274.3333333333333</ele><time>2026-03-28T10:30:57.297Z</time></trkpt><trkpt lat="41.3578911" lon="1.7874269"><ele>277.0</ele><time>2026-03-28T10:30:58.297Z</time></trkpt><trkpt lat="41.3579363" lon="1.7872095"><ele>277.0</ele><time>2026-03-28T10:30:59.297Z</time></trkpt><trkpt lat="41.357978" lon="1.7869751"><ele>277.0</ele><time>2026-03-28T10:31:00.297Z</time></trkpt><trkpt lat="41.3580087" lon="1.7867299"><ele>277.0</ele><time>2026-03-28T10:31:01.297Z</time></trkpt><trkpt lat="41.3580311" lon="1.7864804"><ele>276.0</ele><time>2026-03-28T10:31:02.297Z</time></trkpt><trkpt lat="41.3580551" lon="1.7862326"><ele>275.0</ele><time>2026-03-28T10:31:03.297Z</time></trkpt><trkpt lat="41.3580853" lon="1.7859792"><ele>274.0</ele><time>2026-03-28T10:31:04.297Z</time></trkpt><trkpt lat="41.3581111" lon="1.7857254"><ele>274.0</ele><time>2026-03-28T10:31:05.297Z</time></trkpt><trkpt lat="41.3581303" lon="1.7854681"><ele>274.0</ele><time>2026-03-28T10:31:06.297Z</time></trkpt><trkpt lat="41.3581484" lon="1.7852161"><ele>274.0</ele><time>2026-03-28T10:31:07.297Z</time></trkpt><trkpt lat="41.3581674" lon="1.7849824"><ele>274.66666666666663</ele><time>2026-03-28T10:31:08.297Z</time></trkpt><trkpt lat="41.3581876" lon="1.7847565"><ele>275.3333333333333</ele><time>2026-03-28T10:31:09.297Z</time></trkpt><trkpt lat="41.3582131" lon="1.784526"><ele>276.0</ele><time>2026-03-28T10:31:10.297Z</time></trkpt><trkpt lat="41.3582469" lon="1.7843019"><ele>276.0</ele><time>2026-03-28T10:31:11.297Z</time></trkpt><trkpt lat="41.3582906" lon="1.7840809"><ele>276.0</ele><time>2026-03-28T10:31:12.297Z</time></trkpt><trkpt lat="41.358335" lon="1.7838725"><ele>276.0</ele><time>2026-03-28T10:31:13.296Z</time></trkpt><trkpt lat="41.3583794" lon="1.7836837"><ele>275.75</ele><time>2026-03-28T10:31:14.297Z</time></trkpt><trkpt lat="41.3584164" lon="1.78351"><ele>275.5</ele><time>2026-03-28T10:31:15.296Z</time></trkpt><trkpt lat="41.3584478" lon="1.7833432"><ele>275.25</ele><time>2026-03-28T10:31:16.297Z</time></trkpt><trkpt lat="41.3584798" lon="1.7831738"><ele>275.0</ele><time>2026-03-28T10:31:17.297Z</time></trkpt><trkpt lat="41.3585185" lon="1.7830003"><ele>275.0</ele><time>2026-03-28T10:31:18.296Z</time></trkpt><trkpt lat="41.358571" lon="1.7828098"><ele>275.0</ele><time>2026-03-28T10:31:19.297Z</time></trkpt><trkpt lat="41.3586242" lon="1.7826022"><ele>275.0</ele><time>2026-03-28T10:31:20.297Z</time></trkpt><trkpt lat="41.3586735" lon="1.7823992"><ele>275.0</ele><time>2026-03-28T10:31:21.297Z</time></trkpt><trkpt lat="41.358723" lon="1.7821948"><ele>275.0</ele><time>2026-03-28T10:31:22.297Z</time></trkpt><trkpt lat="41.3587897" lon="1.7819961"><ele>275.0</ele><time>2026-03-28T10:31:23.297Z</time></trkpt><trkpt lat="41.3588804" lon="1.7818164"><ele>275.6666666666667</ele><time>2026-03-28T10:31:24.297Z</time></trkpt><trkpt lat="41.3589848" lon="1.7816439"><ele>276.3333333333333</ele><time>2026-03-28T10:31:25.296Z</time></trkpt><trkpt lat="41.3590773" lon="1.7814538"><ele>277.0</ele><time>2026-03-28T10:31:26.297Z</time></trkpt><trkpt lat="41.3591616" lon="1.7812482"><ele>277.0</ele><time>2026-03-28T10:31:27.297Z</time></trkpt><trkpt lat="41.3592308" lon="1.7810545"><ele>277.0</ele><time>2026-03-28T10:31:28.297Z</time></trkpt><trkpt lat="41.3592937" lon="1.7808741"><ele>277.0</ele><time>2026-03-28T10:31:29.296Z</time></trkpt><trkpt lat="41.3593519" lon="1.7807098"><ele>277.0</ele><time>2026-03-28T10:31:30.297Z</time></trkpt><trkpt lat="41.3594016" lon="1.7805674"><ele>277.0</ele><time>2026-03-28T10:31:31.297Z</time></trkpt><trkpt lat="41.3594479" lon="1.7804441"><ele>277.0</ele><time>2026-03-28T10:31:32.297Z</time></trkpt><trkpt lat="41.3594884" lon="1.7803378"><ele>277.0</ele><time>2026-03-28T10:31:33.296Z</time></trkpt><trkpt lat="41.3595229" lon="1.7802419"><ele>277.0</ele><time>2026-03-28T10:31:34.297Z</time></trkpt><trkpt lat="41.3595568" lon="1.7801416"><ele>277.0</ele><time>2026-03-28T10:31:35.297Z</time></trkpt><trkpt lat="41.3595875" lon="1.7800411"><ele>277.0</ele><time>2026-03-28T10:31:36.297Z</time></trkpt><trkpt lat="41.3596205" lon="1.7799383"><ele>277.3333333333333</ele><time>2026-03-28T10:31:37.297Z</time></trkpt><trkpt lat="41.3596522" lon="1.7798256"><ele>277.66666666666663</ele><time>2026-03-28T10:31:38.297Z</time></trkpt><trkpt lat="41.3596855" lon="1.779716"><ele>278.0</ele><time>2026-03-28T10:31:39.296Z</time></trkpt><trkpt lat="41.3597175" lon="1.7796119"><ele>278.3333333333333</ele><time>2026-03-28T10:31:40.296Z</time></trkpt><trkpt lat="41.3597469" lon="1.7795151"><ele>278.6666666666667</ele><time>2026-03-28T10:31:41.297Z</time></trkpt><trkpt lat="41.3597728" lon="1.7794258"><ele>279.0</ele><time>2026-03-28T10:31:42.297Z</time></trkpt><trkpt lat="41.3597966" lon="1.7793418"><ele>279.3333333333333</ele><time>2026-03-28T10:31:43.296Z</time></trkpt><trkpt lat="41.359822" lon="1.7792522"><ele>279.6666666666667</ele><time>2026-03-28T10:31:44.297Z</time></trkpt><trkpt lat="41.359852" lon="1.7791546"><ele>280.0</ele><time>2026-03-28T10:31:45.297Z</time></trkpt><trkpt lat="41.3598858" lon="1.7790457"><ele>280.33333333333337</ele><time>2026-03-28T10:31:46.297Z</time></trkpt><trkpt lat="41.3599212" lon="1.7789325"><ele>280.6666666666667</ele><time>2026-03-28T10:31:47.297Z</time></trkpt><trkpt lat="41.3599528" lon="1.7788221"><ele>281.0</ele><time>2026-03-28T10:31:48.297Z</time></trkpt><trkpt lat="41.3599889" lon="1.7787048"><ele>281.0</ele><time>2026-03-28T10:31:49.296Z</time></trkpt><trkpt lat="41.3600219" lon="1.7785834"><ele>281.0</ele><time>2026-03-28T10:31:50.297Z</time></trkpt><trkpt lat="41.360059" lon="1.7784607"><ele>281.0</ele><time>2026-03-28T10:31:51.297Z</time></trkpt><trkpt lat="41.3600945" lon="1.7783342"><ele>281.0</ele><time>2026-03-28T10:31:52.297Z</time></trkpt><trkpt lat="41.3601257" lon="1.7782032"><ele>281.0</ele><time>2026-03-28T10:31:53.297Z</time></trkpt><trkpt lat="41.3601525" lon="1.7780679"><ele>281.1666666666667</ele><time>2026-03-28T10:31:54.297Z</time></trkpt><trkpt lat="41.3601737" lon="1.7779309"><ele>281.33333333333337</ele><time>2026-03-28T10:31:55.297Z</time></trkpt><trkpt lat="41.3601904" lon="1.777804"><ele>281.5</ele><time>2026-03-28T10:31:56.297Z</time></trkpt><trkpt lat="41.3602005" lon="1.7776876"><ele>281.6666666666667</ele><time>2026-03-28T10:31:57.297Z</time></trkpt><trkpt lat="41.3602071" lon="1.7775795"><ele>281.8333333333333</ele><time>2026-03-28T10:31:58.297Z</time></trkpt><trkpt lat="41.3602157" lon="1.7774771"><ele>282.0</ele><time>2026-03-28T10:31:59.296Z</time></trkpt><trkpt lat="41.3602295" lon="1.7773756"><ele>282.0</ele><time>2026-03-28T10:32:00.297Z</time></trkpt><trkpt lat="41.360254" lon="1.7772771"><ele>282.0</ele><time>2026-03-28T10:32:01.296Z</time></trkpt><trkpt lat="41.360301" lon="1.7771922"><ele>282.0</ele><time>2026-03-28T10:32:02.297Z</time></trkpt><trkpt lat="41.3603746" lon="1.777119"><ele>282.0</ele><time>2026-03-28T10:32:03.296Z</time></trkpt><trkpt lat="41.3604668" lon="1.7770606"><ele>282.0</ele><time>2026-03-28T10:32:04.297Z</time></trkpt><trkpt lat="41.3605633" lon="1.777007"><ele>282.0</ele><time>2026-03-28T10:32:05.297Z</time></trkpt><trkpt lat="41.3606565" lon="1.7769537"><ele>282.0</ele><time>2026-03-28T10:32:06.297Z</time></trkpt><trkpt lat="41.3607406" lon="1.7769048"><ele>282.0</ele><time>2026-03-28T10:32:07.297Z</time></trkpt><trkpt lat="41.3608128" lon="1.7768615"><ele>282.0</ele><time>2026-03-28T10:32:08.297Z</time></trkpt><trkpt lat="41.3608741" lon="1.7768244"><ele>282.0</ele><time>2026-03-28T10:32:09.297Z</time></trkpt><trkpt lat="41.3609771" lon="1.7767501"><ele>282.0</ele><time>2026-03-28T10:32:11.297Z</time></trkpt><trkpt lat="41.3610597" lon="1.7767009"><ele>282.0</ele><time>2026-03-28T10:32:13.297Z</time></trkpt><trkpt lat="41.3611317" lon="1.7766688"><ele>282.0</ele><time>2026-03-28T10:32:16.296Z</time></trkpt><trkpt lat="41.3612045" lon="1.7766761"><ele>282.0</ele><time>2026-03-28T10:32:55.297Z</time></trkpt><trkpt lat="41.361284" lon="1.7766112"><ele>282.0</ele><time>2026-03-28T10:33:16.297Z</time></trkpt><trkpt lat="41.36132" lon="1.7764989"><ele>282.0</ele><time>2026-03-28T10:33:18.297Z</time></trkpt><trkpt lat="41.3613415" lon="1.7763327"><ele>282.0</ele><time>2026-03-28T10:33:20.297Z</time></trkpt><trkpt lat="41.3613532" lon="1.7762381"><ele>282.0</ele><time>2026-03-28T10:33:21.297Z</time></trkpt><trkpt lat="41.3613645" lon="1.7761384"><ele>282.0</ele><time>2026-03-28T10:33:22.296Z</time></trkpt><trkpt lat="41.3613737" lon="1.7760333"><ele>282.0</ele><time>2026-03-28T10:33:23.297Z</time></trkpt><trkpt lat="41.3613838" lon="1.7759331"><ele>282.0</ele><time>2026-03-28T10:33:24.296Z</time></trkpt><trkpt lat="41.3613936" lon="1.7758384"><ele>282.0</ele><time>2026-03-28T10:33:25.297Z</time></trkpt><trkpt lat="41.3614045" lon="1.7757431"><ele>282.0</ele><time>2026-03-28T10:33:26.297Z</time></trkpt><trkpt lat="41.3614158" lon="1.7756365"><ele>281.5</ele><time>2026-03-28T10:33:27.297Z</time></trkpt><trkpt lat="41.3614267" lon="1.7755294"><ele>281.0</ele><time>2026-03-28T10:33:28.297Z</time></trkpt><trkpt lat="41.3614379" lon="1.7754218"><ele>280.5</ele><time>2026-03-28T10:33:29.297Z</time></trkpt><trkpt lat="41.3614491" lon="1.775318"><ele>280.0</ele><time>2026-03-28T10:33:30.297Z</time></trkpt><trkpt lat="41.3614634" lon="1.7752146"><ele>279.5</ele><time>2026-03-28T10:33:31.297Z</time></trkpt><trkpt lat="41.3614747" lon="1.7751047"><ele>279.0</ele><time>2026-03-28T10:33:32.296Z</time></trkpt><trkpt lat="41.3614834" lon="1.7749782"><ele>279.0</ele><time>2026-03-28T10:33:33.296Z</time></trkpt><trkpt lat="41.3614979" lon="1.7748484"><ele>279.0</ele><time>2026-03-28T10:33:34.297Z</time></trkpt><trkpt lat="41.3615129" lon="1.7747223"><ele>279.0</ele><time>2026-03-28T10:33:35.297Z</time></trkpt><trkpt lat="41.3615258" lon="1.7746008"><ele>279.0</ele><time>2026-03-28T10:33:36.297Z</time></trkpt><trkpt lat="41.3615382" lon="1.7744862"><ele>279.0</ele><time>2026-03-28T10:33:37.297Z</time></trkpt><trkpt lat="41.3615503" lon="1.7743769"><ele>279.0</ele><time>2026-03-28T10:33:38.297Z</time></trkpt><trkpt lat="41.3615655" lon="1.7742626"><ele>279.0</ele><time>2026-03-28T10:33:39.297Z</time></trkpt><trkpt lat="41.3615785" lon="1.7741547"><ele>279.0</ele><time>2026-03-28T10:33:40.297Z</time></trkpt><trkpt lat="41.3615896" lon="1.7740484"><ele>279.0</ele><time>2026-03-28T10:33:41.297Z</time></trkpt><trkpt lat="41.3616007" lon="1.7739327"><ele>279.0</ele><time>2026-03-28T10:33:42.297Z</time></trkpt><trkpt lat="41.3616161" lon="1.7738029"><ele>279.0</ele><time>2026-03-28T10:33:43.297Z</time></trkpt><trkpt lat="41.3616325" lon="1.7736734"><ele>279.0</ele><time>2026-03-28T10:33:44.297Z</time></trkpt><trkpt lat="41.3616465" lon="1.7735539"><ele>279.0</ele><time>2026-03-28T10:33:45.297Z</time></trkpt><trkpt lat="41.3616613" lon="1.7734399"><ele>279.0</ele><time>2026-03-28T10:33:46.297Z</time></trkpt><trkpt lat="41.3616733" lon="1.7733232"><ele>279.0</ele><time>2026-03-28T10:33:47.297Z</time></trkpt><trkpt lat="41.3616873" lon="1.7731995"><ele>279.0</ele><time>2026-03-28T10:33:48.296Z</time></trkpt><trkpt lat="41.3617016" lon="1.773074"><ele>279.59999999999997</ele><time>2026-03-28T10:33:49.297Z</time></trkpt><trkpt lat="41.3617175" lon="1.77294"><ele>280.2</ele><time>2026-03-28T10:33:50.297Z</time></trkpt><trkpt lat="41.3617313" lon="1.7728072"><ele>280.79999999999995</ele><time>2026-03-28T10:33:51.297Z</time></trkpt><trkpt lat="41.3617439" lon="1.7726656"><ele>281.4</ele><time>2026-03-28T10:33:52.297Z</time></trkpt><trkpt lat="41.3617586" lon="1.7725204"><ele>282.0</ele><time>2026-03-28T10:33:53.297Z</time></trkpt><trkpt lat="41.3617722" lon="1.7723797"><ele>282.6</ele><time>2026-03-28T10:33:54.297Z</time></trkpt><trkpt lat="41.3617791" lon="1.7722449"><ele>283.2</ele><time>2026-03-28T10:33:55.297Z</time></trkpt><trkpt lat="41.3617904" lon="1.7721138"><ele>283.8</ele><time>2026-03-28T10:33:56.296Z</time></trkpt><trkpt lat="41.3618062" lon="1.7719953"><ele>284.4</ele><time>2026-03-28T10:33:57.297Z</time></trkpt><trkpt lat="41.3618224" lon="1.7719081"><ele>285.0</ele><time>2026-03-28T10:33:58.297Z</time></trkpt><trkpt lat="41.361877" lon="1.7717676"><ele>285.1666666666667</ele><time>2026-03-28T10:34:00.296Z</time></trkpt><trkpt lat="41.3619403" lon="1.7716587"><ele>285.3333333333333</ele><time>2026-03-28T10:34:02.296Z</time></trkpt><trkpt lat="41.3619745" lon="1.7715836"><ele>285.5</ele><time>2026-03-28T10:34:03.296Z</time></trkpt><trkpt lat="41.3620113" lon="1.7714962"><ele>285.66666666666663</ele><time>2026-03-28T10:34:04.297Z</time></trkpt><trkpt lat="41.3620445" lon="1.771409"><ele>285.8333333333333</ele><time>2026-03-28T10:34:05.297Z</time></trkpt><trkpt lat="41.3620728" lon="1.771325"><ele>286.0</ele><time>2026-03-28T10:34:06.296Z</time></trkpt><trkpt lat="41.362103" lon="1.7712498"><ele>286.0</ele><time>2026-03-28T10:34:07.296Z</time></trkpt><trkpt lat="41.362157" lon="1.7711054"><ele>286.0</ele><time>2026-03-28T10:34:09.297Z</time></trkpt><trkpt lat="41.3622079" lon="1.770941"><ele>286.0</ele><time>2026-03-28T10:34:11.296Z</time></trkpt><trkpt lat="41.3622416" lon="1.7708357"><ele>286.0</ele><time>2026-03-28T10:34:12.297Z</time></trkpt><trkpt lat="41.3622815" lon="1.7707217"><ele>286.0</ele><time>2026-03-28T10:34:13.297Z</time></trkpt><trkpt lat="41.3623165" lon="1.7706008"><ele>285.40000000000003</ele><time>2026-03-28T10:34:14.297Z</time></trkpt><trkpt lat="41.3623543" lon="1.7704796"><ele>284.8</ele><time>2026-03-28T10:34:15.296Z</time></trkpt><trkpt lat="41.3623922" lon="1.7703601"><ele>284.20000000000005</ele><time>2026-03-28T10:34:16.296Z</time></trkpt><trkpt lat="41.3624324" lon="1.7702391"><ele>283.6</ele><time>2026-03-28T10:34:17.297Z</time></trkpt><trkpt lat="41.3624692" lon="1.7701203"><ele>283.0</ele><time>2026-03-28T10:34:18.297Z</time></trkpt><trkpt lat="41.3625054" lon="1.7700054"><ele>282.6</ele><time>2026-03-28T10:34:19.297Z</time></trkpt><trkpt lat="41.3625414" lon="1.7698918"><ele>282.20000000000005</ele><time>2026-03-28T10:34:20.297Z</time></trkpt><trkpt lat="41.3625788" lon="1.7697744"><ele>281.8</ele><time>2026-03-28T10:34:21.297Z</time></trkpt><trkpt lat="41.3626177" lon="1.7696548"><ele>281.40000000000003</ele><time>2026-03-28T10:34:22.297Z</time></trkpt><trkpt lat="41.3626641" lon="1.7695323"><ele>281.0</ele><time>2026-03-28T10:34:23.297Z</time></trkpt><trkpt lat="41.3627214" lon="1.7694087"><ele>280.8</ele><time>2026-03-28T10:34:24.296Z</time></trkpt><trkpt lat="41.3627876" lon="1.769295"><ele>280.6</ele><time>2026-03-28T10:34:25.297Z</time></trkpt><trkpt lat="41.3628506" lon="1.7691854"><ele>280.4</ele><time>2026-03-28T10:34:26.297Z</time></trkpt><trkpt lat="41.3629097" lon="1.7690778"><ele>280.2</ele><time>2026-03-28T10:34:27.297Z</time></trkpt><trkpt lat="41.3629728" lon="1.7689677"><ele>280.0</ele><time>2026-03-28T10:34:28.297Z</time></trkpt><trkpt lat="41.3630376" lon="1.768853"><ele>280.0</ele><time>2026-03-28T10:34:29.297Z</time></trkpt><trkpt lat="41.3631058" lon="1.7687385"><ele>280.0</ele><time>2026-03-28T10:34:30.297Z</time></trkpt><trkpt lat="41.3631691" lon="1.7686166"><ele>280.0</ele><time>2026-03-28T10:34:31.297Z</time></trkpt><trkpt lat="41.3632352" lon="1.7684944"><ele>280.0</ele><time>2026-03-28T10:34:32.297Z</time></trkpt><trkpt lat="41.3633149" lon="1.7683499"><ele>280.5</ele><time>2026-03-28T10:34:33.297Z</time></trkpt><trkpt lat="41.3633976" lon="1.7681943"><ele>281.0</ele><time>2026-03-28T10:34:34.297Z</time></trkpt><trkpt lat="41.3634883" lon="1.7680326"><ele>281.5</ele><time>2026-03-28T10:34:35.296Z</time></trkpt><trkpt lat="41.3635773" lon="1.7678693"><ele>282.0</ele><time>2026-03-28T10:34:36.297Z</time></trkpt><trkpt lat="41.3636631" lon="1.7677154"><ele>281.25</ele><time>2026-03-28T10:34:37.297Z</time></trkpt><trkpt lat="41.3637494" lon="1.7675642"><ele>280.5</ele><time>2026-03-28T10:34:38.297Z</time></trkpt><trkpt lat="41.3638306" lon="1.7674198"><ele>279.75</ele><time>2026-03-28T10:34:39.297Z</time></trkpt><trkpt lat="41.3639009" lon="1.7672736"><ele>279.0</ele><time>2026-03-28T10:34:40.297Z</time></trkpt><trkpt lat="41.3639657" lon="1.7671174"><ele>279.0</ele><time>2026-03-28T10:34:41.297Z</time></trkpt><trkpt lat="41.3640216" lon="1.7669619"><ele>279.0</ele><time>2026-03-28T10:34:42.297Z</time></trkpt><trkpt lat="41.3640778" lon="1.7668208"><ele>279.0</ele><time>2026-03-28T10:34:43.297Z</time></trkpt><trkpt lat="41.3641339" lon="1.7666869"><ele>279.0</ele><time>2026-03-28T10:34:44.297Z</time></trkpt><trkpt lat="41.3641961" lon="1.7665622"><ele>279.0</ele><time>2026-03-28T10:34:45.297Z</time></trkpt><trkpt lat="41.3642552" lon="1.7664427"><ele>279.0</ele><time>2026-03-28T10:34:46.297Z</time></trkpt><trkpt lat="41.3643266" lon="1.7663133"><ele>279.0</ele><time>2026-03-28T10:34:47.296Z</time></trkpt><trkpt lat="41.3644121" lon="1.7661732"><ele>279.0</ele><time>2026-03-28T10:34:48.297Z</time></trkpt><trkpt lat="41.3645024" lon="1.7660251"><ele>278.75</ele><time>2026-03-28T10:34:49.297Z</time></trkpt><trkpt lat="41.3645927" lon="1.7658739"><ele>278.5</ele><time>2026-03-28T10:34:50.297Z</time></trkpt><trkpt lat="41.3646733" lon="1.765728"><ele>278.25</ele><time>2026-03-28T10:34:51.297Z</time></trkpt><trkpt lat="41.3647497" lon="1.7655918"><ele>278.0</ele><time>2026-03-28T10:34:52.297Z</time></trkpt><trkpt lat="41.3648196" lon="1.765451"><ele>277.25</ele><time>2026-03-28T10:34:53.297Z</time></trkpt><trkpt lat="41.3648923" lon="1.7653139"><ele>276.5</ele><time>2026-03-28T10:34:54.297Z</time></trkpt><trkpt lat="41.3649635" lon="1.7651888"><ele>275.75</ele><time>2026-03-28T10:34:55.297Z</time></trkpt><trkpt lat="41.3650318" lon="1.7650747"><ele>275.0</ele><time>2026-03-28T10:34:56.297Z</time></trkpt><trkpt lat="41.3651013" lon="1.7649714"><ele>275.0</ele><time>2026-03-28T10:34:57.297Z</time></trkpt><trkpt lat="41.3651775" lon="1.7648746"><ele>275.0</ele><time>2026-03-28T10:34:58.297Z</time></trkpt><trkpt lat="41.3652571" lon="1.7647877"><ele>275.0</ele><time>2026-03-28T10:34:59.297Z</time></trkpt><trkpt lat="41.3653414" lon="1.7647069"><ele>275.0</ele><time>2026-03-28T10:35:00.297Z</time></trkpt><trkpt lat="41.3654219" lon="1.7646322"><ele>275.0</ele><time>2026-03-28T10:35:01.297Z</time></trkpt><trkpt lat="41.3654952" lon="1.7645558"><ele>274.6</ele><time>2026-03-28T10:35:02.297Z</time></trkpt><trkpt lat="41.3655629" lon="1.7644777"><ele>274.2</ele><time>2026-03-28T10:35:03.297Z</time></trkpt><trkpt lat="41.3656231" lon="1.7643921"><ele>273.8</ele><time>2026-03-28T10:35:04.297Z</time></trkpt><trkpt lat="41.3656743" lon="1.7642892"><ele>273.4</ele><time>2026-03-28T10:35:05.297Z</time></trkpt><trkpt lat="41.3657185" lon="1.7641738"><ele>273.0</ele><time>2026-03-28T10:35:06.297Z</time></trkpt><trkpt lat="41.3657633" lon="1.7640557"><ele>272.8</ele><time>2026-03-28T10:35:07.297Z</time></trkpt><trkpt lat="41.3658064" lon="1.7639271"><ele>272.6</ele><time>2026-03-28T10:35:08.297Z</time></trkpt><trkpt lat="41.3658478" lon="1.7638004"><ele>272.4</ele><time>2026-03-28T10:35:09.297Z</time></trkpt><trkpt lat="41.3658872" lon="1.7636794"><ele>272.2</ele><time>2026-03-28T10:35:10.297Z</time></trkpt><trkpt lat="41.3659217" lon="1.7635647"><ele>272.0</ele><time>2026-03-28T10:35:11.297Z</time></trkpt><trkpt lat="41.3659545" lon="1.763448"><ele>272.0</ele><time>2026-03-28T10:35:12.296Z</time></trkpt><trkpt lat="41.3659892" lon="1.7633248"><ele>272.0</ele><time>2026-03-28T10:35:13.297Z</time></trkpt><trkpt lat="41.3660262" lon="1.7631916"><ele>272.0</ele><time>2026-03-28T10:35:14.297Z</time></trkpt><trkpt lat="41.3660641" lon="1.7630545"><ele>272.0</ele><time>2026-03-28T10:35:15.297Z</time></trkpt><trkpt lat="41.3661074" lon="1.7629142"><ele>272.0</ele><time>2026-03-28T10:35:16.297Z</time></trkpt><trkpt lat="41.36615" lon="1.7627712"><ele>271.5</ele><time>2026-03-28T10:35:17.296Z</time></trkpt><trkpt lat="41.3661925" lon="1.7626275"><ele>271.0</ele><time>2026-03-28T10:35:18.297Z</time></trkpt><trkpt lat="41.3662335" lon="1.7624841"><ele>270.5</ele><time>2026-03-28T10:35:19.297Z</time></trkpt><trkpt lat="41.366277" lon="1.7623407"><ele>270.0</ele><time>2026-03-28T10:35:20.297Z</time></trkpt><trkpt lat="41.3663147" lon="1.7621984"><ele>270.0</ele><time>2026-03-28T10:35:21.296Z</time></trkpt><trkpt lat="41.3663544" lon="1.7620605"><ele>270.0</ele><time>2026-03-28T10:35:22.297Z</time></trkpt><trkpt lat="41.3663965" lon="1.76192"><ele>270.0</ele><time>2026-03-28T10:35:23.297Z</time></trkpt><trkpt lat="41.3664373" lon="1.7617782"><ele>270.0</ele><time>2026-03-28T10:35:24.297Z</time></trkpt><trkpt lat="41.3664774" lon="1.7616316"><ele>270.25</ele><time>2026-03-28T10:35:25.296Z</time></trkpt><trkpt lat="41.3665167" lon="1.7614814"><ele>270.5</ele><time>2026-03-28T10:35:26.297Z</time></trkpt><trkpt lat="41.3665526" lon="1.7613352"><ele>270.75</ele><time>2026-03-28T10:35:27.297Z</time></trkpt><trkpt lat="41.3665838" lon="1.7611874"><ele>271.0</ele><time>2026-03-28T10:35:28.297Z</time></trkpt><trkpt lat="41.3666089" lon="1.7610308"><ele>271.25</ele><time>2026-03-28T10:35:29.297Z</time></trkpt><trkpt lat="41.3666316" lon="1.7608775"><ele>271.5</ele><time>2026-03-28T10:35:30.297Z</time></trkpt><trkpt lat="41.3666561" lon="1.7607241"><ele>271.75</ele><time>2026-03-28T10:35:31.297Z</time></trkpt><trkpt lat="41.3666781" lon="1.7605692"><ele>272.0</ele><time>2026-03-28T10:35:32.297Z</time></trkpt><trkpt lat="41.3667009" lon="1.7604115"><ele>272.0</ele><time>2026-03-28T10:35:33.297Z</time></trkpt><trkpt lat="41.3667189" lon="1.7602533"><ele>272.0</ele><time>2026-03-28T10:35:34.297Z</time></trkpt><trkpt lat="41.3667384" lon="1.760089"><ele>272.0</ele><time>2026-03-28T10:35:35.297Z</time></trkpt><trkpt lat="41.3667569" lon="1.7599058"><ele>272.0</ele><time>2026-03-28T10:35:36.297Z</time></trkpt><trkpt lat="41.3667757" lon="1.7597091"><ele>272.0</ele><time>2026-03-28T10:35:37.297Z</time></trkpt><trkpt lat="41.3668106" lon="1.7594847"><ele>272.0</ele><time>2026-03-28T10:35:38.297Z</time></trkpt><trkpt lat="41.3668535" lon="1.7592583"><ele>272.0</ele><time>2026-03-28T10:35:39.297Z</time></trkpt><trkpt lat="41.3669011" lon="1.7590304"><ele>272.33333333333337</ele><time>2026-03-28T10:35:40.297Z</time></trkpt><trkpt lat="41.3669446" lon="1.7588032"><ele>272.6666666666667</ele><time>2026-03-28T10:35:41.297Z</time></trkpt><trkpt lat="41.3669866" lon="1.7585766"><ele>273.0</ele><time>2026-03-28T10:35:42.297Z</time></trkpt><trkpt lat="41.3670245" lon="1.7583534"><ele>273.0</ele><time>2026-03-28T10:35:43.297Z</time></trkpt><trkpt lat="41.3670629" lon="1.7581353"><ele>273.0</ele><time>2026-03-28T10:35:44.297Z</time></trkpt><trkpt lat="41.3671001" lon="1.757919"><ele>273.0</ele><time>2026-03-28T10:35:45.297Z</time></trkpt><trkpt lat="41.3671373" lon="1.7577058"><ele>273.0</ele><time>2026-03-28T10:35:46.297Z</time></trkpt><trkpt lat="41.3671715" lon="1.7574967"><ele>273.0</ele><time>2026-03-28T10:35:47.297Z</time></trkpt><trkpt lat="41.3672013" lon="1.7572966"><ele>273.0</ele><time>2026-03-28T10:35:48.296Z</time></trkpt><trkpt lat="41.3672276" lon="1.757109"><ele>273.3333333333333</ele><time>2026-03-28T10:35:49.296Z</time></trkpt><trkpt lat="41.3672672" lon="1.7569148"><ele>273.66666666666663</ele><time>2026-03-28T10:35:50.297Z</time></trkpt><trkpt lat="41.3673235" lon="1.7567184"><ele>274.0</ele><time>2026-03-28T10:35:51.297Z</time></trkpt><trkpt lat="41.3674003" lon="1.7564981"><ele>274.0</ele><time>2026-03-28T10:35:52.297Z</time></trkpt><trkpt lat="41.3674842" lon="1.7562624"><ele>274.0</ele><time>2026-03-28T10:35:53.297Z</time></trkpt><trkpt lat="41.3675633" lon="1.7560424"><ele>274.0</ele><time>2026-03-28T10:35:54.297Z</time></trkpt><trkpt lat="41.367636" lon="1.7558343"><ele>274.75</ele><time>2026-03-28T10:35:55.296Z</time></trkpt><trkpt lat="41.3677106" lon="1.7556456"><ele>275.5</ele><time>2026-03-28T10:35:56.297Z</time></trkpt><trkpt lat="41.3677788" lon="1.755464"><ele>276.25</ele><time>2026-03-28T10:35:57.296Z</time></trkpt><trkpt lat="41.3678344" lon="1.7553015"><ele>277.0</ele><time>2026-03-28T10:35:58.297Z</time></trkpt><trkpt lat="41.3678849" lon="1.7551535"><ele>277.0</ele><time>2026-03-28T10:35:59.296Z</time></trkpt><trkpt lat="41.36793" lon="1.7550149"><ele>277.0</ele><time>2026-03-28T10:36:00.297Z</time></trkpt><trkpt lat="41.3679663" lon="1.7548871"><ele>277.0</ele><time>2026-03-28T10:36:01.297Z</time></trkpt><trkpt lat="41.3680006" lon="1.7547719"><ele>277.0</ele><time>2026-03-28T10:36:02.297Z</time></trkpt><trkpt lat="41.3680333" lon="1.754666"><ele>277.0</ele><time>2026-03-28T10:36:03.297Z</time></trkpt><trkpt lat="41.3680612" lon="1.7545779"><ele>276.8333333333333</ele><time>2026-03-28T10:36:04.297Z</time></trkpt><trkpt lat="41.3680846" lon="1.7544858"><ele>276.66666666666663</ele><time>2026-03-28T10:36:05.296Z</time></trkpt><trkpt lat="41.3681065" lon="1.7543828"><ele>276.5</ele><time>2026-03-28T10:36:06.297Z</time></trkpt><trkpt lat="41.3681358" lon="1.7542745"><ele>276.3333333333333</ele><time>2026-03-28T10:36:07.297Z</time></trkpt><trkpt lat="41.3681746" lon="1.7541517"><ele>276.1666666666667</ele><time>2026-03-28T10:36:08.297Z</time></trkpt><trkpt lat="41.3682208" lon="1.7540243"><ele>276.0</ele><time>2026-03-28T10:36:09.297Z</time></trkpt><trkpt lat="41.3682686" lon="1.7538975"><ele>275.75</ele><time>2026-03-28T10:36:10.297Z</time></trkpt><trkpt lat="41.3683199" lon="1.753765"><ele>275.5</ele><time>2026-03-28T10:36:11.297Z</time></trkpt><trkpt lat="41.3683744" lon="1.7536301"><ele>275.25</ele><time>2026-03-28T10:36:12.296Z</time></trkpt><trkpt lat="41.3684347" lon="1.7534921"><ele>275.0</ele><time>2026-03-28T10:36:13.297Z</time></trkpt><trkpt lat="41.3684982" lon="1.7533503"><ele>274.75</ele><time>2026-03-28T10:36:14.296Z</time></trkpt><trkpt lat="41.3685629" lon="1.7532092"><ele>274.5</ele><time>2026-03-28T10:36:15.297Z</time></trkpt><trkpt lat="41.3686233" lon="1.7530757"><ele>274.25</ele><time>2026-03-28T10:36:16.297Z</time></trkpt><trkpt lat="41.3686786" lon="1.7529476"><ele>274.0</ele><time>2026-03-28T10:36:17.297Z</time></trkpt><trkpt lat="41.3687304" lon="1.7528261"><ele>274.0</ele><time>2026-03-28T10:36:18.296Z</time></trkpt><trkpt lat="41.3687831" lon="1.752701"><ele>274.0</ele><time>2026-03-28T10:36:19.297Z</time></trkpt><trkpt lat="41.3688448" lon="1.7525543"><ele>274.0</ele><time>2026-03-28T10:36:20.297Z</time></trkpt><trkpt lat="41.3689038" lon="1.7524118"><ele>274.0</ele><time>2026-03-28T10:36:21.297Z</time></trkpt><trkpt lat="41.3689666" lon="1.752275"><ele>274.0</ele><time>2026-03-28T10:36:22.297Z</time></trkpt><trkpt lat="41.3690435" lon="1.7521667"><ele>274.0</ele><time>2026-03-28T10:36:23.297Z</time></trkpt><trkpt lat="41.3691388" lon="1.7520858"><ele>274.0</ele><time>2026-03-28T10:36:24.297Z</time></trkpt><trkpt lat="41.3692237" lon="1.7520074"><ele>274.0</ele><time>2026-03-28T10:36:25.296Z</time></trkpt><trkpt lat="41.3692858" lon="1.7519098"><ele>274.0</ele><time>2026-03-28T10:36:26.297Z</time></trkpt><trkpt lat="41.3693242" lon="1.7517956"><ele>274.0</ele><time>2026-03-28T10:36:27.297Z</time></trkpt><trkpt lat="41.3693363" lon="1.7516606"><ele>274.0</ele><time>2026-03-28T10:36:28.297Z</time></trkpt><trkpt lat="41.3693382" lon="1.7515097"><ele>274.0</ele><time>2026-03-28T10:36:29.297Z</time></trkpt><trkpt lat="41.3693628" lon="1.7513427"><ele>274.0</ele><time>2026-03-28T10:36:30.297Z</time></trkpt><trkpt lat="41.3694159" lon="1.7511732"><ele>274.3333333333333</ele><time>2026-03-28T10:36:31.297Z</time></trkpt><trkpt lat="41.3694808" lon="1.7510045"><ele>274.6666666666667</ele><time>2026-03-28T10:36:32.297Z</time></trkpt><trkpt lat="41.3695486" lon="1.7508198"><ele>275.0</ele><time>2026-03-28T10:36:33.296Z</time></trkpt><trkpt lat="41.3696156" lon="1.7506204"><ele>275.0</ele><time>2026-03-28T10:36:34.296Z</time></trkpt><trkpt lat="41.3696822" lon="1.7504141"><ele>275.0</ele><time>2026-03-28T10:36:35.297Z</time></trkpt><trkpt lat="41.3697456" lon="1.7501998"><ele>275.0</ele><time>2026-03-28T10:36:36.297Z</time></trkpt><trkpt lat="41.3698106" lon="1.7499822"><ele>275.0</ele><time>2026-03-28T10:36:37.297Z</time></trkpt><trkpt lat="41.3698754" lon="1.7497604"><ele>275.0</ele><time>2026-03-28T10:36:38.297Z</time></trkpt><trkpt lat="41.3699355" lon="1.7495425"><ele>275.0</ele><time>2026-03-28T10:36:39.296Z</time></trkpt><trkpt lat="41.3699935" lon="1.7493366"><ele>275.0</ele><time>2026-03-28T10:36:40.296Z</time></trkpt><trkpt lat="41.3700487" lon="1.7491418"><ele>275.0</ele><time>2026-03-28T10:36:41.297Z</time></trkpt><trkpt lat="41.3700961" lon="1.7489541"><ele>275.0</ele><time>2026-03-28T10:36:42.297Z</time></trkpt><trkpt lat="41.3701392" lon="1.7487622"><ele>275.0</ele><time>2026-03-28T10:36:43.297Z</time></trkpt><trkpt lat="41.3701808" lon="1.7485488"><ele>275.0</ele><time>2026-03-28T10:36:44.296Z</time></trkpt><trkpt lat="41.3702207" lon="1.7483257"><ele>275.0</ele><time>2026-03-28T10:36:45.297Z</time></trkpt><trkpt lat="41.3702618" lon="1.7480648"><ele>274.33333333333337</ele><time>2026-03-28T10:36:46.297Z</time></trkpt><trkpt lat="41.370311" lon="1.7478079"><ele>273.6666666666667</ele><time>2026-03-28T10:36:47.297Z</time></trkpt><trkpt lat="41.3703598" lon="1.7475667"><ele>273.0</ele><time>2026-03-28T10:36:48.297Z</time></trkpt><trkpt lat="41.3704063" lon="1.7473316"><ele>272.75</ele><time>2026-03-28T10:36:49.297Z</time></trkpt><trkpt lat="41.3704512" lon="1.7471231"><ele>272.5</ele><time>2026-03-28T10:36:50.297Z</time></trkpt><trkpt lat="41.3704924" lon="1.7469385"><ele>272.25</ele><time>2026-03-28T10:36:51.297Z</time></trkpt><trkpt lat="41.370532" lon="1.7467639"><ele>272.0</ele><time>2026-03-28T10:36:52.297Z</time></trkpt><trkpt lat="41.3705697" lon="1.7465879"><ele>272.5</ele><time>2026-03-28T10:36:53.297Z</time></trkpt><trkpt lat="41.370607" lon="1.746414"><ele>273.0</ele><time>2026-03-28T10:36:54.297Z</time></trkpt><trkpt lat="41.3706413" lon="1.7462535"><ele>273.5</ele><time>2026-03-28T10:36:55.297Z</time></trkpt><trkpt lat="41.3706691" lon="1.7461138"><ele>274.0</ele><time>2026-03-28T10:36:56.297Z</time></trkpt><trkpt lat="41.3706923" lon="1.7459851"><ele>274.5</ele><time>2026-03-28T10:36:57.297Z</time></trkpt><trkpt lat="41.3707149" lon="1.7458536"><ele>275.0</ele><time>2026-03-28T10:36:58.297Z</time></trkpt><trkpt lat="41.3707367" lon="1.7457247"><ele>275.5</ele><time>2026-03-28T10:36:59.297Z</time></trkpt><trkpt lat="41.3707601" lon="1.7455684"><ele>276.0</ele><time>2026-03-28T10:37:00.297Z</time></trkpt><trkpt lat="41.3707917" lon="1.7453652"><ele>275.6666666666667</ele><time>2026-03-28T10:37:01.297Z</time></trkpt><trkpt lat="41.3708289" lon="1.7451501"><ele>275.33333333333337</ele><time>2026-03-28T10:37:02.297Z</time></trkpt><trkpt lat="41.3708672" lon="1.7449296"><ele>275.0</ele><time>2026-03-28T10:37:03.297Z</time></trkpt><trkpt lat="41.370903" lon="1.7447179"><ele>275.0</ele><time>2026-03-28T10:37:04.297Z</time></trkpt><trkpt lat="41.3709386" lon="1.7444879"><ele>275.0</ele><time>2026-03-28T10:37:05.296Z</time></trkpt><trkpt lat="41.3709755" lon="1.74426"><ele>275.0</ele><time>2026-03-28T10:37:06.297Z</time></trkpt><trkpt lat="41.3710221" lon="1.7440402"><ele>274.5</ele><time>2026-03-28T10:37:07.297Z</time></trkpt><trkpt lat="41.3710748" lon="1.7438309"><ele>274.0</ele><time>2026-03-28T10:37:08.297Z</time></trkpt><trkpt lat="41.3711206" lon="1.7436439"><ele>273.5</ele><time>2026-03-28T10:37:09.297Z</time></trkpt><trkpt lat="41.3711612" lon="1.7434877"><ele>273.0</ele><time>2026-03-28T10:37:10.297Z</time></trkpt><trkpt lat="41.3712062" lon="1.7433495"><ele>273.0</ele><time>2026-03-28T10:37:11.297Z</time></trkpt><trkpt lat="41.371257" lon="1.7432156"><ele>273.0</ele><time>2026-03-28T10:37:12.297Z</time></trkpt><trkpt lat="41.3713055" lon="1.7430768"><ele>273.0</ele><time>2026-03-28T10:37:13.297Z</time></trkpt><trkpt lat="41.3713533" lon="1.7429287"><ele>273.0</ele><time>2026-03-28T10:37:14.297Z</time></trkpt><trkpt lat="41.3714059" lon="1.742774"><ele>272.75</ele><time>2026-03-28T10:37:15.296Z</time></trkpt><trkpt lat="41.3714587" lon="1.742609"><ele>272.5</ele><time>2026-03-28T10:37:16.297Z</time></trkpt><trkpt lat="41.3715139" lon="1.7424385"><ele>272.25</ele><time>2026-03-28T10:37:17.297Z</time></trkpt><trkpt lat="41.3715701" lon="1.7422655"><ele>272.0</ele><time>2026-03-28T10:37:18.297Z</time></trkpt><trkpt lat="41.3716297" lon="1.742092"><ele>272.0</ele><time>2026-03-28T10:37:19.297Z</time></trkpt><trkpt lat="41.3716926" lon="1.7419141"><ele>272.0</ele><time>2026-03-28T10:37:20.297Z</time></trkpt><trkpt lat="41.3717622" lon="1.7417399"><ele>272.0</ele><time>2026-03-28T10:37:21.297Z</time></trkpt><trkpt lat="41.3718325" lon="1.7415706"><ele>272.0</ele><time>2026-03-28T10:37:22.297Z</time></trkpt><trkpt lat="41.3719111" lon="1.7414004"><ele>271.0</ele><time>2026-03-28T10:37:23.297Z</time></trkpt><trkpt lat="41.3720079" lon="1.7412024"><ele>270.0</ele><time>2026-03-28T10:37:24.297Z</time></trkpt><trkpt lat="41.3721145" lon="1.7410058"><ele>269.0</ele><time>2026-03-28T10:37:25.296Z</time></trkpt><trkpt lat="41.3722209" lon="1.7408061"><ele>267.6666666666667</ele><time>2026-03-28T10:37:26.297Z</time></trkpt><trkpt lat="41.3723343" lon="1.7405901"><ele>266.3333333333333</ele><time>2026-03-28T10:37:27.297Z</time></trkpt><trkpt lat="41.3724454" lon="1.7403849"><ele>265.0</ele><time>2026-03-28T10:37:28.297Z</time></trkpt><trkpt lat="41.3725627" lon="1.7401909"><ele>265.0</ele><time>2026-03-28T10:37:29.297Z</time></trkpt><trkpt lat="41.3726904" lon="1.7399728"><ele>265.0</ele><time>2026-03-28T10:37:30.297Z</time></trkpt><trkpt lat="41.3728221" lon="1.7397367"><ele>265.0</ele><time>2026-03-28T10:37:31.297Z</time></trkpt><trkpt lat="41.3729548" lon="1.7395108"><ele>264.0</ele><time>2026-03-28T10:37:32.297Z</time></trkpt><trkpt lat="41.3730901" lon="1.7392706"><ele>263.0</ele><time>2026-03-28T10:37:33.297Z</time></trkpt><trkpt lat="41.373236" lon="1.7390106"><ele>263.0</ele><time>2026-03-28T10:37:34.297Z</time></trkpt><trkpt lat="41.3733782" lon="1.7387501"><ele>263.0</ele><time>2026-03-28T10:37:35.297Z</time></trkpt><trkpt lat="41.3735172" lon="1.7385114"><ele>262.0</ele><time>2026-03-28T10:37:36.297Z</time></trkpt><trkpt lat="41.3736454" lon="1.7382797"><ele>261.0</ele><time>2026-03-28T10:37:37.297Z</time></trkpt><trkpt lat="41.3737564" lon="1.7380273"><ele>260.0</ele><time>2026-03-28T10:37:38.297Z</time></trkpt><trkpt lat="41.3738573" lon="1.7377751"><ele>259.33333333333337</ele><time>2026-03-28T10:37:39.297Z</time></trkpt><trkpt lat="41.3739553" lon="1.7375361"><ele>258.6666666666667</ele><time>2026-03-28T10:37:40.297Z</time></trkpt><trkpt lat="41.3740448" lon="1.7373223"><ele>258.0</ele><time>2026-03-28T10:37:41.297Z</time></trkpt><trkpt lat="41.3741205" lon="1.7371327"><ele>258.0</ele><time>2026-03-28T10:37:42.297Z</time></trkpt><trkpt lat="41.3741832" lon="1.7369682"><ele>258.0</ele><time>2026-03-28T10:37:43.297Z</time></trkpt><trkpt lat="41.374229" lon="1.7368295"><ele>258.0</ele><time>2026-03-28T10:37:44.297Z</time></trkpt><trkpt lat="41.3742606" lon="1.7367005"><ele>258.0</ele><time>2026-03-28T10:37:45.297Z</time></trkpt><trkpt lat="41.3742908" lon="1.736575"><ele>257.5</ele><time>2026-03-28T10:37:46.297Z</time></trkpt><trkpt lat="41.3743257" lon="1.7364343"><ele>257.0</ele><time>2026-03-28T10:37:47.297Z</time></trkpt><trkpt lat="41.3743679" lon="1.7362798"><ele>256.5</ele><time>2026-03-28T10:37:48.297Z</time></trkpt><trkpt lat="41.37441" lon="1.7360865"><ele>256.0</ele><time>2026-03-28T10:37:49.297Z</time></trkpt><trkpt lat="41.3744522" lon="1.7358963"><ele>255.5</ele><time>2026-03-28T10:37:50.297Z</time></trkpt><trkpt lat="41.3744916" lon="1.7357131"><ele>255.0</ele><time>2026-03-28T10:37:51.297Z</time></trkpt><trkpt lat="41.3745285" lon="1.7355393"><ele>254.5</ele><time>2026-03-28T10:37:52.297Z</time></trkpt><trkpt lat="41.3745683" lon="1.7353826"><ele>254.0</ele><time>2026-03-28T10:37:53.297Z</time></trkpt><trkpt lat="41.3746131" lon="1.7352443"><ele>254.0</ele><time>2026-03-28T10:37:54.297Z</time></trkpt><trkpt lat="41.3746573" lon="1.7351122"><ele>253.99999999999997</ele><time>2026-03-28T10:37:55.297Z</time></trkpt><trkpt lat="41.3747106" lon="1.7349867"><ele>253.99999999999997</ele><time>2026-03-28T10:37:56.296Z</time></trkpt><trkpt lat="41.3747695" lon="1.7348612"><ele>254.0</ele><time>2026-03-28T10:37:57.297Z</time></trkpt><trkpt lat="41.3748334" lon="1.7347382"><ele>254.0</ele><time>2026-03-28T10:37:58.297Z</time></trkpt><trkpt lat="41.3748995" lon="1.7346171"><ele>253.6</ele><time>2026-03-28T10:37:59.297Z</time></trkpt><trkpt lat="41.3749662" lon="1.7344993"><ele>253.2</ele><time>2026-03-28T10:38:00.296Z</time></trkpt><trkpt lat="41.3750257" lon="1.7343761"><ele>252.79999999999998</ele><time>2026-03-28T10:38:01.297Z</time></trkpt><trkpt lat="41.3750778" lon="1.7342589"><ele>252.39999999999998</ele><time>2026-03-28T10:38:02.297Z</time></trkpt><trkpt lat="41.3751126" lon="1.7341381"><ele>252.0</ele><time>2026-03-28T10:38:03.297Z</time></trkpt><trkpt lat="41.3751444" lon="1.7340072"><ele>251.8</ele><time>2026-03-28T10:38:04.297Z</time></trkpt><trkpt lat="41.3751698" lon="1.7338825"><ele>251.6</ele><time>2026-03-28T10:38:05.297Z</time></trkpt><trkpt lat="41.3751942" lon="1.7337563"><ele>251.40000000000003</ele><time>2026-03-28T10:38:06.297Z</time></trkpt><trkpt lat="41.3752198" lon="1.733628"><ele>251.20000000000002</ele><time>2026-03-28T10:38:07.296Z</time></trkpt><trkpt lat="41.3752484" lon="1.7334902"><ele>251.0</ele><time>2026-03-28T10:38:08.297Z</time></trkpt><trkpt lat="41.3752832" lon="1.733358"><ele>251.8</ele><time>2026-03-28T10:38:09.297Z</time></trkpt><trkpt lat="41.3753233" lon="1.7332234"><ele>252.60000000000002</ele><time>2026-03-28T10:38:10.296Z</time></trkpt><trkpt lat="41.3753667" lon="1.7330925"><ele>253.4</ele><time>2026-03-28T10:38:11.297Z</time></trkpt><trkpt lat="41.3754115" lon="1.732965"><ele>254.2</ele><time>2026-03-28T10:38:12.297Z</time></trkpt><trkpt lat="41.3754575" lon="1.7328361"><ele>255.0</ele><time>2026-03-28T10:38:13.297Z</time></trkpt><trkpt lat="41.3754995" lon="1.7327071"><ele>254.8</ele><time>2026-03-28T10:38:14.297Z</time></trkpt><trkpt lat="41.375535" lon="1.7325768"><ele>254.6</ele><time>2026-03-28T10:38:15.297Z</time></trkpt><trkpt lat="41.3755697" lon="1.7324426"><ele>254.39999999999998</ele><time>2026-03-28T10:38:16.297Z</time></trkpt><trkpt lat="41.375603" lon="1.7323157"><ele>254.2</ele><time>2026-03-28T10:38:17.297Z</time></trkpt><trkpt lat="41.3756384" lon="1.7321858"><ele>254.0</ele><time>2026-03-28T10:38:18.297Z</time></trkpt><trkpt lat="41.3756724" lon="1.7320609"><ele>254.0</ele><time>2026-03-28T10:38:19.297Z</time></trkpt><trkpt lat="41.3757032" lon="1.7319384"><ele>253.99999999999997</ele><time>2026-03-28T10:38:20.297Z</time></trkpt><trkpt lat="41.3757351" lon="1.7318156"><ele>253.99999999999997</ele><time>2026-03-28T10:38:21.297Z</time></trkpt><trkpt lat="41.3757679" lon="1.7316947"><ele>254.0</ele><time>2026-03-28T10:38:22.297Z</time></trkpt><trkpt lat="41.375796" lon="1.7315772"><ele>254.0</ele><time>2026-03-28T10:38:23.297Z</time></trkpt><trkpt lat="41.3758242" lon="1.731459"><ele>254.16666666666669</ele><time>2026-03-28T10:38:24.297Z</time></trkpt><trkpt lat="41.3758469" lon="1.7313438"><ele>254.33333333333334</ele><time>2026-03-28T10:38:25.297Z</time></trkpt><trkpt lat="41.3758472" lon="1.7312331"><ele>254.5</ele><time>2026-03-28T10:38:26.297Z</time></trkpt><trkpt lat="41.3758234" lon="1.7311302"><ele>254.66666666666669</ele><time>2026-03-28T10:38:27.297Z</time></trkpt><trkpt lat="41.375779" lon="1.7310372"><ele>254.83333333333334</ele><time>2026-03-28T10:38:28.297Z</time></trkpt><trkpt lat="41.375725" lon="1.730942"><ele>255.0</ele><time>2026-03-28T10:38:29.297Z</time></trkpt><trkpt lat="41.3756588" lon="1.7308526"><ele>255.2</ele><time>2026-03-28T10:38:30.297Z</time></trkpt><trkpt lat="41.3755933" lon="1.7307542"><ele>255.4</ele><time>2026-03-28T10:38:31.297Z</time></trkpt><trkpt lat="41.375543" lon="1.7306265"><ele>255.60000000000002</ele><time>2026-03-28T10:38:32.297Z</time></trkpt><trkpt lat="41.3754979" lon="1.730505"><ele>255.8</ele><time>2026-03-28T10:38:33.297Z</time></trkpt><trkpt lat="41.3754233" lon="1.7304027"><ele>256.0</ele><time>2026-03-28T10:38:34.297Z</time></trkpt><trkpt lat="41.3753443" lon="1.7303271"><ele>256.0</ele><time>2026-03-28T10:38:35.297Z</time></trkpt><trkpt lat="41.3752864" lon="1.7302545"><ele>256.0</ele><time>2026-03-28T10:38:36.297Z</time></trkpt><trkpt lat="41.3752371" lon="1.7301238"><ele>256.0</ele><time>2026-03-28T10:38:38.297Z</time></trkpt><trkpt lat="41.3752762" lon="1.7299764"><ele>256.0</ele><time>2026-03-28T10:38:40.297Z</time></trkpt><trkpt lat="41.3753263" lon="1.7298899"><ele>256.0</ele><time>2026-03-28T10:38:41.297Z</time></trkpt><trkpt lat="41.3753849" lon="1.7297876"><ele>255.60000000000002</ele><time>2026-03-28T10:38:42.297Z</time></trkpt><trkpt lat="41.3754457" lon="1.729682"><ele>255.20000000000002</ele><time>2026-03-28T10:38:43.297Z</time></trkpt><trkpt lat="41.3755042" lon="1.7295783"><ele>254.79999999999998</ele><time>2026-03-28T10:38:44.297Z</time></trkpt><trkpt lat="41.375561" lon="1.729476"><ele>254.39999999999998</ele><time>2026-03-28T10:38:45.297Z</time></trkpt><trkpt lat="41.3756187" lon="1.7293782"><ele>254.0</ele><time>2026-03-28T10:38:46.297Z</time></trkpt><trkpt lat="41.3756746" lon="1.72928"><ele>253.33333333333334</ele><time>2026-03-28T10:38:47.297Z</time></trkpt><trkpt lat="41.3757349" lon="1.7291896"><ele>252.66666666666669</ele><time>2026-03-28T10:38:48.296Z</time></trkpt><trkpt lat="41.3757914" lon="1.7291119"><ele>252.0</ele><time>2026-03-28T10:38:49.297Z</time></trkpt><trkpt lat="41.3758429" lon="1.7290442"><ele>251.33333333333331</ele><time>2026-03-28T10:38:50.297Z</time></trkpt><trkpt lat="41.3758905" lon="1.7289802"><ele>250.66666666666666</ele><time>2026-03-28T10:38:51.297Z</time></trkpt><trkpt lat="41.3759649" lon="1.7288821"><ele>250.0</ele><time>2026-03-28T10:38:53.297Z</time></trkpt><trkpt lat="41.3760134" lon="1.7287959"><ele>250.0</ele><time>2026-03-28T10:39:15.297Z</time></trkpt><trkpt lat="41.3759963" lon="1.7286633"><ele>250.0</ele><time>2026-03-28T10:39:19.297Z</time></trkpt><trkpt lat="41.3759075" lon="1.728582"><ele>250.0</ele><time>2026-03-28T10:39:21.297Z</time></trkpt><trkpt lat="41.3758412" lon="1.7285357"><ele>250.0</ele><time>2026-03-28T10:39:22.297Z</time></trkpt><trkpt lat="41.3757581" lon="1.7284726"><ele>250.0</ele><time>2026-03-28T10:39:23.297Z</time></trkpt><trkpt lat="41.3756718" lon="1.7284034"><ele>249.75</ele><time>2026-03-28T10:39:24.297Z</time></trkpt><trkpt lat="41.3755772" lon="1.7283272"><ele>249.5</ele><time>2026-03-28T10:39:25.297Z</time></trkpt><trkpt lat="41.375479" lon="1.7282566"><ele>249.25</ele><time>2026-03-28T10:39:26.297Z</time></trkpt><trkpt lat="41.3753793" lon="1.7281847"><ele>249.0</ele><time>2026-03-28T10:39:27.297Z</time></trkpt><trkpt lat="41.3752765" lon="1.7281116"><ele>249.0</ele><time>2026-03-28T10:39:28.297Z</time></trkpt><trkpt lat="41.3751692" lon="1.7280397"><ele>249.0</ele><time>2026-03-28T10:39:29.296Z</time></trkpt><trkpt lat="41.3750621" lon="1.7279619"><ele>249.0</ele><time>2026-03-28T10:39:30.297Z</time></trkpt><trkpt lat="41.3749489" lon="1.7278846"><ele>249.0</ele><time>2026-03-28T10:39:31.297Z</time></trkpt><trkpt lat="41.3748357" lon="1.7278033"><ele>249.5</ele><time>2026-03-28T10:39:32.297Z</time></trkpt><trkpt lat="41.3747211" lon="1.7277198"><ele>250.0</ele><time>2026-03-28T10:39:33.297Z</time></trkpt><trkpt lat="41.3746088" lon="1.7276331"><ele>250.5</ele><time>2026-03-28T10:39:34.297Z</time></trkpt><trkpt lat="41.3744938" lon="1.7275408"><ele>251.0</ele><time>2026-03-28T10:39:35.297Z</time></trkpt><trkpt lat="41.3743842" lon="1.7274319"><ele>251.0</ele><time>2026-03-28T10:39:36.297Z</time></trkpt><trkpt lat="41.374277" lon="1.7273199"><ele>251.0</ele><time>2026-03-28T10:39:37.297Z</time></trkpt><trkpt lat="41.3741714" lon="1.7272017"><ele>251.0</ele><time>2026-03-28T10:39:38.297Z</time></trkpt><trkpt lat="41.374066" lon="1.7270696"><ele>251.0</ele><time>2026-03-28T10:39:39.297Z</time></trkpt><trkpt lat="41.3739577" lon="1.7269232"><ele>249.66666666666669</ele><time>2026-03-28T10:39:40.297Z</time></trkpt><trkpt lat="41.3738483" lon="1.726772"><ele>248.33333333333331</ele><time>2026-03-28T10:39:41.297Z</time></trkpt><trkpt lat="41.3737448" lon="1.726623"><ele>247.0</ele><time>2026-03-28T10:39:42.297Z</time></trkpt><trkpt lat="41.3736439" lon="1.7264746"><ele>247.0</ele><time>2026-03-28T10:39:43.297Z</time></trkpt><trkpt lat="41.3735421" lon="1.7263197"><ele>247.0</ele><time>2026-03-28T10:39:44.297Z</time></trkpt><trkpt lat="41.373424" lon="1.7261351"><ele>247.0</ele><time>2026-03-28T10:39:45.297Z</time></trkpt><trkpt lat="41.3732971" lon="1.7259297"><ele>247.0</ele><time>2026-03-28T10:39:46.297Z</time></trkpt><trkpt lat="41.3731778" lon="1.7257132"><ele>247.0</ele><time>2026-03-28T10:39:47.297Z</time></trkpt><trkpt lat="41.3730676" lon="1.7254987"><ele>247.0</ele><time>2026-03-28T10:39:48.297Z</time></trkpt><trkpt lat="41.3729637" lon="1.7252938"><ele>246.0</ele><time>2026-03-28T10:39:49.297Z</time></trkpt><trkpt lat="41.372868" lon="1.7250977"><ele>245.0</ele><time>2026-03-28T10:39:50.297Z</time></trkpt><trkpt lat="41.3727831" lon="1.7249194"><ele>244.0</ele><time>2026-03-28T10:39:51.297Z</time></trkpt><trkpt lat="41.3727086" lon="1.7247623"><ele>244.0</ele><time>2026-03-28T10:39:52.297Z</time></trkpt><trkpt lat="41.3726397" lon="1.7246147"><ele>244.0</ele><time>2026-03-28T10:39:53.296Z</time></trkpt><trkpt lat="41.3725762" lon="1.724481"><ele>244.0</ele><time>2026-03-28T10:39:54.297Z</time></trkpt><trkpt lat="41.3725184" lon="1.7243591"><ele>244.0</ele><time>2026-03-28T10:39:55.297Z</time></trkpt><trkpt lat="41.372458" lon="1.7242495"><ele>244.16666666666666</ele><time>2026-03-28T10:39:56.297Z</time></trkpt><trkpt lat="41.3724101" lon="1.7241565"><ele>244.33333333333331</ele><time>2026-03-28T10:39:57.297Z</time></trkpt><trkpt lat="41.3723716" lon="1.7240771"><ele>244.5</ele><time>2026-03-28T10:39:58.297Z</time></trkpt><trkpt lat="41.3723392" lon="1.7240036"><ele>244.66666666666669</ele><time>2026-03-28T10:39:59.297Z</time></trkpt><trkpt lat="41.3723135" lon="1.7239094"><ele>244.83333333333334</ele><time>2026-03-28T10:40:00.297Z</time></trkpt><trkpt lat="41.3722778" lon="1.7238084"><ele>245.0</ele><time>2026-03-28T10:40:01.297Z</time></trkpt><trkpt lat="41.3722193" lon="1.7237179"><ele>244.8</ele><time>2026-03-28T10:40:02.296Z</time></trkpt><trkpt lat="41.3721418" lon="1.7236466"><ele>244.6</ele><time>2026-03-28T10:40:03.297Z</time></trkpt><trkpt lat="41.3720535" lon="1.7235787"><ele>244.39999999999998</ele><time>2026-03-28T10:40:04.297Z</time></trkpt><trkpt lat="41.3719702" lon="1.7234959"><ele>244.2</ele><time>2026-03-28T10:40:05.297Z</time></trkpt><trkpt lat="41.3718911" lon="1.7233976"><ele>244.0</ele><time>2026-03-28T10:40:06.297Z</time></trkpt><trkpt lat="41.3718065" lon="1.7232806"><ele>243.5</ele><time>2026-03-28T10:40:07.297Z</time></trkpt><trkpt lat="41.3717168" lon="1.7231609"><ele>243.0</ele><time>2026-03-28T10:40:08.296Z</time></trkpt><trkpt lat="41.3716207" lon="1.7230398"><ele>242.5</ele><time>2026-03-28T10:40:09.297Z</time></trkpt><trkpt lat="41.3715243" lon="1.7229159"><ele>242.0</ele><time>2026-03-28T10:40:10.297Z</time></trkpt><trkpt lat="41.3714229" lon="1.7227929"><ele>243.0</ele><time>2026-03-28T10:40:11.296Z</time></trkpt><trkpt lat="41.37132" lon="1.7226703"><ele>244.0</ele><time>2026-03-28T10:40:12.297Z</time></trkpt><trkpt lat="41.3712173" lon="1.7225461"><ele>245.0</ele><time>2026-03-28T10:40:13.297Z</time></trkpt><trkpt lat="41.3711123" lon="1.7224144"><ele>246.0</ele><time>2026-03-28T10:40:14.297Z</time></trkpt><trkpt lat="41.3709964" lon="1.7222733"><ele>246.0</ele><time>2026-03-28T10:40:15.297Z</time></trkpt><trkpt lat="41.3708763" lon="1.7221336"><ele>246.0</ele><time>2026-03-28T10:40:16.297Z</time></trkpt><trkpt lat="41.3707575" lon="1.721987"><ele>246.0</ele><time>2026-03-28T10:40:17.296Z</time></trkpt><trkpt lat="41.3706313" lon="1.7218338"><ele>245.0</ele><time>2026-03-28T10:40:18.297Z</time></trkpt><trkpt lat="41.3704976" lon="1.72167"><ele>244.0</ele><time>2026-03-28T10:40:19.297Z</time></trkpt><trkpt lat="41.3703613" lon="1.7214964"><ele>243.0</ele><time>2026-03-28T10:40:20.297Z</time></trkpt><trkpt lat="41.3702191" lon="1.7213217"><ele>243.0</ele><time>2026-03-28T10:40:21.297Z</time></trkpt><trkpt lat="41.3700763" lon="1.7211478"><ele>243.0</ele><time>2026-03-28T10:40:22.297Z</time></trkpt><trkpt lat="41.3699317" lon="1.7209662"><ele>243.0</ele><time>2026-03-28T10:40:23.297Z</time></trkpt><trkpt lat="41.369783" lon="1.7207956"><ele>242.66666666666669</ele><time>2026-03-28T10:40:24.297Z</time></trkpt><trkpt lat="41.3696385" lon="1.7206248"><ele>242.33333333333334</ele><time>2026-03-28T10:40:25.297Z</time></trkpt><trkpt lat="41.3694916" lon="1.7204549"><ele>242.0</ele><time>2026-03-28T10:40:26.297Z</time></trkpt><trkpt lat="41.369345" lon="1.72028"><ele>241.66666666666669</ele><time>2026-03-28T10:40:27.296Z</time></trkpt><trkpt lat="41.3691943" lon="1.7201143"><ele>241.33333333333331</ele><time>2026-03-28T10:40:28.296Z</time></trkpt><trkpt lat="41.3690473" lon="1.7199505"><ele>241.0</ele><time>2026-03-28T10:40:29.297Z</time></trkpt><trkpt lat="41.3689036" lon="1.7197806"><ele>240.66666666666666</ele><time>2026-03-28T10:40:30.297Z</time></trkpt><trkpt lat="41.3687587" lon="1.7196153"><ele>240.33333333333331</ele><time>2026-03-28T10:40:31.297Z</time></trkpt><trkpt lat="41.3686156" lon="1.7194485"><ele>240.0</ele><time>2026-03-28T10:40:32.297Z</time></trkpt><trkpt lat="41.3684768" lon="1.7192889"><ele>240.0</ele><time>2026-03-28T10:40:33.297Z</time></trkpt><trkpt lat="41.3683433" lon="1.7191432"><ele>240.0</ele><time>2026-03-28T10:40:34.297Z</time></trkpt><trkpt lat="41.3682042" lon="1.7189897"><ele>240.0</ele><time>2026-03-28T10:40:35.297Z</time></trkpt><trkpt lat="41.3680702" lon="1.7188465"><ele>240.0</ele><time>2026-03-28T10:40:36.297Z</time></trkpt><trkpt lat="41.3679412" lon="1.7187097"><ele>240.0</ele><time>2026-03-28T10:40:37.297Z</time></trkpt><trkpt lat="41.3678172" lon="1.7185787"><ele>240.0</ele><time>2026-03-28T10:40:38.296Z</time></trkpt><trkpt lat="41.3676994" lon="1.7184543"><ele>240.0</ele><time>2026-03-28T10:40:39.297Z</time></trkpt><trkpt lat="41.3675899" lon="1.7183348"><ele>240.0</ele><time>2026-03-28T10:40:40.296Z</time></trkpt><trkpt lat="41.3674863" lon="1.718227"><ele>240.0</ele><time>2026-03-28T10:40:41.297Z</time></trkpt><trkpt lat="41.3673838" lon="1.7181234"><ele>240.0</ele><time>2026-03-28T10:40:42.297Z</time></trkpt><trkpt lat="41.3672808" lon="1.7180149"><ele>240.0</ele><time>2026-03-28T10:40:43.297Z</time></trkpt><trkpt lat="41.3671825" lon="1.717909"><ele>240.0</ele><time>2026-03-28T10:40:44.297Z</time></trkpt><trkpt lat="41.3670905" lon="1.7178095"><ele>240.0</ele><time>2026-03-28T10:40:45.297Z</time></trkpt><trkpt lat="41.3670052" lon="1.71772"><ele>240.0</ele><time>2026-03-28T10:40:46.297Z</time></trkpt><trkpt lat="41.3669288" lon="1.7176322"><ele>240.16666666666666</ele><time>2026-03-28T10:40:47.297Z</time></trkpt><trkpt lat="41.366864" lon="1.7175571"><ele>240.33333333333331</ele><time>2026-03-28T10:40:48.297Z</time></trkpt><trkpt lat="41.3668083" lon="1.7174944"><ele>240.5</ele><time>2026-03-28T10:40:49.297Z</time></trkpt><trkpt lat="41.3667266" lon="1.7173954"><ele>240.66666666666666</ele><time>2026-03-28T10:40:51.297Z</time></trkpt><trkpt lat="41.3666719" lon="1.717318"><ele>240.83333333333331</ele><time>2026-03-28T10:40:53.297Z</time></trkpt><trkpt lat="41.3666184" lon="1.7172162"><ele>241.0</ele><time>2026-03-28T10:40:56.297Z</time></trkpt><trkpt lat="41.3665957" lon="1.7171203"><ele>241.0</ele><time>2026-03-28T10:40:58.296Z</time></trkpt><trkpt lat="41.3666085" lon="1.716969"><ele>241.00000000000003</ele><time>2026-03-28T10:41:00.297Z</time></trkpt><trkpt lat="41.3666254" lon="1.7168735"><ele>241.00000000000003</ele><time>2026-03-28T10:41:01.297Z</time></trkpt><trkpt lat="41.3666443" lon="1.716765"><ele>241.0</ele><time>2026-03-28T10:41:02.297Z</time></trkpt><trkpt lat="41.3666506" lon="1.7166503"><ele>241.0</ele><time>2026-03-28T10:41:03.297Z</time></trkpt><trkpt lat="41.3666399" lon="1.7165275"><ele>241.8</ele><time>2026-03-28T10:41:04.297Z</time></trkpt><trkpt lat="41.3666093" lon="1.7164129"><ele>242.60000000000002</ele><time>2026-03-28T10:41:05.297Z</time></trkpt><trkpt lat="41.36656" lon="1.716311"><ele>243.4</ele><time>2026-03-28T10:41:06.297Z</time></trkpt><trkpt lat="41.3665013" lon="1.716214"><ele>244.2</ele><time>2026-03-28T10:41:07.297Z</time></trkpt><trkpt lat="41.3664208" lon="1.7161282"><ele>245.0</ele><time>2026-03-28T10:41:08.296Z</time></trkpt><trkpt lat="41.366311" lon="1.7161201"><ele>245.2</ele><time>2026-03-28T10:41:09.297Z</time></trkpt><trkpt lat="41.3662083" lon="1.7161232"><ele>245.4</ele><time>2026-03-28T10:41:10.297Z</time></trkpt><trkpt lat="41.3661041" lon="1.7161568"><ele>245.60000000000002</ele><time>2026-03-28T10:41:11.297Z</time></trkpt><trkpt lat="41.3660058" lon="1.7162195"><ele>245.8</ele><time>2026-03-28T10:41:12.297Z</time></trkpt><trkpt lat="41.365919" lon="1.7163133"><ele>246.0</ele><time>2026-03-28T10:41:13.297Z</time></trkpt><trkpt lat="41.3658492" lon="1.7164411"><ele>246.0</ele><time>2026-03-28T10:41:14.296Z</time></trkpt><trkpt lat="41.3658089" lon="1.7165751"><ele>246.0</ele><time>2026-03-28T10:41:15.297Z</time></trkpt><trkpt lat="41.3658004" lon="1.7166953"><ele>246.0</ele><time>2026-03-28T10:41:16.297Z</time></trkpt><trkpt lat="41.3658118" lon="1.7167989"><ele>246.0</ele><time>2026-03-28T10:41:17.297Z</time></trkpt><trkpt lat="41.3658442" lon="1.7168956"><ele>246.0</ele><time>2026-03-28T10:41:18.297Z</time></trkpt><trkpt lat="41.3658943" lon="1.7169985"><ele>246.0</ele><time>2026-03-28T10:41:19.296Z</time></trkpt><trkpt lat="41.3659582" lon="1.7170942"><ele>245.20000000000002</ele><time>2026-03-28T10:41:20.297Z</time></trkpt><trkpt lat="41.3660341" lon="1.7171859"><ele>244.40000000000003</ele><time>2026-03-28T10:41:21.297Z</time></trkpt><trkpt lat="41.3661257" lon="1.7172179"><ele>243.6</ele><time>2026-03-28T10:41:22.297Z</time></trkpt><trkpt lat="41.3662283" lon="1.7172296"><ele>242.8</ele><time>2026-03-28T10:41:23.297Z</time></trkpt><trkpt lat="41.3663265" lon="1.7171998"><ele>242.0</ele><time>2026-03-28T10:41:24.297Z</time></trkpt><trkpt lat="41.366419" lon="1.7171426"><ele>241.8</ele><time>2026-03-28T10:41:25.297Z</time></trkpt><trkpt lat="41.3665027" lon="1.717065"><ele>241.6</ele><time>2026-03-28T10:41:26.297Z</time></trkpt><trkpt lat="41.3665638" lon="1.7169574"><ele>241.40000000000003</ele><time>2026-03-28T10:41:27.297Z</time></trkpt><trkpt lat="41.3666101" lon="1.7168364"><ele>241.20000000000002</ele><time>2026-03-28T10:41:28.297Z</time></trkpt><trkpt lat="41.3666476" lon="1.7167158"><ele>241.0</ele><time>2026-03-28T10:41:29.297Z</time></trkpt><trkpt lat="41.3666933" lon="1.7166035"><ele>241.66666666666666</ele><time>2026-03-28T10:41:30.297Z</time></trkpt><trkpt lat="41.3667451" lon="1.7164928"><ele>242.33333333333331</ele><time>2026-03-28T10:41:31.297Z</time></trkpt><trkpt lat="41.3667925" lon="1.7163907"><ele>243.0</ele><time>2026-03-28T10:41:32.297Z</time></trkpt><trkpt lat="41.3668407" lon="1.7163044"><ele>243.66666666666669</ele><time>2026-03-28T10:41:33.297Z</time></trkpt><trkpt lat="41.3668855" lon="1.7162331"><ele>244.33333333333334</ele><time>2026-03-28T10:41:34.297Z</time></trkpt><trkpt lat="41.366946" lon="1.716153"><ele>245.0</ele><time>2026-03-28T10:41:36.297Z</time></trkpt><trkpt lat="41.3669936" lon="1.7160699"><ele>245.0</ele><time>2026-03-28T10:47:48.297Z</time></trkpt><trkpt lat="41.3670407" lon="1.7159862"><ele>245.0</ele><time>2026-03-28T10:47:50.297Z</time></trkpt><trkpt lat="41.3670967" lon="1.7158629"><ele>245.0</ele><time>2026-03-28T10:47:52.297Z</time></trkpt><trkpt lat="41.3671595" lon="1.7157346"><ele>245.0</ele><time>2026-03-28T10:47:54.297Z</time></trkpt><trkpt lat="41.3671988" lon="1.7156542"><ele>245.0</ele><time>2026-03-28T10:47:55.297Z</time></trkpt><trkpt lat="41.3672433" lon="1.7155707"><ele>244.83333333333334</ele><time>2026-03-28T10:47:56.297Z</time></trkpt><trkpt lat="41.3672835" lon="1.7154865"><ele>244.66666666666669</ele><time>2026-03-28T10:47:57.297Z</time></trkpt><trkpt lat="41.367328" lon="1.7153931"><ele>244.5</ele><time>2026-03-28T10:47:58.297Z</time></trkpt><trkpt lat="41.3673748" lon="1.7152971"><ele>244.33333333333331</ele><time>2026-03-28T10:47:59.297Z</time></trkpt><trkpt lat="41.3674251" lon="1.7151961"><ele>244.16666666666666</ele><time>2026-03-28T10:48:00.297Z</time></trkpt><trkpt lat="41.3674717" lon="1.715095"><ele>244.0</ele><time>2026-03-28T10:48:01.296Z</time></trkpt><trkpt lat="41.3675214" lon="1.714989"><ele>244.0</ele><time>2026-03-28T10:48:02.297Z</time></trkpt><trkpt lat="41.3675725" lon="1.7148755"><ele>243.99999999999997</ele><time>2026-03-28T10:48:03.297Z</time></trkpt><trkpt lat="41.3676216" lon="1.7147556"><ele>243.99999999999997</ele><time>2026-03-28T10:48:04.296Z</time></trkpt><trkpt lat="41.3676806" lon="1.7146311"><ele>244.0</ele><time>2026-03-28T10:48:05.297Z</time></trkpt><trkpt lat="41.3677384" lon="1.7145065"><ele>244.0</ele><time>2026-03-28T10:48:06.296Z</time></trkpt><trkpt lat="41.3678003" lon="1.714381"><ele>244.5</ele><time>2026-03-28T10:48:07.297Z</time></trkpt><trkpt lat="41.367864" lon="1.7142496"><ele>245.0</ele><time>2026-03-28T10:48:08.297Z</time></trkpt><trkpt lat="41.367935" lon="1.7141159"><ele>245.5</ele><time>2026-03-28T10:48:09.297Z</time></trkpt><trkpt lat="41.3680119" lon="1.7139795"><ele>246.0</ele><time>2026-03-28T10:48:10.297Z</time></trkpt><trkpt lat="41.3680948" lon="1.7138373"><ele>246.0</ele><time>2026-03-28T10:48:11.297Z</time></trkpt><trkpt lat="41.3681775" lon="1.7136972"><ele>246.0</ele><time>2026-03-28T10:48:12.297Z</time></trkpt><trkpt lat="41.368266" lon="1.7135557"><ele>246.0</ele><time>2026-03-28T10:48:13.297Z</time></trkpt><trkpt lat="41.3683576" lon="1.713397"><ele>246.0</ele><time>2026-03-28T10:48:14.297Z</time></trkpt><trkpt lat="41.368456" lon="1.7132289"><ele>246.66666666666669</ele><time>2026-03-28T10:48:15.297Z</time></trkpt><trkpt lat="41.3685635" lon="1.7130586"><ele>247.33333333333334</ele><time>2026-03-28T10:48:16.297Z</time></trkpt><trkpt lat="41.3686728" lon="1.7128922"><ele>248.0</ele><time>2026-03-28T10:48:17.297Z</time></trkpt><trkpt lat="41.3687862" lon="1.7127291"><ele>247.66666666666669</ele><time>2026-03-28T10:48:18.297Z</time></trkpt><trkpt lat="41.3689071" lon="1.7125701"><ele>247.33333333333331</ele><time>2026-03-28T10:48:19.297Z</time></trkpt><trkpt lat="41.3690363" lon="1.7124208"><ele>247.0</ele><time>2026-03-28T10:48:20.297Z</time></trkpt><trkpt lat="41.3691708" lon="1.7122804"><ele>247.0</ele><time>2026-03-28T10:48:21.297Z</time></trkpt><trkpt lat="41.3693128" lon="1.7121481"><ele>247.0</ele><time>2026-03-28T10:48:22.296Z</time></trkpt><trkpt lat="41.369464" lon="1.7120231"><ele>247.0</ele><time>2026-03-28T10:48:23.297Z</time></trkpt><trkpt lat="41.3696179" lon="1.7119048"><ele>247.33333333333331</ele><time>2026-03-28T10:48:24.297Z</time></trkpt><trkpt lat="41.3697731" lon="1.7117936"><ele>247.66666666666669</ele><time>2026-03-28T10:48:25.297Z</time></trkpt><trkpt lat="41.3699273" lon="1.7116857"><ele>248.0</ele><time>2026-03-28T10:48:26.297Z</time></trkpt><trkpt lat="41.3700807" lon="1.7115904"><ele>248.0</ele><time>2026-03-28T10:48:27.297Z</time></trkpt><trkpt lat="41.370232" lon="1.711506"><ele>248.0</ele><time>2026-03-28T10:48:28.297Z</time></trkpt><trkpt lat="41.3703894" lon="1.7114291"><ele>248.0</ele><time>2026-03-28T10:48:29.297Z</time></trkpt><trkpt lat="41.3705498" lon="1.711368"><ele>247.33333333333334</ele><time>2026-03-28T10:48:30.297Z</time></trkpt><trkpt lat="41.3707186" lon="1.7113123"><ele>246.66666666666669</ele><time>2026-03-28T10:48:31.297Z</time></trkpt><trkpt lat="41.3708911" lon="1.7112635"><ele>246.0</ele><time>2026-03-28T10:48:32.297Z</time></trkpt><trkpt lat="41.3710706" lon="1.7112216"><ele>246.0</ele><time>2026-03-28T10:48:33.297Z</time></trkpt><trkpt lat="41.3712527" lon="1.7111948"><ele>246.0</ele><time>2026-03-28T10:48:34.297Z</time></trkpt><trkpt lat="41.3714332" lon="1.7111764"><ele>246.0</ele><time>2026-03-28T10:48:35.297Z</time></trkpt><trkpt lat="41.3716122" lon="1.7111698"><ele>246.0</ele><time>2026-03-28T10:48:36.296Z</time></trkpt><trkpt lat="41.3717923" lon="1.7111747"><ele>246.0</ele><time>2026-03-28T10:48:37.297Z</time></trkpt><trkpt lat="41.3719734" lon="1.7111879"><ele>246.0</ele><time>2026-03-28T10:48:38.297Z</time></trkpt><trkpt lat="41.3721516" lon="1.7112069"><ele>247.0</ele><time>2026-03-28T10:48:39.296Z</time></trkpt><trkpt lat="41.3723263" lon="1.7112366"><ele>248.0</ele><time>2026-03-28T10:48:40.297Z</time></trkpt><trkpt lat="41.3724994" lon="1.71127"><ele>249.0</ele><time>2026-03-28T10:48:41.297Z</time></trkpt><trkpt lat="41.372673" lon="1.7113105"><ele>249.0</ele><time>2026-03-28T10:48:42.297Z</time></trkpt><trkpt lat="41.3728436" lon="1.7113492"><ele>249.0</ele><time>2026-03-28T10:48:43.297Z</time></trkpt><trkpt lat="41.3730172" lon="1.7113925"><ele>249.0</ele><time>2026-03-28T10:48:44.297Z</time></trkpt><trkpt lat="41.3732011" lon="1.7114356"><ele>249.33333333333331</ele><time>2026-03-28T10:48:45.297Z</time></trkpt><trkpt lat="41.3733829" lon="1.7114848"><ele>249.66666666666666</ele><time>2026-03-28T10:48:46.296Z</time></trkpt><trkpt lat="41.3735588" lon="1.7115306"><ele>250.0</ele><time>2026-03-28T10:48:47.297Z</time></trkpt><trkpt lat="41.373736" lon="1.7115749"><ele>250.66666666666666</ele><time>2026-03-28T10:48:48.297Z</time></trkpt><trkpt lat="41.3739205" lon="1.7116238"><ele>251.33333333333331</ele><time>2026-03-28T10:48:49.297Z</time></trkpt><trkpt lat="41.3741055" lon="1.7116725"><ele>252.0</ele><time>2026-03-28T10:48:50.297Z</time></trkpt><trkpt lat="41.3742835" lon="1.711719"><ele>252.0</ele><time>2026-03-28T10:48:51.297Z</time></trkpt><trkpt lat="41.3744583" lon="1.7117648"><ele>252.0</ele><time>2026-03-28T10:48:52.297Z</time></trkpt><trkpt lat="41.3746312" lon="1.7118099"><ele>252.0</ele><time>2026-03-28T10:48:53.297Z</time></trkpt><trkpt lat="41.3748039" lon="1.7118548"><ele>253.66666666666669</ele><time>2026-03-28T10:48:54.297Z</time></trkpt><trkpt lat="41.3749758" lon="1.711903"><ele>255.33333333333334</ele><time>2026-03-28T10:48:55.297Z</time></trkpt><trkpt lat="41.3751478" lon="1.7119501"><ele>257.0</ele><time>2026-03-28T10:48:56.297Z</time></trkpt><trkpt lat="41.3753226" lon="1.7119929"><ele>257.0</ele><time>2026-03-28T10:48:57.297Z</time></trkpt><trkpt lat="41.375491" lon="1.7120353"><ele>257.0</ele><time>2026-03-28T10:48:58.297Z</time></trkpt><trkpt lat="41.3756484" lon="1.7120776"><ele>257.0</ele><time>2026-03-28T10:48:59.297Z</time></trkpt><trkpt lat="41.3757996" lon="1.7121165"><ele>257.0</ele><time>2026-03-28T10:49:00.297Z</time></trkpt><trkpt lat="41.3759417" lon="1.7121521"><ele>257.0</ele><time>2026-03-28T10:49:01.297Z</time></trkpt><trkpt lat="41.3760812" lon="1.7121832"><ele>257.0</ele><time>2026-03-28T10:49:02.297Z</time></trkpt><trkpt lat="41.3762214" lon="1.7122179"><ele>257.0</ele><time>2026-03-28T10:49:03.297Z</time></trkpt><trkpt lat="41.3763619" lon="1.7122553"><ele>257.25</ele><time>2026-03-28T10:49:04.297Z</time></trkpt><trkpt lat="41.3764983" lon="1.7122911"><ele>257.5</ele><time>2026-03-28T10:49:05.297Z</time></trkpt><trkpt lat="41.376628" lon="1.7123268"><ele>257.75</ele><time>2026-03-28T10:49:06.297Z</time></trkpt><trkpt lat="41.3767582" lon="1.7123601"><ele>258.0</ele><time>2026-03-28T10:49:07.297Z</time></trkpt><trkpt lat="41.3768877" lon="1.7123964"><ele>258.0</ele><time>2026-03-28T10:49:08.297Z</time></trkpt><trkpt lat="41.3770127" lon="1.7124314"><ele>258.0</ele><time>2026-03-28T10:49:09.297Z</time></trkpt><trkpt lat="41.3771398" lon="1.7124658"><ele>258.0</ele><time>2026-03-28T10:49:10.297Z</time></trkpt><trkpt lat="41.3772763" lon="1.7125006"><ele>258.0</ele><time>2026-03-28T10:49:11.296Z</time></trkpt><trkpt lat="41.377426" lon="1.7125453"><ele>259.6666666666667</ele><time>2026-03-28T10:49:12.297Z</time></trkpt><trkpt lat="41.3775839" lon="1.7125904"><ele>261.33333333333337</ele><time>2026-03-28T10:49:13.297Z</time></trkpt><trkpt lat="41.3777434" lon="1.712637"><ele>263.0</ele><time>2026-03-28T10:49:14.297Z</time></trkpt><trkpt lat="41.3779077" lon="1.7126779"><ele>264.0</ele><time>2026-03-28T10:49:15.297Z</time></trkpt><trkpt lat="41.3780784" lon="1.7127146"><ele>265.0</ele><time>2026-03-28T10:49:16.297Z</time></trkpt><trkpt lat="41.37825" lon="1.712739"><ele>266.0</ele><time>2026-03-28T10:49:17.297Z</time></trkpt><trkpt lat="41.3784303" lon="1.7127587"><ele>266.0</ele><time>2026-03-28T10:49:18.296Z</time></trkpt><trkpt lat="41.378616" lon="1.7127612"><ele>266.0</ele><time>2026-03-28T10:49:19.297Z</time></trkpt><trkpt lat="41.3788063" lon="1.7127471"><ele>266.0</ele><time>2026-03-28T10:49:20.297Z</time></trkpt><trkpt lat="41.3789953" lon="1.7127147"><ele>267.33333333333337</ele><time>2026-03-28T10:49:21.296Z</time></trkpt><trkpt lat="41.3791832" lon="1.7126636"><ele>268.6666666666667</ele><time>2026-03-28T10:49:22.297Z</time></trkpt><trkpt lat="41.379367" lon="1.712591"><ele>270.0</ele><time>2026-03-28T10:49:23.297Z</time></trkpt><trkpt lat="41.3795486" lon="1.7125043"><ele>271.0</ele><time>2026-03-28T10:49:24.297Z</time></trkpt><trkpt lat="41.3797328" lon="1.7124053"><ele>272.0</ele><time>2026-03-28T10:49:25.297Z</time></trkpt><trkpt lat="41.3799095" lon="1.7123091"><ele>273.0</ele><time>2026-03-28T10:49:26.297Z</time></trkpt><trkpt lat="41.3800783" lon="1.7122146"><ele>273.0</ele><time>2026-03-28T10:49:27.297Z</time></trkpt><trkpt lat="41.3802499" lon="1.7121203"><ele>273.0</ele><time>2026-03-28T10:49:28.297Z</time></trkpt><trkpt lat="41.380424" lon="1.712026"><ele>273.0</ele><time>2026-03-28T10:49:29.297Z</time></trkpt><trkpt lat="41.3805999" lon="1.7119348"><ele>273.3333333333333</ele><time>2026-03-28T10:49:30.297Z</time></trkpt><trkpt lat="41.3807782" lon="1.7118418"><ele>273.66666666666663</ele><time>2026-03-28T10:49:31.297Z</time></trkpt><trkpt lat="41.380956" lon="1.7117469"><ele>274.0</ele><time>2026-03-28T10:49:32.297Z</time></trkpt><trkpt lat="41.3811317" lon="1.711653"><ele>274.0</ele><time>2026-03-28T10:49:33.297Z</time></trkpt><trkpt lat="41.3813058" lon="1.7115589"><ele>274.0</ele><time>2026-03-28T10:49:34.297Z</time></trkpt><trkpt lat="41.3814797" lon="1.711464"><ele>274.0</ele><time>2026-03-28T10:49:35.297Z</time></trkpt><trkpt lat="41.3816532" lon="1.7113688"><ele>274.0</ele><time>2026-03-28T10:49:36.297Z</time></trkpt><trkpt lat="41.3818275" lon="1.7112724"><ele>274.0</ele><time>2026-03-28T10:49:37.297Z</time></trkpt><trkpt lat="41.3819989" lon="1.7111798"><ele>274.0</ele><time>2026-03-28T10:49:38.297Z</time></trkpt><trkpt lat="41.3821668" lon="1.711089"><ele>274.3333333333333</ele><time>2026-03-28T10:49:39.296Z</time></trkpt><trkpt lat="41.3823364" lon="1.7110014"><ele>274.6666666666667</ele><time>2026-03-28T10:49:40.297Z</time></trkpt><trkpt lat="41.3825082" lon="1.7109116"><ele>275.0</ele><time>2026-03-28T10:49:41.296Z</time></trkpt><trkpt lat="41.3826804" lon="1.7108214"><ele>275.0</ele><time>2026-03-28T10:49:42.297Z</time></trkpt><trkpt lat="41.382859" lon="1.7107279"><ele>275.0</ele><time>2026-03-28T10:49:43.296Z</time></trkpt><trkpt lat="41.3830461" lon="1.7106295"><ele>275.0</ele><time>2026-03-28T10:49:44.297Z</time></trkpt><trkpt lat="41.3832335" lon="1.7105281"><ele>274.0</ele><time>2026-03-28T10:49:45.297Z</time></trkpt><trkpt lat="41.3834211" lon="1.7104278"><ele>273.0</ele><time>2026-03-28T10:49:46.297Z</time></trkpt><trkpt lat="41.3836147" lon="1.7103268"><ele>272.0</ele><time>2026-03-28T10:49:47.297Z</time></trkpt><trkpt lat="41.3838154" lon="1.7102243"><ele>269.6666666666667</ele><time>2026-03-28T10:49:48.297Z</time></trkpt><trkpt lat="41.3840185" lon="1.7101245"><ele>267.3333333333333</ele><time>2026-03-28T10:49:49.297Z</time></trkpt><trkpt lat="41.3842165" lon="1.7100297"><ele>265.0</ele><time>2026-03-28T10:49:50.297Z</time></trkpt><trkpt lat="41.3844155" lon="1.7099414"><ele>265.0</ele><time>2026-03-28T10:49:51.297Z</time></trkpt><trkpt lat="41.3846168" lon="1.7098579"><ele>265.0</ele><time>2026-03-28T10:49:52.297Z</time></trkpt><trkpt lat="41.3848177" lon="1.7097751"><ele>265.0</ele><time>2026-03-28T10:49:53.297Z</time></trkpt><trkpt lat="41.3850203" lon="1.7097015"><ele>263.3333333333333</ele><time>2026-03-28T10:49:54.297Z</time></trkpt><trkpt lat="41.3852201" lon="1.7096343"><ele>261.6666666666667</ele><time>2026-03-28T10:49:55.297Z</time></trkpt><trkpt lat="41.3854254" lon="1.7095803"><ele>260.0</ele><time>2026-03-28T10:49:56.297Z</time></trkpt><trkpt lat="41.3856327" lon="1.7095345"><ele>259.0</ele><time>2026-03-28T10:49:57.297Z</time></trkpt><trkpt lat="41.3858349" lon="1.7094901"><ele>258.0</ele><time>2026-03-28T10:49:58.297Z</time></trkpt><trkpt lat="41.3860298" lon="1.709445"><ele>257.0</ele><time>2026-03-28T10:49:59.297Z</time></trkpt><trkpt lat="41.3862199" lon="1.7094134"><ele>258.6666666666667</ele><time>2026-03-28T10:50:00.297Z</time></trkpt><trkpt lat="41.3864086" lon="1.7093843"><ele>260.3333333333333</ele><time>2026-03-28T10:50:01.296Z</time></trkpt><trkpt lat="41.3865959" lon="1.709356"><ele>262.0</ele><time>2026-03-28T10:50:02.297Z</time></trkpt><trkpt lat="41.3867823" lon="1.7093345"><ele>262.0</ele><time>2026-03-28T10:50:03.296Z</time></trkpt><trkpt lat="41.3869649" lon="1.7093189"><ele>262.0</ele><time>2026-03-28T10:50:04.297Z</time></trkpt><trkpt lat="41.3871501" lon="1.7093074"><ele>262.0</ele><time>2026-03-28T10:50:05.297Z</time></trkpt><trkpt lat="41.3873402" lon="1.70929"><ele>260.66666666666663</ele><time>2026-03-28T10:50:06.297Z</time></trkpt><trkpt lat="41.3875331" lon="1.709272"><ele>259.3333333333333</ele><time>2026-03-28T10:50:07.297Z</time></trkpt><trkpt lat="41.3877297" lon="1.7092621"><ele>258.0</ele><time>2026-03-28T10:50:08.297Z</time></trkpt><trkpt lat="41.3879286" lon="1.7092514"><ele>254.66666666666669</ele><time>2026-03-28T10:50:09.297Z</time></trkpt><trkpt lat="41.3881318" lon="1.7092362"><ele>251.33333333333334</ele><time>2026-03-28T10:50:10.297Z</time></trkpt><trkpt lat="41.3883369" lon="1.7092221"><ele>248.0</ele><time>2026-03-28T10:50:11.297Z</time></trkpt><trkpt lat="41.3885406" lon="1.7092085"><ele>248.0</ele><time>2026-03-28T10:50:12.297Z</time></trkpt><trkpt lat="41.3887437" lon="1.709196"><ele>248.0</ele><time>2026-03-28T10:50:13.297Z</time></trkpt><trkpt lat="41.3889456" lon="1.709186"><ele>248.0</ele><time>2026-03-28T10:50:14.297Z</time></trkpt><trkpt lat="41.389148" lon="1.7091726"><ele>247.33333333333334</ele><time>2026-03-28T10:50:15.297Z</time></trkpt><trkpt lat="41.3893475" lon="1.7091606"><ele>246.66666666666669</ele><time>2026-03-28T10:50:16.297Z</time></trkpt><trkpt lat="41.3895458" lon="1.7091437"><ele>246.0</ele><time>2026-03-28T10:50:17.297Z</time></trkpt><trkpt lat="41.3897586" lon="1.7091295"><ele>244.0</ele><time>2026-03-28T10:50:18.297Z</time></trkpt><trkpt lat="41.3899706" lon="1.7091212"><ele>242.0</ele><time>2026-03-28T10:50:19.297Z</time></trkpt><trkpt lat="41.3901794" lon="1.7091147"><ele>240.0</ele><time>2026-03-28T10:50:20.297Z</time></trkpt><trkpt lat="41.3903861" lon="1.7091093"><ele>238.66666666666669</ele><time>2026-03-28T10:50:21.297Z</time></trkpt><trkpt lat="41.3905915" lon="1.7091015"><ele>237.33333333333334</ele><time>2026-03-28T10:50:22.297Z</time></trkpt><trkpt lat="41.3907966" lon="1.7090977"><ele>236.0</ele><time>2026-03-28T10:50:23.297Z</time></trkpt><trkpt lat="41.3910002" lon="1.709097"><ele>236.0</ele><time>2026-03-28T10:50:24.296Z</time></trkpt><trkpt lat="41.3912053" lon="1.7090989"><ele>236.0</ele><time>2026-03-28T10:50:25.297Z</time></trkpt><trkpt lat="41.3914113" lon="1.7091015"><ele>236.0</ele><time>2026-03-28T10:50:26.297Z</time></trkpt><trkpt lat="41.3916128" lon="1.7091021"><ele>234.0</ele><time>2026-03-28T10:50:27.297Z</time></trkpt><trkpt lat="41.3918157" lon="1.7091091"><ele>232.0</ele><time>2026-03-28T10:50:28.297Z</time></trkpt><trkpt lat="41.3920241" lon="1.7091154"><ele>230.0</ele><time>2026-03-28T10:50:29.297Z</time></trkpt><trkpt lat="41.3922293" lon="1.7091249"><ele>227.66666666666669</ele><time>2026-03-28T10:50:30.297Z</time></trkpt><trkpt lat="41.3924356" lon="1.7091349"><ele>225.33333333333331</ele><time>2026-03-28T10:50:31.296Z</time></trkpt><trkpt lat="41.3926395" lon="1.7091559"><ele>223.0</ele><time>2026-03-28T10:50:32.297Z</time></trkpt><trkpt lat="41.3928458" lon="1.7091805"><ele>221.66666666666666</ele><time>2026-03-28T10:50:33.297Z</time></trkpt><trkpt lat="41.3930536" lon="1.7092125"><ele>220.33333333333331</ele><time>2026-03-28T10:50:34.297Z</time></trkpt><trkpt lat="41.3932632" lon="1.709233"><ele>219.0</ele><time>2026-03-28T10:50:35.297Z</time></trkpt><trkpt lat="41.3934695" lon="1.7092523"><ele>219.0</ele><time>2026-03-28T10:50:36.297Z</time></trkpt><trkpt lat="41.3936768" lon="1.7092712"><ele>219.0</ele><time>2026-03-28T10:50:37.297Z</time></trkpt><trkpt lat="41.3938809" lon="1.7092784"><ele>219.0</ele><time>2026-03-28T10:50:38.297Z</time></trkpt><trkpt lat="41.3940794" lon="1.7092753"><ele>218.33333333333331</ele><time>2026-03-28T10:50:39.297Z</time></trkpt><trkpt lat="41.3942753" lon="1.7092627"><ele>217.66666666666666</ele><time>2026-03-28T10:50:40.297Z</time></trkpt><trkpt lat="41.3944708" lon="1.7092406"><ele>217.0</ele><time>2026-03-28T10:50:41.297Z</time></trkpt><trkpt lat="41.3946695" lon="1.7092133"><ele>215.0</ele><time>2026-03-28T10:50:42.297Z</time></trkpt><trkpt lat="41.3948719" lon="1.7091803"><ele>213.0</ele><time>2026-03-28T10:50:43.297Z</time></trkpt><trkpt lat="41.3950692" lon="1.7091407"><ele>211.0</ele><time>2026-03-28T10:50:44.297Z</time></trkpt><trkpt lat="41.3952641" lon="1.7090864"><ele>211.0</ele><time>2026-03-28T10:50:45.297Z</time></trkpt><trkpt lat="41.3954532" lon="1.7090208"><ele>211.0</ele><time>2026-03-28T10:50:46.297Z</time></trkpt><trkpt lat="41.3956412" lon="1.7089372"><ele>211.0</ele><time>2026-03-28T10:50:47.297Z</time></trkpt><trkpt lat="41.395829" lon="1.7088418"><ele>211.33333333333331</ele><time>2026-03-28T10:50:48.297Z</time></trkpt><trkpt lat="41.3960156" lon="1.7087395"><ele>211.66666666666669</ele><time>2026-03-28T10:50:49.297Z</time></trkpt><trkpt lat="41.3961952" lon="1.7086357"><ele>212.0</ele><time>2026-03-28T10:50:50.297Z</time></trkpt><trkpt lat="41.3963782" lon="1.7085232"><ele>213.66666666666669</ele><time>2026-03-28T10:50:51.297Z</time></trkpt><trkpt lat="41.3965558" lon="1.7084049"><ele>215.33333333333331</ele><time>2026-03-28T10:50:52.297Z</time></trkpt><trkpt lat="41.3967263" lon="1.7082951"><ele>217.0</ele><time>2026-03-28T10:50:53.297Z</time></trkpt><trkpt lat="41.3968996" lon="1.7081829"><ele>217.0</ele><time>2026-03-28T10:50:54.297Z</time></trkpt><trkpt lat="41.3970728" lon="1.7080725"><ele>217.0</ele><time>2026-03-28T10:50:55.297Z</time></trkpt><trkpt lat="41.3972438" lon="1.7079697"><ele>217.0</ele><time>2026-03-28T10:50:56.297Z</time></trkpt><trkpt lat="41.3974114" lon="1.7078637"><ele>217.33333333333331</ele><time>2026-03-28T10:50:57.297Z</time></trkpt><trkpt lat="41.3975765" lon="1.7077605"><ele>217.66666666666669</ele><time>2026-03-28T10:50:58.297Z</time></trkpt><trkpt lat="41.397744" lon="1.7076547"><ele>218.0</ele><time>2026-03-28T10:50:59.297Z</time></trkpt><trkpt lat="41.3979085" lon="1.7075463"><ele>219.0</ele><time>2026-03-28T10:51:00.297Z</time></trkpt><trkpt lat="41.3980755" lon="1.7074392"><ele>220.0</ele><time>2026-03-28T10:51:01.297Z</time></trkpt><trkpt lat="41.3982451" lon="1.707333"><ele>221.0</ele><time>2026-03-28T10:51:02.297Z</time></trkpt><trkpt lat="41.3984214" lon="1.707225"><ele>221.0</ele><time>2026-03-28T10:51:03.297Z</time></trkpt><trkpt lat="41.3985963" lon="1.7071144"><ele>221.0</ele><time>2026-03-28T10:51:04.297Z</time></trkpt><trkpt lat="41.3987726" lon="1.7070066"><ele>221.0</ele><time>2026-03-28T10:51:05.297Z</time></trkpt><trkpt lat="41.3989509" lon="1.7068916"><ele>222.33333333333334</ele><time>2026-03-28T10:51:06.297Z</time></trkpt><trkpt lat="41.3991141" lon="1.7067773"><ele>223.66666666666669</ele><time>2026-03-28T10:51:07.297Z</time></trkpt><trkpt lat="41.39929" lon="1.7066629"><ele>225.0</ele><time>2026-03-28T10:51:08.297Z</time></trkpt><trkpt lat="41.3994706" lon="1.7065501"><ele>225.0</ele><time>2026-03-28T10:51:09.297Z</time></trkpt><trkpt lat="41.3996416" lon="1.7064375"><ele>225.0</ele><time>2026-03-28T10:51:10.297Z</time></trkpt><trkpt lat="41.399815" lon="1.7063289"><ele>225.0</ele><time>2026-03-28T10:51:11.297Z</time></trkpt><trkpt lat="41.3999889" lon="1.7062116"><ele>225.33333333333331</ele><time>2026-03-28T10:51:12.297Z</time></trkpt><trkpt lat="41.4001717" lon="1.7060909"><ele>225.66666666666666</ele><time>2026-03-28T10:51:13.297Z</time></trkpt><trkpt lat="41.4003566" lon="1.7059764"><ele>226.0</ele><time>2026-03-28T10:51:14.296Z</time></trkpt><trkpt lat="41.4005385" lon="1.7058566"><ele>227.33333333333331</ele><time>2026-03-28T10:51:15.297Z</time></trkpt><trkpt lat="41.4007159" lon="1.7057496"><ele>228.66666666666669</ele><time>2026-03-28T10:51:16.297Z</time></trkpt><trkpt lat="41.4008873" lon="1.7056478"><ele>230.0</ele><time>2026-03-28T10:51:17.297Z</time></trkpt><trkpt lat="41.401064" lon="1.7055414"><ele>230.0</ele><time>2026-03-28T10:51:18.297Z</time></trkpt><trkpt lat="41.4012399" lon="1.7054306"><ele>230.0</ele><time>2026-03-28T10:51:19.297Z</time></trkpt><trkpt lat="41.4014172" lon="1.7053211"><ele>230.0</ele><time>2026-03-28T10:51:20.297Z</time></trkpt><trkpt lat="41.401593" lon="1.7052127"><ele>229.66666666666669</ele><time>2026-03-28T10:51:21.297Z</time></trkpt><trkpt lat="41.4017658" lon="1.7051066"><ele>229.33333333333331</ele><time>2026-03-28T10:51:22.297Z</time></trkpt><trkpt lat="41.4019444" lon="1.7050057"><ele>229.0</ele><time>2026-03-28T10:51:23.297Z</time></trkpt><trkpt lat="41.4021082" lon="1.704903"><ele>229.66666666666666</ele><time>2026-03-28T10:51:24.297Z</time></trkpt><trkpt lat="41.4022713" lon="1.7048119"><ele>230.33333333333331</ele><time>2026-03-28T10:51:25.297Z</time></trkpt><trkpt lat="41.4024298" lon="1.7047242"><ele>231.0</ele><time>2026-03-28T10:51:26.297Z</time></trkpt><trkpt lat="41.4025873" lon="1.7046427"><ele>231.0</ele><time>2026-03-28T10:51:27.297Z</time></trkpt><trkpt lat="41.4027407" lon="1.7045667"><ele>231.0</ele><time>2026-03-28T10:51:28.297Z</time></trkpt><trkpt lat="41.402894" lon="1.7044923"><ele>231.0</ele><time>2026-03-28T10:51:29.297Z</time></trkpt><trkpt lat="41.4030477" lon="1.7044269"><ele>231.0</ele><time>2026-03-28T10:51:30.297Z</time></trkpt><trkpt lat="41.4031989" lon="1.7043637"><ele>231.0</ele><time>2026-03-28T10:51:31.297Z</time></trkpt><trkpt lat="41.4033412" lon="1.7043116"><ele>231.0</ele><time>2026-03-28T10:51:32.297Z</time></trkpt><trkpt lat="41.4034725" lon="1.7042626"><ele>231.0</ele><time>2026-03-28T10:51:33.297Z</time></trkpt><trkpt lat="41.4035935" lon="1.7042203"><ele>231.0</ele><time>2026-03-28T10:51:34.297Z</time></trkpt><trkpt lat="41.4037047" lon="1.7041834"><ele>231.0</ele><time>2026-03-28T10:51:35.297Z</time></trkpt><trkpt lat="41.4037949" lon="1.7041555"><ele>231.0</ele><time>2026-03-28T10:51:36.297Z</time></trkpt><trkpt lat="41.4038688" lon="1.7041375"><ele>231.0</ele><time>2026-03-28T10:51:37.297Z</time></trkpt><trkpt lat="41.4039485" lon="1.7041365"><ele>231.0</ele><time>2026-03-28T10:51:39.297Z</time></trkpt><trkpt lat="41.4040028" lon="1.704191"><ele>231.0</ele><time>2026-03-28T10:51:41.297Z</time></trkpt><trkpt lat="41.404022" lon="1.7043471"><ele>230.20000000000002</ele><time>2026-03-28T10:51:43.297Z</time></trkpt><trkpt lat="41.4040162" lon="1.7044545"><ele>229.40000000000003</ele><time>2026-03-28T10:51:44.297Z</time></trkpt><trkpt lat="41.4040024" lon="1.7045754"><ele>228.6</ele><time>2026-03-28T10:51:45.297Z</time></trkpt><trkpt lat="41.4039808" lon="1.7047094"><ele>227.8</ele><time>2026-03-28T10:51:46.297Z</time></trkpt><trkpt lat="41.4039457" lon="1.704859"><ele>227.0</ele><time>2026-03-28T10:51:47.297Z</time></trkpt><trkpt lat="41.4039057" lon="1.7050137"><ele>227.0</ele><time>2026-03-28T10:51:48.297Z</time></trkpt><trkpt lat="41.4038561" lon="1.7051768"><ele>227.0</ele><time>2026-03-28T10:51:49.297Z</time></trkpt><trkpt lat="41.4038037" lon="1.7053425"><ele>227.0</ele><time>2026-03-28T10:51:50.297Z</time></trkpt><trkpt lat="41.403747" lon="1.7055141"><ele>227.0</ele><time>2026-03-28T10:51:51.297Z</time></trkpt><trkpt lat="41.4036872" lon="1.7056904"><ele>228.0</ele><time>2026-03-28T10:51:52.296Z</time></trkpt><trkpt lat="41.4036276" lon="1.7058731"><ele>229.0</ele><time>2026-03-28T10:51:53.297Z</time></trkpt><trkpt lat="41.403571" lon="1.7060548"><ele>230.0</ele><time>2026-03-28T10:51:54.297Z</time></trkpt><trkpt lat="41.4035257" lon="1.7062437"><ele>231.0</ele><time>2026-03-28T10:51:55.297Z</time></trkpt><trkpt lat="41.4034987" lon="1.7064596"><ele>231.0</ele><time>2026-03-28T10:51:56.297Z</time></trkpt><trkpt lat="41.4034826" lon="1.7066881"><ele>231.0</ele><time>2026-03-28T10:51:57.296Z</time></trkpt><trkpt lat="41.4034668" lon="1.7069061"><ele>231.0</ele><time>2026-03-28T10:51:58.297Z</time></trkpt><trkpt lat="41.4034485" lon="1.7071287"><ele>230.66666666666669</ele><time>2026-03-28T10:51:59.297Z</time></trkpt><trkpt lat="41.4034335" lon="1.7073469"><ele>230.33333333333334</ele><time>2026-03-28T10:52:00.296Z</time></trkpt><trkpt lat="41.4034188" lon="1.7075631"><ele>230.0</ele><time>2026-03-28T10:52:01.296Z</time></trkpt><trkpt lat="41.4034039" lon="1.7077759"><ele>229.0</ele><time>2026-03-28T10:52:02.297Z</time></trkpt><trkpt lat="41.40339" lon="1.7079932"><ele>228.0</ele><time>2026-03-28T10:52:03.296Z</time></trkpt><trkpt lat="41.4033774" lon="1.7082143"><ele>227.0</ele><time>2026-03-28T10:52:04.297Z</time></trkpt><trkpt lat="41.4033593" lon="1.7084403"><ele>226.33333333333334</ele><time>2026-03-28T10:52:05.297Z</time></trkpt><trkpt lat="41.4033292" lon="1.708674"><ele>225.66666666666669</ele><time>2026-03-28T10:52:06.297Z</time></trkpt><trkpt lat="41.4032782" lon="1.708901"><ele>225.0</ele><time>2026-03-28T10:52:07.297Z</time></trkpt><trkpt lat="41.4032141" lon="1.7091289"><ele>225.0</ele><time>2026-03-28T10:52:08.297Z</time></trkpt><trkpt lat="41.4031442" lon="1.7093618"><ele>225.0</ele><time>2026-03-28T10:52:09.297Z</time></trkpt><trkpt lat="41.403076" lon="1.7095958"><ele>225.0</ele><time>2026-03-28T10:52:10.297Z</time></trkpt><trkpt lat="41.4030054" lon="1.709829"><ele>225.33333333333331</ele><time>2026-03-28T10:52:11.297Z</time></trkpt><trkpt lat="41.4029476" lon="1.7100633"><ele>225.66666666666666</ele><time>2026-03-28T10:52:12.297Z</time></trkpt><trkpt lat="41.4029089" lon="1.7103"><ele>226.0</ele><time>2026-03-28T10:52:13.296Z</time></trkpt><trkpt lat="41.4028939" lon="1.7105456"><ele>226.0</ele><time>2026-03-28T10:52:14.297Z</time></trkpt><trkpt lat="41.4028936" lon="1.7108044"><ele>226.0</ele><time>2026-03-28T10:52:15.297Z</time></trkpt><trkpt lat="41.4029013" lon="1.7110637"><ele>226.0</ele><time>2026-03-28T10:52:16.296Z</time></trkpt><trkpt lat="41.4029125" lon="1.711313"><ele>226.0</ele><time>2026-03-28T10:52:17.297Z</time></trkpt><trkpt lat="41.4029232" lon="1.7115496"><ele>226.0</ele><time>2026-03-28T10:52:18.297Z</time></trkpt><trkpt lat="41.4029313" lon="1.7117699"><ele>226.0</ele><time>2026-03-28T10:52:19.296Z</time></trkpt><trkpt lat="41.4029397" lon="1.7119568"><ele>225.75</ele><time>2026-03-28T10:52:20.297Z</time></trkpt><trkpt lat="41.4029444" lon="1.7121287"><ele>225.5</ele><time>2026-03-28T10:52:21.297Z</time></trkpt><trkpt lat="41.4029518" lon="1.712293"><ele>225.25</ele><time>2026-03-28T10:52:22.297Z</time></trkpt><trkpt lat="41.4029532" lon="1.7124428"><ele>225.0</ele><time>2026-03-28T10:52:23.297Z</time></trkpt><trkpt lat="41.4029593" lon="1.7125868"><ele>225.0</ele><time>2026-03-28T10:52:24.296Z</time></trkpt><trkpt lat="41.4029641" lon="1.7127239"><ele>225.0</ele><time>2026-03-28T10:52:25.297Z</time></trkpt><trkpt lat="41.4029723" lon="1.7128542"><ele>225.0</ele><time>2026-03-28T10:52:26.296Z</time></trkpt><trkpt lat="41.4029852" lon="1.7129778"><ele>225.0</ele><time>2026-03-28T10:52:27.297Z</time></trkpt><trkpt lat="41.4030048" lon="1.7131019"><ele>225.0</ele><time>2026-03-28T10:52:28.297Z</time></trkpt><trkpt lat="41.4030121" lon="1.7132488"><ele>224.75</ele><time>2026-03-28T10:52:29.297Z</time></trkpt><trkpt lat="41.4030133" lon="1.7134197"><ele>224.5</ele><time>2026-03-28T10:52:30.297Z</time></trkpt><trkpt lat="41.4030153" lon="1.7136047"><ele>224.25</ele><time>2026-03-28T10:52:31.297Z</time></trkpt><trkpt lat="41.40302" lon="1.713793"><ele>224.0</ele><time>2026-03-28T10:52:32.296Z</time></trkpt><trkpt lat="41.4030298" lon="1.7139935"><ele>224.5</ele><time>2026-03-28T10:52:33.296Z</time></trkpt><trkpt lat="41.4030359" lon="1.7141868"><ele>225.0</ele><time>2026-03-28T10:52:34.297Z</time></trkpt><trkpt lat="41.4030376" lon="1.7143752"><ele>225.5</ele><time>2026-03-28T10:52:35.297Z</time></trkpt><trkpt lat="41.4030205" lon="1.714562"><ele>226.0</ele><time>2026-03-28T10:52:36.297Z</time></trkpt><trkpt lat="41.4029785" lon="1.7147581"><ele>226.33333333333331</ele><time>2026-03-28T10:52:37.297Z</time></trkpt><trkpt lat="41.4029164" lon="1.7149612"><ele>226.66666666666669</ele><time>2026-03-28T10:52:38.297Z</time></trkpt><trkpt lat="41.4028545" lon="1.7151741"><ele>227.0</ele><time>2026-03-28T10:52:39.297Z</time></trkpt><trkpt lat="41.4027864" lon="1.7153859"><ele>227.0</ele><time>2026-03-28T10:52:40.297Z</time></trkpt><trkpt lat="41.4027185" lon="1.7155998"><ele>227.0</ele><time>2026-03-28T10:52:41.297Z</time></trkpt><trkpt lat="41.4026518" lon="1.7158133"><ele>227.0</ele><time>2026-03-28T10:52:42.297Z</time></trkpt><trkpt lat="41.402583" lon="1.7160309"><ele>226.33333333333334</ele><time>2026-03-28T10:52:43.297Z</time></trkpt><trkpt lat="41.4025136" lon="1.7162451"><ele>225.66666666666669</ele><time>2026-03-28T10:52:44.297Z</time></trkpt><trkpt lat="41.4024498" lon="1.7164609"><ele>225.0</ele><time>2026-03-28T10:52:45.297Z</time></trkpt><trkpt lat="41.402386" lon="1.7166627"><ele>225.0</ele><time>2026-03-28T10:52:46.297Z</time></trkpt><trkpt lat="41.4023243" lon="1.7168618"><ele>225.0</ele><time>2026-03-28T10:52:47.297Z</time></trkpt><trkpt lat="41.4022603" lon="1.7170625"><ele>225.0</ele><time>2026-03-28T10:52:48.297Z</time></trkpt><trkpt lat="41.402195" lon="1.7172537"><ele>224.0</ele><time>2026-03-28T10:52:49.297Z</time></trkpt><trkpt lat="41.4021335" lon="1.7174517"><ele>223.0</ele><time>2026-03-28T10:52:50.297Z</time></trkpt><trkpt lat="41.4020728" lon="1.7176463"><ele>222.0</ele><time>2026-03-28T10:52:51.297Z</time></trkpt><trkpt lat="41.4020117" lon="1.7178378"><ele>222.0</ele><time>2026-03-28T10:52:52.297Z</time></trkpt><trkpt lat="41.4019532" lon="1.718032"><ele>222.0</ele><time>2026-03-28T10:52:53.297Z</time></trkpt><trkpt lat="41.4018945" lon="1.7182228"><ele>222.0</ele><time>2026-03-28T10:52:54.297Z</time></trkpt><trkpt lat="41.4018357" lon="1.7184106"><ele>222.0</ele><time>2026-03-28T10:52:55.297Z</time></trkpt><trkpt lat="41.4017784" lon="1.7185888"><ele>222.0</ele><time>2026-03-28T10:52:56.297Z</time></trkpt><trkpt lat="41.4017269" lon="1.7187465"><ele>222.0</ele><time>2026-03-28T10:52:57.297Z</time></trkpt><trkpt lat="41.4016824" lon="1.7188934"><ele>222.0</ele><time>2026-03-28T10:52:58.297Z</time></trkpt><trkpt lat="41.4016533" lon="1.7190381"><ele>222.0</ele><time>2026-03-28T10:52:59.297Z</time></trkpt><trkpt lat="41.4016509" lon="1.7191836"><ele>222.0</ele><time>2026-03-28T10:53:00.297Z</time></trkpt><trkpt lat="41.4016835" lon="1.7193354"><ele>222.0</ele><time>2026-03-28T10:53:01.297Z</time></trkpt><trkpt lat="41.4017384" lon="1.7194955"><ele>222.0</ele><time>2026-03-28T10:53:02.297Z</time></trkpt><trkpt lat="41.401807" lon="1.719645"><ele>222.75</ele><time>2026-03-28T10:53:03.297Z</time></trkpt><trkpt lat="41.4018734" lon="1.719786"><ele>223.5</ele><time>2026-03-28T10:53:04.297Z</time></trkpt><trkpt lat="41.4019254" lon="1.7199355"><ele>224.25</ele><time>2026-03-28T10:53:05.297Z</time></trkpt><trkpt lat="41.4019508" lon="1.7200947"><ele>225.0</ele><time>2026-03-28T10:53:06.296Z</time></trkpt><trkpt lat="41.4019405" lon="1.7202687"><ele>225.0</ele><time>2026-03-28T10:53:07.297Z</time></trkpt><trkpt lat="41.4019115" lon="1.7204452"><ele>225.0</ele><time>2026-03-28T10:53:08.297Z</time></trkpt><trkpt lat="41.4018686" lon="1.7206271"><ele>225.0</ele><time>2026-03-28T10:53:09.297Z</time></trkpt><trkpt lat="41.4018071" lon="1.7208168"><ele>225.0</ele><time>2026-03-28T10:53:10.297Z</time></trkpt><trkpt lat="41.401725" lon="1.7210059"><ele>222.33333333333331</ele><time>2026-03-28T10:53:11.297Z</time></trkpt><trkpt lat="41.401633" lon="1.7211935"><ele>219.66666666666666</ele><time>2026-03-28T10:53:12.297Z</time></trkpt><trkpt lat="41.4015335" lon="1.7213803"><ele>217.0</ele><time>2026-03-28T10:53:13.297Z</time></trkpt><trkpt lat="41.401427" lon="1.7215722"><ele>217.0</ele><time>2026-03-28T10:53:14.297Z</time></trkpt><trkpt lat="41.4013189" lon="1.7217695"><ele>217.0</ele><time>2026-03-28T10:53:15.297Z</time></trkpt><trkpt lat="41.4012118" lon="1.7219705"><ele>217.0</ele><time>2026-03-28T10:53:16.297Z</time></trkpt><trkpt lat="41.4011057" lon="1.7221676"><ele>217.0</ele><time>2026-03-28T10:53:17.297Z</time></trkpt><trkpt lat="41.4010016" lon="1.722358"><ele>217.0</ele><time>2026-03-28T10:53:18.297Z</time></trkpt><trkpt lat="41.4009019" lon="1.7225377"><ele>217.0</ele><time>2026-03-28T10:53:19.297Z</time></trkpt><trkpt lat="41.4008043" lon="1.7227206"><ele>214.66666666666666</ele><time>2026-03-28T10:53:20.296Z</time></trkpt><trkpt lat="41.4007044" lon="1.7229012"><ele>212.33333333333331</ele><time>2026-03-28T10:53:21.297Z</time></trkpt><trkpt lat="41.4006047" lon="1.7230829"><ele>210.0</ele><time>2026-03-28T10:53:22.297Z</time></trkpt><trkpt lat="41.4005057" lon="1.723276"><ele>209.66666666666669</ele><time>2026-03-28T10:53:23.297Z</time></trkpt><trkpt lat="41.4004084" lon="1.7234787"><ele>209.33333333333334</ele><time>2026-03-28T10:53:24.297Z</time></trkpt><trkpt lat="41.4003166" lon="1.7236882"><ele>209.0</ele><time>2026-03-28T10:53:25.297Z</time></trkpt><trkpt lat="41.4002349" lon="1.7239102"><ele>209.0</ele><time>2026-03-28T10:53:26.297Z</time></trkpt><trkpt lat="41.4001614" lon="1.7241395"><ele>209.0</ele><time>2026-03-28T10:53:27.297Z</time></trkpt><trkpt lat="41.4000946" lon="1.7243783"><ele>209.0</ele><time>2026-03-28T10:53:28.296Z</time></trkpt><trkpt lat="41.4000309" lon="1.7246407"><ele>207.5</ele><time>2026-03-28T10:53:29.297Z</time></trkpt><trkpt lat="41.399974" lon="1.7249231"><ele>206.0</ele><time>2026-03-28T10:53:30.297Z</time></trkpt><trkpt lat="41.3999221" lon="1.7252318"><ele>205.5</ele><time>2026-03-28T10:53:31.297Z</time></trkpt><trkpt lat="41.3998699" lon="1.7255439"><ele>205.0</ele><time>2026-03-28T10:53:32.297Z</time></trkpt><trkpt lat="41.3998192" lon="1.72584"><ele>205.33333333333331</ele><time>2026-03-28T10:53:33.296Z</time></trkpt><trkpt lat="41.3997683" lon="1.7261201"><ele>205.66666666666669</ele><time>2026-03-28T10:53:34.297Z</time></trkpt><trkpt lat="41.3997203" lon="1.7263903"><ele>206.0</ele><time>2026-03-28T10:53:35.297Z</time></trkpt><trkpt lat="41.3996774" lon="1.7266599"><ele>205.66666666666669</ele><time>2026-03-28T10:53:36.297Z</time></trkpt><trkpt lat="41.3996308" lon="1.7269267"><ele>205.33333333333331</ele><time>2026-03-28T10:53:37.297Z</time></trkpt><trkpt lat="41.3995881" lon="1.7271925"><ele>205.0</ele><time>2026-03-28T10:53:38.297Z</time></trkpt><trkpt lat="41.3995484" lon="1.7274449"><ele>205.0</ele><time>2026-03-28T10:53:39.297Z</time></trkpt><trkpt lat="41.3995079" lon="1.7276892"><ele>205.0</ele><time>2026-03-28T10:53:40.297Z</time></trkpt><trkpt lat="41.3994715" lon="1.7279168"><ele>205.0</ele><time>2026-03-28T10:53:41.297Z</time></trkpt><trkpt lat="41.3994362" lon="1.7281325"><ele>204.66666666666666</ele><time>2026-03-28T10:53:42.297Z</time></trkpt><trkpt lat="41.3994056" lon="1.728347"><ele>204.33333333333331</ele><time>2026-03-28T10:53:43.297Z</time></trkpt><trkpt lat="41.3993698" lon="1.7285606"><ele>204.0</ele><time>2026-03-28T10:53:44.297Z</time></trkpt><trkpt lat="41.3993361" lon="1.7287624"><ele>205.0</ele><time>2026-03-28T10:53:45.297Z</time></trkpt><trkpt lat="41.3993" lon="1.7289584"><ele>206.0</ele><time>2026-03-28T10:53:46.297Z</time></trkpt><trkpt lat="41.3992529" lon="1.7291425"><ele>207.0</ele><time>2026-03-28T10:53:47.297Z</time></trkpt><trkpt lat="41.3991897" lon="1.7293363"><ele>205.33333333333331</ele><time>2026-03-28T10:53:48.297Z</time></trkpt><trkpt lat="41.3991188" lon="1.7295428"><ele>203.66666666666666</ele><time>2026-03-28T10:53:49.297Z</time></trkpt><trkpt lat="41.3990477" lon="1.7297553"><ele>202.0</ele><time>2026-03-28T10:53:50.297Z</time></trkpt><trkpt lat="41.3989776" lon="1.729971"><ele>202.0</ele><time>2026-03-28T10:53:51.297Z</time></trkpt><trkpt lat="41.3989034" lon="1.7301869"><ele>202.0</ele><time>2026-03-28T10:53:52.297Z</time></trkpt><trkpt lat="41.3988296" lon="1.7303957"><ele>202.0</ele><time>2026-03-28T10:53:53.297Z</time></trkpt><trkpt lat="41.3987577" lon="1.7305991"><ele>202.66666666666666</ele><time>2026-03-28T10:53:54.296Z</time></trkpt><trkpt lat="41.3986876" lon="1.7308083"><ele>203.33333333333331</ele><time>2026-03-28T10:53:55.296Z</time></trkpt><trkpt lat="41.3986135" lon="1.7310233"><ele>204.0</ele><time>2026-03-28T10:53:56.297Z</time></trkpt><trkpt lat="41.3985416" lon="1.7312402"><ele>202.66666666666669</ele><time>2026-03-28T10:53:57.297Z</time></trkpt><trkpt lat="41.3984664" lon="1.7314558"><ele>201.33333333333334</ele><time>2026-03-28T10:53:58.296Z</time></trkpt><trkpt lat="41.3983936" lon="1.7316741"><ele>200.0</ele><time>2026-03-28T10:53:59.297Z</time></trkpt><trkpt lat="41.3983235" lon="1.7318885"><ele>198.66666666666669</ele><time>2026-03-28T10:54:00.296Z</time></trkpt><trkpt lat="41.3982537" lon="1.732092"><ele>197.33333333333331</ele><time>2026-03-28T10:54:01.297Z</time></trkpt><trkpt lat="41.3981897" lon="1.7322832"><ele>196.0</ele><time>2026-03-28T10:54:02.297Z</time></trkpt><trkpt lat="41.3981296" lon="1.7324646"><ele>196.0</ele><time>2026-03-28T10:54:03.297Z</time></trkpt><trkpt lat="41.3980709" lon="1.7326381"><ele>196.0</ele><time>2026-03-28T10:54:04.297Z</time></trkpt><trkpt lat="41.3980159" lon="1.7328164"><ele>196.0</ele><time>2026-03-28T10:54:05.297Z</time></trkpt><trkpt lat="41.397956" lon="1.7329948"><ele>196.0</ele><time>2026-03-28T10:54:06.297Z</time></trkpt><trkpt lat="41.3978904" lon="1.7331705"><ele>195.66666666666666</ele><time>2026-03-28T10:54:07.297Z</time></trkpt><trkpt lat="41.3978153" lon="1.733348"><ele>195.33333333333331</ele><time>2026-03-28T10:54:08.297Z</time></trkpt><trkpt lat="41.3977365" lon="1.7335288"><ele>195.0</ele><time>2026-03-28T10:54:09.297Z</time></trkpt><trkpt lat="41.3976603" lon="1.7336993"><ele>195.0</ele><time>2026-03-28T10:54:10.297Z</time></trkpt><trkpt lat="41.3975846" lon="1.7338658"><ele>195.0</ele><time>2026-03-28T10:54:11.297Z</time></trkpt><trkpt lat="41.3975107" lon="1.7340221"><ele>195.0</ele><time>2026-03-28T10:54:12.297Z</time></trkpt><trkpt lat="41.3974422" lon="1.7341657"><ele>195.0</ele><time>2026-03-28T10:54:13.296Z</time></trkpt><trkpt lat="41.3973798" lon="1.7343134"><ele>194.5</ele><time>2026-03-28T10:54:14.297Z</time></trkpt><trkpt lat="41.3973157" lon="1.7344511"><ele>194.0</ele><time>2026-03-28T10:54:15.297Z</time></trkpt><trkpt lat="41.3972455" lon="1.7345897"><ele>193.5</ele><time>2026-03-28T10:54:16.297Z</time></trkpt><trkpt lat="41.397183" lon="1.7347412"><ele>193.0</ele><time>2026-03-28T10:54:17.297Z</time></trkpt><trkpt lat="41.3971109" lon="1.7348822"><ele>193.0</ele><time>2026-03-28T10:54:18.297Z</time></trkpt><trkpt lat="41.397044" lon="1.7350231"><ele>193.0</ele><time>2026-03-28T10:54:19.296Z</time></trkpt><trkpt lat="41.3969843" lon="1.7351597"><ele>193.0</ele><time>2026-03-28T10:54:20.297Z</time></trkpt><trkpt lat="41.3969306" lon="1.7352774"><ele>193.0</ele><time>2026-03-28T10:54:21.297Z</time></trkpt><trkpt lat="41.3968815" lon="1.735382"><ele>193.0</ele><time>2026-03-28T10:54:22.296Z</time></trkpt><trkpt lat="41.3968343" lon="1.7354783"><ele>192.83333333333331</ele><time>2026-03-28T10:54:23.297Z</time></trkpt><trkpt lat="41.3967921" lon="1.7355734"><ele>192.66666666666666</ele><time>2026-03-28T10:54:24.297Z</time></trkpt><trkpt lat="41.3967526" lon="1.7356709"><ele>192.5</ele><time>2026-03-28T10:54:25.297Z</time></trkpt><trkpt lat="41.3967069" lon="1.7357718"><ele>192.33333333333331</ele><time>2026-03-28T10:54:26.297Z</time></trkpt><trkpt lat="41.3966615" lon="1.7358772"><ele>192.16666666666666</ele><time>2026-03-28T10:54:27.297Z</time></trkpt><trkpt lat="41.3966155" lon="1.735987"><ele>192.0</ele><time>2026-03-28T10:54:28.297Z</time></trkpt><trkpt lat="41.3965734" lon="1.7360932"><ele>191.83333333333334</ele><time>2026-03-28T10:54:29.297Z</time></trkpt><trkpt lat="41.3965346" lon="1.7361918"><ele>191.66666666666666</ele><time>2026-03-28T10:54:30.297Z</time></trkpt><trkpt lat="41.3964998" lon="1.7362849"><ele>191.5</ele><time>2026-03-28T10:54:31.297Z</time></trkpt><trkpt lat="41.396464" lon="1.73638"><ele>191.33333333333331</ele><time>2026-03-28T10:54:32.297Z</time></trkpt><trkpt lat="41.3964363" lon="1.7364784"><ele>191.16666666666666</ele><time>2026-03-28T10:54:33.297Z</time></trkpt><trkpt lat="41.3964113" lon="1.7365749"><ele>191.0</ele><time>2026-03-28T10:54:34.297Z</time></trkpt><trkpt lat="41.3963953" lon="1.7366792"><ele>191.0</ele><time>2026-03-28T10:54:35.297Z</time></trkpt><trkpt lat="41.3963878" lon="1.7367831"><ele>191.0</ele><time>2026-03-28T10:54:36.296Z</time></trkpt><trkpt lat="41.3963759" lon="1.7368907"><ele>191.0</ele><time>2026-03-28T10:54:37.296Z</time></trkpt><trkpt lat="41.3963464" lon="1.7370002"><ele>191.0</ele><time>2026-03-28T10:54:38.297Z</time></trkpt><trkpt lat="41.3963022" lon="1.7371078"><ele>191.0</ele><time>2026-03-28T10:54:39.297Z</time></trkpt><trkpt lat="41.3962545" lon="1.7372206"><ele>191.0</ele><time>2026-03-28T10:54:40.297Z</time></trkpt><trkpt lat="41.3962061" lon="1.7373402"><ele>189.8</ele><time>2026-03-28T10:54:41.297Z</time></trkpt><trkpt lat="41.3961588" lon="1.7374566"><ele>188.60000000000002</ele><time>2026-03-28T10:54:42.297Z</time></trkpt><trkpt lat="41.3961102" lon="1.7375695"><ele>187.4</ele><time>2026-03-28T10:54:43.297Z</time></trkpt><trkpt lat="41.3960596" lon="1.73768"><ele>186.2</ele><time>2026-03-28T10:54:44.297Z</time></trkpt><trkpt lat="41.3960001" lon="1.7377857"><ele>185.0</ele><time>2026-03-28T10:54:45.297Z</time></trkpt><trkpt lat="41.395929" lon="1.7378833"><ele>185.0</ele><time>2026-03-28T10:54:46.297Z</time></trkpt><trkpt lat="41.3958554" lon="1.7379682"><ele>185.0</ele><time>2026-03-28T10:54:47.296Z</time></trkpt><trkpt lat="41.3957824" lon="1.7380355"><ele>185.0</ele><time>2026-03-28T10:54:48.297Z</time></trkpt><trkpt lat="41.3957154" lon="1.7380825"><ele>185.0</ele><time>2026-03-28T10:54:49.297Z</time></trkpt><trkpt lat="41.3956138" lon="1.7381538"><ele>185.0</ele><time>2026-03-28T10:54:51.297Z</time></trkpt><trkpt lat="41.3955252" lon="1.7382603"><ele>184.5</ele><time>2026-03-28T10:54:53.296Z</time></trkpt><trkpt lat="41.3954973" lon="1.7383487"><ele>184.0</ele><time>2026-03-28T10:54:54.297Z</time></trkpt><trkpt lat="41.3954632" lon="1.7384474"><ele>183.5</ele><time>2026-03-28T10:54:55.297Z</time></trkpt><trkpt lat="41.3954311" lon="1.7385558"><ele>183.0</ele><time>2026-03-28T10:54:56.297Z</time></trkpt><trkpt lat="41.3954054" lon="1.7386753"><ele>182.5</ele><time>2026-03-28T10:54:57.296Z</time></trkpt><trkpt lat="41.3953931" lon="1.7388114"><ele>182.0</ele><time>2026-03-28T10:54:58.296Z</time></trkpt><trkpt lat="41.3953992" lon="1.7389606"><ele>182.0</ele><time>2026-03-28T10:54:59.297Z</time></trkpt><trkpt lat="41.3954207" lon="1.7391195"><ele>182.0</ele><time>2026-03-28T10:55:00.297Z</time></trkpt><trkpt lat="41.3954481" lon="1.7392918"><ele>182.0</ele><time>2026-03-28T10:55:01.297Z</time></trkpt><trkpt lat="41.3954763" lon="1.739457"><ele>182.0</ele><time>2026-03-28T10:55:02.297Z</time></trkpt><trkpt lat="41.3955071" lon="1.7396231"><ele>182.0</ele><time>2026-03-28T10:55:03.296Z</time></trkpt><trkpt lat="41.3955205" lon="1.73978"><ele>182.0</ele><time>2026-03-28T10:55:04.296Z</time></trkpt><trkpt lat="41.3955034" lon="1.7399455"><ele>182.0</ele><time>2026-03-28T10:55:05.297Z</time></trkpt><trkpt lat="41.3954487" lon="1.7401101"><ele>182.0</ele><time>2026-03-28T10:55:06.297Z</time></trkpt><trkpt lat="41.3953634" lon="1.7402799"><ele>181.33333333333331</ele><time>2026-03-28T10:55:07.297Z</time></trkpt><trkpt lat="41.3952656" lon="1.7404593"><ele>180.66666666666666</ele><time>2026-03-28T10:55:08.297Z</time></trkpt><trkpt lat="41.3951635" lon="1.7406387"><ele>180.0</ele><time>2026-03-28T10:55:09.297Z</time></trkpt><trkpt lat="41.3950734" lon="1.7408059"><ele>180.0</ele><time>2026-03-28T10:55:10.297Z</time></trkpt><trkpt lat="41.3949919" lon="1.7409582"><ele>180.0</ele><time>2026-03-28T10:55:11.297Z</time></trkpt><trkpt lat="41.3949174" lon="1.7411026"><ele>180.0</ele><time>2026-03-28T10:55:12.296Z</time></trkpt><trkpt lat="41.3948516" lon="1.7412408"><ele>180.0</ele><time>2026-03-28T10:55:13.297Z</time></trkpt><trkpt lat="41.3947966" lon="1.7413844"><ele>179.25</ele><time>2026-03-28T10:55:14.297Z</time></trkpt><trkpt lat="41.3947464" lon="1.7415391"><ele>178.5</ele><time>2026-03-28T10:55:15.297Z</time></trkpt><trkpt lat="41.3946923" lon="1.7417013"><ele>177.75</ele><time>2026-03-28T10:55:16.297Z</time></trkpt><trkpt lat="41.3946322" lon="1.7418648"><ele>177.0</ele><time>2026-03-28T10:55:17.297Z</time></trkpt><trkpt lat="41.3945668" lon="1.7420461"><ele>181.66666666666666</ele><time>2026-03-28T10:55:18.297Z</time></trkpt><trkpt lat="41.394496" lon="1.7422434"><ele>186.33333333333331</ele><time>2026-03-28T10:55:19.297Z</time></trkpt><trkpt lat="41.394426" lon="1.7424558"><ele>191.0</ele><time>2026-03-28T10:55:20.297Z</time></trkpt><trkpt lat="41.3943605" lon="1.7426702"><ele>190.33333333333331</ele><time>2026-03-28T10:55:21.297Z</time></trkpt><trkpt lat="41.3943051" lon="1.7428818"><ele>189.66666666666666</ele><time>2026-03-28T10:55:22.297Z</time></trkpt><trkpt lat="41.394264" lon="1.7430784"><ele>189.0</ele><time>2026-03-28T10:55:23.297Z</time></trkpt><trkpt lat="41.3942177" lon="1.7432663"><ele>189.0</ele><time>2026-03-28T10:55:24.297Z</time></trkpt><trkpt lat="41.3941545" lon="1.7434501"><ele>189.0</ele><time>2026-03-28T10:55:25.297Z</time></trkpt><trkpt lat="41.3940654" lon="1.743632"><ele>189.0</ele><time>2026-03-28T10:55:26.297Z</time></trkpt><trkpt lat="41.3939577" lon="1.7438136"><ele>189.33333333333334</ele><time>2026-03-28T10:55:27.297Z</time></trkpt><trkpt lat="41.393851" lon="1.7439856"><ele>189.66666666666669</ele><time>2026-03-28T10:55:28.297Z</time></trkpt><trkpt lat="41.39375" lon="1.7441488"><ele>190.0</ele><time>2026-03-28T10:55:29.297Z</time></trkpt><trkpt lat="41.3936544" lon="1.7443065"><ele>189.5</ele><time>2026-03-28T10:55:30.297Z</time></trkpt><trkpt lat="41.3935625" lon="1.7444524"><ele>189.0</ele><time>2026-03-28T10:55:31.296Z</time></trkpt><trkpt lat="41.393475" lon="1.7445934"><ele>188.5</ele><time>2026-03-28T10:55:32.296Z</time></trkpt><trkpt lat="41.3933953" lon="1.7447228"><ele>188.0</ele><time>2026-03-28T10:55:33.297Z</time></trkpt><trkpt lat="41.3933178" lon="1.7448436"><ele>188.0</ele><time>2026-03-28T10:55:34.297Z</time></trkpt><trkpt lat="41.3932449" lon="1.7449477"><ele>188.0</ele><time>2026-03-28T10:55:35.297Z</time></trkpt><trkpt lat="41.3931742" lon="1.745032"><ele>188.0</ele><time>2026-03-28T10:55:36.297Z</time></trkpt><trkpt lat="41.3931017" lon="1.7450963"><ele>188.0</ele><time>2026-03-28T10:55:37.297Z</time></trkpt><trkpt lat="41.3930288" lon="1.7451374"><ele>188.0</ele><time>2026-03-28T10:55:38.297Z</time></trkpt><trkpt lat="41.3929691" lon="1.7451772"><ele>188.0</ele><time>2026-03-28T10:55:39.297Z</time></trkpt><trkpt lat="41.3929068" lon="1.7452438"><ele>188.0</ele><time>2026-03-28T10:55:41.297Z</time></trkpt><trkpt lat="41.3928857" lon="1.745333"><ele>188.0</ele><time>2026-03-28T10:56:14.297Z</time></trkpt><trkpt lat="41.392884" lon="1.7454196"><ele>188.0</ele><time>2026-03-28T10:56:15.297Z</time></trkpt><trkpt lat="41.3929112" lon="1.7455138"><ele>188.0</ele><time>2026-03-28T10:56:16.296Z</time></trkpt><trkpt lat="41.3929522" lon="1.7456243"><ele>188.0</ele><time>2026-03-28T10:56:17.297Z</time></trkpt><trkpt lat="41.3930026" lon="1.7457643"><ele>188.0</ele><time>2026-03-28T10:56:18.297Z</time></trkpt><trkpt lat="41.3930627" lon="1.7459444"><ele>187.66666666666666</ele><time>2026-03-28T10:56:19.297Z</time></trkpt><trkpt lat="41.393122" lon="1.7461478"><ele>187.33333333333334</ele><time>2026-03-28T10:56:20.297Z</time></trkpt><trkpt lat="41.3931882" lon="1.7463826"><ele>187.0</ele><time>2026-03-28T10:56:21.297Z</time></trkpt><trkpt lat="41.3932587" lon="1.7466455"><ele>186.0</ele><time>2026-03-28T10:56:22.297Z</time></trkpt><trkpt lat="41.3933298" lon="1.7469213"><ele>185.0</ele><time>2026-03-28T10:56:23.297Z</time></trkpt><trkpt lat="41.3933992" lon="1.7472116"><ele>184.0</ele><time>2026-03-28T10:56:24.296Z</time></trkpt><trkpt lat="41.3934647" lon="1.7475097"><ele>182.33333333333334</ele><time>2026-03-28T10:56:25.297Z</time></trkpt><trkpt lat="41.3935337" lon="1.7477893"><ele>180.66666666666666</ele><time>2026-03-28T10:56:26.297Z</time></trkpt><trkpt lat="41.3935984" lon="1.7480559"><ele>179.0</ele><time>2026-03-28T10:56:27.297Z</time></trkpt><trkpt lat="41.3936542" lon="1.7483064"><ele>179.0</ele><time>2026-03-28T10:56:28.297Z</time></trkpt><trkpt lat="41.3937029" lon="1.7485373"><ele>179.0</ele><time>2026-03-28T10:56:29.297Z</time></trkpt><trkpt lat="41.3937455" lon="1.7487511"><ele>179.0</ele><time>2026-03-28T10:56:30.297Z</time></trkpt><trkpt lat="41.3937749" lon="1.7489469"><ele>178.0</ele><time>2026-03-28T10:56:31.297Z</time></trkpt><trkpt lat="41.3937986" lon="1.7491221"><ele>177.0</ele><time>2026-03-28T10:56:32.297Z</time></trkpt><trkpt lat="41.39382" lon="1.7492847"><ele>176.0</ele><time>2026-03-28T10:56:33.296Z</time></trkpt><trkpt lat="41.3938374" lon="1.7494448"><ele>175.0</ele><time>2026-03-28T10:56:34.297Z</time></trkpt><trkpt lat="41.3938505" lon="1.7495899"><ele>175.0</ele><time>2026-03-28T10:56:35.297Z</time></trkpt><trkpt lat="41.3938584" lon="1.7497207"><ele>175.0</ele><time>2026-03-28T10:56:36.297Z</time></trkpt><trkpt lat="41.393866" lon="1.7498541"><ele>175.0</ele><time>2026-03-28T10:56:37.297Z</time></trkpt><trkpt lat="41.3938739" lon="1.7499694"><ele>175.0</ele><time>2026-03-28T10:56:38.297Z</time></trkpt><trkpt lat="41.393883" lon="1.7500671"><ele>175.0</ele><time>2026-03-28T10:56:39.297Z</time></trkpt><trkpt lat="41.3938944" lon="1.7501619"><ele>175.0</ele><time>2026-03-28T10:56:40.297Z</time></trkpt><trkpt lat="41.3939182" lon="1.7502635"><ele>175.5</ele><time>2026-03-28T10:56:41.297Z</time></trkpt><trkpt lat="41.3939564" lon="1.7503662"><ele>176.0</ele><time>2026-03-28T10:56:42.297Z</time></trkpt><trkpt lat="41.3940097" lon="1.7504688"><ele>176.5</ele><time>2026-03-28T10:56:43.297Z</time></trkpt><trkpt lat="41.3940599" lon="1.7505392"><ele>177.0</ele><time>2026-03-28T10:56:44.297Z</time></trkpt><trkpt lat="41.3941244" lon="1.7506208"><ele>177.5</ele><time>2026-03-28T10:56:46.297Z</time></trkpt><trkpt lat="41.3941697" lon="1.7507023"><ele>178.0</ele><time>2026-03-28T10:59:28.296Z</time></trkpt><trkpt lat="41.3942433" lon="1.7506857"><ele>178.0</ele><time>2026-03-28T10:59:44.297Z</time></trkpt><trkpt lat="41.3942992" lon="1.7507681"><ele>178.0</ele><time>2026-03-28T10:59:46.297Z</time></trkpt><trkpt lat="41.3943382" lon="1.7508623"><ele>178.0</ele><time>2026-03-28T10:59:48.297Z</time></trkpt><trkpt lat="41.3943945" lon="1.7509677"><ele>178.0</ele><time>2026-03-28T10:59:51.297Z</time></trkpt><trkpt lat="41.3944551" lon="1.7510594"><ele>178.0</ele><time>2026-03-28T10:59:53.297Z</time></trkpt><trkpt lat="41.3945004" lon="1.7511255"><ele>178.0</ele><time>2026-03-28T10:59:55.297Z</time></trkpt><trkpt lat="41.3945765" lon="1.7512383"><ele>178.75</ele><time>2026-03-28T11:00:02.297Z</time></trkpt><trkpt lat="41.3946615" lon="1.7513544"><ele>179.5</ele><time>2026-03-28T11:00:04.296Z</time></trkpt><trkpt lat="41.3947425" lon="1.7514622"><ele>180.25</ele><time>2026-03-28T11:00:06.297Z</time></trkpt><trkpt lat="41.3948239" lon="1.7515707"><ele>181.0</ele><time>2026-03-28T11:00:08.297Z</time></trkpt><trkpt lat="41.3949072" lon="1.751672"><ele>181.0</ele><time>2026-03-28T11:00:10.297Z</time></trkpt><trkpt lat="41.3949558" lon="1.7517315"><ele>181.0</ele><time>2026-03-28T11:00:11.296Z</time></trkpt><trkpt lat="41.3950116" lon="1.7517963"><ele>181.0</ele><time>2026-03-28T11:00:12.297Z</time></trkpt><trkpt lat="41.3950779" lon="1.7518746"><ele>181.0</ele><time>2026-03-28T11:00:13.297Z</time></trkpt><trkpt lat="41.3951506" lon="1.7519586"><ele>181.0</ele><time>2026-03-28T11:00:14.297Z</time></trkpt><trkpt lat="41.3952321" lon="1.7520522"><ele>181.0</ele><time>2026-03-28T11:00:15.297Z</time></trkpt><trkpt lat="41.3953279" lon="1.7521536"><ele>181.0</ele><time>2026-03-28T11:00:16.297Z</time></trkpt><trkpt lat="41.3954417" lon="1.7522478"><ele>181.0</ele><time>2026-03-28T11:00:17.297Z</time></trkpt><trkpt lat="41.3955612" lon="1.7523327"><ele>181.0</ele><time>2026-03-28T11:00:18.296Z</time></trkpt><trkpt lat="41.3956889" lon="1.7524201"><ele>181.0</ele><time>2026-03-28T11:00:19.297Z</time></trkpt><trkpt lat="41.3958175" lon="1.7525117"><ele>181.66666666666669</ele><time>2026-03-28T11:00:20.297Z</time></trkpt><trkpt lat="41.3959643" lon="1.7526118"><ele>182.33333333333334</ele><time>2026-03-28T11:00:21.297Z</time></trkpt><trkpt lat="41.3961117" lon="1.7527146"><ele>183.0</ele><time>2026-03-28T11:00:22.297Z</time></trkpt><trkpt lat="41.3962617" lon="1.7528155"><ele>181.0</ele><time>2026-03-28T11:00:23.296Z</time></trkpt><trkpt lat="41.3964096" lon="1.7529186"><ele>179.0</ele><time>2026-03-28T11:00:24.297Z</time></trkpt><trkpt lat="41.3965555" lon="1.7530212"><ele>177.0</ele><time>2026-03-28T11:00:25.297Z</time></trkpt><trkpt lat="41.3966985" lon="1.7531173"><ele>177.0</ele><time>2026-03-28T11:00:26.297Z</time></trkpt><trkpt lat="41.3968377" lon="1.7532129"><ele>177.0</ele><time>2026-03-28T11:00:27.297Z</time></trkpt><trkpt lat="41.3969779" lon="1.7532937"><ele>177.0</ele><time>2026-03-28T11:00:28.296Z</time></trkpt><trkpt lat="41.3971302" lon="1.7533504"><ele>176.33333333333334</ele><time>2026-03-28T11:00:29.297Z</time></trkpt><trkpt lat="41.3973043" lon="1.7533883"><ele>175.66666666666669</ele><time>2026-03-28T11:00:30.297Z</time></trkpt><trkpt lat="41.397477" lon="1.7533956"><ele>175.0</ele><time>2026-03-28T11:00:31.297Z</time></trkpt><trkpt lat="41.3976422" lon="1.753381"><ele>175.0</ele><time>2026-03-28T11:00:32.296Z</time></trkpt><trkpt lat="41.3977988" lon="1.7533465"><ele>175.0</ele><time>2026-03-28T11:00:33.296Z</time></trkpt><trkpt lat="41.3979478" lon="1.753315"><ele>175.0</ele><time>2026-03-28T11:00:34.297Z</time></trkpt><trkpt lat="41.3980929" lon="1.7532919"><ele>173.66666666666669</ele><time>2026-03-28T11:00:35.297Z</time></trkpt><trkpt lat="41.3982418" lon="1.7532853"><ele>172.33333333333334</ele><time>2026-03-28T11:00:36.297Z</time></trkpt><trkpt lat="41.3983985" lon="1.7532978"><ele>171.0</ele><time>2026-03-28T11:00:37.297Z</time></trkpt><trkpt lat="41.3985627" lon="1.7533431"><ele>171.0</ele><time>2026-03-28T11:00:38.297Z</time></trkpt><trkpt lat="41.3987281" lon="1.7534163"><ele>171.0</ele><time>2026-03-28T11:00:39.297Z</time></trkpt><trkpt lat="41.3988866" lon="1.7535025"><ele>171.0</ele><time>2026-03-28T11:00:40.297Z</time></trkpt><trkpt lat="41.3990467" lon="1.7535973"><ele>168.66666666666666</ele><time>2026-03-28T11:00:41.297Z</time></trkpt><trkpt lat="41.3992127" lon="1.753708"><ele>166.33333333333331</ele><time>2026-03-28T11:00:42.297Z</time></trkpt><trkpt lat="41.3993937" lon="1.7538302"><ele>164.0</ele><time>2026-03-28T11:00:43.297Z</time></trkpt><trkpt lat="41.3995806" lon="1.7539605"><ele>167.0</ele><time>2026-03-28T11:00:44.296Z</time></trkpt><trkpt lat="41.3997711" lon="1.7541183"><ele>170.0</ele><time>2026-03-28T11:00:45.297Z</time></trkpt><trkpt lat="41.3999596" lon="1.7543092"><ele>170.0</ele><time>2026-03-28T11:00:46.297Z</time></trkpt><trkpt lat="41.4001357" lon="1.7545301"><ele>170.0</ele><time>2026-03-28T11:00:47.297Z</time></trkpt><trkpt lat="41.4002863" lon="1.7547477"><ele>170.0</ele><time>2026-03-28T11:00:48.297Z</time></trkpt><trkpt lat="41.4004264" lon="1.7549571"><ele>170.0</ele><time>2026-03-28T11:00:49.297Z</time></trkpt><trkpt lat="41.4005597" lon="1.7551538"><ele>170.0</ele><time>2026-03-28T11:00:50.297Z</time></trkpt><trkpt lat="41.4006774" lon="1.7553415"><ele>173.66666666666666</ele><time>2026-03-28T11:00:51.297Z</time></trkpt><trkpt lat="41.4007891" lon="1.75552"><ele>177.33333333333334</ele><time>2026-03-28T11:00:52.297Z</time></trkpt><trkpt lat="41.4008961" lon="1.7556909"><ele>181.0</ele><time>2026-03-28T11:00:53.297Z</time></trkpt><trkpt lat="41.4010013" lon="1.755859"><ele>181.0</ele><time>2026-03-28T11:00:54.297Z</time></trkpt><trkpt lat="41.4011045" lon="1.7560241"><ele>181.0</ele><time>2026-03-28T11:00:55.297Z</time></trkpt><trkpt lat="41.4012042" lon="1.756183"><ele>181.0</ele><time>2026-03-28T11:00:56.297Z</time></trkpt><trkpt lat="41.4013052" lon="1.7563434"><ele>182.66666666666669</ele><time>2026-03-28T11:00:57.297Z</time></trkpt><trkpt lat="41.4014198" lon="1.7565079"><ele>184.33333333333334</ele><time>2026-03-28T11:00:58.297Z</time></trkpt><trkpt lat="41.4015374" lon="1.7566666"><ele>186.0</ele><time>2026-03-28T11:00:59.297Z</time></trkpt><trkpt lat="41.4016565" lon="1.7568068"><ele>186.66666666666666</ele><time>2026-03-28T11:01:00.296Z</time></trkpt><trkpt lat="41.4017793" lon="1.7569332"><ele>187.33333333333331</ele><time>2026-03-28T11:01:01.297Z</time></trkpt><trkpt lat="41.4019077" lon="1.7570519"><ele>188.0</ele><time>2026-03-28T11:01:02.296Z</time></trkpt><trkpt lat="41.4020529" lon="1.7571638"><ele>188.66666666666666</ele><time>2026-03-28T11:01:03.297Z</time></trkpt><trkpt lat="41.4022161" lon="1.7572715"><ele>189.33333333333334</ele><time>2026-03-28T11:01:04.297Z</time></trkpt><trkpt lat="41.4023815" lon="1.7573578"><ele>190.0</ele><time>2026-03-28T11:01:05.297Z</time></trkpt><trkpt lat="41.4025542" lon="1.7574346"><ele>190.0</ele><time>2026-03-28T11:01:06.297Z</time></trkpt><trkpt lat="41.4027283" lon="1.7574977"><ele>190.0</ele><time>2026-03-28T11:01:07.297Z</time></trkpt><trkpt lat="41.4029042" lon="1.7575518"><ele>190.0</ele><time>2026-03-28T11:01:08.297Z</time></trkpt><trkpt lat="41.4030833" lon="1.7576122"><ele>190.33333333333334</ele><time>2026-03-28T11:01:09.297Z</time></trkpt><trkpt lat="41.4032656" lon="1.7576703"><ele>190.66666666666666</ele><time>2026-03-28T11:01:10.297Z</time></trkpt><trkpt lat="41.4034552" lon="1.7577236"><ele>191.0</ele><time>2026-03-28T11:01:11.297Z</time></trkpt><trkpt lat="41.403637" lon="1.7577762"><ele>191.66666666666666</ele><time>2026-03-28T11:01:12.297Z</time></trkpt><trkpt lat="41.4038165" lon="1.75783"><ele>192.33333333333331</ele><time>2026-03-28T11:01:13.296Z</time></trkpt><trkpt lat="41.4039936" lon="1.7578836"><ele>193.0</ele><time>2026-03-28T11:01:14.297Z</time></trkpt><trkpt lat="41.4041676" lon="1.7579346"><ele>193.66666666666666</ele><time>2026-03-28T11:01:15.297Z</time></trkpt><trkpt lat="41.4043423" lon="1.7579775"><ele>194.33333333333331</ele><time>2026-03-28T11:01:16.296Z</time></trkpt><trkpt lat="41.404503" lon="1.7580203"><ele>195.0</ele><time>2026-03-28T11:01:17.297Z</time></trkpt><trkpt lat="41.4046583" lon="1.7580456"><ele>195.5</ele><time>2026-03-28T11:01:18.297Z</time></trkpt><trkpt lat="41.4048006" lon="1.7580655"><ele>196.0</ele><time>2026-03-28T11:01:19.297Z</time></trkpt><trkpt lat="41.4049272" lon="1.7580817"><ele>196.5</ele><time>2026-03-28T11:01:20.296Z</time></trkpt><trkpt lat="41.4050396" lon="1.7580968"><ele>197.0</ele><time>2026-03-28T11:01:21.297Z</time></trkpt><trkpt lat="41.4051401" lon="1.7581107"><ele>197.0</ele><time>2026-03-28T11:01:22.297Z</time></trkpt><trkpt lat="41.4052431" lon="1.758127"><ele>197.0</ele><time>2026-03-28T11:01:23.297Z</time></trkpt><trkpt lat="41.4053504" lon="1.7581413"><ele>197.0</ele><time>2026-03-28T11:01:24.297Z</time></trkpt><trkpt lat="41.4054507" lon="1.7581553"><ele>197.0</ele><time>2026-03-28T11:01:25.297Z</time></trkpt><trkpt lat="41.4055477" lon="1.7581703"><ele>197.0</ele><time>2026-03-28T11:01:26.297Z</time></trkpt><trkpt lat="41.4056456" lon="1.758185"><ele>196.85714285714286</ele><time>2026-03-28T11:01:27.297Z</time></trkpt><trkpt lat="41.4057297" lon="1.7581999"><ele>196.71428571428572</ele><time>2026-03-28T11:01:28.296Z</time></trkpt><trkpt lat="41.4057932" lon="1.7582084"><ele>196.57142857142856</ele><time>2026-03-28T11:01:29.297Z</time></trkpt><trkpt lat="41.4058593" lon="1.7582122"><ele>196.42857142857144</ele><time>2026-03-28T11:01:32.297Z</time></trkpt><trkpt lat="41.4059354" lon="1.7581677"><ele>196.28571428571428</ele><time>2026-03-28T11:01:36.297Z</time></trkpt><trkpt lat="41.4059711" lon="1.7580923"><ele>196.14285714285714</ele><time>2026-03-28T11:01:37.297Z</time></trkpt><trkpt lat="41.405993" lon="1.7579857"><ele>196.0</ele><time>2026-03-28T11:01:38.297Z</time></trkpt><trkpt lat="41.4060012" lon="1.7578619"><ele>196.0</ele><time>2026-03-28T11:01:39.297Z</time></trkpt><trkpt lat="41.4060342" lon="1.7577198"><ele>196.0</ele><time>2026-03-28T11:01:40.297Z</time></trkpt><trkpt lat="41.4060955" lon="1.7575567"><ele>196.0</ele><time>2026-03-28T11:01:41.297Z</time></trkpt><trkpt lat="41.4061598" lon="1.757402"><ele>196.0</ele><time>2026-03-28T11:01:42.297Z</time></trkpt><trkpt lat="41.4062213" lon="1.7572494"><ele>197.0</ele><time>2026-03-28T11:01:43.296Z</time></trkpt><trkpt lat="41.4062836" lon="1.7571029"><ele>198.0</ele><time>2026-03-28T11:01:44.297Z</time></trkpt><trkpt lat="41.4063416" lon="1.7569592"><ele>199.0</ele><time>2026-03-28T11:01:45.297Z</time></trkpt><trkpt lat="41.4064007" lon="1.7568187"><ele>200.0</ele><time>2026-03-28T11:01:46.297Z</time></trkpt><trkpt lat="41.40646" lon="1.7566796"><ele>200.5</ele><time>2026-03-28T11:01:47.297Z</time></trkpt><trkpt lat="41.4065228" lon="1.756529"><ele>201.0</ele><time>2026-03-28T11:01:48.297Z</time></trkpt><trkpt lat="41.4065904" lon="1.7563723"><ele>201.5</ele><time>2026-03-28T11:01:49.297Z</time></trkpt><trkpt lat="41.4066581" lon="1.756208"><ele>202.0</ele><time>2026-03-28T11:01:50.296Z</time></trkpt><trkpt lat="41.4067276" lon="1.7560311"><ele>202.66666666666666</ele><time>2026-03-28T11:01:51.296Z</time></trkpt><trkpt lat="41.4068042" lon="1.7558431"><ele>203.33333333333331</ele><time>2026-03-28T11:01:52.297Z</time></trkpt><trkpt lat="41.4068826" lon="1.7556551"><ele>204.0</ele><time>2026-03-28T11:01:53.297Z</time></trkpt><trkpt lat="41.4069576" lon="1.7554663"><ele>204.0</ele><time>2026-03-28T11:01:54.297Z</time></trkpt><trkpt lat="41.4070347" lon="1.7552806"><ele>204.0</ele><time>2026-03-28T11:01:55.297Z</time></trkpt><trkpt lat="41.4071125" lon="1.7550966"><ele>204.0</ele><time>2026-03-28T11:01:56.297Z</time></trkpt><trkpt lat="41.4071889" lon="1.7549076"><ele>205.0</ele><time>2026-03-28T11:01:57.297Z</time></trkpt><trkpt lat="41.4072664" lon="1.7547158"><ele>206.0</ele><time>2026-03-28T11:01:58.297Z</time></trkpt><trkpt lat="41.4073461" lon="1.7545197"><ele>207.0</ele><time>2026-03-28T11:01:59.297Z</time></trkpt><trkpt lat="41.4074286" lon="1.7543194"><ele>207.0</ele><time>2026-03-28T11:02:00.297Z</time></trkpt><trkpt lat="41.4075123" lon="1.754113"><ele>207.0</ele><time>2026-03-28T11:02:01.297Z</time></trkpt><trkpt lat="41.4075969" lon="1.7539062"><ele>207.0</ele><time>2026-03-28T11:02:02.297Z</time></trkpt><trkpt lat="41.4076853" lon="1.7536961"><ele>206.0</ele><time>2026-03-28T11:02:03.297Z</time></trkpt><trkpt lat="41.4077726" lon="1.7534878"><ele>205.0</ele><time>2026-03-28T11:02:04.297Z</time></trkpt><trkpt lat="41.4078558" lon="1.75327"><ele>204.0</ele><time>2026-03-28T11:02:05.297Z</time></trkpt><trkpt lat="41.4079431" lon="1.7530546"><ele>204.66666666666669</ele><time>2026-03-28T11:02:06.297Z</time></trkpt><trkpt lat="41.4080348" lon="1.7528368"><ele>205.33333333333334</ele><time>2026-03-28T11:02:07.297Z</time></trkpt><trkpt lat="41.4081254" lon="1.7526177"><ele>206.0</ele><time>2026-03-28T11:02:08.296Z</time></trkpt><trkpt lat="41.4082158" lon="1.7523933"><ele>206.0</ele><time>2026-03-28T11:02:09.297Z</time></trkpt><trkpt lat="41.4083063" lon="1.7521663"><ele>206.0</ele><time>2026-03-28T11:02:10.297Z</time></trkpt><trkpt lat="41.4083978" lon="1.7519362"><ele>206.0</ele><time>2026-03-28T11:02:11.297Z</time></trkpt><trkpt lat="41.4084932" lon="1.7517031"><ele>205.66666666666669</ele><time>2026-03-28T11:02:12.297Z</time></trkpt><trkpt lat="41.4085845" lon="1.7514679"><ele>205.33333333333331</ele><time>2026-03-28T11:02:13.297Z</time></trkpt><trkpt lat="41.4086797" lon="1.7512356"><ele>205.0</ele><time>2026-03-28T11:02:14.297Z</time></trkpt><trkpt lat="41.4087757" lon="1.7510064"><ele>206.0</ele><time>2026-03-28T11:02:15.297Z</time></trkpt><trkpt lat="41.4088693" lon="1.750777"><ele>207.0</ele><time>2026-03-28T11:02:16.297Z</time></trkpt><trkpt lat="41.4089643" lon="1.7505451"><ele>208.0</ele><time>2026-03-28T11:02:17.297Z</time></trkpt><trkpt lat="41.4090671" lon="1.7503058"><ele>206.66666666666666</ele><time>2026-03-28T11:02:18.297Z</time></trkpt><trkpt lat="41.409169" lon="1.7500666"><ele>205.33333333333331</ele><time>2026-03-28T11:02:19.297Z</time></trkpt><trkpt lat="41.4092654" lon="1.7498317"><ele>204.0</ele><time>2026-03-28T11:02:20.297Z</time></trkpt><trkpt lat="41.4093565" lon="1.7496052"><ele>204.0</ele><time>2026-03-28T11:02:21.297Z</time></trkpt><trkpt lat="41.4094519" lon="1.7493791"><ele>204.0</ele><time>2026-03-28T11:02:22.297Z</time></trkpt><trkpt lat="41.4095451" lon="1.7491551"><ele>204.0</ele><time>2026-03-28T11:02:23.297Z</time></trkpt><trkpt lat="41.4096385" lon="1.7489318"><ele>204.66666666666669</ele><time>2026-03-28T11:02:24.297Z</time></trkpt><trkpt lat="41.4097268" lon="1.7487105"><ele>205.33333333333334</ele><time>2026-03-28T11:02:25.297Z</time></trkpt><trkpt lat="41.4098178" lon="1.7485004"><ele>206.0</ele><time>2026-03-28T11:02:26.297Z</time></trkpt><trkpt lat="41.409902" lon="1.7482917"><ele>206.0</ele><time>2026-03-28T11:02:27.297Z</time></trkpt><trkpt lat="41.409982" lon="1.7480929"><ele>206.0</ele><time>2026-03-28T11:02:28.297Z</time></trkpt><trkpt lat="41.4100624" lon="1.7478976"><ele>206.0</ele><time>2026-03-28T11:02:29.297Z</time></trkpt><trkpt lat="41.410143" lon="1.7477054"><ele>205.66666666666669</ele><time>2026-03-28T11:02:30.297Z</time></trkpt><trkpt lat="41.4102141" lon="1.7475052"><ele>205.33333333333331</ele><time>2026-03-28T11:02:31.297Z</time></trkpt><trkpt lat="41.41028" lon="1.7472786"><ele>205.0</ele><time>2026-03-28T11:02:32.297Z</time></trkpt><trkpt lat="41.4103425" lon="1.7470454"><ele>205.33333333333331</ele><time>2026-03-28T11:02:33.297Z</time></trkpt><trkpt lat="41.4103964" lon="1.7468104"><ele>205.66666666666669</ele><time>2026-03-28T11:02:34.297Z</time></trkpt><trkpt lat="41.4104488" lon="1.7465739"><ele>206.0</ele><time>2026-03-28T11:02:35.297Z</time></trkpt><trkpt lat="41.4104975" lon="1.7463404"><ele>206.0</ele><time>2026-03-28T11:02:36.297Z</time></trkpt><trkpt lat="41.4105481" lon="1.7461081"><ele>206.0</ele><time>2026-03-28T11:02:37.297Z</time></trkpt><trkpt lat="41.4105993" lon="1.7458782"><ele>206.0</ele><time>2026-03-28T11:02:38.297Z</time></trkpt><trkpt lat="41.4106464" lon="1.7456486"><ele>205.66666666666669</ele><time>2026-03-28T11:02:39.296Z</time></trkpt><trkpt lat="41.4106934" lon="1.7454321"><ele>205.33333333333331</ele><time>2026-03-28T11:02:40.297Z</time></trkpt><trkpt lat="41.4107384" lon="1.7452312"><ele>205.0</ele><time>2026-03-28T11:02:41.296Z</time></trkpt><trkpt lat="41.4107844" lon="1.7450355"><ele>205.0</ele><time>2026-03-28T11:02:42.297Z</time></trkpt><trkpt lat="41.4108208" lon="1.7448546"><ele>205.0</ele><time>2026-03-28T11:02:43.297Z</time></trkpt><trkpt lat="41.410841" lon="1.7446796"><ele>205.0</ele><time>2026-03-28T11:02:44.296Z</time></trkpt><trkpt lat="41.4108303" lon="1.7444966"><ele>205.0</ele><time>2026-03-28T11:02:45.297Z</time></trkpt><trkpt lat="41.4107875" lon="1.7443021"><ele>204.33333333333331</ele><time>2026-03-28T11:02:46.297Z</time></trkpt><trkpt lat="41.4107158" lon="1.7441092"><ele>203.66666666666669</ele><time>2026-03-28T11:02:47.297Z</time></trkpt><trkpt lat="41.4106243" lon="1.7439065"><ele>203.0</ele><time>2026-03-28T11:02:48.296Z</time></trkpt><trkpt lat="41.4105399" lon="1.743707"><ele>201.33333333333334</ele><time>2026-03-28T11:02:49.297Z</time></trkpt><trkpt lat="41.4104701" lon="1.7435047"><ele>199.66666666666669</ele><time>2026-03-28T11:02:50.297Z</time></trkpt><trkpt lat="41.4104155" lon="1.7432848"><ele>198.0</ele><time>2026-03-28T11:02:51.297Z</time></trkpt><trkpt lat="41.4103777" lon="1.7430688"><ele>198.0</ele><time>2026-03-28T11:02:52.297Z</time></trkpt><trkpt lat="41.4103572" lon="1.7428745"><ele>198.0</ele><time>2026-03-28T11:02:53.297Z</time></trkpt><trkpt lat="41.4103505" lon="1.7427017"><ele>198.0</ele><time>2026-03-28T11:02:54.297Z</time></trkpt><trkpt lat="41.4103517" lon="1.7425364"><ele>198.0</ele><time>2026-03-28T11:02:55.297Z</time></trkpt><trkpt lat="41.4103749" lon="1.7423839"><ele>198.75</ele><time>2026-03-28T11:02:56.297Z</time></trkpt><trkpt lat="41.4104302" lon="1.7422229"><ele>199.5</ele><time>2026-03-28T11:02:57.297Z</time></trkpt><trkpt lat="41.4105168" lon="1.7420669"><ele>200.25</ele><time>2026-03-28T11:02:58.297Z</time></trkpt><trkpt lat="41.4106161" lon="1.7419342"><ele>201.0</ele><time>2026-03-28T11:02:59.297Z</time></trkpt><trkpt lat="41.4107294" lon="1.7418094"><ele>198.75</ele><time>2026-03-28T11:03:00.297Z</time></trkpt><trkpt lat="41.4108381" lon="1.7416834"><ele>196.5</ele><time>2026-03-28T11:03:01.297Z</time></trkpt><trkpt lat="41.4109446" lon="1.7415657"><ele>194.25</ele><time>2026-03-28T11:03:02.297Z</time></trkpt><trkpt lat="41.4110445" lon="1.7414519"><ele>192.0</ele><time>2026-03-28T11:03:03.297Z</time></trkpt><trkpt lat="41.4111319" lon="1.7413284"><ele>192.0</ele><time>2026-03-28T11:03:04.297Z</time></trkpt><trkpt lat="41.4111929" lon="1.7411745"><ele>192.0</ele><time>2026-03-28T11:03:05.297Z</time></trkpt><trkpt lat="41.4112353" lon="1.7410068"><ele>192.0</ele><time>2026-03-28T11:03:06.297Z</time></trkpt><trkpt lat="41.4112353" lon="1.7408214"><ele>192.0</ele><time>2026-03-28T11:03:07.297Z</time></trkpt><trkpt lat="41.4112009" lon="1.740643"><ele>191.0</ele><time>2026-03-28T11:03:08.297Z</time></trkpt><trkpt lat="41.4111312" lon="1.7404837"><ele>190.0</ele><time>2026-03-28T11:03:09.297Z</time></trkpt><trkpt lat="41.4110362" lon="1.7403599"><ele>189.0</ele><time>2026-03-28T11:03:10.296Z</time></trkpt><trkpt lat="41.4109258" lon="1.740252"><ele>188.0</ele><time>2026-03-28T11:03:11.297Z</time></trkpt><trkpt lat="41.41083" lon="1.7401474"><ele>188.0</ele><time>2026-03-28T11:03:12.297Z</time></trkpt><trkpt lat="41.4107748" lon="1.7399919"><ele>188.0</ele><time>2026-03-28T11:03:13.297Z</time></trkpt><trkpt lat="41.4107521" lon="1.7398412"><ele>188.0</ele><time>2026-03-28T11:03:14.297Z</time></trkpt><trkpt lat="41.41077" lon="1.7396898"><ele>188.0</ele><time>2026-03-28T11:03:15.297Z</time></trkpt><trkpt lat="41.4108078" lon="1.7395403"><ele>189.25</ele><time>2026-03-28T11:03:16.297Z</time></trkpt><trkpt lat="41.410895" lon="1.7393747"><ele>190.5</ele><time>2026-03-28T11:03:17.297Z</time></trkpt><trkpt lat="41.4109745" lon="1.7392135"><ele>191.75</ele><time>2026-03-28T11:03:18.297Z</time></trkpt><trkpt lat="41.4110443" lon="1.7390473"><ele>193.0</ele><time>2026-03-28T11:03:19.297Z</time></trkpt><trkpt lat="41.4111116" lon="1.7388645"><ele>193.0</ele><time>2026-03-28T11:03:20.296Z</time></trkpt><trkpt lat="41.4111731" lon="1.738677"><ele>193.0</ele><time>2026-03-28T11:03:21.297Z</time></trkpt><trkpt lat="41.4112388" lon="1.7384899"><ele>193.0</ele><time>2026-03-28T11:03:22.297Z</time></trkpt><trkpt lat="41.4113246" lon="1.7383203"><ele>193.0</ele><time>2026-03-28T11:03:23.297Z</time></trkpt><trkpt lat="41.4114307" lon="1.738197"><ele>193.0</ele><time>2026-03-28T11:03:24.297Z</time></trkpt><trkpt lat="41.4115516" lon="1.7381055"><ele>193.0</ele><time>2026-03-28T11:03:25.297Z</time></trkpt><trkpt lat="41.4116725" lon="1.7380476"><ele>193.0</ele><time>2026-03-28T11:03:26.297Z</time></trkpt><trkpt lat="41.4117978" lon="1.7380203"><ele>193.0</ele><time>2026-03-28T11:03:27.297Z</time></trkpt><trkpt lat="41.4119276" lon="1.7380151"><ele>193.0</ele><time>2026-03-28T11:03:28.297Z</time></trkpt><trkpt lat="41.4120559" lon="1.7380221"><ele>193.0</ele><time>2026-03-28T11:03:29.297Z</time></trkpt><trkpt lat="41.4121774" lon="1.7380194"><ele>193.0</ele><time>2026-03-28T11:03:30.297Z</time></trkpt><trkpt lat="41.4122948" lon="1.7379997"><ele>193.75</ele><time>2026-03-28T11:03:31.297Z</time></trkpt><trkpt lat="41.4124017" lon="1.7379598"><ele>194.5</ele><time>2026-03-28T11:03:32.297Z</time></trkpt><trkpt lat="41.412501" lon="1.7378854"><ele>195.25</ele><time>2026-03-28T11:03:33.296Z</time></trkpt><trkpt lat="41.4125934" lon="1.7377672"><ele>196.0</ele><time>2026-03-28T11:03:34.297Z</time></trkpt><trkpt lat="41.4126791" lon="1.7376075"><ele>197.66666666666666</ele><time>2026-03-28T11:03:35.297Z</time></trkpt><trkpt lat="41.4127574" lon="1.7374342"><ele>199.33333333333331</ele><time>2026-03-28T11:03:36.297Z</time></trkpt><trkpt lat="41.4128396" lon="1.7372484"><ele>201.0</ele><time>2026-03-28T11:03:37.297Z</time></trkpt><trkpt lat="41.4129271" lon="1.7370477"><ele>202.33333333333331</ele><time>2026-03-28T11:03:38.297Z</time></trkpt><trkpt lat="41.413012" lon="1.7368512"><ele>203.66666666666666</ele><time>2026-03-28T11:03:39.297Z</time></trkpt><trkpt lat="41.4130895" lon="1.736659"><ele>205.0</ele><time>2026-03-28T11:03:40.297Z</time></trkpt><trkpt lat="41.4131633" lon="1.7364877"><ele>205.0</ele><time>2026-03-28T11:03:41.296Z</time></trkpt><trkpt lat="41.4132334" lon="1.7363216"><ele>205.0</ele><time>2026-03-28T11:03:42.297Z</time></trkpt><trkpt lat="41.4133095" lon="1.7361542"><ele>205.0</ele><time>2026-03-28T11:03:43.297Z</time></trkpt><trkpt lat="41.4133992" lon="1.7359642"><ele>206.0</ele><time>2026-03-28T11:03:44.297Z</time></trkpt><trkpt lat="41.4134854" lon="1.7357612"><ele>207.0</ele><time>2026-03-28T11:03:45.297Z</time></trkpt><trkpt lat="41.4135758" lon="1.7355516"><ele>208.0</ele><time>2026-03-28T11:03:46.297Z</time></trkpt><trkpt lat="41.4136766" lon="1.7353167"><ele>208.0</ele><time>2026-03-28T11:03:47.297Z</time></trkpt><trkpt lat="41.4137744" lon="1.7350736"><ele>208.0</ele><time>2026-03-28T11:03:48.296Z</time></trkpt><trkpt lat="41.413881" lon="1.7348203"><ele>208.0</ele><time>2026-03-28T11:03:49.297Z</time></trkpt><trkpt lat="41.4139962" lon="1.7345472"><ele>209.5</ele><time>2026-03-28T11:03:50.297Z</time></trkpt><trkpt lat="41.4141145" lon="1.7342744"><ele>211.0</ele><time>2026-03-28T11:03:51.297Z</time></trkpt><trkpt lat="41.4142309" lon="1.7340198"><ele>211.0</ele><time>2026-03-28T11:03:52.296Z</time></trkpt><trkpt lat="41.4143323" lon="1.7337802"><ele>211.0</ele><time>2026-03-28T11:03:53.297Z</time></trkpt><trkpt lat="41.4144302" lon="1.7335547"><ele>211.0</ele><time>2026-03-28T11:03:54.296Z</time></trkpt><trkpt lat="41.4145223" lon="1.7333458"><ele>211.33333333333331</ele><time>2026-03-28T11:03:55.297Z</time></trkpt><trkpt lat="41.4146037" lon="1.7331473"><ele>211.66666666666669</ele><time>2026-03-28T11:03:56.297Z</time></trkpt><trkpt lat="41.4146973" lon="1.7329496"><ele>212.0</ele><time>2026-03-28T11:03:57.296Z</time></trkpt><trkpt lat="41.4148137" lon="1.7327515"><ele>211.66666666666669</ele><time>2026-03-28T11:03:58.297Z</time></trkpt><trkpt lat="41.4149354" lon="1.7325618"><ele>211.33333333333331</ele><time>2026-03-28T11:03:59.297Z</time></trkpt><trkpt lat="41.4150512" lon="1.7323857"><ele>211.0</ele><time>2026-03-28T11:04:00.297Z</time></trkpt><trkpt lat="41.4151679" lon="1.7322145"><ele>211.0</ele><time>2026-03-28T11:04:01.297Z</time></trkpt><trkpt lat="41.4152857" lon="1.7320399"><ele>211.0</ele><time>2026-03-28T11:04:02.297Z</time></trkpt><trkpt lat="41.4154036" lon="1.7318694"><ele>211.0</ele><time>2026-03-28T11:04:03.296Z</time></trkpt><trkpt lat="41.4155179" lon="1.7316995"><ele>213.0</ele><time>2026-03-28T11:04:04.297Z</time></trkpt><trkpt lat="41.4156314" lon="1.7315285"><ele>215.0</ele><time>2026-03-28T11:04:05.297Z</time></trkpt><trkpt lat="41.4157476" lon="1.731359"><ele>217.0</ele><time>2026-03-28T11:04:06.297Z</time></trkpt><trkpt lat="41.4158647" lon="1.7311912"><ele>217.66666666666666</ele><time>2026-03-28T11:04:07.297Z</time></trkpt><trkpt lat="41.4159777" lon="1.7310307"><ele>218.33333333333331</ele><time>2026-03-28T11:04:08.296Z</time></trkpt><trkpt lat="41.4160875" lon="1.7308695"><ele>219.0</ele><time>2026-03-28T11:04:09.297Z</time></trkpt><trkpt lat="41.4161971" lon="1.7307116"><ele>219.0</ele><time>2026-03-28T11:04:10.297Z</time></trkpt><trkpt lat="41.4163044" lon="1.7305565"><ele>219.0</ele><time>2026-03-28T11:04:11.296Z</time></trkpt><trkpt lat="41.41641" lon="1.7303966"><ele>219.0</ele><time>2026-03-28T11:04:12.297Z</time></trkpt><trkpt lat="41.4165183" lon="1.7302354"><ele>220.33333333333331</ele><time>2026-03-28T11:04:13.297Z</time></trkpt><trkpt lat="41.4166292" lon="1.7300707"><ele>221.66666666666666</ele><time>2026-03-28T11:04:14.297Z</time></trkpt><trkpt lat="41.4167401" lon="1.7299047"><ele>223.0</ele><time>2026-03-28T11:04:15.296Z</time></trkpt><trkpt lat="41.4168535" lon="1.7297414"><ele>223.0</ele><time>2026-03-28T11:04:16.297Z</time></trkpt><trkpt lat="41.4169579" lon="1.7295876"><ele>223.0</ele><time>2026-03-28T11:04:17.297Z</time></trkpt><trkpt lat="41.4170582" lon="1.7294447"><ele>223.0</ele><time>2026-03-28T11:04:18.296Z</time></trkpt><trkpt lat="41.4171543" lon="1.7293088"><ele>223.0</ele><time>2026-03-28T11:04:19.297Z</time></trkpt><trkpt lat="41.4172442" lon="1.7291703"><ele>223.75</ele><time>2026-03-28T11:04:20.297Z</time></trkpt><trkpt lat="41.4173347" lon="1.7290383"><ele>224.5</ele><time>2026-03-28T11:04:21.297Z</time></trkpt><trkpt lat="41.4174231" lon="1.7289106"><ele>225.25</ele><time>2026-03-28T11:04:22.297Z</time></trkpt><trkpt lat="41.4175093" lon="1.728776"><ele>226.0</ele><time>2026-03-28T11:04:23.297Z</time></trkpt><trkpt lat="41.4175938" lon="1.7286536"><ele>226.0</ele><time>2026-03-28T11:04:24.297Z</time></trkpt><trkpt lat="41.417677" lon="1.728537"><ele>226.0</ele><time>2026-03-28T11:04:25.297Z</time></trkpt><trkpt lat="41.4177575" lon="1.7284178"><ele>226.0</ele><time>2026-03-28T11:04:26.297Z</time></trkpt><trkpt lat="41.4178327" lon="1.7283034"><ele>226.0</ele><time>2026-03-28T11:04:27.297Z</time></trkpt><trkpt lat="41.4179035" lon="1.7281996"><ele>226.0</ele><time>2026-03-28T11:04:28.297Z</time></trkpt><trkpt lat="41.4179658" lon="1.7280995"><ele>226.00000000000003</ele><time>2026-03-28T11:04:29.297Z</time></trkpt><trkpt lat="41.4180239" lon="1.7280018"><ele>226.00000000000003</ele><time>2026-03-28T11:04:30.297Z</time></trkpt><trkpt lat="41.4180842" lon="1.7279089"><ele>226.0</ele><time>2026-03-28T11:04:31.296Z</time></trkpt><trkpt lat="41.4181425" lon="1.7278118"><ele>226.0</ele><time>2026-03-28T11:04:32.296Z</time></trkpt><trkpt lat="41.4181999" lon="1.7277104"><ele>227.0</ele><time>2026-03-28T11:04:33.297Z</time></trkpt><trkpt lat="41.4182568" lon="1.7276166"><ele>228.00000000000003</ele><time>2026-03-28T11:04:34.297Z</time></trkpt><trkpt lat="41.4183101" lon="1.727523"><ele>229.00000000000003</ele><time>2026-03-28T11:04:35.297Z</time></trkpt><trkpt lat="41.4183637" lon="1.7274257"><ele>230.0</ele><time>2026-03-28T11:04:36.297Z</time></trkpt><trkpt lat="41.4184216" lon="1.7273282"><ele>231.0</ele><time>2026-03-28T11:04:37.297Z</time></trkpt><trkpt lat="41.4184758" lon="1.7272279"><ele>231.0</ele><time>2026-03-28T11:04:38.296Z</time></trkpt><trkpt lat="41.4185246" lon="1.727131"><ele>231.00000000000003</ele><time>2026-03-28T11:04:39.297Z</time></trkpt><trkpt lat="41.418576" lon="1.727034"><ele>231.00000000000003</ele><time>2026-03-28T11:04:40.297Z</time></trkpt><trkpt lat="41.4186352" lon="1.7269409"><ele>231.0</ele><time>2026-03-28T11:04:41.297Z</time></trkpt><trkpt lat="41.4186923" lon="1.7268493"><ele>231.0</ele><time>2026-03-28T11:04:42.296Z</time></trkpt><trkpt lat="41.4187468" lon="1.7267475"><ele>231.0</ele><time>2026-03-28T11:04:43.297Z</time></trkpt><trkpt lat="41.4188059" lon="1.7266447"><ele>231.00000000000003</ele><time>2026-03-28T11:04:44.296Z</time></trkpt><trkpt lat="41.4188711" lon="1.7265455"><ele>231.00000000000003</ele><time>2026-03-28T11:04:45.297Z</time></trkpt><trkpt lat="41.4189377" lon="1.726446"><ele>231.0</ele><time>2026-03-28T11:04:46.297Z</time></trkpt><trkpt lat="41.4190101" lon="1.7263542"><ele>231.0</ele><time>2026-03-28T11:04:47.297Z</time></trkpt><trkpt lat="41.4190979" lon="1.7262544"><ele>231.0</ele><time>2026-03-28T11:04:48.297Z</time></trkpt><trkpt lat="41.4192042" lon="1.7261425"><ele>231.0</ele><time>2026-03-28T11:04:49.297Z</time></trkpt><trkpt lat="41.4193189" lon="1.7260322"><ele>231.0</ele><time>2026-03-28T11:04:50.297Z</time></trkpt><trkpt lat="41.4194465" lon="1.7259095"><ele>231.0</ele><time>2026-03-28T11:04:51.296Z</time></trkpt><trkpt lat="41.4195723" lon="1.7257858"><ele>231.0</ele><time>2026-03-28T11:04:52.297Z</time></trkpt><trkpt lat="41.4196966" lon="1.7256622"><ele>231.0</ele><time>2026-03-28T11:04:53.296Z</time></trkpt><trkpt lat="41.4198207" lon="1.7255334"><ele>231.0</ele><time>2026-03-28T11:04:54.297Z</time></trkpt><trkpt lat="41.4199441" lon="1.7254063"><ele>231.0</ele><time>2026-03-28T11:04:55.297Z</time></trkpt><trkpt lat="41.4200738" lon="1.725279"><ele>231.0</ele><time>2026-03-28T11:04:56.297Z</time></trkpt><trkpt lat="41.42021" lon="1.7251439"><ele>231.0</ele><time>2026-03-28T11:04:57.297Z</time></trkpt><trkpt lat="41.4203402" lon="1.7250148"><ele>231.25</ele><time>2026-03-28T11:04:58.297Z</time></trkpt><trkpt lat="41.4204639" lon="1.724895"><ele>231.5</ele><time>2026-03-28T11:04:59.297Z</time></trkpt><trkpt lat="41.420583" lon="1.7247762"><ele>231.75</ele><time>2026-03-28T11:05:00.297Z</time></trkpt><trkpt lat="41.4206961" lon="1.7246662"><ele>232.0</ele><time>2026-03-28T11:05:01.297Z</time></trkpt><trkpt lat="41.4208051" lon="1.7245546"><ele>232.0</ele><time>2026-03-28T11:05:02.296Z</time></trkpt><trkpt lat="41.4209148" lon="1.7244447"><ele>232.0</ele><time>2026-03-28T11:05:03.296Z</time></trkpt><trkpt lat="41.4210369" lon="1.7243189"><ele>232.0</ele><time>2026-03-28T11:05:04.297Z</time></trkpt><trkpt lat="41.4211678" lon="1.7241906"><ele>232.66666666666666</ele><time>2026-03-28T11:05:05.297Z</time></trkpt><trkpt lat="41.4213006" lon="1.7240555"><ele>233.33333333333331</ele><time>2026-03-28T11:05:06.297Z</time></trkpt><trkpt lat="41.4214342" lon="1.7239197"><ele>234.0</ele><time>2026-03-28T11:05:07.297Z</time></trkpt><trkpt lat="41.4215669" lon="1.7237851"><ele>234.0</ele><time>2026-03-28T11:05:08.297Z</time></trkpt><trkpt lat="41.4216978" lon="1.7236532"><ele>234.0</ele><time>2026-03-28T11:05:09.297Z</time></trkpt><trkpt lat="41.4218114" lon="1.7235359"><ele>234.0</ele><time>2026-03-28T11:05:10.297Z</time></trkpt><trkpt lat="41.4218982" lon="1.723449"><ele>234.0</ele><time>2026-03-28T11:05:11.297Z</time></trkpt><trkpt lat="41.4219622" lon="1.7233853"><ele>233.71428571428572</ele><time>2026-03-28T11:05:12.297Z</time></trkpt><trkpt lat="41.422014" lon="1.7233329"><ele>233.42857142857144</ele><time>2026-03-28T11:05:13.297Z</time></trkpt><trkpt lat="41.4220947" lon="1.7232506"><ele>233.14285714285717</ele><time>2026-03-28T11:05:15.297Z</time></trkpt><trkpt lat="41.4221499" lon="1.7231971"><ele>232.8571428571429</ele><time>2026-03-28T11:05:17.297Z</time></trkpt><trkpt lat="41.4222097" lon="1.7231282"><ele>232.57142857142858</ele><time>2026-03-28T11:05:20.297Z</time></trkpt><trkpt lat="41.4221985" lon="1.7230421"><ele>232.28571428571433</ele><time>2026-03-28T11:05:22.297Z</time></trkpt><trkpt lat="41.4221498" lon="1.722979"><ele>232.00000000000003</ele><time>2026-03-28T11:05:23.297Z</time></trkpt><trkpt lat="41.4220721" lon="1.7229059"><ele>232.0</ele><time>2026-03-28T11:05:24.297Z</time></trkpt><trkpt lat="41.4219874" lon="1.7228218"><ele>232.0</ele><time>2026-03-28T11:05:25.297Z</time></trkpt><trkpt lat="41.4218821" lon="1.7227098"><ele>232.0</ele><time>2026-03-28T11:05:26.297Z</time></trkpt><trkpt lat="41.4217618" lon="1.7225946"><ele>232.0</ele><time>2026-03-28T11:05:27.297Z</time></trkpt><trkpt lat="41.4216253" lon="1.7224998"><ele>231.33333333333331</ele><time>2026-03-28T11:05:28.297Z</time></trkpt><trkpt lat="41.4214729" lon="1.7224181"><ele>230.66666666666669</ele><time>2026-03-28T11:05:29.297Z</time></trkpt><trkpt lat="41.4213151" lon="1.7223364"><ele>230.0</ele><time>2026-03-28T11:05:30.297Z</time></trkpt><trkpt lat="41.4211619" lon="1.722256"><ele>230.0</ele><time>2026-03-28T11:05:31.297Z</time></trkpt><trkpt lat="41.4210207" lon="1.7221779"><ele>230.0</ele><time>2026-03-28T11:05:32.297Z</time></trkpt><trkpt lat="41.4208976" lon="1.7220727"><ele>230.0</ele><time>2026-03-28T11:05:33.297Z</time></trkpt><trkpt lat="41.4208101" lon="1.7219073"><ele>228.0</ele><time>2026-03-28T11:05:34.297Z</time></trkpt><trkpt lat="41.4207383" lon="1.7217298"><ele>226.0</ele><time>2026-03-28T11:05:35.297Z</time></trkpt><trkpt lat="41.4206691" lon="1.7215616"><ele>224.0</ele><time>2026-03-28T11:05:36.297Z</time></trkpt><trkpt lat="41.420584" lon="1.7214266"><ele>222.0</ele><time>2026-03-28T11:05:37.297Z</time></trkpt><trkpt lat="41.4204801" lon="1.7213243"><ele>221.0</ele><time>2026-03-28T11:05:38.296Z</time></trkpt><trkpt lat="41.4203515" lon="1.7212604"><ele>220.0</ele><time>2026-03-28T11:05:39.297Z</time></trkpt><trkpt lat="41.4202021" lon="1.7212329"><ele>219.0</ele><time>2026-03-28T11:05:40.297Z</time></trkpt><trkpt lat="41.4200275" lon="1.7212362"><ele>219.0</ele><time>2026-03-28T11:05:41.297Z</time></trkpt><trkpt lat="41.4198575" lon="1.7212202"><ele>219.0</ele><time>2026-03-28T11:05:42.297Z</time></trkpt><trkpt lat="41.4197005" lon="1.7211864"><ele>219.0</ele><time>2026-03-28T11:05:43.297Z</time></trkpt><trkpt lat="41.4195706" lon="1.7211249"><ele>219.5</ele><time>2026-03-28T11:05:44.297Z</time></trkpt><trkpt lat="41.4194687" lon="1.7210198"><ele>220.0</ele><time>2026-03-28T11:05:45.297Z</time></trkpt><trkpt lat="41.4193855" lon="1.72087"><ele>220.5</ele><time>2026-03-28T11:05:46.297Z</time></trkpt><trkpt lat="41.4193296" lon="1.7207019"><ele>221.0</ele><time>2026-03-28T11:05:47.297Z</time></trkpt><trkpt lat="41.4193076" lon="1.72051"><ele>221.0</ele><time>2026-03-28T11:05:48.297Z</time></trkpt><trkpt lat="41.4193154" lon="1.7203048"><ele>221.0</ele><time>2026-03-28T11:05:49.297Z</time></trkpt><trkpt lat="41.4193462" lon="1.7200915"><ele>221.0</ele><time>2026-03-28T11:05:50.297Z</time></trkpt><trkpt lat="41.4193903" lon="1.7198646"><ele>222.33333333333334</ele><time>2026-03-28T11:05:51.297Z</time></trkpt><trkpt lat="41.4194318" lon="1.7196474"><ele>223.66666666666669</ele><time>2026-03-28T11:05:52.297Z</time></trkpt><trkpt lat="41.4194728" lon="1.7194277"><ele>225.0</ele><time>2026-03-28T11:05:53.297Z</time></trkpt><trkpt lat="41.4195201" lon="1.719196"><ele>225.33333333333331</ele><time>2026-03-28T11:05:54.297Z</time></trkpt><trkpt lat="41.4195657" lon="1.7189482"><ele>225.66666666666666</ele><time>2026-03-28T11:05:55.297Z</time></trkpt><trkpt lat="41.4196082" lon="1.7187161"><ele>226.0</ele><time>2026-03-28T11:05:56.297Z</time></trkpt><trkpt lat="41.4196491" lon="1.7184952"><ele>227.0</ele><time>2026-03-28T11:05:57.297Z</time></trkpt><trkpt lat="41.4196863" lon="1.718279"><ele>228.0</ele><time>2026-03-28T11:05:58.297Z</time></trkpt><trkpt lat="41.4197242" lon="1.7180653"><ele>229.0</ele><time>2026-03-28T11:05:59.297Z</time></trkpt><trkpt lat="41.4197579" lon="1.7178547"><ele>229.33333333333331</ele><time>2026-03-28T11:06:00.297Z</time></trkpt><trkpt lat="41.419793" lon="1.7176481"><ele>229.66666666666669</ele><time>2026-03-28T11:06:01.297Z</time></trkpt><trkpt lat="41.4198274" lon="1.7174548"><ele>230.0</ele><time>2026-03-28T11:06:02.296Z</time></trkpt><trkpt lat="41.41986" lon="1.717255"><ele>230.0</ele><time>2026-03-28T11:06:03.296Z</time></trkpt><trkpt lat="41.4198965" lon="1.7170602"><ele>230.0</ele><time>2026-03-28T11:06:04.296Z</time></trkpt><trkpt lat="41.4199308" lon="1.7168712"><ele>230.0</ele><time>2026-03-28T11:06:05.297Z</time></trkpt><trkpt lat="41.4199638" lon="1.7166919"><ele>230.0</ele><time>2026-03-28T11:06:06.297Z</time></trkpt><trkpt lat="41.4199953" lon="1.7165098"><ele>229.5</ele><time>2026-03-28T11:06:07.297Z</time></trkpt><trkpt lat="41.4200344" lon="1.716326"><ele>229.0</ele><time>2026-03-28T11:06:08.297Z</time></trkpt><trkpt lat="41.420084" lon="1.716139"><ele>228.5</ele><time>2026-03-28T11:06:09.297Z</time></trkpt><trkpt lat="41.4201382" lon="1.7159497"><ele>228.0</ele><time>2026-03-28T11:06:10.297Z</time></trkpt><trkpt lat="41.4201951" lon="1.7157642"><ele>224.33333333333331</ele><time>2026-03-28T11:06:11.297Z</time></trkpt><trkpt lat="41.4202548" lon="1.7155808"><ele>220.66666666666666</ele><time>2026-03-28T11:06:12.297Z</time></trkpt><trkpt lat="41.4203293" lon="1.7153993"><ele>217.0</ele><time>2026-03-28T11:06:13.297Z</time></trkpt><trkpt lat="41.4204246" lon="1.7152299"><ele>219.66666666666666</ele><time>2026-03-28T11:06:14.297Z</time></trkpt><trkpt lat="41.4205363" lon="1.7150822"><ele>222.33333333333331</ele><time>2026-03-28T11:06:15.297Z</time></trkpt><trkpt lat="41.4206499" lon="1.7149502"><ele>225.0</ele><time>2026-03-28T11:06:16.297Z</time></trkpt><trkpt lat="41.4207585" lon="1.7148118"><ele>225.0</ele><time>2026-03-28T11:06:17.297Z</time></trkpt><trkpt lat="41.4208642" lon="1.7146754"><ele>225.0</ele><time>2026-03-28T11:06:18.297Z</time></trkpt><trkpt lat="41.4209595" lon="1.7145327"><ele>225.0</ele><time>2026-03-28T11:06:19.297Z</time></trkpt><trkpt lat="41.4210385" lon="1.714367"><ele>225.0</ele><time>2026-03-28T11:06:20.297Z</time></trkpt><trkpt lat="41.4210996" lon="1.7141876"><ele>222.5</ele><time>2026-03-28T11:06:21.297Z</time></trkpt><trkpt lat="41.421143" lon="1.7140023"><ele>220.0</ele><time>2026-03-28T11:06:22.297Z</time></trkpt><trkpt lat="41.4211688" lon="1.7138148"><ele>217.5</ele><time>2026-03-28T11:06:23.297Z</time></trkpt><trkpt lat="41.4211689" lon="1.7136119"><ele>215.0</ele><time>2026-03-28T11:06:24.297Z</time></trkpt><trkpt lat="41.4211443" lon="1.7133834"><ele>215.0</ele><time>2026-03-28T11:06:25.297Z</time></trkpt><trkpt lat="41.4210913" lon="1.7131593"><ele>215.0</ele><time>2026-03-28T11:06:26.297Z</time></trkpt><trkpt lat="41.4210127" lon="1.7129466"><ele>215.0</ele><time>2026-03-28T11:06:27.297Z</time></trkpt><trkpt lat="41.4209192" lon="1.7127359"><ele>215.0</ele><time>2026-03-28T11:06:28.297Z</time></trkpt><trkpt lat="41.4208128" lon="1.7125025"><ele>215.0</ele><time>2026-03-28T11:06:29.297Z</time></trkpt><trkpt lat="41.4207081" lon="1.7122756"><ele>215.0</ele><time>2026-03-28T11:06:30.297Z</time></trkpt><trkpt lat="41.4206013" lon="1.7120486"><ele>215.0</ele><time>2026-03-28T11:06:31.297Z</time></trkpt><trkpt lat="41.4204986" lon="1.7118258"><ele>215.0</ele><time>2026-03-28T11:06:32.297Z</time></trkpt><trkpt lat="41.4203921" lon="1.7116046"><ele>215.0</ele><time>2026-03-28T11:06:33.297Z</time></trkpt><trkpt lat="41.4202869" lon="1.7113812"><ele>214.66666666666669</ele><time>2026-03-28T11:06:34.297Z</time></trkpt><trkpt lat="41.4201868" lon="1.7111709"><ele>214.33333333333331</ele><time>2026-03-28T11:06:35.297Z</time></trkpt><trkpt lat="41.4200929" lon="1.7109698"><ele>214.0</ele><time>2026-03-28T11:06:36.297Z</time></trkpt><trkpt lat="41.420003" lon="1.7107548"><ele>215.0</ele><time>2026-03-28T11:06:37.297Z</time></trkpt><trkpt lat="41.419938" lon="1.7105109"><ele>216.0</ele><time>2026-03-28T11:06:38.297Z</time></trkpt><trkpt lat="41.4199009" lon="1.7102514"><ele>217.0</ele><time>2026-03-28T11:06:39.297Z</time></trkpt><trkpt lat="41.4198859" lon="1.7099749"><ele>218.66666666666666</ele><time>2026-03-28T11:06:40.297Z</time></trkpt><trkpt lat="41.4198747" lon="1.7096859"><ele>220.33333333333331</ele><time>2026-03-28T11:06:41.297Z</time></trkpt><trkpt lat="41.4198556" lon="1.7094164"><ele>222.0</ele><time>2026-03-28T11:06:42.297Z</time></trkpt><trkpt lat="41.4198261" lon="1.7091677"><ele>223.0</ele><time>2026-03-28T11:06:43.296Z</time></trkpt><trkpt lat="41.4197678" lon="1.708944"><ele>224.0</ele><time>2026-03-28T11:06:44.297Z</time></trkpt><trkpt lat="41.4196779" lon="1.7087369"><ele>225.0</ele><time>2026-03-28T11:06:45.297Z</time></trkpt><trkpt lat="41.4195524" lon="1.7085454"><ele>226.0</ele><time>2026-03-28T11:06:46.297Z</time></trkpt><trkpt lat="41.4193952" lon="1.7083629"><ele>227.0</ele><time>2026-03-28T11:06:47.297Z</time></trkpt><trkpt lat="41.4192363" lon="1.7081771"><ele>228.0</ele><time>2026-03-28T11:06:48.297Z</time></trkpt><trkpt lat="41.4190822" lon="1.7080009"><ele>228.0</ele><time>2026-03-28T11:06:49.297Z</time></trkpt><trkpt lat="41.4189414" lon="1.7078355"><ele>228.0</ele><time>2026-03-28T11:06:50.297Z</time></trkpt><trkpt lat="41.4188075" lon="1.7076729"><ele>228.0</ele><time>2026-03-28T11:06:51.297Z</time></trkpt><trkpt lat="41.4186818" lon="1.7075197"><ele>229.0</ele><time>2026-03-28T11:06:52.297Z</time></trkpt><trkpt lat="41.4185579" lon="1.7073722"><ele>230.0</ele><time>2026-03-28T11:06:53.297Z</time></trkpt><trkpt lat="41.418434" lon="1.7072244"><ele>231.0</ele><time>2026-03-28T11:06:54.297Z</time></trkpt><trkpt lat="41.4183075" lon="1.7070797"><ele>231.0</ele><time>2026-03-28T11:06:55.297Z</time></trkpt><trkpt lat="41.4181778" lon="1.706942"><ele>231.0</ele><time>2026-03-28T11:06:56.297Z</time></trkpt><trkpt lat="41.4180373" lon="1.7067997"><ele>231.0</ele><time>2026-03-28T11:06:57.297Z</time></trkpt><trkpt lat="41.4178889" lon="1.7066457"><ele>232.33333333333331</ele><time>2026-03-28T11:06:58.297Z</time></trkpt><trkpt lat="41.4177414" lon="1.7064922"><ele>233.66666666666666</ele><time>2026-03-28T11:06:59.297Z</time></trkpt><trkpt lat="41.4176041" lon="1.7063477"><ele>235.0</ele><time>2026-03-28T11:07:00.297Z</time></trkpt><trkpt lat="41.4174765" lon="1.7062112"><ele>236.0</ele><time>2026-03-28T11:07:01.297Z</time></trkpt><trkpt lat="41.4173566" lon="1.7060583"><ele>237.0</ele><time>2026-03-28T11:07:02.297Z</time></trkpt><trkpt lat="41.4172533" lon="1.7058764"><ele>238.0</ele><time>2026-03-28T11:07:03.296Z</time></trkpt><trkpt lat="41.4171698" lon="1.7056593"><ele>237.0</ele><time>2026-03-28T11:07:04.296Z</time></trkpt><trkpt lat="41.4171089" lon="1.7054108"><ele>236.0</ele><time>2026-03-28T11:07:05.297Z</time></trkpt><trkpt lat="41.4170762" lon="1.7051528"><ele>235.0</ele><time>2026-03-28T11:07:06.296Z</time></trkpt><trkpt lat="41.4170808" lon="1.7048853"><ele>235.0</ele><time>2026-03-28T11:07:07.297Z</time></trkpt><trkpt lat="41.4171195" lon="1.7046164"><ele>235.0</ele><time>2026-03-28T11:07:08.297Z</time></trkpt><trkpt lat="41.4171861" lon="1.7043484"><ele>235.0</ele><time>2026-03-28T11:07:09.297Z</time></trkpt><trkpt lat="41.4172611" lon="1.70409"><ele>236.0</ele><time>2026-03-28T11:07:10.297Z</time></trkpt><trkpt lat="41.4173304" lon="1.7038196"><ele>237.0</ele><time>2026-03-28T11:07:11.297Z</time></trkpt><trkpt lat="41.4173853" lon="1.7035196"><ele>238.0</ele><time>2026-03-28T11:07:12.297Z</time></trkpt><trkpt lat="41.4174326" lon="1.7032041"><ele>239.5</ele><time>2026-03-28T11:07:13.297Z</time></trkpt><trkpt lat="41.4174909" lon="1.7028879"><ele>241.0</ele><time>2026-03-28T11:07:14.296Z</time></trkpt><trkpt lat="41.4175534" lon="1.7025926"><ele>241.66666666666666</ele><time>2026-03-28T11:07:15.297Z</time></trkpt><trkpt lat="41.4176126" lon="1.7023134"><ele>242.33333333333331</ele><time>2026-03-28T11:07:16.297Z</time></trkpt><trkpt lat="41.41766" lon="1.7020513"><ele>243.0</ele><time>2026-03-28T11:07:17.297Z</time></trkpt><trkpt lat="41.4177024" lon="1.7018074"><ele>243.0</ele><time>2026-03-28T11:07:18.296Z</time></trkpt><trkpt lat="41.417735" lon="1.7015676"><ele>243.0</ele><time>2026-03-28T11:07:19.297Z</time></trkpt><trkpt lat="41.4177563" lon="1.701328"><ele>243.0</ele><time>2026-03-28T11:07:20.297Z</time></trkpt><trkpt lat="41.4177613" lon="1.7010865"><ele>243.33333333333331</ele><time>2026-03-28T11:07:21.297Z</time></trkpt><trkpt lat="41.4177496" lon="1.7008516"><ele>243.66666666666666</ele><time>2026-03-28T11:07:22.297Z</time></trkpt><trkpt lat="41.4177272" lon="1.7006337"><ele>244.0</ele><time>2026-03-28T11:07:23.297Z</time></trkpt><trkpt lat="41.4177021" lon="1.7004201"><ele>244.75</ele><time>2026-03-28T11:07:24.297Z</time></trkpt><trkpt lat="41.4176818" lon="1.700216"><ele>245.5</ele><time>2026-03-28T11:07:25.297Z</time></trkpt><trkpt lat="41.417662" lon="1.7000189"><ele>246.25</ele><time>2026-03-28T11:07:26.297Z</time></trkpt><trkpt lat="41.4176396" lon="1.6998272"><ele>247.0</ele><time>2026-03-28T11:07:27.297Z</time></trkpt><trkpt lat="41.4176148" lon="1.6996289"><ele>247.0</ele><time>2026-03-28T11:07:28.297Z</time></trkpt><trkpt lat="41.4175866" lon="1.6994303"><ele>247.0</ele><time>2026-03-28T11:07:29.297Z</time></trkpt><trkpt lat="41.4433159" lon="1.684766"><ele>274.5</ele><time>2026-03-28T11:10:27.297Z</time></trkpt><trkpt lat="41.4435308" lon="1.6846485"><ele>302.0</ele><time>2026-03-28T11:10:28.297Z</time></trkpt><trkpt lat="41.4437495" lon="1.6845249"><ele>303.0</ele><time>2026-03-28T11:10:29.297Z</time></trkpt><trkpt lat="41.4439703" lon="1.6844062"><ele>304.0</ele><time>2026-03-28T11:10:30.297Z</time></trkpt><trkpt lat="41.4441891" lon="1.6842883"><ele>304.0</ele><time>2026-03-28T11:10:31.297Z</time></trkpt><trkpt lat="41.4444104" lon="1.6841712"><ele>304.0</ele><time>2026-03-28T11:10:32.297Z</time></trkpt><trkpt lat="41.4446426" lon="1.6840537"><ele>301.0</ele><time>2026-03-28T11:10:33.297Z</time></trkpt><trkpt lat="41.4448707" lon="1.6839372"><ele>298.0</ele><time>2026-03-28T11:10:34.297Z</time></trkpt><trkpt lat="41.4450972" lon="1.6838202"><ele>298.0</ele><time>2026-03-28T11:10:35.296Z</time></trkpt><trkpt lat="41.4453189" lon="1.6836967"><ele>298.0</ele><time>2026-03-28T11:10:36.297Z</time></trkpt><trkpt lat="41.4455355" lon="1.6835794"><ele>296.3333333333333</ele><time>2026-03-28T11:10:37.297Z</time></trkpt><trkpt lat="41.4457411" lon="1.6834715"><ele>294.6666666666667</ele><time>2026-03-28T11:10:38.297Z</time></trkpt><trkpt lat="41.4459424" lon="1.6833594"><ele>293.0</ele><time>2026-03-28T11:10:39.297Z</time></trkpt><trkpt lat="41.446131" lon="1.6832473"><ele>289.6666666666667</ele><time>2026-03-28T11:10:40.297Z</time></trkpt><trkpt lat="41.4463282" lon="1.6831371"><ele>286.3333333333333</ele><time>2026-03-28T11:10:41.296Z</time></trkpt><trkpt lat="41.4465383" lon="1.6830288"><ele>283.0</ele><time>2026-03-28T11:10:42.297Z</time></trkpt><trkpt lat="41.4469684" lon="1.6828802"><ele>285.3333333333333</ele><time>2026-03-28T11:10:44.297Z</time></trkpt><trkpt lat="41.4471694" lon="1.6828462"><ele>287.6666666666667</ele><time>2026-03-28T11:10:45.297Z</time></trkpt><trkpt lat="41.4473549" lon="1.6828322"><ele>290.0</ele><time>2026-03-28T11:10:46.297Z</time></trkpt><trkpt lat="41.4475323" lon="1.6828369"><ele>290.0</ele><time>2026-03-28T11:10:47.296Z</time></trkpt><trkpt lat="41.4477009" lon="1.6828573"><ele>290.0</ele><time>2026-03-28T11:10:48.297Z</time></trkpt><trkpt lat="41.4478732" lon="1.6828958"><ele>290.0</ele><time>2026-03-28T11:10:49.297Z</time></trkpt><trkpt lat="41.4480525" lon="1.6829439"><ele>291.0</ele><time>2026-03-28T11:10:50.296Z</time></trkpt><trkpt lat="41.4482401" lon="1.6830095"><ele>292.0</ele><time>2026-03-28T11:10:51.297Z</time></trkpt><trkpt lat="41.4484287" lon="1.6830908"><ele>293.0</ele><time>2026-03-28T11:10:52.297Z</time></trkpt><trkpt lat="41.4486122" lon="1.683192"><ele>293.0</ele><time>2026-03-28T11:10:53.296Z</time></trkpt><trkpt lat="41.4487838" lon="1.683308"><ele>293.0</ele><time>2026-03-28T11:10:54.297Z</time></trkpt><trkpt lat="41.4489471" lon="1.6834366"><ele>293.0</ele><time>2026-03-28T11:10:55.297Z</time></trkpt><trkpt lat="41.4490929" lon="1.6835684"><ele>292.6666666666667</ele><time>2026-03-28T11:10:56.296Z</time></trkpt><trkpt lat="41.4492286" lon="1.6837"><ele>292.3333333333333</ele><time>2026-03-28T11:10:57.297Z</time></trkpt><trkpt lat="41.4493603" lon="1.6838141"><ele>292.0</ele><time>2026-03-28T11:10:58.297Z</time></trkpt><trkpt lat="41.4495004" lon="1.683906"><ele>293.25</ele><time>2026-03-28T11:10:59.297Z</time></trkpt><trkpt lat="41.449636" lon="1.6840017"><ele>294.5</ele><time>2026-03-28T11:11:00.297Z</time></trkpt><trkpt lat="41.4497586" lon="1.6840979"><ele>295.75</ele><time>2026-03-28T11:11:01.297Z</time></trkpt><trkpt lat="41.4498692" lon="1.6841953"><ele>297.0</ele><time>2026-03-28T11:11:02.297Z</time></trkpt><trkpt lat="41.4499612" lon="1.6842842"><ele>297.0</ele><time>2026-03-28T11:11:03.296Z</time></trkpt></trkseg><trkseg><trkpt lat="41.4649524" lon="1.6669287"><ele>339.0</ele><time>2026-03-28T11:59:12.299Z</time></trkpt><trkpt lat="41.4652277" lon="1.6671664"><ele>338.0</ele><time>2026-03-28T11:59:15.299Z</time></trkpt><trkpt lat="41.465351" lon="1.6672719"><ele>340.0</ele><time>2026-03-28T11:59:16.298Z</time></trkpt><trkpt lat="41.46548" lon="1.6673816"><ele>342.0</ele><time>2026-03-28T11:59:17.299Z</time></trkpt><trkpt lat="41.4656006" lon="1.6674837"><ele>344.0</ele><time>2026-03-28T11:59:18.299Z</time></trkpt><trkpt lat="41.4657085" lon="1.6675779"><ele>346.0</ele><time>2026-03-28T11:59:19.299Z</time></trkpt><trkpt lat="41.4658065" lon="1.6676682"><ele>346.0</ele><time>2026-03-28T11:59:20.299Z</time></trkpt><trkpt lat="41.4658913" lon="1.6677632"><ele>346.0</ele><time>2026-03-28T11:59:21.298Z</time></trkpt><trkpt lat="41.4659699" lon="1.6678766"><ele>346.0</ele><time>2026-03-28T11:59:22.299Z</time></trkpt><trkpt lat="41.4660474" lon="1.6680386"><ele>346.0</ele><time>2026-03-28T11:59:23.299Z</time></trkpt><trkpt lat="41.466115" lon="1.6682177"><ele>345.3333333333333</ele><time>2026-03-28T11:59:24.299Z</time></trkpt><trkpt lat="41.4661673" lon="1.6684285"><ele>344.6666666666667</ele><time>2026-03-28T11:59:25.299Z</time></trkpt><trkpt lat="41.4662099" lon="1.6686575"><ele>344.0</ele><time>2026-03-28T11:59:26.299Z</time></trkpt><trkpt lat="41.466236" lon="1.6688847"><ele>344.0</ele><time>2026-03-28T11:59:27.299Z</time></trkpt><trkpt lat="41.4662298" lon="1.6691265"><ele>344.0</ele><time>2026-03-28T11:59:28.298Z</time></trkpt><trkpt lat="41.4661999" lon="1.6693865"><ele>344.0</ele><time>2026-03-28T11:59:29.299Z</time></trkpt><trkpt lat="41.4661659" lon="1.6696475"><ele>344.6666666666667</ele><time>2026-03-28T11:59:30.299Z</time></trkpt><trkpt lat="41.4661311" lon="1.6699053"><ele>345.3333333333333</ele><time>2026-03-28T11:59:31.298Z</time></trkpt><trkpt lat="41.4660987" lon="1.6701511"><ele>346.0</ele><time>2026-03-28T11:59:32.298Z</time></trkpt><trkpt lat="41.4660627" lon="1.6703917"><ele>347.0</ele><time>2026-03-28T11:59:33.299Z</time></trkpt><trkpt lat="41.466034" lon="1.6706079"><ele>348.0</ele><time>2026-03-28T11:59:34.298Z</time></trkpt><trkpt lat="41.4660209" lon="1.6707854"><ele>349.0</ele><time>2026-03-28T11:59:35.299Z</time></trkpt><trkpt lat="41.4660151" lon="1.6709566"><ele>350.0</ele><time>2026-03-28T11:59:36.299Z</time></trkpt><trkpt lat="41.4660626" lon="1.6710532"><ele>352.4</ele><time>2026-03-28T11:59:37.299Z</time></trkpt><trkpt lat="41.4661192" lon="1.6711395"><ele>354.8</ele><time>2026-03-28T11:59:38.299Z</time></trkpt><trkpt lat="41.4662262" lon="1.6711906"><ele>357.20000000000005</ele><time>2026-03-28T11:59:39.299Z</time></trkpt><trkpt lat="41.4663323" lon="1.6711936"><ele>359.6</ele><time>2026-03-28T11:59:40.299Z</time></trkpt><trkpt lat="41.466446" lon="1.6711573"><ele>362.0</ele><time>2026-03-28T11:59:41.299Z</time></trkpt><trkpt lat="41.4665422" lon="1.6710809"><ele>362.25</ele><time>2026-03-28T11:59:42.299Z</time></trkpt><trkpt lat="41.4666215" lon="1.6709643"><ele>362.5</ele><time>2026-03-28T11:59:43.299Z</time></trkpt><trkpt lat="41.4666812" lon="1.6708069"><ele>362.75</ele><time>2026-03-28T11:59:44.298Z</time></trkpt><trkpt lat="41.4667264" lon="1.6706175"><ele>363.0</ele><time>2026-03-28T11:59:45.298Z</time></trkpt><trkpt lat="41.4667603" lon="1.6704217"><ele>361.6666666666667</ele><time>2026-03-28T11:59:46.299Z</time></trkpt><trkpt lat="41.4667938" lon="1.6702139"><ele>360.33333333333337</ele><time>2026-03-28T11:59:47.299Z</time></trkpt><trkpt lat="41.4668304" lon="1.6699948"><ele>359.0</ele><time>2026-03-28T11:59:48.299Z</time></trkpt><trkpt lat="41.4668679" lon="1.6697664"><ele>359.0</ele><time>2026-03-28T11:59:49.298Z</time></trkpt><trkpt lat="41.4669033" lon="1.6695465"><ele>359.0</ele><time>2026-03-28T11:59:50.299Z</time></trkpt><trkpt lat="41.4669556" lon="1.6693418"><ele>359.0</ele><time>2026-03-28T11:59:51.299Z</time></trkpt><trkpt lat="41.4670423" lon="1.6691552"><ele>364.33333333333337</ele><time>2026-03-28T11:59:52.298Z</time></trkpt><trkpt lat="41.4671564" lon="1.6689742"><ele>369.6666666666667</ele><time>2026-03-28T11:59:53.298Z</time></trkpt><trkpt lat="41.4672788" lon="1.6687882"><ele>375.0</ele><time>2026-03-28T11:59:54.299Z</time></trkpt><trkpt lat="41.4673902" lon="1.6686131"><ele>373.0</ele><time>2026-03-28T11:59:55.298Z</time></trkpt><trkpt lat="41.4674775" lon="1.6684382"><ele>371.0</ele><time>2026-03-28T11:59:56.299Z</time></trkpt><trkpt lat="41.4675324" lon="1.6682595"><ele>369.0</ele><time>2026-03-28T11:59:57.299Z</time></trkpt><trkpt lat="41.4675561" lon="1.6680627"><ele>369.0</ele><time>2026-03-28T11:59:58.299Z</time></trkpt><trkpt lat="41.4675486" lon="1.6678309"><ele>369.0</ele><time>2026-03-28T11:59:59.298Z</time></trkpt><trkpt lat="41.4675396" lon="1.6675798"><ele>369.0</ele><time>2026-03-28T12:00:00.299Z</time></trkpt><trkpt lat="41.4675398" lon="1.667336"><ele>369.0</ele><time>2026-03-28T12:00:01.299Z</time></trkpt><trkpt lat="41.4675535" lon="1.6671082"><ele>369.0</ele><time>2026-03-28T12:00:02.299Z</time></trkpt><trkpt lat="41.4675996" lon="1.6668937"><ele>369.0</ele><time>2026-03-28T12:00:03.299Z</time></trkpt><trkpt lat="41.4676833" lon="1.6666775"><ele>369.0</ele><time>2026-03-28T12:00:04.299Z</time></trkpt><trkpt lat="41.4677855" lon="1.6664616"><ele>369.0</ele><time>2026-03-28T12:00:05.299Z</time></trkpt><trkpt lat="41.4678905" lon="1.6662433"><ele>369.0</ele><time>2026-03-28T12:00:06.299Z</time></trkpt><trkpt lat="41.4680078" lon="1.666039"><ele>373.6666666666667</ele><time>2026-03-28T12:00:07.299Z</time></trkpt><trkpt lat="41.4681375" lon="1.6658511"><ele>378.33333333333337</ele><time>2026-03-28T12:00:08.299Z</time></trkpt><trkpt lat="41.4682826" lon="1.6656791"><ele>383.0</ele><time>2026-03-28T12:00:09.299Z</time></trkpt><trkpt lat="41.4684274" lon="1.665486"><ele>386.0</ele><time>2026-03-28T12:00:10.299Z</time></trkpt><trkpt lat="41.4685609" lon="1.6652732"><ele>389.0</ele><time>2026-03-28T12:00:11.299Z</time></trkpt><trkpt lat="41.4686887" lon="1.6650351"><ele>392.0</ele><time>2026-03-28T12:00:12.299Z</time></trkpt><trkpt lat="41.4688154" lon="1.6647885"><ele>392.0</ele><time>2026-03-28T12:00:13.299Z</time></trkpt><trkpt lat="41.4689392" lon="1.6645394"><ele>392.0</ele><time>2026-03-28T12:00:14.299Z</time></trkpt><trkpt lat="41.4690478" lon="1.6642933"><ele>392.0</ele><time>2026-03-28T12:00:15.298Z</time></trkpt><trkpt lat="41.4691469" lon="1.6640575"><ele>390.0</ele><time>2026-03-28T12:00:16.299Z</time></trkpt><trkpt lat="41.4692407" lon="1.6638239"><ele>388.0</ele><time>2026-03-28T12:00:17.299Z</time></trkpt><trkpt lat="41.4693515" lon="1.6636071"><ele>386.0</ele><time>2026-03-28T12:00:18.299Z</time></trkpt><trkpt lat="41.4694769" lon="1.6633969"><ele>386.0</ele><time>2026-03-28T12:00:19.299Z</time></trkpt><trkpt lat="41.4696032" lon="1.6631939"><ele>386.0</ele><time>2026-03-28T12:00:20.299Z</time></trkpt><trkpt lat="41.4697217" lon="1.6630044"><ele>386.0</ele><time>2026-03-28T12:00:21.299Z</time></trkpt><trkpt lat="41.4698321" lon="1.6628335"><ele>387.75</ele><time>2026-03-28T12:00:22.299Z</time></trkpt><trkpt lat="41.4699354" lon="1.6626792"><ele>389.5</ele><time>2026-03-28T12:00:23.299Z</time></trkpt><trkpt lat="41.470006" lon="1.6625447"><ele>391.25</ele><time>2026-03-28T12:00:24.299Z</time></trkpt><trkpt lat="41.4700415" lon="1.6624271"><ele>393.0</ele><time>2026-03-28T12:00:25.299Z</time></trkpt><trkpt lat="41.4700404" lon="1.6623248"><ele>393.0</ele><time>2026-03-28T12:00:26.299Z</time></trkpt><trkpt lat="41.4700055" lon="1.6622484"><ele>393.0</ele><time>2026-03-28T12:00:27.298Z</time></trkpt><trkpt lat="41.4699457" lon="1.6622087"><ele>393.0</ele><time>2026-03-28T12:00:28.299Z</time></trkpt><trkpt lat="41.4698632" lon="1.6622057"><ele>393.0</ele><time>2026-03-28T12:00:29.299Z</time></trkpt><trkpt lat="41.4697538" lon="1.6622553"><ele>393.0</ele><time>2026-03-28T12:00:30.298Z</time></trkpt><trkpt lat="41.4696173" lon="1.6623242"><ele>392.66666666666663</ele><time>2026-03-28T12:00:31.299Z</time></trkpt><trkpt lat="41.4694738" lon="1.6623963"><ele>392.3333333333333</ele><time>2026-03-28T12:00:32.299Z</time></trkpt><trkpt lat="41.4693289" lon="1.6624535"><ele>392.0</ele><time>2026-03-28T12:00:33.299Z</time></trkpt><trkpt lat="41.4691808" lon="1.6624714"><ele>392.0</ele><time>2026-03-28T12:00:34.299Z</time></trkpt><trkpt lat="41.4690181" lon="1.662445"><ele>392.0</ele><time>2026-03-28T12:00:35.299Z</time></trkpt><trkpt lat="41.4688409" lon="1.6623908"><ele>392.0</ele><time>2026-03-28T12:00:36.299Z</time></trkpt><trkpt lat="41.4686646" lon="1.6623272"><ele>392.0</ele><time>2026-03-28T12:00:37.299Z</time></trkpt><trkpt lat="41.4684988" lon="1.6622638"><ele>392.0</ele><time>2026-03-28T12:00:38.299Z</time></trkpt><trkpt lat="41.468354" lon="1.662191"><ele>392.0</ele><time>2026-03-28T12:00:39.299Z</time></trkpt><trkpt lat="41.4682457" lon="1.6620982"><ele>392.0</ele><time>2026-03-28T12:00:40.299Z</time></trkpt><trkpt lat="41.4681738" lon="1.6619822"><ele>392.0</ele><time>2026-03-28T12:00:41.299Z</time></trkpt><trkpt lat="41.4681405" lon="1.6618488"><ele>392.0</ele><time>2026-03-28T12:00:42.298Z</time></trkpt><trkpt lat="41.4681471" lon="1.6617027"><ele>392.0</ele><time>2026-03-28T12:00:43.299Z</time></trkpt><trkpt lat="41.4681813" lon="1.6615423"><ele>393.5</ele><time>2026-03-28T12:00:44.299Z</time></trkpt><trkpt lat="41.4682372" lon="1.6613823"><ele>395.0</ele><time>2026-03-28T12:00:45.299Z</time></trkpt><trkpt lat="41.4683095" lon="1.6612581"><ele>396.5</ele><time>2026-03-28T12:00:46.298Z</time></trkpt><trkpt lat="41.4684136" lon="1.6611676"><ele>398.0</ele><time>2026-03-28T12:00:47.299Z</time></trkpt><trkpt lat="41.4685542" lon="1.6610969"><ele>396.3333333333333</ele><time>2026-03-28T12:00:48.299Z</time></trkpt><trkpt lat="41.4687177" lon="1.6610243"><ele>394.66666666666663</ele><time>2026-03-28T12:00:49.299Z</time></trkpt><trkpt lat="41.468901" lon="1.6609422"><ele>393.0</ele><time>2026-03-28T12:00:50.299Z</time></trkpt><trkpt lat="41.4691046" lon="1.6608448"><ele>393.0</ele><time>2026-03-28T12:00:51.299Z</time></trkpt><trkpt lat="41.4693119" lon="1.6607482"><ele>393.0</ele><time>2026-03-28T12:00:52.299Z</time></trkpt><trkpt lat="41.4695295" lon="1.6606448"><ele>398.0</ele><time>2026-03-28T12:00:53.299Z</time></trkpt><trkpt lat="41.4697546" lon="1.6605351"><ele>403.0</ele><time>2026-03-28T12:00:54.298Z</time></trkpt><trkpt lat="41.4699733" lon="1.6604245"><ele>403.0</ele><time>2026-03-28T12:00:55.299Z</time></trkpt><trkpt lat="41.4701755" lon="1.6602955"><ele>403.0</ele><time>2026-03-28T12:00:56.299Z</time></trkpt><trkpt lat="41.4703661" lon="1.6601254"><ele>403.0</ele><time>2026-03-28T12:00:57.299Z</time></trkpt><trkpt lat="41.470546" lon="1.6599238"><ele>403.0</ele><time>2026-03-28T12:00:58.298Z</time></trkpt><trkpt lat="41.4707321" lon="1.6597329"><ele>403.0</ele><time>2026-03-28T12:00:59.299Z</time></trkpt><trkpt lat="41.4709371" lon="1.659589"><ele>403.0</ele><time>2026-03-28T12:01:00.299Z</time></trkpt><trkpt lat="41.4711253" lon="1.6594642"><ele>403.0</ele><time>2026-03-28T12:01:01.299Z</time></trkpt><trkpt lat="41.4712934" lon="1.6593249"><ele>403.6666666666667</ele><time>2026-03-28T12:01:02.298Z</time></trkpt><trkpt lat="41.4714277" lon="1.6591554"><ele>404.33333333333337</ele><time>2026-03-28T12:01:03.299Z</time></trkpt><trkpt lat="41.4715373" lon="1.658953"><ele>405.0</ele><time>2026-03-28T12:01:04.298Z</time></trkpt><trkpt lat="41.4716393" lon="1.6587385"><ele>400.33333333333337</ele><time>2026-03-28T12:01:05.299Z</time></trkpt><trkpt lat="41.4717396" lon="1.6585398"><ele>395.6666666666667</ele><time>2026-03-28T12:01:06.299Z</time></trkpt><trkpt lat="41.4718411" lon="1.6583778"><ele>391.0</ele><time>2026-03-28T12:01:07.299Z</time></trkpt><trkpt lat="41.4719433" lon="1.6582725"><ele>391.0</ele><time>2026-03-28T12:01:08.299Z</time></trkpt><trkpt lat="41.4720528" lon="1.658205"><ele>391.0</ele><time>2026-03-28T12:01:09.299Z</time></trkpt><trkpt lat="41.4721737" lon="1.6581898"><ele>391.0</ele><time>2026-03-28T12:01:10.299Z</time></trkpt><trkpt lat="41.4722799" lon="1.6582386"><ele>391.0</ele><time>2026-03-28T12:01:11.299Z</time></trkpt><trkpt lat="41.47237" lon="1.6583333"><ele>393.0</ele><time>2026-03-28T12:01:12.298Z</time></trkpt><trkpt lat="41.4724413" lon="1.6584434"><ele>395.0</ele><time>2026-03-28T12:01:13.298Z</time></trkpt><trkpt lat="41.4725173" lon="1.6585375"><ele>397.0</ele><time>2026-03-28T12:01:14.299Z</time></trkpt><trkpt lat="41.4726094" lon="1.658585"><ele>399.0</ele><time>2026-03-28T12:01:15.299Z</time></trkpt><trkpt lat="41.4727163" lon="1.6585901"><ele>401.0</ele><time>2026-03-28T12:01:16.299Z</time></trkpt><trkpt lat="41.4728231" lon="1.6585346"><ele>401.0</ele><time>2026-03-28T12:01:17.298Z</time></trkpt><trkpt lat="41.4729339" lon="1.6584815"><ele>401.0</ele><time>2026-03-28T12:01:18.299Z</time></trkpt><trkpt lat="41.4730521" lon="1.6584935"><ele>401.0</ele><time>2026-03-28T12:01:19.299Z</time></trkpt><trkpt lat="41.4731793" lon="1.6585542"><ele>401.0</ele><time>2026-03-28T12:01:20.299Z</time></trkpt><trkpt lat="41.473318" lon="1.6586393"><ele>402.25</ele><time>2026-03-28T12:01:21.299Z</time></trkpt><trkpt lat="41.4734527" lon="1.6587298"><ele>403.5</ele><time>2026-03-28T12:01:22.299Z</time></trkpt><trkpt lat="41.473573" lon="1.6588401"><ele>404.75</ele><time>2026-03-28T12:01:23.299Z</time></trkpt><trkpt lat="41.4736686" lon="1.6589756"><ele>406.0</ele><time>2026-03-28T12:01:24.299Z</time></trkpt><trkpt lat="41.4737367" lon="1.6591495"><ele>405.75</ele><time>2026-03-28T12:01:25.299Z</time></trkpt><trkpt lat="41.4737983" lon="1.6593348"><ele>405.5</ele><time>2026-03-28T12:01:26.299Z</time></trkpt><trkpt lat="41.4738692" lon="1.6594959"><ele>405.25</ele><time>2026-03-28T12:01:27.299Z</time></trkpt><trkpt lat="41.473969" lon="1.6596292"><ele>405.0</ele><time>2026-03-28T12:01:28.299Z</time></trkpt><trkpt lat="41.4740968" lon="1.6597221"><ele>405.0</ele><time>2026-03-28T12:01:29.299Z</time></trkpt><trkpt lat="41.4742546" lon="1.6597882"><ele>405.0</ele><time>2026-03-28T12:01:30.299Z</time></trkpt><trkpt lat="41.4744301" lon="1.6598399"><ele>405.0</ele><time>2026-03-28T12:01:31.299Z</time></trkpt><trkpt lat="41.4746073" lon="1.6598673"><ele>406.0</ele><time>2026-03-28T12:01:32.299Z</time></trkpt><trkpt lat="41.4747848" lon="1.6598593"><ele>407.0</ele><time>2026-03-28T12:01:33.298Z</time></trkpt><trkpt lat="41.4749609" lon="1.6598144"><ele>408.0</ele><time>2026-03-28T12:01:34.299Z</time></trkpt><trkpt lat="41.475137" lon="1.6597206"><ele>408.0</ele><time>2026-03-28T12:01:35.299Z</time></trkpt><trkpt lat="41.4752958" lon="1.6595962"><ele>408.0</ele><time>2026-03-28T12:01:36.299Z</time></trkpt><trkpt lat="41.4754424" lon="1.6594466"><ele>408.0</ele><time>2026-03-28T12:01:37.299Z</time></trkpt><trkpt lat="41.4755665" lon="1.6592484"><ele>408.33333333333337</ele><time>2026-03-28T12:01:38.299Z</time></trkpt><trkpt lat="41.4756866" lon="1.659043"><ele>408.6666666666667</ele><time>2026-03-28T12:01:39.298Z</time></trkpt><trkpt lat="41.4757874" lon="1.6588338"><ele>409.0</ele><time>2026-03-28T12:01:40.299Z</time></trkpt><trkpt lat="41.4758666" lon="1.6586117"><ele>411.33333333333337</ele><time>2026-03-28T12:01:41.299Z</time></trkpt><trkpt lat="41.4759234" lon="1.6583889"><ele>413.66666666666663</ele><time>2026-03-28T12:01:42.299Z</time></trkpt><trkpt lat="41.475973" lon="1.6581812"><ele>416.0</ele><time>2026-03-28T12:01:43.299Z</time></trkpt><trkpt lat="41.4760231" lon="1.6579972"><ele>416.0</ele><time>2026-03-28T12:01:44.299Z</time></trkpt><trkpt lat="41.4760865" lon="1.6578183"><ele>416.0</ele><time>2026-03-28T12:01:45.299Z</time></trkpt><trkpt lat="41.4762003" lon="1.6577097"><ele>416.0</ele><time>2026-03-28T12:01:46.299Z</time></trkpt><trkpt lat="41.4763365" lon="1.6576167"><ele>416.0</ele><time>2026-03-28T12:01:47.298Z</time></trkpt><trkpt lat="41.4764852" lon="1.6575239"><ele>416.66666666666663</ele><time>2026-03-28T12:01:48.299Z</time></trkpt><trkpt lat="41.4766104" lon="1.6574048"><ele>417.33333333333337</ele><time>2026-03-28T12:01:49.299Z</time></trkpt><trkpt lat="41.4767333" lon="1.6572909"><ele>418.0</ele><time>2026-03-28T12:01:50.299Z</time></trkpt><trkpt lat="41.476868" lon="1.6572021"><ele>418.0</ele><time>2026-03-28T12:01:51.299Z</time></trkpt><trkpt lat="41.4770276" lon="1.6571413"><ele>418.0</ele><time>2026-03-28T12:01:52.299Z</time></trkpt><trkpt lat="41.4772118" lon="1.6571096"><ele>418.0</ele><time>2026-03-28T12:01:53.299Z</time></trkpt><trkpt lat="41.4773977" lon="1.65709"><ele>417.33333333333337</ele><time>2026-03-28T12:01:54.298Z</time></trkpt><trkpt lat="41.4775696" lon="1.6570807"><ele>416.66666666666663</ele><time>2026-03-28T12:01:55.299Z</time></trkpt><trkpt lat="41.4777271" lon="1.6571171"><ele>416.0</ele><time>2026-03-28T12:01:56.299Z</time></trkpt><trkpt lat="41.4778943" lon="1.6572099"><ele>419.66666666666663</ele><time>2026-03-28T12:01:57.299Z</time></trkpt><trkpt lat="41.4780595" lon="1.6573501"><ele>423.33333333333337</ele><time>2026-03-28T12:01:58.299Z</time></trkpt><trkpt lat="41.4782093" lon="1.6575273"><ele>427.0</ele><time>2026-03-28T12:01:59.299Z</time></trkpt><trkpt lat="41.4783304" lon="1.6577092"><ele>422.33333333333337</ele><time>2026-03-28T12:02:00.299Z</time></trkpt><trkpt lat="41.4784437" lon="1.6578639"><ele>417.66666666666663</ele><time>2026-03-28T12:02:01.298Z</time></trkpt><trkpt lat="41.4785607" lon="1.6579821"><ele>413.0</ele><time>2026-03-28T12:02:02.299Z</time></trkpt><trkpt lat="41.4787053" lon="1.6580654"><ele>416.3333333333333</ele><time>2026-03-28T12:02:03.299Z</time></trkpt><trkpt lat="41.4788811" lon="1.6581144"><ele>419.66666666666663</ele><time>2026-03-28T12:02:04.299Z</time></trkpt><trkpt lat="41.4790818" lon="1.6581293"><ele>423.0</ele><time>2026-03-28T12:02:05.298Z</time></trkpt><trkpt lat="41.4792967" lon="1.6581197"><ele>423.0</ele><time>2026-03-28T12:02:06.299Z</time></trkpt><trkpt lat="41.4794941" lon="1.6581137"><ele>423.0</ele><time>2026-03-28T12:02:07.299Z</time></trkpt><trkpt lat="41.4796757" lon="1.6581076"><ele>423.0</ele><time>2026-03-28T12:02:08.299Z</time></trkpt><trkpt lat="41.4798308" lon="1.6581131"><ele>424.66666666666663</ele><time>2026-03-28T12:02:09.299Z</time></trkpt><trkpt lat="41.4799717" lon="1.6581627"><ele>426.3333333333333</ele><time>2026-03-28T12:02:10.299Z</time></trkpt><trkpt lat="41.4801086" lon="1.6582729"><ele>428.0</ele><time>2026-03-28T12:02:11.299Z</time></trkpt><trkpt lat="41.4802347" lon="1.6584268"><ele>428.0</ele><time>2026-03-28T12:02:12.299Z</time></trkpt><trkpt lat="41.4803562" lon="1.6585917"><ele>428.0</ele><time>2026-03-28T12:02:13.298Z</time></trkpt><trkpt lat="41.4804731" lon="1.658744"><ele>428.0</ele><time>2026-03-28T12:02:14.299Z</time></trkpt><trkpt lat="41.4805929" lon="1.6588761"><ele>428.3333333333333</ele><time>2026-03-28T12:02:15.299Z</time></trkpt><trkpt lat="41.480728" lon="1.658975"><ele>428.66666666666663</ele><time>2026-03-28T12:02:16.299Z</time></trkpt><trkpt lat="41.4808788" lon="1.6590459"><ele>429.0</ele><time>2026-03-28T12:02:17.299Z</time></trkpt><trkpt lat="41.4810488" lon="1.6591163"><ele>429.0</ele><time>2026-03-28T12:02:18.299Z</time></trkpt><trkpt lat="41.4812204" lon="1.6592281"><ele>429.0</ele><time>2026-03-28T12:02:19.299Z</time></trkpt><trkpt lat="41.4813713" lon="1.6593716"><ele>429.0</ele><time>2026-03-28T12:02:20.299Z</time></trkpt><trkpt lat="41.4815103" lon="1.6595037"><ele>430.0</ele><time>2026-03-28T12:02:21.298Z</time></trkpt><trkpt lat="41.4816334" lon="1.6596117"><ele>431.0</ele><time>2026-03-28T12:02:22.299Z</time></trkpt><trkpt lat="41.4817357" lon="1.6597183"><ele>432.0</ele><time>2026-03-28T12:02:23.299Z</time></trkpt><trkpt lat="41.4817967" lon="1.6598484"><ele>433.0</ele><time>2026-03-28T12:02:24.299Z</time></trkpt><trkpt lat="41.4818223" lon="1.659996"><ele>433.0</ele><time>2026-03-28T12:02:25.299Z</time></trkpt><trkpt lat="41.4818309" lon="1.6601484"><ele>433.0</ele><time>2026-03-28T12:02:26.299Z</time></trkpt><trkpt lat="41.4818679" lon="1.6602975"><ele>433.0</ele><time>2026-03-28T12:02:27.299Z</time></trkpt><trkpt lat="41.4819358" lon="1.6604695"><ele>433.0</ele><time>2026-03-28T12:02:28.299Z</time></trkpt><trkpt lat="41.4820307" lon="1.6606341"><ele>435.5</ele><time>2026-03-28T12:02:29.299Z</time></trkpt><trkpt lat="41.4821215" lon="1.6607722"><ele>438.0</ele><time>2026-03-28T12:02:30.298Z</time></trkpt><trkpt lat="41.4822241" lon="1.6608748"><ele>440.5</ele><time>2026-03-28T12:02:31.299Z</time></trkpt><trkpt lat="41.4823679" lon="1.6609479"><ele>443.0</ele><time>2026-03-28T12:02:32.299Z</time></trkpt><trkpt lat="41.4825148" lon="1.6609978"><ele>443.0</ele><time>2026-03-28T12:02:33.298Z</time></trkpt><trkpt lat="41.4826465" lon="1.661035"><ele>443.0</ele><time>2026-03-28T12:02:34.299Z</time></trkpt><trkpt lat="41.4827703" lon="1.6610265"><ele>443.0</ele><time>2026-03-28T12:02:35.299Z</time></trkpt><trkpt lat="41.4828948" lon="1.6609648"><ele>443.0</ele><time>2026-03-28T12:02:36.299Z</time></trkpt><trkpt lat="41.4830166" lon="1.6608581"><ele>443.0</ele><time>2026-03-28T12:02:37.299Z</time></trkpt><trkpt lat="41.4831441" lon="1.660727"><ele>443.0</ele><time>2026-03-28T12:02:38.299Z</time></trkpt><trkpt lat="41.4832898" lon="1.6606125"><ele>443.0</ele><time>2026-03-28T12:02:39.299Z</time></trkpt><trkpt lat="41.4834711" lon="1.6605383"><ele>443.0</ele><time>2026-03-28T12:02:40.298Z</time></trkpt><trkpt lat="41.4836499" lon="1.6604902"><ele>443.0</ele><time>2026-03-28T12:02:41.299Z</time></trkpt><trkpt lat="41.4838031" lon="1.6604514"><ele>443.0</ele><time>2026-03-28T12:02:42.299Z</time></trkpt><trkpt lat="41.4839329" lon="1.6604344"><ele>443.0</ele><time>2026-03-28T12:02:43.299Z</time></trkpt><trkpt lat="41.4840469" lon="1.6604679"><ele>443.0</ele><time>2026-03-28T12:02:44.299Z</time></trkpt><trkpt lat="41.4841415" lon="1.6605603"><ele>443.0</ele><time>2026-03-28T12:02:45.299Z</time></trkpt><trkpt lat="41.4842228" lon="1.6607058"><ele>443.0</ele><time>2026-03-28T12:02:46.299Z</time></trkpt><trkpt lat="41.4842925" lon="1.6608692"><ele>443.0</ele><time>2026-03-28T12:02:47.299Z</time></trkpt><trkpt lat="41.4843504" lon="1.6610306"><ele>443.0</ele><time>2026-03-28T12:02:48.299Z</time></trkpt><trkpt lat="41.484411" lon="1.6611884"><ele>443.0</ele><time>2026-03-28T12:02:49.299Z</time></trkpt><trkpt lat="41.484468" lon="1.6613323"><ele>443.0</ele><time>2026-03-28T12:02:50.299Z</time></trkpt><trkpt lat="41.4845333" lon="1.661445"><ele>443.0</ele><time>2026-03-28T12:02:51.299Z</time></trkpt><trkpt lat="41.4846161" lon="1.6615273"><ele>442.99999999999994</ele><time>2026-03-28T12:02:52.299Z</time></trkpt><trkpt lat="41.4847015" lon="1.6615773"><ele>442.99999999999994</ele><time>2026-03-28T12:02:53.299Z</time></trkpt><trkpt lat="41.4847964" lon="1.6615781"><ele>443.0</ele><time>2026-03-28T12:02:54.299Z</time></trkpt><trkpt lat="41.4848907" lon="1.6615336"><ele>443.0</ele><time>2026-03-28T12:02:55.299Z</time></trkpt><trkpt lat="41.4849462" lon="1.6613684"><ele>443.0</ele><time>2026-03-28T12:02:56.299Z</time></trkpt><trkpt lat="41.4850006" lon="1.6611958"><ele>442.99999999999994</ele><time>2026-03-28T12:02:57.299Z</time></trkpt><trkpt lat="41.485048" lon="1.6610381"><ele>442.99999999999994</ele><time>2026-03-28T12:02:58.299Z</time></trkpt><trkpt lat="41.4850884" lon="1.6609148"><ele>443.0</ele><time>2026-03-28T12:02:59.299Z</time></trkpt><trkpt lat="41.4851236" lon="1.6608245"><ele>443.0</ele><time>2026-03-28T12:03:00.299Z</time></trkpt><trkpt lat="41.4851938" lon="1.6606982"><ele>445.0</ele><time>2026-03-28T12:03:02.299Z</time></trkpt><trkpt lat="41.485292" lon="1.6606313"><ele>446.99999999999994</ele><time>2026-03-28T12:03:04.299Z</time></trkpt><trkpt lat="41.4854074" lon="1.6605585"><ele>448.99999999999994</ele><time>2026-03-28T12:03:06.299Z</time></trkpt><trkpt lat="41.4854885" lon="1.6605256"><ele>451.0</ele><time>2026-03-28T12:03:07.299Z</time></trkpt><trkpt lat="41.4855639" lon="1.6605476"><ele>453.0</ele><time>2026-03-28T12:03:08.298Z</time></trkpt><trkpt lat="41.4856366" lon="1.6606115"><ele>451.59999999999997</ele><time>2026-03-28T12:03:09.299Z</time></trkpt><trkpt lat="41.4857055" lon="1.6607281"><ele>450.19999999999993</ele><time>2026-03-28T12:03:10.299Z</time></trkpt><trkpt lat="41.4857739" lon="1.6608623"><ele>448.8</ele><time>2026-03-28T12:03:11.299Z</time></trkpt><trkpt lat="41.4858371" lon="1.6609852"><ele>447.4</ele><time>2026-03-28T12:03:12.298Z</time></trkpt><trkpt lat="41.4858983" lon="1.6610948"><ele>446.0</ele><time>2026-03-28T12:03:13.299Z</time></trkpt><trkpt lat="41.48596" lon="1.6611998"><ele>446.0</ele><time>2026-03-28T12:03:14.299Z</time></trkpt><trkpt lat="41.4860218" lon="1.6613067"><ele>446.0</ele><time>2026-03-28T12:03:15.299Z</time></trkpt><trkpt lat="41.4860801" lon="1.6614057"><ele>446.0</ele><time>2026-03-28T12:03:16.299Z</time></trkpt><trkpt lat="41.4861419" lon="1.6615057"><ele>446.0</ele><time>2026-03-28T12:03:17.299Z</time></trkpt><trkpt lat="41.4862178" lon="1.6615933"><ele>446.0</ele><time>2026-03-28T12:03:18.299Z</time></trkpt><trkpt lat="41.4863001" lon="1.661659"><ele>448.6</ele><time>2026-03-28T12:03:19.299Z</time></trkpt><trkpt lat="41.4863933" lon="1.6617063"><ele>451.20000000000005</ele><time>2026-03-28T12:03:20.299Z</time></trkpt><trkpt lat="41.486495" lon="1.6617344"><ele>453.79999999999995</ele><time>2026-03-28T12:03:21.299Z</time></trkpt><trkpt lat="41.4866" lon="1.661727"><ele>456.4</ele><time>2026-03-28T12:03:22.299Z</time></trkpt><trkpt lat="41.4867082" lon="1.6616931"><ele>459.0</ele><time>2026-03-28T12:03:23.298Z</time></trkpt><trkpt lat="41.4868127" lon="1.6615842"><ele>459.0</ele><time>2026-03-28T12:03:24.299Z</time></trkpt><trkpt lat="41.4868914" lon="1.6614467"><ele>459.0</ele><time>2026-03-28T12:03:25.299Z</time></trkpt><trkpt lat="41.4869698" lon="1.661301"><ele>459.0</ele><time>2026-03-28T12:03:26.298Z</time></trkpt><trkpt lat="41.4870451" lon="1.661148"><ele>459.0</ele><time>2026-03-28T12:03:27.299Z</time></trkpt><trkpt lat="41.4871154" lon="1.6609931"><ele>461.0</ele><time>2026-03-28T12:03:28.299Z</time></trkpt><trkpt lat="41.4871881" lon="1.6608389"><ele>463.0</ele><time>2026-03-28T12:03:29.298Z</time></trkpt><trkpt lat="41.4872579" lon="1.6606782"><ele>465.0</ele><time>2026-03-28T12:03:30.299Z</time></trkpt><trkpt lat="41.4873315" lon="1.6605162"><ele>467.0</ele><time>2026-03-28T12:03:31.299Z</time></trkpt><trkpt lat="41.4874089" lon="1.6603523"><ele>470.75</ele><time>2026-03-28T12:03:32.299Z</time></trkpt><trkpt lat="41.4874816" lon="1.6601916"><ele>474.5</ele><time>2026-03-28T12:03:33.299Z</time></trkpt><trkpt lat="41.4875531" lon="1.660039"><ele>478.25</ele><time>2026-03-28T12:03:34.299Z</time></trkpt><trkpt lat="41.48762" lon="1.6598994"><ele>482.0</ele><time>2026-03-28T12:03:35.298Z</time></trkpt><trkpt lat="41.4876889" lon="1.6597558"><ele>482.0</ele><time>2026-03-28T12:03:36.298Z</time></trkpt><trkpt lat="41.4877623" lon="1.6596073"><ele>482.0</ele><time>2026-03-28T12:03:37.299Z</time></trkpt><trkpt lat="41.4878349" lon="1.6594531"><ele>482.0</ele><time>2026-03-28T12:03:38.298Z</time></trkpt><trkpt lat="41.4879061" lon="1.6593062"><ele>482.0</ele><time>2026-03-28T12:03:39.299Z</time></trkpt><trkpt lat="41.4879768" lon="1.6591678"><ele>481.0</ele><time>2026-03-28T12:03:40.299Z</time></trkpt><trkpt lat="41.4880371" lon="1.6590294"><ele>480.0</ele><time>2026-03-28T12:03:41.299Z</time></trkpt><trkpt lat="41.4880905" lon="1.6588893"><ele>479.0</ele><time>2026-03-28T12:03:42.299Z</time></trkpt><trkpt lat="41.4881223" lon="1.6587416"><ele>478.0</ele><time>2026-03-28T12:03:43.299Z</time></trkpt><trkpt lat="41.4881285" lon="1.6585899"><ele>478.0</ele><time>2026-03-28T12:03:44.299Z</time></trkpt><trkpt lat="41.4880976" lon="1.6584394"><ele>477.99999999999994</ele><time>2026-03-28T12:03:45.299Z</time></trkpt><trkpt lat="41.4880596" lon="1.6582917"><ele>477.99999999999994</ele><time>2026-03-28T12:03:46.299Z</time></trkpt><trkpt lat="41.4880384" lon="1.6581465"><ele>478.0</ele><time>2026-03-28T12:03:47.298Z</time></trkpt><trkpt lat="41.4880475" lon="1.6580086"><ele>478.0</ele><time>2026-03-28T12:03:48.299Z</time></trkpt><trkpt lat="41.4880869" lon="1.6578732"><ele>478.25</ele><time>2026-03-28T12:03:49.299Z</time></trkpt><trkpt lat="41.4881569" lon="1.6577374"><ele>478.5</ele><time>2026-03-28T12:03:50.299Z</time></trkpt><trkpt lat="41.4882352" lon="1.657597"><ele>478.75</ele><time>2026-03-28T12:03:51.299Z</time></trkpt><trkpt lat="41.4883084" lon="1.6574563"><ele>479.0</ele><time>2026-03-28T12:03:52.299Z</time></trkpt><trkpt lat="41.4883725" lon="1.6573205"><ele>478.99999999999994</ele><time>2026-03-28T12:03:53.299Z</time></trkpt><trkpt lat="41.4884296" lon="1.6571995"><ele>479.0</ele><time>2026-03-28T12:03:54.299Z</time></trkpt><trkpt lat="41.4884653" lon="1.6570897"><ele>479.0</ele><time>2026-03-28T12:03:55.298Z</time></trkpt><trkpt lat="41.488491" lon="1.6569826"><ele>479.0</ele><time>2026-03-28T12:03:56.299Z</time></trkpt><trkpt lat="41.488509" lon="1.6568929"><ele>478.99999999999994</ele><time>2026-03-28T12:03:57.299Z</time></trkpt><trkpt lat="41.4885264" lon="1.6568076"><ele>479.0</ele><time>2026-03-28T12:03:58.298Z</time></trkpt><trkpt lat="41.4885556" lon="1.6567178"><ele>479.57142857142856</ele><time>2026-03-28T12:03:59.299Z</time></trkpt><trkpt lat="41.4886044" lon="1.6566366"><ele>480.14285714285717</ele><time>2026-03-28T12:04:00.299Z</time></trkpt><trkpt lat="41.4886397" lon="1.6565499"><ele>480.7142857142857</ele><time>2026-03-28T12:04:01.299Z</time></trkpt><trkpt lat="41.488646" lon="1.6564598"><ele>481.2857142857143</ele><time>2026-03-28T12:04:02.299Z</time></trkpt><trkpt lat="41.4886179" lon="1.6563751"><ele>481.8571428571429</ele><time>2026-03-28T12:04:03.299Z</time></trkpt><trkpt lat="41.4885656" lon="1.6563098"><ele>482.42857142857144</ele><time>2026-03-28T12:04:04.299Z</time></trkpt><trkpt lat="41.4884969" lon="1.6562804"><ele>483.0</ele><time>2026-03-28T12:04:05.299Z</time></trkpt><trkpt lat="41.4884236" lon="1.6562886"><ele>483.0</ele><time>2026-03-28T12:04:06.298Z</time></trkpt><trkpt lat="41.4883481" lon="1.6563064"><ele>483.0</ele><time>2026-03-28T12:04:07.299Z</time></trkpt><trkpt lat="41.4882743" lon="1.6562982"><ele>483.0</ele><time>2026-03-28T12:04:08.299Z</time></trkpt><trkpt lat="41.4881901" lon="1.6562656"><ele>483.0</ele><time>2026-03-28T12:04:09.299Z</time></trkpt><trkpt lat="41.48811" lon="1.6561962"><ele>483.0</ele><time>2026-03-28T12:04:10.299Z</time></trkpt><trkpt lat="41.4880479" lon="1.6560995"><ele>483.0</ele><time>2026-03-28T12:04:11.299Z</time></trkpt><trkpt lat="41.488003" lon="1.655986"><ele>482.79999999999995</ele><time>2026-03-28T12:04:12.299Z</time></trkpt><trkpt lat="41.4879696" lon="1.6558669"><ele>482.59999999999997</ele><time>2026-03-28T12:04:13.299Z</time></trkpt><trkpt lat="41.4879392" lon="1.6557493"><ele>482.40000000000003</ele><time>2026-03-28T12:04:14.299Z</time></trkpt><trkpt lat="41.4879102" lon="1.6556296"><ele>482.20000000000005</ele><time>2026-03-28T12:04:15.299Z</time></trkpt><trkpt lat="41.4878831" lon="1.6555101"><ele>482.0</ele><time>2026-03-28T12:04:16.299Z</time></trkpt><trkpt lat="41.4878575" lon="1.6553925"><ele>485.0</ele><time>2026-03-28T12:04:17.299Z</time></trkpt><trkpt lat="41.4878285" lon="1.6552822"><ele>488.00000000000006</ele><time>2026-03-28T12:04:18.299Z</time></trkpt><trkpt lat="41.4878005" lon="1.655167"><ele>491.00000000000006</ele><time>2026-03-28T12:04:19.299Z</time></trkpt><trkpt lat="41.4877713" lon="1.6550471"><ele>494.0</ele><time>2026-03-28T12:04:20.299Z</time></trkpt><trkpt lat="41.4877453" lon="1.654922"><ele>497.0</ele><time>2026-03-28T12:04:21.299Z</time></trkpt><trkpt lat="41.4877115" lon="1.6547906"><ele>497.0</ele><time>2026-03-28T12:04:22.299Z</time></trkpt><trkpt lat="41.4876809" lon="1.6546603"><ele>497.00000000000006</ele><time>2026-03-28T12:04:23.299Z</time></trkpt><trkpt lat="41.4876486" lon="1.6545301"><ele>497.00000000000006</ele><time>2026-03-28T12:04:24.299Z</time></trkpt><trkpt lat="41.4876184" lon="1.6544049"><ele>497.0</ele><time>2026-03-28T12:04:25.299Z</time></trkpt><trkpt lat="41.4875891" lon="1.6542749"><ele>497.0</ele><time>2026-03-28T12:04:26.299Z</time></trkpt><trkpt lat="41.4875596" lon="1.654144"><ele>497.5</ele><time>2026-03-28T12:04:27.299Z</time></trkpt><trkpt lat="41.4875275" lon="1.6540075"><ele>498.0</ele><time>2026-03-28T12:04:28.299Z</time></trkpt><trkpt lat="41.4874936" lon="1.653856"><ele>498.5</ele><time>2026-03-28T12:04:29.299Z</time></trkpt><trkpt lat="41.4874575" lon="1.653693"><ele>499.0</ele><time>2026-03-28T12:04:30.299Z</time></trkpt><trkpt lat="41.4874197" lon="1.6535355"><ele>499.0</ele><time>2026-03-28T12:04:31.298Z</time></trkpt><trkpt lat="41.487379" lon="1.6533685"><ele>499.0</ele><time>2026-03-28T12:04:32.298Z</time></trkpt><trkpt lat="41.4873365" lon="1.6531876"><ele>499.0</ele><time>2026-03-28T12:04:33.299Z</time></trkpt><trkpt lat="41.4872971" lon="1.6530076"><ele>499.0</ele><time>2026-03-28T12:04:34.299Z</time></trkpt><trkpt lat="41.487263" lon="1.6528311"><ele>497.25</ele><time>2026-03-28T12:04:35.298Z</time></trkpt><trkpt lat="41.4872322" lon="1.6526579"><ele>495.5</ele><time>2026-03-28T12:04:36.299Z</time></trkpt><trkpt lat="41.4872022" lon="1.6524814"><ele>493.75</ele><time>2026-03-28T12:04:37.299Z</time></trkpt><trkpt lat="41.4871688" lon="1.6522959"><ele>492.0</ele><time>2026-03-28T12:04:38.299Z</time></trkpt><trkpt lat="41.4871385" lon="1.6521015"><ele>490.0</ele><time>2026-03-28T12:04:39.299Z</time></trkpt><trkpt lat="41.4871117" lon="1.6519001"><ele>488.0</ele><time>2026-03-28T12:04:40.299Z</time></trkpt><trkpt lat="41.4870897" lon="1.6516758"><ele>486.0</ele><time>2026-03-28T12:04:41.298Z</time></trkpt><trkpt lat="41.4870669" lon="1.6514108"><ele>487.0</ele><time>2026-03-28T12:04:42.299Z</time></trkpt><trkpt lat="41.4870411" lon="1.6511278"><ele>488.0</ele><time>2026-03-28T12:04:43.299Z</time></trkpt><trkpt lat="41.4870188" lon="1.6508169"><ele>489.0</ele><time>2026-03-28T12:04:44.299Z</time></trkpt><trkpt lat="41.4870027" lon="1.6504822"><ele>485.5</ele><time>2026-03-28T12:04:45.299Z</time></trkpt><trkpt lat="41.4870001" lon="1.6501573"><ele>482.0</ele><time>2026-03-28T12:04:46.299Z</time></trkpt><trkpt lat="41.4869987" lon="1.6498549"><ele>482.0</ele><time>2026-03-28T12:04:47.299Z</time></trkpt><trkpt lat="41.4869901" lon="1.6495967"><ele>482.0</ele><time>2026-03-28T12:04:48.299Z</time></trkpt><trkpt lat="41.4869832" lon="1.6493821"><ele>482.0</ele><time>2026-03-28T12:04:49.299Z</time></trkpt><trkpt lat="41.4869773" lon="1.6492065"><ele>481.8</ele><time>2026-03-28T12:04:50.298Z</time></trkpt><trkpt lat="41.4869789" lon="1.6490442"><ele>481.6</ele><time>2026-03-28T12:04:51.299Z</time></trkpt><trkpt lat="41.4869985" lon="1.6488985"><ele>481.40000000000003</ele><time>2026-03-28T12:04:52.299Z</time></trkpt><trkpt lat="41.4870399" lon="1.6487869"><ele>481.20000000000005</ele><time>2026-03-28T12:04:53.299Z</time></trkpt><trkpt lat="41.487103" lon="1.6487094"><ele>481.0</ele><time>2026-03-28T12:04:54.299Z</time></trkpt><trkpt lat="41.4871701" lon="1.6486729"><ele>480.99999999999994</ele><time>2026-03-28T12:04:55.299Z</time></trkpt><trkpt lat="41.4872488" lon="1.6486719"><ele>481.0</ele><time>2026-03-28T12:04:56.299Z</time></trkpt><trkpt lat="41.4873235" lon="1.6486831"><ele>480.99999999999994</ele><time>2026-03-28T12:04:57.299Z</time></trkpt><trkpt lat="41.4873999" lon="1.648681"><ele>480.99999999999994</ele><time>2026-03-28T12:04:58.299Z</time></trkpt><trkpt lat="41.4874606" lon="1.6486452"><ele>481.0</ele><time>2026-03-28T12:04:59.299Z</time></trkpt><trkpt lat="41.4874979" lon="1.6485771"><ele>480.99999999999994</ele><time>2026-03-28T12:05:00.299Z</time></trkpt><trkpt lat="41.487509" lon="1.6484821"><ele>480.99999999999994</ele><time>2026-03-28T12:05:01.299Z</time></trkpt><trkpt lat="41.4874909" lon="1.6483668"><ele>480.25</ele><time>2026-03-28T12:05:02.299Z</time></trkpt><trkpt lat="41.4874425" lon="1.6482191"><ele>479.5</ele><time>2026-03-28T12:05:03.299Z</time></trkpt><trkpt lat="41.4873849" lon="1.6480385"><ele>478.75</ele><time>2026-03-28T12:05:04.299Z</time></trkpt><trkpt lat="41.4873327" lon="1.64784"><ele>478.0</ele><time>2026-03-28T12:05:05.299Z</time></trkpt><trkpt lat="41.4872654" lon="1.6476206"><ele>478.0</ele><time>2026-03-28T12:05:06.299Z</time></trkpt><trkpt lat="41.4871768" lon="1.6473879"><ele>478.0</ele><time>2026-03-28T12:05:07.299Z</time></trkpt><trkpt lat="41.4870868" lon="1.6471585"><ele>478.0</ele><time>2026-03-28T12:05:08.299Z</time></trkpt><trkpt lat="41.4870082" lon="1.6469245"><ele>475.0</ele><time>2026-03-28T12:05:09.299Z</time></trkpt><trkpt lat="41.4869511" lon="1.646676"><ele>472.0</ele><time>2026-03-28T12:05:10.299Z</time></trkpt><trkpt lat="41.4869193" lon="1.6464225"><ele>469.0</ele><time>2026-03-28T12:05:11.299Z</time></trkpt><trkpt lat="41.486906" lon="1.6461818"><ele>468.75</ele><time>2026-03-28T12:05:12.299Z</time></trkpt><trkpt lat="41.4868936" lon="1.6459743"><ele>468.5</ele><time>2026-03-28T12:05:13.299Z</time></trkpt><trkpt lat="41.486887" lon="1.6457803"><ele>468.25</ele><time>2026-03-28T12:05:14.299Z</time></trkpt><trkpt lat="41.4869037" lon="1.6456135"><ele>468.0</ele><time>2026-03-28T12:05:15.299Z</time></trkpt><trkpt lat="41.4869611" lon="1.6454689"><ele>468.0</ele><time>2026-03-28T12:05:16.299Z</time></trkpt><trkpt lat="41.4870549" lon="1.645349"><ele>468.0</ele><time>2026-03-28T12:05:17.299Z</time></trkpt><trkpt lat="41.4871817" lon="1.6452533"><ele>468.0</ele><time>2026-03-28T12:05:18.299Z</time></trkpt><trkpt lat="41.487301" lon="1.645163"><ele>468.0</ele><time>2026-03-28T12:05:19.299Z</time></trkpt><trkpt lat="41.487408" lon="1.6450648"><ele>469.5</ele><time>2026-03-28T12:05:20.299Z</time></trkpt><trkpt lat="41.4874837" lon="1.6449586"><ele>471.0</ele><time>2026-03-28T12:05:21.299Z</time></trkpt><trkpt lat="41.4875267" lon="1.6448268"><ele>472.5</ele><time>2026-03-28T12:05:22.299Z</time></trkpt><trkpt lat="41.4875279" lon="1.6446685"><ele>474.0</ele><time>2026-03-28T12:05:23.299Z</time></trkpt><trkpt lat="41.4874884" lon="1.6444997"><ele>474.75</ele><time>2026-03-28T12:05:24.299Z</time></trkpt><trkpt lat="41.4874145" lon="1.6443221"><ele>475.5</ele><time>2026-03-28T12:05:25.299Z</time></trkpt><trkpt lat="41.4873544" lon="1.6441423"><ele>476.25</ele><time>2026-03-28T12:05:26.299Z</time></trkpt><trkpt lat="41.487329" lon="1.643959"><ele>477.0</ele><time>2026-03-28T12:05:27.299Z</time></trkpt><trkpt lat="41.4873388" lon="1.643754"><ele>477.33333333333337</ele><time>2026-03-28T12:05:28.299Z</time></trkpt><trkpt lat="41.487376" lon="1.6435375"><ele>477.6666666666667</ele><time>2026-03-28T12:05:29.299Z</time></trkpt><trkpt lat="41.4874425" lon="1.643325"><ele>478.0</ele><time>2026-03-28T12:05:30.299Z</time></trkpt><trkpt lat="41.4875332" lon="1.6431153"><ele>478.0</ele><time>2026-03-28T12:05:31.299Z</time></trkpt><trkpt lat="41.4876348" lon="1.6429055"><ele>478.0</ele><time>2026-03-28T12:05:32.299Z</time></trkpt><trkpt lat="41.4877449" lon="1.6427085"><ele>478.0</ele><time>2026-03-28T12:05:33.299Z</time></trkpt><trkpt lat="41.4878758" lon="1.6425328"><ele>478.0</ele><time>2026-03-28T12:05:34.299Z</time></trkpt><trkpt lat="41.4880226" lon="1.6423826"><ele>478.0</ele><time>2026-03-28T12:05:35.298Z</time></trkpt><trkpt lat="41.4881692" lon="1.6422481"><ele>478.0</ele><time>2026-03-28T12:05:36.299Z</time></trkpt><trkpt lat="41.4883036" lon="1.642115"><ele>478.0</ele><time>2026-03-28T12:05:37.299Z</time></trkpt><trkpt lat="41.4884177" lon="1.6419844"><ele>478.0</ele><time>2026-03-28T12:05:38.299Z</time></trkpt><trkpt lat="41.488509" lon="1.6418327"><ele>478.0</ele><time>2026-03-28T12:05:39.299Z</time></trkpt><trkpt lat="41.4885617" lon="1.6416511"><ele>478.0</ele><time>2026-03-28T12:05:40.299Z</time></trkpt><trkpt lat="41.4885821" lon="1.6414382"><ele>474.0</ele><time>2026-03-28T12:05:41.299Z</time></trkpt><trkpt lat="41.4885908" lon="1.6411947"><ele>470.0</ele><time>2026-03-28T12:05:42.299Z</time></trkpt><trkpt lat="41.4886147" lon="1.6409469"><ele>466.0</ele><time>2026-03-28T12:05:43.299Z</time></trkpt><trkpt lat="41.4886588" lon="1.6407062"><ele>464.0</ele><time>2026-03-28T12:05:44.299Z</time></trkpt><trkpt lat="41.4887069" lon="1.6404751"><ele>462.0</ele><time>2026-03-28T12:05:45.299Z</time></trkpt><trkpt lat="41.488729" lon="1.64022"><ele>460.0</ele><time>2026-03-28T12:05:46.299Z</time></trkpt><trkpt lat="41.4887354" lon="1.6399669"><ele>459.33333333333337</ele><time>2026-03-28T12:05:47.299Z</time></trkpt><trkpt lat="41.488733" lon="1.6397164"><ele>458.66666666666663</ele><time>2026-03-28T12:05:48.299Z</time></trkpt><trkpt lat="41.4887117" lon="1.6394715"><ele>458.0</ele><time>2026-03-28T12:05:49.299Z</time></trkpt><trkpt lat="41.4886619" lon="1.639233"><ele>457.3333333333333</ele><time>2026-03-28T12:05:50.299Z</time></trkpt><trkpt lat="41.4885752" lon="1.6389944"><ele>456.66666666666663</ele><time>2026-03-28T12:05:51.299Z</time></trkpt><trkpt lat="41.4884517" lon="1.6387546"><ele>456.0</ele><time>2026-03-28T12:05:52.299Z</time></trkpt><trkpt lat="41.4883161" lon="1.6384952"><ele>456.0</ele><time>2026-03-28T12:05:53.299Z</time></trkpt><trkpt lat="41.4881806" lon="1.6382167"><ele>456.0</ele><time>2026-03-28T12:05:54.299Z</time></trkpt><trkpt lat="41.4880474" lon="1.6379458"><ele>454.5</ele><time>2026-03-28T12:05:55.299Z</time></trkpt><trkpt lat="41.4879156" lon="1.6376814"><ele>453.0</ele><time>2026-03-28T12:05:56.299Z</time></trkpt><trkpt lat="41.4877865" lon="1.6374219"><ele>453.0</ele><time>2026-03-28T12:05:57.299Z</time></trkpt><trkpt lat="41.4876548" lon="1.6371594"><ele>453.0</ele><time>2026-03-28T12:05:58.299Z</time></trkpt><trkpt lat="41.4875288" lon="1.6369048"><ele>453.33333333333337</ele><time>2026-03-28T12:05:59.299Z</time></trkpt><trkpt lat="41.487407" lon="1.6366604"><ele>453.6666666666667</ele><time>2026-03-28T12:06:00.299Z</time></trkpt><trkpt lat="41.4872878" lon="1.6364242"><ele>454.0</ele><time>2026-03-28T12:06:01.299Z</time></trkpt><trkpt lat="41.4871772" lon="1.636199"><ele>455.33333333333337</ele><time>2026-03-28T12:06:02.299Z</time></trkpt><trkpt lat="41.4870719" lon="1.6359919"><ele>456.66666666666663</ele><time>2026-03-28T12:06:03.299Z</time></trkpt><trkpt lat="41.4869777" lon="1.6358016"><ele>458.0</ele><time>2026-03-28T12:06:04.298Z</time></trkpt><trkpt lat="41.4868946" lon="1.6356124"><ele>458.0</ele><time>2026-03-28T12:06:05.299Z</time></trkpt><trkpt lat="41.4868291" lon="1.6354176"><ele>458.0</ele><time>2026-03-28T12:06:06.299Z</time></trkpt><trkpt lat="41.4867935" lon="1.635214"><ele>458.0</ele><time>2026-03-28T12:06:07.299Z</time></trkpt><trkpt lat="41.4867721" lon="1.6349965"><ele>457.0</ele><time>2026-03-28T12:06:08.299Z</time></trkpt><trkpt lat="41.4867485" lon="1.6347621"><ele>456.0</ele><time>2026-03-28T12:06:09.299Z</time></trkpt><trkpt lat="41.4867113" lon="1.6345215"><ele>455.0</ele><time>2026-03-28T12:06:10.298Z</time></trkpt><trkpt lat="41.4866779" lon="1.6342793"><ele>454.66666666666663</ele><time>2026-03-28T12:06:11.299Z</time></trkpt><trkpt lat="41.4866448" lon="1.6340452"><ele>454.33333333333337</ele><time>2026-03-28T12:06:12.299Z</time></trkpt><trkpt lat="41.4866193" lon="1.6338219"><ele>454.0</ele><time>2026-03-28T12:06:13.299Z</time></trkpt><trkpt lat="41.4866252" lon="1.6336022"><ele>452.6666666666667</ele><time>2026-03-28T12:06:14.299Z</time></trkpt><trkpt lat="41.4866696" lon="1.6333803"><ele>451.33333333333337</ele><time>2026-03-28T12:06:15.299Z</time></trkpt><trkpt lat="41.4867394" lon="1.6331515"><ele>450.0</ele><time>2026-03-28T12:06:16.299Z</time></trkpt><trkpt lat="41.4868117" lon="1.6329222"><ele>448.0</ele><time>2026-03-28T12:06:17.299Z</time></trkpt><trkpt lat="41.4868791" lon="1.6327003"><ele>446.0</ele><time>2026-03-28T12:06:18.299Z</time></trkpt><trkpt lat="41.4869437" lon="1.6325159"><ele>444.0</ele><time>2026-03-28T12:06:19.299Z</time></trkpt><trkpt lat="41.4870138" lon="1.6323505"><ele>447.66666666666663</ele><time>2026-03-28T12:06:20.299Z</time></trkpt><trkpt lat="41.4871079" lon="1.6321984"><ele>451.3333333333333</ele><time>2026-03-28T12:06:21.299Z</time></trkpt><trkpt lat="41.4872435" lon="1.6320989"><ele>455.0</ele><time>2026-03-28T12:06:22.299Z</time></trkpt><trkpt lat="41.4873775" lon="1.6320048"><ele>450.3333333333333</ele><time>2026-03-28T12:06:23.299Z</time></trkpt><trkpt lat="41.4875393" lon="1.6319492"><ele>445.66666666666663</ele><time>2026-03-28T12:06:24.299Z</time></trkpt><trkpt lat="41.4878081" lon="1.6318516"><ele>441.0</ele><time>2026-03-28T12:06:26.298Z</time></trkpt><trkpt lat="41.4879015" lon="1.6317744"><ele>441.0</ele><time>2026-03-28T12:06:27.297Z</time></trkpt><trkpt lat="41.4879609" lon="1.6316643"><ele>441.0</ele><time>2026-03-28T12:06:28.298Z</time></trkpt><trkpt lat="41.4879793" lon="1.6315313"><ele>441.0</ele><time>2026-03-28T12:06:29.298Z</time></trkpt><trkpt lat="41.4879558" lon="1.6313809"><ele>441.0</ele><time>2026-03-28T12:06:30.297Z</time></trkpt><trkpt lat="41.487892" lon="1.6312231"><ele>440.66666666666663</ele><time>2026-03-28T12:06:31.298Z</time></trkpt><trkpt lat="41.4877892" lon="1.6310866"><ele>440.3333333333333</ele><time>2026-03-28T12:06:32.298Z</time></trkpt><trkpt lat="41.4876537" lon="1.6309681"><ele>440.0</ele><time>2026-03-28T12:06:33.298Z</time></trkpt><trkpt lat="41.4875019" lon="1.6308638"><ele>440.0</ele><time>2026-03-28T12:06:34.298Z</time></trkpt><trkpt lat="41.4873312" lon="1.6307326"><ele>440.0</ele><time>2026-03-28T12:06:35.297Z</time></trkpt><trkpt lat="41.4871558" lon="1.6305685"><ele>440.0</ele><time>2026-03-28T12:06:36.298Z</time></trkpt><trkpt lat="41.486986" lon="1.6303826"><ele>441.0</ele><time>2026-03-28T12:06:37.298Z</time></trkpt><trkpt lat="41.486811" lon="1.6301834"><ele>442.0</ele><time>2026-03-28T12:06:38.298Z</time></trkpt><trkpt lat="41.4866243" lon="1.6299855"><ele>442.0</ele><time>2026-03-28T12:06:39.298Z</time></trkpt><trkpt lat="41.4864304" lon="1.6297788"><ele>442.0</ele><time>2026-03-28T12:06:40.298Z</time></trkpt><trkpt lat="41.4862327" lon="1.6295581"><ele>441.5</ele><time>2026-03-28T12:06:41.298Z</time></trkpt><trkpt lat="41.4860386" lon="1.6293341"><ele>441.0</ele><time>2026-03-28T12:06:42.298Z</time></trkpt><trkpt lat="41.4858375" lon="1.6291105"><ele>441.0</ele><time>2026-03-28T12:06:43.298Z</time></trkpt><trkpt lat="41.4856314" lon="1.6288813"><ele>441.0</ele><time>2026-03-28T12:06:44.298Z</time></trkpt><trkpt lat="41.4854277" lon="1.6286538"><ele>441.5</ele><time>2026-03-28T12:06:45.297Z</time></trkpt><trkpt lat="41.4852229" lon="1.6284288"><ele>442.0</ele><time>2026-03-28T12:06:46.297Z</time></trkpt><trkpt lat="41.4850111" lon="1.6281981"><ele>442.0</ele><time>2026-03-28T12:06:47.298Z</time></trkpt><trkpt lat="41.4847954" lon="1.6279639"><ele>442.0</ele><time>2026-03-28T12:06:48.298Z</time></trkpt><trkpt lat="41.4845866" lon="1.6277309"><ele>442.5</ele><time>2026-03-28T12:06:49.298Z</time></trkpt><trkpt lat="41.4843798" lon="1.6274984"><ele>443.0</ele><time>2026-03-28T12:06:50.298Z</time></trkpt><trkpt lat="41.4841708" lon="1.6272572"><ele>443.0</ele><time>2026-03-28T12:06:51.298Z</time></trkpt><trkpt lat="41.4839627" lon="1.6270259"><ele>443.0</ele><time>2026-03-28T12:06:52.298Z</time></trkpt><trkpt lat="41.4837624" lon="1.6268037"><ele>444.5</ele><time>2026-03-28T12:06:53.298Z</time></trkpt><trkpt lat="41.4835734" lon="1.6265945"><ele>446.0</ele><time>2026-03-28T12:06:54.298Z</time></trkpt><trkpt lat="41.4834053" lon="1.6264059"><ele>446.0</ele><time>2026-03-28T12:06:55.298Z</time></trkpt><trkpt lat="41.4832565" lon="1.6262388"><ele>446.0</ele><time>2026-03-28T12:06:56.298Z</time></trkpt><trkpt lat="41.4831212" lon="1.6260895"><ele>446.0</ele><time>2026-03-28T12:06:57.298Z</time></trkpt><trkpt lat="41.4829976" lon="1.6259501"><ele>446.66666666666663</ele><time>2026-03-28T12:06:58.298Z</time></trkpt><trkpt lat="41.4828824" lon="1.6258103"><ele>447.33333333333337</ele><time>2026-03-28T12:06:59.298Z</time></trkpt><trkpt lat="41.482773" lon="1.6256343"><ele>448.0</ele><time>2026-03-28T12:07:00.298Z</time></trkpt><trkpt lat="41.4826651" lon="1.6254133"><ele>451.33333333333337</ele><time>2026-03-28T12:07:01.298Z</time></trkpt><trkpt lat="41.4825482" lon="1.6251868"><ele>454.66666666666663</ele><time>2026-03-28T12:07:02.298Z</time></trkpt><trkpt lat="41.4824321" lon="1.6249554"><ele>458.0</ele><time>2026-03-28T12:07:03.298Z</time></trkpt><trkpt lat="41.482312" lon="1.6247561"><ele>458.0</ele><time>2026-03-28T12:07:04.298Z</time></trkpt><trkpt lat="41.482166" lon="1.6245913"><ele>458.0</ele><time>2026-03-28T12:07:05.298Z</time></trkpt><trkpt lat="41.4819894" lon="1.6244525"><ele>458.0</ele><time>2026-03-28T12:07:06.298Z</time></trkpt><trkpt lat="41.4818012" lon="1.6243363"><ele>460.3333333333333</ele><time>2026-03-28T12:07:07.297Z</time></trkpt><trkpt lat="41.4816017" lon="1.6242564"><ele>462.66666666666663</ele><time>2026-03-28T12:07:08.298Z</time></trkpt><trkpt lat="41.481407" lon="1.6242134"><ele>465.0</ele><time>2026-03-28T12:07:09.297Z</time></trkpt><trkpt lat="41.4812205" lon="1.6241886"><ele>465.0</ele><time>2026-03-28T12:07:10.298Z</time></trkpt><trkpt lat="41.4810535" lon="1.624164"><ele>465.0</ele><time>2026-03-28T12:07:11.298Z</time></trkpt><trkpt lat="41.4809093" lon="1.6241489"><ele>465.0</ele><time>2026-03-28T12:07:12.298Z</time></trkpt><trkpt lat="41.4807968" lon="1.6241157"><ele>465.0</ele><time>2026-03-28T12:07:13.298Z</time></trkpt><trkpt lat="41.4807029" lon="1.6240546"><ele>465.0</ele><time>2026-03-28T12:07:14.297Z</time></trkpt><trkpt lat="41.4806411" lon="1.6239526"><ele>465.0</ele><time>2026-03-28T12:07:15.298Z</time></trkpt><trkpt lat="41.4806122" lon="1.6238146"><ele>465.0</ele><time>2026-03-28T12:07:16.298Z</time></trkpt><trkpt lat="41.480614" lon="1.6236333"><ele>465.0</ele><time>2026-03-28T12:07:17.298Z</time></trkpt><trkpt lat="41.4806354" lon="1.6234294"><ele>467.33333333333337</ele><time>2026-03-28T12:07:18.298Z</time></trkpt><trkpt lat="41.4806603" lon="1.6232123"><ele>469.6666666666667</ele><time>2026-03-28T12:07:19.298Z</time></trkpt><trkpt lat="41.4806807" lon="1.6229721"><ele>472.0</ele><time>2026-03-28T12:07:20.298Z</time></trkpt><trkpt lat="41.4807067" lon="1.6227222"><ele>472.0</ele><time>2026-03-28T12:07:21.298Z</time></trkpt><trkpt lat="41.4807346" lon="1.6224884"><ele>472.0</ele><time>2026-03-28T12:07:22.298Z</time></trkpt><trkpt lat="41.4807534" lon="1.6222767"><ele>472.0</ele><time>2026-03-28T12:07:23.298Z</time></trkpt><trkpt lat="41.480746" lon="1.622076"><ele>471.0</ele><time>2026-03-28T12:07:24.297Z</time></trkpt><trkpt lat="41.4806941" lon="1.6218845"><ele>470.0</ele><time>2026-03-28T12:07:25.298Z</time></trkpt><trkpt lat="41.4806014" lon="1.6216958"><ele>469.0</ele><time>2026-03-28T12:07:26.297Z</time></trkpt><trkpt lat="41.4804848" lon="1.6215002"><ele>469.0</ele><time>2026-03-28T12:07:27.298Z</time></trkpt><trkpt lat="41.4803676" lon="1.6213005"><ele>469.0</ele><time>2026-03-28T12:07:28.298Z</time></trkpt><trkpt lat="41.480243" lon="1.6211152"><ele>469.0</ele><time>2026-03-28T12:07:29.298Z</time></trkpt><trkpt lat="41.4800969" lon="1.6209576"><ele>469.0</ele><time>2026-03-28T12:07:30.298Z</time></trkpt><trkpt lat="41.4799269" lon="1.6208353"><ele>469.0</ele><time>2026-03-28T12:07:31.297Z</time></trkpt><trkpt lat="41.4797367" lon="1.6207419"><ele>469.0</ele><time>2026-03-28T12:07:32.298Z</time></trkpt><trkpt lat="41.479569" lon="1.6206489"><ele>469.0</ele><time>2026-03-28T12:07:33.298Z</time></trkpt><trkpt lat="41.4794241" lon="1.6205613"><ele>469.0</ele><time>2026-03-28T12:07:34.297Z</time></trkpt><trkpt lat="41.4793033" lon="1.6204422"><ele>469.0</ele><time>2026-03-28T12:07:35.298Z</time></trkpt><trkpt lat="41.4792017" lon="1.620276"><ele>470.33333333333337</ele><time>2026-03-28T12:07:36.298Z</time></trkpt><trkpt lat="41.4791149" lon="1.6200691"><ele>471.66666666666663</ele><time>2026-03-28T12:07:37.298Z</time></trkpt><trkpt lat="41.4790339" lon="1.6198578"><ele>473.0</ele><time>2026-03-28T12:07:38.298Z</time></trkpt><trkpt lat="41.4789647" lon="1.6196864"><ele>473.0</ele><time>2026-03-28T12:07:39.298Z</time></trkpt><trkpt lat="41.4789061" lon="1.6195512"><ele>472.99999999999994</ele><time>2026-03-28T12:07:40.298Z</time></trkpt><trkpt lat="41.4788597" lon="1.619434"><ele>472.99999999999994</ele><time>2026-03-28T12:07:41.298Z</time></trkpt><trkpt lat="41.4788387" lon="1.6193203"><ele>473.0</ele><time>2026-03-28T12:07:42.298Z</time></trkpt><trkpt lat="41.4788535" lon="1.6191951"><ele>473.0</ele><time>2026-03-28T12:07:43.298Z</time></trkpt><trkpt lat="41.4789117" lon="1.6190797"><ele>472.75</ele><time>2026-03-28T12:07:44.298Z</time></trkpt><trkpt lat="41.4790072" lon="1.6189669"><ele>472.5</ele><time>2026-03-28T12:07:45.298Z</time></trkpt><trkpt lat="41.4791209" lon="1.6188556"><ele>472.25</ele><time>2026-03-28T12:07:46.298Z</time></trkpt><trkpt lat="41.4792366" lon="1.61874"><ele>472.0</ele><time>2026-03-28T12:07:47.298Z</time></trkpt><trkpt lat="41.4793445" lon="1.6186003"><ele>472.0</ele><time>2026-03-28T12:07:48.297Z</time></trkpt><trkpt lat="41.4794259" lon="1.6184154"><ele>472.0</ele><time>2026-03-28T12:07:49.298Z</time></trkpt><trkpt lat="41.4794814" lon="1.6182082"><ele>472.0</ele><time>2026-03-28T12:07:50.297Z</time></trkpt><trkpt lat="41.4795252" lon="1.6179869"><ele>469.33333333333337</ele><time>2026-03-28T12:07:51.298Z</time></trkpt><trkpt lat="41.4795658" lon="1.6177762"><ele>466.66666666666663</ele><time>2026-03-28T12:07:52.298Z</time></trkpt><trkpt lat="41.4795756" lon="1.617558"><ele>464.0</ele><time>2026-03-28T12:07:53.298Z</time></trkpt><trkpt lat="41.4795466" lon="1.617341"><ele>464.0</ele><time>2026-03-28T12:07:54.297Z</time></trkpt><trkpt lat="41.4794739" lon="1.6171366"><ele>464.0</ele><time>2026-03-28T12:07:55.298Z</time></trkpt><trkpt lat="41.4793632" lon="1.6169433"><ele>464.0</ele><time>2026-03-28T12:07:56.298Z</time></trkpt><trkpt lat="41.4792445" lon="1.6167626"><ele>464.66666666666663</ele><time>2026-03-28T12:07:57.298Z</time></trkpt><trkpt lat="41.4791334" lon="1.6165644"><ele>465.33333333333337</ele><time>2026-03-28T12:07:58.298Z</time></trkpt><trkpt lat="41.4790427" lon="1.6163468"><ele>466.0</ele><time>2026-03-28T12:07:59.298Z</time></trkpt><trkpt lat="41.4789758" lon="1.6161282"><ele>467.33333333333337</ele><time>2026-03-28T12:08:00.298Z</time></trkpt><trkpt lat="41.4789156" lon="1.6159112"><ele>468.66666666666663</ele><time>2026-03-28T12:08:01.298Z</time></trkpt><trkpt lat="41.4788703" lon="1.6156909"><ele>470.0</ele><time>2026-03-28T12:08:02.298Z</time></trkpt><trkpt lat="41.478845" lon="1.6154575"><ele>469.66666666666663</ele><time>2026-03-28T12:08:03.298Z</time></trkpt><trkpt lat="41.4788375" lon="1.6152219"><ele>469.33333333333337</ele><time>2026-03-28T12:08:04.298Z</time></trkpt><trkpt lat="41.4788348" lon="1.6150004"><ele>469.0</ele><time>2026-03-28T12:08:05.298Z</time></trkpt><trkpt lat="41.4788263" lon="1.614783"><ele>469.0</ele><time>2026-03-28T12:08:06.298Z</time></trkpt><trkpt lat="41.4788164" lon="1.6145747"><ele>469.0</ele><time>2026-03-28T12:08:07.298Z</time></trkpt><trkpt lat="41.4788094" lon="1.6143834"><ele>469.0</ele><time>2026-03-28T12:08:08.298Z</time></trkpt><trkpt lat="41.4788049" lon="1.6142223"><ele>469.0</ele><time>2026-03-28T12:08:09.298Z</time></trkpt><trkpt lat="41.4788024" lon="1.6140964"><ele>468.50000000000006</ele><time>2026-03-28T12:08:10.298Z</time></trkpt><trkpt lat="41.478803" lon="1.61399"><ele>468.0</ele><time>2026-03-28T12:08:11.298Z</time></trkpt><trkpt lat="41.478802" lon="1.6138812"><ele>467.5</ele><time>2026-03-28T12:08:12.297Z</time></trkpt><trkpt lat="41.4787982" lon="1.6137775"><ele>467.0</ele><time>2026-03-28T12:08:13.298Z</time></trkpt><trkpt lat="41.4787931" lon="1.6136631"><ele>466.50000000000006</ele><time>2026-03-28T12:08:14.298Z</time></trkpt><trkpt lat="41.4787941" lon="1.613515"><ele>466.0</ele><time>2026-03-28T12:08:15.298Z</time></trkpt><trkpt lat="41.4787915" lon="1.6133549"><ele>464.5</ele><time>2026-03-28T12:08:16.297Z</time></trkpt><trkpt lat="41.4787892" lon="1.6131874"><ele>463.0</ele><time>2026-03-28T12:08:17.298Z</time></trkpt><trkpt lat="41.4787826" lon="1.6130248"><ele>461.5</ele><time>2026-03-28T12:08:18.298Z</time></trkpt><trkpt lat="41.4787754" lon="1.6128762"><ele>460.0</ele><time>2026-03-28T12:08:19.298Z</time></trkpt><trkpt lat="41.4787729" lon="1.6127532"><ele>458.6</ele><time>2026-03-28T12:08:20.297Z</time></trkpt><trkpt lat="41.478773" lon="1.6126319"><ele>457.2</ele><time>2026-03-28T12:08:21.298Z</time></trkpt><trkpt lat="41.4787764" lon="1.6125116"><ele>455.79999999999995</ele><time>2026-03-28T12:08:22.298Z</time></trkpt><trkpt lat="41.4787738" lon="1.6123843"><ele>454.4</ele><time>2026-03-28T12:08:23.298Z</time></trkpt><trkpt lat="41.4787783" lon="1.6122413"><ele>453.0</ele><time>2026-03-28T12:08:24.297Z</time></trkpt><trkpt lat="41.4787975" lon="1.6120865"><ele>451.75</ele><time>2026-03-28T12:08:25.297Z</time></trkpt><trkpt lat="41.4788413" lon="1.6119337"><ele>450.5</ele><time>2026-03-28T12:08:26.298Z</time></trkpt><trkpt lat="41.4789064" lon="1.6117927"><ele>449.25</ele><time>2026-03-28T12:08:27.298Z</time></trkpt><trkpt lat="41.4789786" lon="1.6116726"><ele>448.0</ele><time>2026-03-28T12:08:28.298Z</time></trkpt><trkpt lat="41.4790613" lon="1.6115736"><ele>448.0</ele><time>2026-03-28T12:08:29.298Z</time></trkpt><trkpt lat="41.4791393" lon="1.6114722"><ele>448.0</ele><time>2026-03-28T12:08:30.298Z</time></trkpt><trkpt lat="41.4792211" lon="1.6113564"><ele>448.0</ele><time>2026-03-28T12:08:31.298Z</time></trkpt><trkpt lat="41.4793056" lon="1.6112422"><ele>448.0</ele><time>2026-03-28T12:08:32.298Z</time></trkpt><trkpt lat="41.4793843" lon="1.6111369"><ele>447.79999999999995</ele><time>2026-03-28T12:08:33.298Z</time></trkpt><trkpt lat="41.4794473" lon="1.6110502"><ele>447.59999999999997</ele><time>2026-03-28T12:08:34.298Z</time></trkpt><trkpt lat="41.4795033" lon="1.6109684"><ele>447.40000000000003</ele><time>2026-03-28T12:08:35.298Z</time></trkpt><trkpt lat="41.4795607" lon="1.6108767"><ele>447.20000000000005</ele><time>2026-03-28T12:08:36.298Z</time></trkpt><trkpt lat="41.4796276" lon="1.610756"><ele>447.0</ele><time>2026-03-28T12:08:37.298Z</time></trkpt><trkpt lat="41.4796978" lon="1.6106161"><ele>447.0</ele><time>2026-03-28T12:08:38.298Z</time></trkpt><trkpt lat="41.4797573" lon="1.6104785"><ele>447.00000000000006</ele><time>2026-03-28T12:08:39.298Z</time></trkpt><trkpt lat="41.479815" lon="1.6103622"><ele>447.00000000000006</ele><time>2026-03-28T12:08:40.298Z</time></trkpt><trkpt lat="41.4798681" lon="1.6102542"><ele>447.0</ele><time>2026-03-28T12:08:41.298Z</time></trkpt><trkpt lat="41.47992" lon="1.6101434"><ele>447.0</ele><time>2026-03-28T12:08:42.298Z</time></trkpt><trkpt lat="41.4799776" lon="1.6100268"><ele>446.20000000000005</ele><time>2026-03-28T12:08:43.298Z</time></trkpt><trkpt lat="41.4800473" lon="1.6099137"><ele>445.40000000000003</ele><time>2026-03-28T12:08:44.298Z</time></trkpt><trkpt lat="41.4801271" lon="1.6098229"><ele>444.59999999999997</ele><time>2026-03-28T12:08:45.298Z</time></trkpt><trkpt lat="41.480204" lon="1.6097371"><ele>443.79999999999995</ele><time>2026-03-28T12:08:46.297Z</time></trkpt><trkpt lat="41.4802557" lon="1.6096414"><ele>443.0</ele><time>2026-03-28T12:08:47.297Z</time></trkpt><trkpt lat="41.4802745" lon="1.609524"><ele>441.5</ele><time>2026-03-28T12:08:48.298Z</time></trkpt><trkpt lat="41.4802566" lon="1.6093914"><ele>440.0</ele><time>2026-03-28T12:08:49.297Z</time></trkpt><trkpt lat="41.4802008" lon="1.6092472"><ele>438.5</ele><time>2026-03-28T12:08:50.298Z</time></trkpt><trkpt lat="41.4801236" lon="1.609088"><ele>437.0</ele><time>2026-03-28T12:08:51.298Z</time></trkpt><trkpt lat="41.4800412" lon="1.6089346"><ele>437.0</ele><time>2026-03-28T12:08:52.298Z</time></trkpt><trkpt lat="41.4799706" lon="1.6087996"><ele>437.00000000000006</ele><time>2026-03-28T12:08:53.298Z</time></trkpt><trkpt lat="41.4799127" lon="1.6086873"><ele>437.00000000000006</ele><time>2026-03-28T12:08:54.298Z</time></trkpt><trkpt lat="41.479864" lon="1.6085839"><ele>437.0</ele><time>2026-03-28T12:08:55.298Z</time></trkpt><trkpt lat="41.4798316" lon="1.6084673"><ele>437.0</ele><time>2026-03-28T12:08:56.298Z</time></trkpt><trkpt lat="41.4798233" lon="1.6083262"><ele>436.5</ele><time>2026-03-28T12:08:57.298Z</time></trkpt><trkpt lat="41.4798474" lon="1.6081738"><ele>436.0</ele><time>2026-03-28T12:08:58.298Z</time></trkpt><trkpt lat="41.4799083" lon="1.6080376"><ele>435.5</ele><time>2026-03-28T12:08:59.298Z</time></trkpt><trkpt lat="41.4799924" lon="1.6079293"><ele>435.0</ele><time>2026-03-28T12:09:00.298Z</time></trkpt><trkpt lat="41.480082" lon="1.6078329"><ele>435.25</ele><time>2026-03-28T12:09:01.298Z</time></trkpt><trkpt lat="41.4801762" lon="1.607713"><ele>435.5</ele><time>2026-03-28T12:09:02.297Z</time></trkpt><trkpt lat="41.4802705" lon="1.6075765"><ele>435.75</ele><time>2026-03-28T12:09:03.298Z</time></trkpt><trkpt lat="41.4803682" lon="1.6074365"><ele>436.0</ele><time>2026-03-28T12:09:04.298Z</time></trkpt><trkpt lat="41.4804794" lon="1.6072867"><ele>436.0</ele><time>2026-03-28T12:09:05.298Z</time></trkpt><trkpt lat="41.4805979" lon="1.6071335"><ele>436.0</ele><time>2026-03-28T12:09:06.298Z</time></trkpt><trkpt lat="41.480719" lon="1.6069691"><ele>436.0</ele><time>2026-03-28T12:09:07.298Z</time></trkpt><trkpt lat="41.4808482" lon="1.6068053"><ele>436.6666666666667</ele><time>2026-03-28T12:09:08.298Z</time></trkpt><trkpt lat="41.4809839" lon="1.6066245"><ele>437.33333333333337</ele><time>2026-03-28T12:09:09.298Z</time></trkpt><trkpt lat="41.4811329" lon="1.6064246"><ele>438.0</ele><time>2026-03-28T12:09:10.298Z</time></trkpt><trkpt lat="41.4812864" lon="1.6062205"><ele>439.5</ele><time>2026-03-28T12:09:11.297Z</time></trkpt><trkpt lat="41.4814491" lon="1.6060045"><ele>441.0</ele><time>2026-03-28T12:09:12.298Z</time></trkpt><trkpt lat="41.4816134" lon="1.605803"><ele>441.0</ele><time>2026-03-28T12:09:13.298Z</time></trkpt><trkpt lat="41.4817659" lon="1.6056147"><ele>441.0</ele><time>2026-03-28T12:09:14.298Z</time></trkpt><trkpt lat="41.4819094" lon="1.6054262"><ele>441.0</ele><time>2026-03-28T12:09:15.297Z</time></trkpt><trkpt lat="41.4820648" lon="1.6052467"><ele>441.66666666666663</ele><time>2026-03-28T12:09:16.298Z</time></trkpt><trkpt lat="41.4822305" lon="1.6050653"><ele>442.3333333333333</ele><time>2026-03-28T12:09:17.298Z</time></trkpt><trkpt lat="41.4823789" lon="1.6048763"><ele>443.0</ele><time>2026-03-28T12:09:18.298Z</time></trkpt><trkpt lat="41.4825108" lon="1.6046898"><ele>443.0</ele><time>2026-03-28T12:09:19.298Z</time></trkpt><trkpt lat="41.4826333" lon="1.6045068"><ele>443.0</ele><time>2026-03-28T12:09:20.298Z</time></trkpt><trkpt lat="41.4827538" lon="1.6043217"><ele>443.0</ele><time>2026-03-28T12:09:21.298Z</time></trkpt><trkpt lat="41.482876" lon="1.6041264"><ele>443.66666666666663</ele><time>2026-03-28T12:09:22.298Z</time></trkpt><trkpt lat="41.4830055" lon="1.6039284"><ele>444.33333333333337</ele><time>2026-03-28T12:09:23.298Z</time></trkpt><trkpt lat="41.4831316" lon="1.6037372"><ele>445.0</ele><time>2026-03-28T12:09:24.298Z</time></trkpt><trkpt lat="41.4832532" lon="1.603536"><ele>446.33333333333337</ele><time>2026-03-28T12:09:25.298Z</time></trkpt><trkpt lat="41.4833712" lon="1.6033355"><ele>447.66666666666663</ele><time>2026-03-28T12:09:26.298Z</time></trkpt><trkpt lat="41.4834826" lon="1.6031363"><ele>449.0</ele><time>2026-03-28T12:09:27.298Z</time></trkpt><trkpt lat="41.4835945" lon="1.6029494"><ele>449.66666666666663</ele><time>2026-03-28T12:09:28.298Z</time></trkpt><trkpt lat="41.4836985" lon="1.6027689"><ele>450.33333333333337</ele><time>2026-03-28T12:09:29.298Z</time></trkpt><trkpt lat="41.4838092" lon="1.6025937"><ele>451.0</ele><time>2026-03-28T12:09:30.298Z</time></trkpt><trkpt lat="41.483918" lon="1.6024289"><ele>451.33333333333337</ele><time>2026-03-28T12:09:31.298Z</time></trkpt><trkpt lat="41.4840168" lon="1.6022638"><ele>451.66666666666663</ele><time>2026-03-28T12:09:32.298Z</time></trkpt><trkpt lat="41.4841129" lon="1.6021096"><ele>452.0</ele><time>2026-03-28T12:09:33.298Z</time></trkpt><trkpt lat="41.4842096" lon="1.6019505"><ele>452.0</ele><time>2026-03-28T12:09:34.298Z</time></trkpt><trkpt lat="41.484308" lon="1.6017941"><ele>452.0</ele><time>2026-03-28T12:09:35.298Z</time></trkpt><trkpt lat="41.4843976" lon="1.6016555"><ele>452.0</ele><time>2026-03-28T12:09:36.297Z</time></trkpt><trkpt lat="41.4844916" lon="1.6014987"><ele>452.0</ele><time>2026-03-28T12:09:37.298Z</time></trkpt><trkpt lat="41.48459" lon="1.601344"><ele>452.0</ele><time>2026-03-28T12:09:38.298Z</time></trkpt><trkpt lat="41.4846771" lon="1.6012062"><ele>452.0</ele><time>2026-03-28T12:09:39.298Z</time></trkpt><trkpt lat="41.4847609" lon="1.6010797"><ele>452.0</ele><time>2026-03-28T12:09:40.297Z</time></trkpt><trkpt lat="41.4848392" lon="1.6009568"><ele>452.0</ele><time>2026-03-28T12:09:41.298Z</time></trkpt><trkpt lat="41.4849272" lon="1.6008307"><ele>452.25</ele><time>2026-03-28T12:09:42.297Z</time></trkpt><trkpt lat="41.4850232" lon="1.6007026"><ele>452.5</ele><time>2026-03-28T12:09:43.298Z</time></trkpt><trkpt lat="41.4851356" lon="1.6005621"><ele>452.75</ele><time>2026-03-28T12:09:44.298Z</time></trkpt><trkpt lat="41.4852534" lon="1.6004195"><ele>453.0</ele><time>2026-03-28T12:09:45.297Z</time></trkpt><trkpt lat="41.4853884" lon="1.6002677"><ele>452.66666666666663</ele><time>2026-03-28T12:09:46.298Z</time></trkpt><trkpt lat="41.4855226" lon="1.6001125"><ele>452.3333333333333</ele><time>2026-03-28T12:09:47.298Z</time></trkpt><trkpt lat="41.4856633" lon="1.599952"><ele>452.0</ele><time>2026-03-28T12:09:48.298Z</time></trkpt><trkpt lat="41.4858124" lon="1.5997771"><ele>452.0</ele><time>2026-03-28T12:09:49.298Z</time></trkpt><trkpt lat="41.4859751" lon="1.5996022"><ele>452.0</ele><time>2026-03-28T12:09:50.298Z</time></trkpt><trkpt lat="41.4861332" lon="1.5994243"><ele>452.0</ele><time>2026-03-28T12:09:51.298Z</time></trkpt><trkpt lat="41.4862916" lon="1.5992466"><ele>451.3333333333333</ele><time>2026-03-28T12:09:52.298Z</time></trkpt><trkpt lat="41.4864491" lon="1.5990711"><ele>450.66666666666663</ele><time>2026-03-28T12:09:53.298Z</time></trkpt><trkpt lat="41.4866149" lon="1.5988826"><ele>450.0</ele><time>2026-03-28T12:09:54.298Z</time></trkpt><trkpt lat="41.4867874" lon="1.5986923"><ele>451.0</ele><time>2026-03-28T12:09:55.298Z</time></trkpt><trkpt lat="41.4869539" lon="1.5985088"><ele>452.0</ele><time>2026-03-28T12:09:56.298Z</time></trkpt><trkpt lat="41.4871161" lon="1.5983235"><ele>453.0</ele><time>2026-03-28T12:09:57.298Z</time></trkpt><trkpt lat="41.487285" lon="1.5981337"><ele>453.66666666666663</ele><time>2026-03-28T12:09:58.298Z</time></trkpt><trkpt lat="41.4874545" lon="1.5979435"><ele>454.3333333333333</ele><time>2026-03-28T12:09:59.298Z</time></trkpt><trkpt lat="41.4876205" lon="1.5977604"><ele>455.0</ele><time>2026-03-28T12:10:00.298Z</time></trkpt><trkpt lat="41.4877896" lon="1.5975744"><ele>456.3333333333333</ele><time>2026-03-28T12:10:01.298Z</time></trkpt><trkpt lat="41.4879554" lon="1.5973851"><ele>457.66666666666663</ele><time>2026-03-28T12:10:02.298Z</time></trkpt><trkpt lat="41.4881161" lon="1.5972008"><ele>459.0</ele><time>2026-03-28T12:10:03.298Z</time></trkpt><trkpt lat="41.4882775" lon="1.5970243"><ele>459.33333333333337</ele><time>2026-03-28T12:10:04.298Z</time></trkpt><trkpt lat="41.4884372" lon="1.5968523"><ele>459.6666666666667</ele><time>2026-03-28T12:10:05.297Z</time></trkpt><trkpt lat="41.488598" lon="1.5966814"><ele>460.0</ele><time>2026-03-28T12:10:06.298Z</time></trkpt><trkpt lat="41.4887662" lon="1.5965268"><ele>460.33333333333337</ele><time>2026-03-28T12:10:07.297Z</time></trkpt><trkpt lat="41.4889332" lon="1.5963722"><ele>460.66666666666663</ele><time>2026-03-28T12:10:08.298Z</time></trkpt><trkpt lat="41.4890984" lon="1.5962177"><ele>461.0</ele><time>2026-03-28T12:10:09.298Z</time></trkpt><trkpt lat="41.4892629" lon="1.5960655"><ele>461.66666666666663</ele><time>2026-03-28T12:10:10.298Z</time></trkpt><trkpt lat="41.4894185" lon="1.5959136"><ele>462.33333333333337</ele><time>2026-03-28T12:10:11.298Z</time></trkpt><trkpt lat="41.4895681" lon="1.5957735"><ele>463.0</ele><time>2026-03-28T12:10:12.298Z</time></trkpt><trkpt lat="41.4897114" lon="1.595641"><ele>464.33333333333337</ele><time>2026-03-28T12:10:13.298Z</time></trkpt><trkpt lat="41.4898502" lon="1.5955083"><ele>465.66666666666663</ele><time>2026-03-28T12:10:14.298Z</time></trkpt><trkpt lat="41.4899905" lon="1.5953812"><ele>467.0</ele><time>2026-03-28T12:10:15.298Z</time></trkpt><trkpt lat="41.4901293" lon="1.5952522"><ele>467.66666666666663</ele><time>2026-03-28T12:10:16.298Z</time></trkpt><trkpt lat="41.4902648" lon="1.5951214"><ele>468.33333333333337</ele><time>2026-03-28T12:10:17.298Z</time></trkpt><trkpt lat="41.4904003" lon="1.5949991"><ele>469.0</ele><time>2026-03-28T12:10:18.298Z</time></trkpt><trkpt lat="41.4905362" lon="1.5948758"><ele>470.33333333333337</ele><time>2026-03-28T12:10:19.298Z</time></trkpt><trkpt lat="41.490671" lon="1.59475"><ele>471.66666666666663</ele><time>2026-03-28T12:10:20.297Z</time></trkpt><trkpt lat="41.4908024" lon="1.594625"><ele>473.0</ele><time>2026-03-28T12:10:21.297Z</time></trkpt><trkpt lat="41.490941" lon="1.5944988"><ele>474.3333333333333</ele><time>2026-03-28T12:10:22.298Z</time></trkpt><trkpt lat="41.4910885" lon="1.5943581"><ele>475.66666666666663</ele><time>2026-03-28T12:10:23.298Z</time></trkpt><trkpt lat="41.4912457" lon="1.5942121"><ele>477.0</ele><time>2026-03-28T12:10:24.298Z</time></trkpt><trkpt lat="41.4914037" lon="1.5940525"><ele>477.66666666666663</ele><time>2026-03-28T12:10:25.298Z</time></trkpt><trkpt lat="41.491567" lon="1.5938986"><ele>478.3333333333333</ele><time>2026-03-28T12:10:26.298Z</time></trkpt><trkpt lat="41.4917315" lon="1.5937794"><ele>479.0</ele><time>2026-03-28T12:10:27.297Z</time></trkpt><trkpt lat="41.4919123" lon="1.593708"><ele>481.0</ele><time>2026-03-28T12:10:28.298Z</time></trkpt><trkpt lat="41.4921034" lon="1.5936911"><ele>483.0</ele><time>2026-03-28T12:10:29.298Z</time></trkpt><trkpt lat="41.4923016" lon="1.5937191"><ele>485.0</ele><time>2026-03-28T12:10:30.298Z</time></trkpt><trkpt lat="41.4924956" lon="1.5937911"><ele>485.0</ele><time>2026-03-28T12:10:31.298Z</time></trkpt><trkpt lat="41.4926807" lon="1.5939126"><ele>485.0</ele><time>2026-03-28T12:10:32.298Z</time></trkpt><trkpt lat="41.4928566" lon="1.5940786"><ele>485.0</ele><time>2026-03-28T12:10:33.298Z</time></trkpt><trkpt lat="41.4930117" lon="1.594252"><ele>486.0</ele><time>2026-03-28T12:10:34.298Z</time></trkpt><trkpt lat="41.4931624" lon="1.5944063"><ele>487.0</ele><time>2026-03-28T12:10:35.298Z</time></trkpt><trkpt lat="41.4933038" lon="1.5945369"><ele>488.0</ele><time>2026-03-28T12:10:36.298Z</time></trkpt><trkpt lat="41.493432" lon="1.5946361"><ele>488.0</ele><time>2026-03-28T12:10:37.298Z</time></trkpt><trkpt lat="41.4935611" lon="1.5947064"><ele>488.0</ele><time>2026-03-28T12:10:38.298Z</time></trkpt><trkpt lat="41.4936687" lon="1.5946803"><ele>488.0</ele><time>2026-03-28T12:10:39.298Z</time></trkpt><trkpt lat="41.4937708" lon="1.5946162"><ele>488.0</ele><time>2026-03-28T12:10:40.298Z</time></trkpt><trkpt lat="41.4938442" lon="1.5945214"><ele>488.75</ele><time>2026-03-28T12:10:41.298Z</time></trkpt><trkpt lat="41.4939082" lon="1.5943982"><ele>489.5</ele><time>2026-03-28T12:10:42.298Z</time></trkpt><trkpt lat="41.4939115" lon="1.5942076"><ele>490.25</ele><time>2026-03-28T12:10:43.298Z</time></trkpt><trkpt lat="41.4939223" lon="1.5939829"><ele>491.0</ele><time>2026-03-28T12:10:44.298Z</time></trkpt><trkpt lat="41.4939194" lon="1.5937497"><ele>491.66666666666663</ele><time>2026-03-28T12:10:45.298Z</time></trkpt><trkpt lat="41.4939097" lon="1.5934922"><ele>492.33333333333337</ele><time>2026-03-28T12:10:46.298Z</time></trkpt><trkpt lat="41.4938863" lon="1.5932115"><ele>493.0</ele><time>2026-03-28T12:10:47.298Z</time></trkpt><trkpt lat="41.4938621" lon="1.5929305"><ele>494.33333333333337</ele><time>2026-03-28T12:10:48.297Z</time></trkpt><trkpt lat="41.4938446" lon="1.5926715"><ele>495.66666666666663</ele><time>2026-03-28T12:10:49.298Z</time></trkpt><trkpt lat="41.4938517" lon="1.5924462"><ele>497.0</ele><time>2026-03-28T12:10:50.298Z</time></trkpt><trkpt lat="41.4939089" lon="1.5922364"><ele>497.0</ele><time>2026-03-28T12:10:51.298Z</time></trkpt><trkpt lat="41.4939699" lon="1.5920311"><ele>497.0</ele><time>2026-03-28T12:10:52.297Z</time></trkpt><trkpt lat="41.4940635" lon="1.5918375"><ele>497.0</ele><time>2026-03-28T12:10:53.298Z</time></trkpt><trkpt lat="41.4941481" lon="1.5916343"><ele>499.66666666666663</ele><time>2026-03-28T12:10:54.297Z</time></trkpt><trkpt lat="41.4942136" lon="1.5913873"><ele>502.33333333333337</ele><time>2026-03-28T12:10:55.298Z</time></trkpt><trkpt lat="41.4942676" lon="1.5911307"><ele>505.0</ele><time>2026-03-28T12:10:56.298Z</time></trkpt><trkpt lat="41.4943113" lon="1.5908722"><ele>506.6666666666667</ele><time>2026-03-28T12:10:57.298Z</time></trkpt><trkpt lat="41.4943236" lon="1.5906026"><ele>508.33333333333337</ele><time>2026-03-28T12:10:58.298Z</time></trkpt><trkpt lat="41.4943242" lon="1.5903404"><ele>510.0</ele><time>2026-03-28T12:10:59.298Z</time></trkpt><trkpt lat="41.4943296" lon="1.5900538"><ele>510.33333333333337</ele><time>2026-03-28T12:11:00.298Z</time></trkpt><trkpt lat="41.4943383" lon="1.5897639"><ele>510.6666666666667</ele><time>2026-03-28T12:11:01.298Z</time></trkpt><trkpt lat="41.4943415" lon="1.5894869"><ele>511.0</ele><time>2026-03-28T12:11:02.298Z</time></trkpt><trkpt lat="41.4943455" lon="1.5892273"><ele>510.6666666666667</ele><time>2026-03-28T12:11:03.298Z</time></trkpt><trkpt lat="41.4943494" lon="1.5889794"><ele>510.33333333333337</ele><time>2026-03-28T12:11:04.298Z</time></trkpt><trkpt lat="41.4943514" lon="1.5887367"><ele>510.0</ele><time>2026-03-28T12:11:05.298Z</time></trkpt><trkpt lat="41.494353" lon="1.5884958"><ele>510.0</ele><time>2026-03-28T12:11:06.298Z</time></trkpt><trkpt lat="41.4943591" lon="1.5882693"><ele>510.0</ele><time>2026-03-28T12:11:07.298Z</time></trkpt><trkpt lat="41.494365" lon="1.5880371"><ele>510.0</ele><time>2026-03-28T12:11:08.298Z</time></trkpt><trkpt lat="41.4943673" lon="1.5877944"><ele>510.33333333333337</ele><time>2026-03-28T12:11:09.298Z</time></trkpt><trkpt lat="41.4943652" lon="1.5875584"><ele>510.6666666666667</ele><time>2026-03-28T12:11:10.297Z</time></trkpt><trkpt lat="41.4943609" lon="1.5873071"><ele>511.0</ele><time>2026-03-28T12:11:11.298Z</time></trkpt><trkpt lat="41.4943726" lon="1.587058"><ele>510.6666666666667</ele><time>2026-03-28T12:11:12.298Z</time></trkpt><trkpt lat="41.4944384" lon="1.5868115"><ele>510.33333333333337</ele><time>2026-03-28T12:11:13.298Z</time></trkpt><trkpt lat="41.4945056" lon="1.586577"><ele>510.0</ele><time>2026-03-28T12:11:14.298Z</time></trkpt><trkpt lat="41.4945741" lon="1.586373"><ele>504.66666666666663</ele><time>2026-03-28T12:11:15.297Z</time></trkpt><trkpt lat="41.4946049" lon="1.5861451"><ele>499.3333333333333</ele><time>2026-03-28T12:11:16.298Z</time></trkpt><trkpt lat="41.4946046" lon="1.5859044"><ele>494.0</ele><time>2026-03-28T12:11:17.298Z</time></trkpt><trkpt lat="41.4945977" lon="1.5856638"><ele>500.3333333333333</ele><time>2026-03-28T12:11:18.297Z</time></trkpt><trkpt lat="41.4945829" lon="1.5854215"><ele>506.66666666666663</ele><time>2026-03-28T12:11:19.298Z</time></trkpt><trkpt lat="41.4945647" lon="1.5851803"><ele>513.0</ele><time>2026-03-28T12:11:20.298Z</time></trkpt><trkpt lat="41.4945569" lon="1.5849537"><ele>513.3333333333334</ele><time>2026-03-28T12:11:21.298Z</time></trkpt><trkpt lat="41.4945824" lon="1.5847364"><ele>513.6666666666667</ele><time>2026-03-28T12:11:22.298Z</time></trkpt><trkpt lat="41.494643" lon="1.5845345"><ele>514.0</ele><time>2026-03-28T12:11:23.298Z</time></trkpt><trkpt lat="41.4947239" lon="1.5843336"><ele>509.6666666666667</ele><time>2026-03-28T12:11:24.298Z</time></trkpt><trkpt lat="41.4948149" lon="1.5841472"><ele>505.33333333333337</ele><time>2026-03-28T12:11:25.298Z</time></trkpt><trkpt lat="41.4949014" lon="1.5839719"><ele>501.0</ele><time>2026-03-28T12:11:26.298Z</time></trkpt><trkpt lat="41.4949752" lon="1.5838118"><ele>501.75</ele><time>2026-03-28T12:11:27.298Z</time></trkpt><trkpt lat="41.4950282" lon="1.5836458"><ele>502.5</ele><time>2026-03-28T12:11:28.298Z</time></trkpt><trkpt lat="41.4950542" lon="1.5834542"><ele>503.25</ele><time>2026-03-28T12:11:29.298Z</time></trkpt><trkpt lat="41.4950502" lon="1.5832475"><ele>504.0</ele><time>2026-03-28T12:11:30.298Z</time></trkpt><trkpt lat="41.4950209" lon="1.5830259"><ele>503.0</ele><time>2026-03-28T12:11:31.298Z</time></trkpt><trkpt lat="41.4949655" lon="1.5827849"><ele>502.0</ele><time>2026-03-28T12:11:32.298Z</time></trkpt><trkpt lat="41.4948851" lon="1.5825458"><ele>501.0</ele><time>2026-03-28T12:11:33.298Z</time></trkpt><trkpt lat="41.4947852" lon="1.5823115"><ele>501.0</ele><time>2026-03-28T12:11:34.298Z</time></trkpt><trkpt lat="41.4946932" lon="1.5820907"><ele>501.0</ele><time>2026-03-28T12:11:35.298Z</time></trkpt><trkpt lat="41.4946295" lon="1.5818561"><ele>501.0</ele><time>2026-03-28T12:11:36.298Z</time></trkpt><trkpt lat="41.4945896" lon="1.5816205"><ele>505.66666666666663</ele><time>2026-03-28T12:11:37.298Z</time></trkpt><trkpt lat="41.4945621" lon="1.5813827"><ele>510.3333333333333</ele><time>2026-03-28T12:11:38.298Z</time></trkpt><trkpt lat="41.4945457" lon="1.5811281"><ele>515.0</ele><time>2026-03-28T12:11:39.298Z</time></trkpt><trkpt lat="41.494556" lon="1.5808537"><ele>515.0</ele><time>2026-03-28T12:11:40.298Z</time></trkpt><trkpt lat="41.4945621" lon="1.5805788"><ele>515.0</ele><time>2026-03-28T12:11:41.298Z</time></trkpt><trkpt lat="41.4945398" lon="1.5803009"><ele>515.0</ele><time>2026-03-28T12:11:42.298Z</time></trkpt><trkpt lat="41.4945113" lon="1.5800202"><ele>513.3333333333333</ele><time>2026-03-28T12:11:43.298Z</time></trkpt><trkpt lat="41.4944854" lon="1.5797589"><ele>511.66666666666663</ele><time>2026-03-28T12:11:44.298Z</time></trkpt><trkpt lat="41.4944628" lon="1.5795171"><ele>510.0</ele><time>2026-03-28T12:11:45.298Z</time></trkpt><trkpt lat="41.4944404" lon="1.5792914"><ele>509.66666666666663</ele><time>2026-03-28T12:11:46.298Z</time></trkpt><trkpt lat="41.4944212" lon="1.5790787"><ele>509.3333333333333</ele><time>2026-03-28T12:11:47.297Z</time></trkpt><trkpt lat="41.4944042" lon="1.5788632"><ele>509.0</ele><time>2026-03-28T12:11:48.297Z</time></trkpt><trkpt lat="41.4943839" lon="1.5786539"><ele>508.25</ele><time>2026-03-28T12:11:49.298Z</time></trkpt><trkpt lat="41.4943743" lon="1.5784435"><ele>507.5</ele><time>2026-03-28T12:11:50.298Z</time></trkpt><trkpt lat="41.4943766" lon="1.5782474"><ele>506.75</ele><time>2026-03-28T12:11:51.298Z</time></trkpt><trkpt lat="41.4943855" lon="1.578055"><ele>506.0</ele><time>2026-03-28T12:11:52.298Z</time></trkpt><trkpt lat="41.4943901" lon="1.577876"><ele>507.0</ele><time>2026-03-28T12:11:53.298Z</time></trkpt><trkpt lat="41.4943944" lon="1.5777094"><ele>508.0</ele><time>2026-03-28T12:11:54.298Z</time></trkpt><trkpt lat="41.4943794" lon="1.577568"><ele>509.0</ele><time>2026-03-28T12:11:55.298Z</time></trkpt><trkpt lat="41.4943462" lon="1.5774436"><ele>510.0</ele><time>2026-03-28T12:11:56.298Z</time></trkpt><trkpt lat="41.4943085" lon="1.5773218"><ele>511.0</ele><time>2026-03-28T12:11:57.298Z</time></trkpt><trkpt lat="41.4942872" lon="1.577198"><ele>511.0</ele><time>2026-03-28T12:11:58.298Z</time></trkpt><trkpt lat="41.4942966" lon="1.5770729"><ele>511.0</ele><time>2026-03-28T12:11:59.298Z</time></trkpt><trkpt lat="41.49433" lon="1.5769444"><ele>511.0</ele><time>2026-03-28T12:12:00.298Z</time></trkpt><trkpt lat="41.4943724" lon="1.576819"><ele>511.0</ele><time>2026-03-28T12:12:01.298Z</time></trkpt><trkpt lat="41.4944052" lon="1.5767017"><ele>511.0</ele><time>2026-03-28T12:12:02.298Z</time></trkpt><trkpt lat="41.4944195" lon="1.576578"><ele>511.0</ele><time>2026-03-28T12:12:03.298Z</time></trkpt><trkpt lat="41.4944025" lon="1.5764533"><ele>511.0</ele><time>2026-03-28T12:12:04.298Z</time></trkpt><trkpt lat="41.4943808" lon="1.5763447"><ele>511.0</ele><time>2026-03-28T12:12:05.298Z</time></trkpt><trkpt lat="41.4943262" lon="1.5762564"><ele>511.0</ele><time>2026-03-28T12:12:06.298Z</time></trkpt><trkpt lat="41.4942224" lon="1.5761831"><ele>511.0</ele><time>2026-03-28T12:12:07.298Z</time></trkpt><trkpt lat="41.4941424" lon="1.5761137"><ele>513.4</ele><time>2026-03-28T12:12:08.297Z</time></trkpt><trkpt lat="41.49407" lon="1.5760441"><ele>515.8</ele><time>2026-03-28T12:12:09.297Z</time></trkpt><trkpt lat="41.4939972" lon="1.5759673"><ele>518.1999999999999</ele><time>2026-03-28T12:12:10.298Z</time></trkpt><trkpt lat="41.4939234" lon="1.5758662"><ele>520.6</ele><time>2026-03-28T12:12:11.298Z</time></trkpt><trkpt lat="41.4938519" lon="1.575749"><ele>523.0</ele><time>2026-03-28T12:12:12.298Z</time></trkpt><trkpt lat="41.4937808" lon="1.5756213"><ele>519.75</ele><time>2026-03-28T12:12:13.298Z</time></trkpt><trkpt lat="41.4937187" lon="1.5754922"><ele>516.5</ele><time>2026-03-28T12:12:14.298Z</time></trkpt><trkpt lat="41.4936638" lon="1.5753556"><ele>513.25</ele><time>2026-03-28T12:12:15.298Z</time></trkpt><trkpt lat="41.4936191" lon="1.5752144"><ele>510.0</ele><time>2026-03-28T12:12:16.298Z</time></trkpt><trkpt lat="41.4935833" lon="1.5750722"><ele>510.0</ele><time>2026-03-28T12:12:17.298Z</time></trkpt><trkpt lat="41.49356" lon="1.5749291"><ele>510.0</ele><time>2026-03-28T12:12:18.298Z</time></trkpt><trkpt lat="41.4935415" lon="1.5748012"><ele>510.0</ele><time>2026-03-28T12:12:19.297Z</time></trkpt><trkpt lat="41.4935349" lon="1.5746813"><ele>510.0</ele><time>2026-03-28T12:12:20.298Z</time></trkpt><trkpt lat="41.4935285" lon="1.5745517"><ele>510.0</ele><time>2026-03-28T12:12:21.298Z</time></trkpt><trkpt lat="41.4935172" lon="1.5744089"><ele>511.25</ele><time>2026-03-28T12:12:22.298Z</time></trkpt><trkpt lat="41.4935038" lon="1.5742622"><ele>512.5</ele><time>2026-03-28T12:12:23.298Z</time></trkpt><trkpt lat="41.4934967" lon="1.5741012"><ele>513.75</ele><time>2026-03-28T12:12:24.298Z</time></trkpt><trkpt lat="41.4934906" lon="1.5739408"><ele>515.0</ele><time>2026-03-28T12:12:25.298Z</time></trkpt><trkpt lat="41.4934849" lon="1.5737845"><ele>516.25</ele><time>2026-03-28T12:12:26.298Z</time></trkpt><trkpt lat="41.493479" lon="1.5736315"><ele>517.5</ele><time>2026-03-28T12:12:27.298Z</time></trkpt><trkpt lat="41.4934835" lon="1.5734852"><ele>518.75</ele><time>2026-03-28T12:12:28.298Z</time></trkpt><trkpt lat="41.4935145" lon="1.5733302"><ele>520.0</ele><time>2026-03-28T12:12:29.297Z</time></trkpt><trkpt lat="41.4935737" lon="1.5731644"><ele>520.0</ele><time>2026-03-28T12:12:30.298Z</time></trkpt><trkpt lat="41.4936584" lon="1.5730187"><ele>520.0</ele><time>2026-03-28T12:12:31.298Z</time></trkpt><trkpt lat="41.4937622" lon="1.5728871"><ele>520.0</ele><time>2026-03-28T12:12:32.298Z</time></trkpt><trkpt lat="41.4938936" lon="1.5727732"><ele>520.0</ele><time>2026-03-28T12:12:33.297Z</time></trkpt><trkpt lat="41.4940205" lon="1.5726751"><ele>523.5</ele><time>2026-03-28T12:12:34.298Z</time></trkpt><trkpt lat="41.4941413" lon="1.5725633"><ele>527.0</ele><time>2026-03-28T12:12:35.298Z</time></trkpt><trkpt lat="41.4942446" lon="1.5724405"><ele>530.5</ele><time>2026-03-28T12:12:36.298Z</time></trkpt><trkpt lat="41.4943447" lon="1.572323"><ele>534.0</ele><time>2026-03-28T12:12:37.298Z</time></trkpt><trkpt lat="41.4944511" lon="1.5722358"><ele>534.0</ele><time>2026-03-28T12:12:38.298Z</time></trkpt><trkpt lat="41.4945773" lon="1.5721688"><ele>534.0</ele><time>2026-03-28T12:12:39.298Z</time></trkpt><trkpt lat="41.4947117" lon="1.5721192"><ele>534.0</ele><time>2026-03-28T12:12:40.298Z</time></trkpt><trkpt lat="41.494848" lon="1.5720774"><ele>534.0</ele><time>2026-03-28T12:12:41.298Z</time></trkpt><trkpt lat="41.4949778" lon="1.5720161"><ele>535.25</ele><time>2026-03-28T12:12:42.298Z</time></trkpt><trkpt lat="41.4951047" lon="1.571921"><ele>536.5</ele><time>2026-03-28T12:12:43.297Z</time></trkpt><trkpt lat="41.4952238" lon="1.5718194"><ele>537.75</ele><time>2026-03-28T12:12:44.298Z</time></trkpt><trkpt lat="41.4953319" lon="1.5717247"><ele>539.0</ele><time>2026-03-28T12:12:45.297Z</time></trkpt><trkpt lat="41.4954246" lon="1.5716258"><ele>540.25</ele><time>2026-03-28T12:12:46.298Z</time></trkpt><trkpt lat="41.495502" lon="1.571524"><ele>541.5</ele><time>2026-03-28T12:12:47.298Z</time></trkpt><trkpt lat="41.4955733" lon="1.5714047"><ele>542.75</ele><time>2026-03-28T12:12:48.298Z</time></trkpt><trkpt lat="41.4956448" lon="1.571269"><ele>544.0</ele><time>2026-03-28T12:12:49.298Z</time></trkpt><trkpt lat="41.4957168" lon="1.5711349"><ele>544.0</ele><time>2026-03-28T12:12:50.298Z</time></trkpt><trkpt lat="41.4957797" lon="1.5710259"><ele>544.0</ele><time>2026-03-28T12:12:51.298Z</time></trkpt><trkpt lat="41.4958438" lon="1.5709424"><ele>544.0</ele><time>2026-03-28T12:12:52.298Z</time></trkpt><trkpt lat="41.4959223" lon="1.5708896"><ele>544.0</ele><time>2026-03-28T12:12:53.298Z</time></trkpt><trkpt lat="41.4960134" lon="1.5708769"><ele>544.0</ele><time>2026-03-28T12:12:54.298Z</time></trkpt><trkpt lat="41.496116" lon="1.5709069"><ele>544.0</ele><time>2026-03-28T12:12:55.298Z</time></trkpt><trkpt lat="41.4962169" lon="1.5709546"><ele>544.0</ele><time>2026-03-28T12:12:56.298Z</time></trkpt><trkpt lat="41.4963233" lon="1.5710101"><ele>544.0</ele><time>2026-03-28T12:12:57.298Z</time></trkpt><trkpt lat="41.4964235" lon="1.5710863"><ele>544.0</ele><time>2026-03-28T12:12:58.298Z</time></trkpt><trkpt lat="41.4965169" lon="1.571186"><ele>546.4</ele><time>2026-03-28T12:12:59.298Z</time></trkpt><trkpt lat="41.4966" lon="1.5712867"><ele>548.8</ele><time>2026-03-28T12:13:00.298Z</time></trkpt><trkpt lat="41.4966823" lon="1.5713903"><ele>551.2</ele><time>2026-03-28T12:13:01.298Z</time></trkpt><trkpt lat="41.4967637" lon="1.5714917"><ele>553.6</ele><time>2026-03-28T12:13:02.297Z</time></trkpt><trkpt lat="41.4968478" lon="1.571584"><ele>556.0</ele><time>2026-03-28T12:13:03.297Z</time></trkpt><trkpt lat="41.4969312" lon="1.5716644"><ele>556.0</ele><time>2026-03-28T12:13:04.298Z</time></trkpt><trkpt lat="41.4970282" lon="1.5717121"><ele>556.0</ele><time>2026-03-28T12:13:05.298Z</time></trkpt><trkpt lat="41.4971294" lon="1.5717282"><ele>556.0</ele><time>2026-03-28T12:13:06.298Z</time></trkpt><trkpt lat="41.4972371" lon="1.5717373"><ele>556.0</ele><time>2026-03-28T12:13:07.298Z</time></trkpt><trkpt lat="41.4973275" lon="1.571657"><ele>556.0</ele><time>2026-03-28T12:13:08.298Z</time></trkpt><trkpt lat="41.4974248" lon="1.5715881"><ele>554.75</ele><time>2026-03-28T12:13:09.298Z</time></trkpt><trkpt lat="41.4974536" lon="1.5714307"><ele>553.5</ele><time>2026-03-28T12:13:10.298Z</time></trkpt><trkpt lat="41.4974618" lon="1.5712923"><ele>552.25</ele><time>2026-03-28T12:13:11.298Z</time></trkpt><trkpt lat="41.4974265" lon="1.5711441"><ele>551.0</ele><time>2026-03-28T12:13:12.298Z</time></trkpt><trkpt lat="41.4973567" lon="1.5710036"><ele>550.5</ele><time>2026-03-28T12:13:13.298Z</time></trkpt><trkpt lat="41.4972584" lon="1.5708762"><ele>550.0</ele><time>2026-03-28T12:13:14.298Z</time></trkpt><trkpt lat="41.4971534" lon="1.5707473"><ele>549.5</ele><time>2026-03-28T12:13:15.298Z</time></trkpt><trkpt lat="41.4970545" lon="1.5706226"><ele>549.0</ele><time>2026-03-28T12:13:16.298Z</time></trkpt><trkpt lat="41.4969649" lon="1.5705113"><ele>549.2</ele><time>2026-03-28T12:13:17.298Z</time></trkpt><trkpt lat="41.4968843" lon="1.5704074"><ele>549.4</ele><time>2026-03-28T12:13:18.298Z</time></trkpt><trkpt lat="41.496816" lon="1.5703189"><ele>549.6</ele><time>2026-03-28T12:13:19.298Z</time></trkpt><trkpt lat="41.4967513" lon="1.5702365"><ele>549.8</ele><time>2026-03-28T12:13:20.298Z</time></trkpt><trkpt lat="41.4966855" lon="1.5701525"><ele>550.0</ele><time>2026-03-28T12:13:21.298Z</time></trkpt><trkpt lat="41.4966271" lon="1.5700772"><ele>550.0</ele><time>2026-03-28T12:13:22.298Z</time></trkpt><trkpt lat="41.4965786" lon="1.5700136"><ele>550.0</ele><time>2026-03-28T12:13:23.298Z</time></trkpt><trkpt lat="41.4964951" lon="1.569876"><ele>550.0</ele><time>2026-03-28T12:13:25.298Z</time></trkpt><trkpt lat="41.4964386" lon="1.5697802"><ele>550.0</ele><time>2026-03-28T12:13:26.297Z</time></trkpt><trkpt lat="41.496382" lon="1.5696487"><ele>550.0</ele><time>2026-03-28T12:13:27.298Z</time></trkpt><trkpt lat="41.4963361" lon="1.5694838"><ele>552.25</ele><time>2026-03-28T12:13:28.298Z</time></trkpt><trkpt lat="41.4963026" lon="1.5693045"><ele>554.5</ele><time>2026-03-28T12:13:29.298Z</time></trkpt><trkpt lat="41.4962758" lon="1.5691072"><ele>556.75</ele><time>2026-03-28T12:13:30.298Z</time></trkpt><trkpt lat="41.4962423" lon="1.568906"><ele>559.0</ele><time>2026-03-28T12:13:31.298Z</time></trkpt><trkpt lat="41.4961953" lon="1.5687057"><ele>560.0</ele><time>2026-03-28T12:13:32.298Z</time></trkpt><trkpt lat="41.4961358" lon="1.5685065"><ele>561.0</ele><time>2026-03-28T12:13:33.298Z</time></trkpt><trkpt lat="41.4960613" lon="1.5683139"><ele>562.0</ele><time>2026-03-28T12:13:34.298Z</time></trkpt><trkpt lat="41.4959783" lon="1.5681313"><ele>562.0</ele><time>2026-03-28T12:13:35.298Z</time></trkpt><trkpt lat="41.4958883" lon="1.56796"><ele>562.0</ele><time>2026-03-28T12:13:36.298Z</time></trkpt><trkpt lat="41.4958042" lon="1.5677946"><ele>562.0</ele><time>2026-03-28T12:13:37.298Z</time></trkpt><trkpt lat="41.4957175" lon="1.5676382"><ele>560.0</ele><time>2026-03-28T12:13:38.298Z</time></trkpt><trkpt lat="41.495622" lon="1.5674716"><ele>558.0</ele><time>2026-03-28T12:13:39.298Z</time></trkpt><trkpt lat="41.4955234" lon="1.5672797"><ele>556.0</ele><time>2026-03-28T12:13:40.298Z</time></trkpt><trkpt lat="41.4954297" lon="1.5670605"><ele>554.6666666666667</ele><time>2026-03-28T12:13:41.298Z</time></trkpt><trkpt lat="41.4953405" lon="1.5668468"><ele>553.3333333333334</ele><time>2026-03-28T12:13:42.298Z</time></trkpt><trkpt lat="41.4952472" lon="1.5666557"><ele>552.0</ele><time>2026-03-28T12:13:43.298Z</time></trkpt><trkpt lat="41.4951517" lon="1.5664896"><ele>552.0</ele><time>2026-03-28T12:13:44.298Z</time></trkpt><trkpt lat="41.4950368" lon="1.5663411"><ele>552.0</ele><time>2026-03-28T12:13:45.298Z</time></trkpt><trkpt lat="41.4949029" lon="1.5662051"><ele>552.0</ele><time>2026-03-28T12:13:46.298Z</time></trkpt><trkpt lat="41.4947414" lon="1.5660617"><ele>552.0</ele><time>2026-03-28T12:13:47.297Z</time></trkpt><trkpt lat="41.4945642" lon="1.5659105"><ele>552.0</ele><time>2026-03-28T12:13:48.298Z</time></trkpt><trkpt lat="41.494388" lon="1.5657603"><ele>552.0</ele><time>2026-03-28T12:13:49.297Z</time></trkpt><trkpt lat="41.4942156" lon="1.5656175"><ele>552.0</ele><time>2026-03-28T12:13:50.297Z</time></trkpt><trkpt lat="41.4940518" lon="1.5654769"><ele>552.0</ele><time>2026-03-28T12:13:51.298Z</time></trkpt><trkpt lat="41.493887" lon="1.5653372"><ele>552.0</ele><time>2026-03-28T12:13:52.297Z</time></trkpt><trkpt lat="41.4937185" lon="1.565193"><ele>552.0</ele><time>2026-03-28T12:13:53.298Z</time></trkpt><trkpt lat="41.4935505" lon="1.5650562"><ele>552.0</ele><time>2026-03-28T12:13:54.298Z</time></trkpt><trkpt lat="41.4933799" lon="1.5649072"><ele>552.0</ele><time>2026-03-28T12:13:55.298Z</time></trkpt><trkpt lat="41.4932041" lon="1.5647596"><ele>552.0</ele><time>2026-03-28T12:13:56.298Z</time></trkpt><trkpt lat="41.4930372" lon="1.5646209"><ele>552.0</ele><time>2026-03-28T12:13:57.298Z</time></trkpt><trkpt lat="41.4928731" lon="1.5644853"><ele>552.0</ele><time>2026-03-28T12:13:58.298Z</time></trkpt><trkpt lat="41.49271" lon="1.5643492"><ele>553.3333333333334</ele><time>2026-03-28T12:13:59.298Z</time></trkpt><trkpt lat="41.49256" lon="1.5642027"><ele>554.6666666666667</ele><time>2026-03-28T12:14:00.298Z</time></trkpt><trkpt lat="41.4924316" lon="1.5640482"><ele>556.0</ele><time>2026-03-28T12:14:01.298Z</time></trkpt><trkpt lat="41.4923143" lon="1.5639"><ele>556.0</ele><time>2026-03-28T12:14:02.298Z</time></trkpt><trkpt lat="41.4922009" lon="1.5637849"><ele>556.0</ele><time>2026-03-28T12:14:03.298Z</time></trkpt><trkpt lat="41.4920685" lon="1.5637148"><ele>556.0</ele><time>2026-03-28T12:14:04.298Z</time></trkpt><trkpt lat="41.4919184" lon="1.563703"><ele>556.0</ele><time>2026-03-28T12:14:05.297Z</time></trkpt><trkpt lat="41.4917635" lon="1.5637494"><ele>556.25</ele><time>2026-03-28T12:14:06.298Z</time></trkpt><trkpt lat="41.4916161" lon="1.5637962"><ele>556.5</ele><time>2026-03-28T12:14:07.298Z</time></trkpt><trkpt lat="41.4914771" lon="1.5638091"><ele>556.75</ele><time>2026-03-28T12:14:08.298Z</time></trkpt><trkpt lat="41.4913397" lon="1.5637757"><ele>557.0</ele><time>2026-03-28T12:14:09.298Z</time></trkpt><trkpt lat="41.4912154" lon="1.5636746"><ele>561.0</ele><time>2026-03-28T12:14:10.298Z</time></trkpt><trkpt lat="41.4910988" lon="1.5635336"><ele>565.0</ele><time>2026-03-28T12:14:11.297Z</time></trkpt><trkpt lat="41.4909835" lon="1.5633839"><ele>569.0</ele><time>2026-03-28T12:14:12.298Z</time></trkpt><trkpt lat="41.4908543" lon="1.5632343"><ele>569.0</ele><time>2026-03-28T12:14:13.298Z</time></trkpt><trkpt lat="41.4907245" lon="1.5630754"><ele>569.0</ele><time>2026-03-28T12:14:14.298Z</time></trkpt><trkpt lat="41.4906047" lon="1.5629298"><ele>569.0</ele><time>2026-03-28T12:14:15.298Z</time></trkpt><trkpt lat="41.4905021" lon="1.5627914"><ele>568.75</ele><time>2026-03-28T12:14:16.298Z</time></trkpt><trkpt lat="41.4904423" lon="1.5626398"><ele>568.5</ele><time>2026-03-28T12:14:17.298Z</time></trkpt><trkpt lat="41.4904332" lon="1.5624705"><ele>568.25</ele><time>2026-03-28T12:14:18.298Z</time></trkpt><trkpt lat="41.4904637" lon="1.5622756"><ele>568.0</ele><time>2026-03-28T12:14:19.298Z</time></trkpt><trkpt lat="41.4905171" lon="1.5620668"><ele>570.0</ele><time>2026-03-28T12:14:20.298Z</time></trkpt><trkpt lat="41.4905711" lon="1.5618515"><ele>572.0</ele><time>2026-03-28T12:14:21.298Z</time></trkpt><trkpt lat="41.4906268" lon="1.5616171"><ele>574.0</ele><time>2026-03-28T12:14:22.298Z</time></trkpt><trkpt lat="41.4906769" lon="1.5613857"><ele>575.3333333333334</ele><time>2026-03-28T12:14:23.298Z</time></trkpt><trkpt lat="41.4907252" lon="1.5611726"><ele>576.6666666666666</ele><time>2026-03-28T12:14:24.298Z</time></trkpt><trkpt lat="41.4907736" lon="1.5609723"><ele>578.0</ele><time>2026-03-28T12:14:25.298Z</time></trkpt><trkpt lat="41.4908187" lon="1.5607618"><ele>578.0</ele><time>2026-03-28T12:14:26.298Z</time></trkpt><trkpt lat="41.4908571" lon="1.5605429"><ele>578.0</ele><time>2026-03-28T12:14:27.298Z</time></trkpt><trkpt lat="41.4908718" lon="1.5603134"><ele>578.0</ele><time>2026-03-28T12:14:28.298Z</time></trkpt><trkpt lat="41.4908646" lon="1.5600861"><ele>580.0</ele><time>2026-03-28T12:14:29.298Z</time></trkpt><trkpt lat="41.4908488" lon="1.5598505"><ele>582.0</ele><time>2026-03-28T12:14:30.298Z</time></trkpt><trkpt lat="41.4908294" lon="1.5596061"><ele>584.0</ele><time>2026-03-28T12:14:31.298Z</time></trkpt><trkpt lat="41.4908102" lon="1.5593521"><ele>585.6666666666666</ele><time>2026-03-28T12:14:32.298Z</time></trkpt><trkpt lat="41.4907925" lon="1.5590864"><ele>587.3333333333334</ele><time>2026-03-28T12:14:33.298Z</time></trkpt><trkpt lat="41.4907742" lon="1.5587989"><ele>589.0</ele><time>2026-03-28T12:14:34.298Z</time></trkpt><trkpt lat="41.4907619" lon="1.5585171"><ele>590.0</ele><time>2026-03-28T12:14:35.297Z</time></trkpt><trkpt lat="41.4907463" lon="1.5582578"><ele>591.0</ele><time>2026-03-28T12:14:36.297Z</time></trkpt><trkpt lat="41.4907255" lon="1.5580083"><ele>592.0</ele><time>2026-03-28T12:14:37.297Z</time></trkpt><trkpt lat="41.4906908" lon="1.5577733"><ele>592.3333333333334</ele><time>2026-03-28T12:14:38.298Z</time></trkpt><trkpt lat="41.4906335" lon="1.5575456"><ele>592.6666666666666</ele><time>2026-03-28T12:14:39.297Z</time></trkpt><trkpt lat="41.4905477" lon="1.5573214"><ele>593.0</ele><time>2026-03-28T12:14:40.298Z</time></trkpt><trkpt lat="41.4904397" lon="1.5571099"><ele>591.6666666666666</ele><time>2026-03-28T12:14:41.298Z</time></trkpt><trkpt lat="41.4903265" lon="1.5568907"><ele>590.3333333333334</ele><time>2026-03-28T12:14:42.298Z</time></trkpt><trkpt lat="41.4902181" lon="1.5566776"><ele>589.0</ele><time>2026-03-28T12:14:43.298Z</time></trkpt><trkpt lat="41.4901105" lon="1.5564749"><ele>589.0</ele><time>2026-03-28T12:14:44.298Z</time></trkpt><trkpt lat="41.4900088" lon="1.5562752"><ele>589.0</ele><time>2026-03-28T12:14:45.298Z</time></trkpt><trkpt lat="41.4899055" lon="1.5560833"><ele>589.0</ele><time>2026-03-28T12:14:46.298Z</time></trkpt><trkpt lat="41.4897998" lon="1.5558916"><ele>589.0</ele><time>2026-03-28T12:14:47.298Z</time></trkpt><trkpt lat="41.489688" lon="1.5556979"><ele>589.0</ele><time>2026-03-28T12:14:48.298Z</time></trkpt><trkpt lat="41.4895694" lon="1.5555025"><ele>589.0</ele><time>2026-03-28T12:14:49.298Z</time></trkpt><trkpt lat="41.4894508" lon="1.5553025"><ele>586.3333333333334</ele><time>2026-03-28T12:14:50.298Z</time></trkpt><trkpt lat="41.4893303" lon="1.555098"><ele>583.6666666666666</ele><time>2026-03-28T12:14:51.298Z</time></trkpt><trkpt lat="41.4892037" lon="1.5548918"><ele>581.0</ele><time>2026-03-28T12:14:52.298Z</time></trkpt><trkpt lat="41.4890785" lon="1.5546844"><ele>581.3333333333333</ele><time>2026-03-28T12:14:53.298Z</time></trkpt><trkpt lat="41.4889523" lon="1.5544701"><ele>581.6666666666666</ele><time>2026-03-28T12:14:54.297Z</time></trkpt><trkpt lat="41.4888241" lon="1.5542572"><ele>582.0</ele><time>2026-03-28T12:14:55.298Z</time></trkpt><trkpt lat="41.4886967" lon="1.5540387"><ele>580.0</ele><time>2026-03-28T12:14:56.298Z</time></trkpt><trkpt lat="41.4885682" lon="1.5538204"><ele>578.0</ele><time>2026-03-28T12:14:57.298Z</time></trkpt><trkpt lat="41.4884362" lon="1.5536025"><ele>576.0</ele><time>2026-03-28T12:14:58.298Z</time></trkpt><trkpt lat="41.4883019" lon="1.5533836"><ele>575.6666666666666</ele><time>2026-03-28T12:14:59.298Z</time></trkpt><trkpt lat="41.4881714" lon="1.5531598"><ele>575.3333333333333</ele><time>2026-03-28T12:15:00.298Z</time></trkpt><trkpt lat="41.4880361" lon="1.5529378"><ele>575.0</ele><time>2026-03-28T12:15:01.298Z</time></trkpt><trkpt lat="41.4878996" lon="1.5527085"><ele>574.0</ele><time>2026-03-28T12:15:02.298Z</time></trkpt><trkpt lat="41.4877659" lon="1.5524751"><ele>573.0</ele><time>2026-03-28T12:15:03.298Z</time></trkpt><trkpt lat="41.4876294" lon="1.5522498"><ele>572.0</ele><time>2026-03-28T12:15:04.298Z</time></trkpt><trkpt lat="41.4874934" lon="1.5520193"><ele>572.0</ele><time>2026-03-28T12:15:05.298Z</time></trkpt><trkpt lat="41.4873472" lon="1.5517786"><ele>572.0</ele><time>2026-03-28T12:15:06.298Z</time></trkpt><trkpt lat="41.487195" lon="1.5515267"><ele>572.0</ele><time>2026-03-28T12:15:07.298Z</time></trkpt><trkpt lat="41.4870456" lon="1.5512708"><ele>572.0</ele><time>2026-03-28T12:15:08.298Z</time></trkpt><trkpt lat="41.4869035" lon="1.5510282"><ele>572.0</ele><time>2026-03-28T12:15:09.298Z</time></trkpt><trkpt lat="41.4867652" lon="1.5507907"><ele>572.0</ele><time>2026-03-28T12:15:10.298Z</time></trkpt><trkpt lat="41.486632" lon="1.5505673"><ele>572.0</ele><time>2026-03-28T12:15:11.298Z</time></trkpt><trkpt lat="41.4865059" lon="1.5503596"><ele>573.0</ele><time>2026-03-28T12:15:12.298Z</time></trkpt><trkpt lat="41.4863907" lon="1.55017"><ele>574.0</ele><time>2026-03-28T12:15:13.298Z</time></trkpt><trkpt lat="41.4862747" lon="1.550002"><ele>575.0</ele><time>2026-03-28T12:15:14.298Z</time></trkpt><trkpt lat="41.4861603" lon="1.5498628"><ele>575.75</ele><time>2026-03-28T12:15:15.297Z</time></trkpt><trkpt lat="41.4860508" lon="1.549752"><ele>576.5</ele><time>2026-03-28T12:15:16.298Z</time></trkpt><trkpt lat="41.4859444" lon="1.5496651"><ele>577.25</ele><time>2026-03-28T12:15:17.298Z</time></trkpt><trkpt lat="41.4858436" lon="1.549595"><ele>578.0</ele><time>2026-03-28T12:15:18.298Z</time></trkpt><trkpt lat="41.4857489" lon="1.5495189"><ele>578.75</ele><time>2026-03-28T12:15:19.298Z</time></trkpt><trkpt lat="41.485649" lon="1.5494379"><ele>579.5</ele><time>2026-03-28T12:15:20.297Z</time></trkpt><trkpt lat="41.4855466" lon="1.5493527"><ele>580.25</ele><time>2026-03-28T12:15:21.298Z</time></trkpt><trkpt lat="41.4854422" lon="1.5492661"><ele>581.0</ele><time>2026-03-28T12:15:22.298Z</time></trkpt><trkpt lat="41.4853417" lon="1.5491772"><ele>581.0</ele><time>2026-03-28T12:15:23.297Z</time></trkpt><trkpt lat="41.4852471" lon="1.5490739"><ele>581.0</ele><time>2026-03-28T12:15:24.297Z</time></trkpt><trkpt lat="41.4851613" lon="1.5489626"><ele>581.0</ele><time>2026-03-28T12:15:25.298Z</time></trkpt><trkpt lat="41.4850803" lon="1.5488382"><ele>581.0</ele><time>2026-03-28T12:15:26.298Z</time></trkpt><trkpt lat="41.4850023" lon="1.5487139"><ele>582.0</ele><time>2026-03-28T12:15:27.298Z</time></trkpt><trkpt lat="41.484925" lon="1.5485863"><ele>583.0</ele><time>2026-03-28T12:15:28.297Z</time></trkpt><trkpt lat="41.4848524" lon="1.548457"><ele>584.0</ele><time>2026-03-28T12:15:29.298Z</time></trkpt><trkpt lat="41.4847793" lon="1.5483262"><ele>585.0</ele><time>2026-03-28T12:15:30.298Z</time></trkpt><trkpt lat="41.4847071" lon="1.5481978"><ele>585.0</ele><time>2026-03-28T12:15:31.298Z</time></trkpt><trkpt lat="41.4846307" lon="1.548075"><ele>585.0</ele><time>2026-03-28T12:15:32.298Z</time></trkpt><trkpt lat="41.4845549" lon="1.5479506"><ele>585.0</ele><time>2026-03-28T12:15:33.297Z</time></trkpt><trkpt lat="41.4844778" lon="1.5478243"><ele>585.0</ele><time>2026-03-28T12:15:34.298Z</time></trkpt><trkpt lat="41.4843869" lon="1.5476828"><ele>584.3333333333334</ele><time>2026-03-28T12:15:35.298Z</time></trkpt><trkpt lat="41.4842899" lon="1.5475204"><ele>583.6666666666667</ele><time>2026-03-28T12:15:36.298Z</time></trkpt><trkpt lat="41.484187" lon="1.5473439"><ele>583.0</ele><time>2026-03-28T12:15:37.298Z</time></trkpt><trkpt lat="41.4840717" lon="1.5471512"><ele>582.3333333333334</ele><time>2026-03-28T12:15:38.297Z</time></trkpt><trkpt lat="41.4839454" lon="1.5469344"><ele>581.6666666666666</ele><time>2026-03-28T12:15:39.298Z</time></trkpt><trkpt lat="41.4838092" lon="1.546705"><ele>581.0</ele><time>2026-03-28T12:15:40.298Z</time></trkpt><trkpt lat="41.4836708" lon="1.5464732"><ele>581.0</ele><time>2026-03-28T12:15:41.298Z</time></trkpt><trkpt lat="41.4835249" lon="1.546227"><ele>581.0</ele><time>2026-03-28T12:15:42.298Z</time></trkpt><trkpt lat="41.4833733" lon="1.5459633"><ele>582.5</ele><time>2026-03-28T12:15:43.298Z</time></trkpt><trkpt lat="41.4832233" lon="1.545708"><ele>584.0</ele><time>2026-03-28T12:15:44.298Z</time></trkpt><trkpt lat="41.4830846" lon="1.5454675"><ele>585.3333333333333</ele><time>2026-03-28T12:15:45.298Z</time></trkpt><trkpt lat="41.4829531" lon="1.545245"><ele>586.6666666666666</ele><time>2026-03-28T12:15:46.297Z</time></trkpt><trkpt lat="41.4828361" lon="1.545036"><ele>588.0</ele><time>2026-03-28T12:15:47.298Z</time></trkpt><trkpt lat="41.4827229" lon="1.5448493"><ele>588.0</ele><time>2026-03-28T12:15:48.298Z</time></trkpt><trkpt lat="41.4826058" lon="1.5446911"><ele>588.0</ele><time>2026-03-28T12:15:49.298Z</time></trkpt><trkpt lat="41.4824708" lon="1.5445668"><ele>588.0</ele><time>2026-03-28T12:15:50.298Z</time></trkpt><trkpt lat="41.4823097" lon="1.5444867"><ele>588.3333333333334</ele><time>2026-03-28T12:15:51.298Z</time></trkpt><trkpt lat="41.4821177" lon="1.5444367"><ele>588.6666666666667</ele><time>2026-03-28T12:15:52.298Z</time></trkpt><trkpt lat="41.4818991" lon="1.5443983"><ele>589.0</ele><time>2026-03-28T12:15:53.298Z</time></trkpt><trkpt lat="41.4816801" lon="1.5443409"><ele>587.5</ele><time>2026-03-28T12:15:54.298Z</time></trkpt><trkpt lat="41.4814437" lon="1.5442575"><ele>586.0</ele><time>2026-03-28T12:15:55.298Z</time></trkpt><trkpt lat="41.481194" lon="1.5441533"><ele>584.0</ele><time>2026-03-28T12:15:56.298Z</time></trkpt><trkpt lat="41.4809409" lon="1.544045"><ele>582.0</ele><time>2026-03-28T12:15:57.298Z</time></trkpt><trkpt lat="41.4806892" lon="1.543921"><ele>582.0</ele><time>2026-03-28T12:15:58.298Z</time></trkpt><trkpt lat="41.4804399" lon="1.543752"><ele>582.0</ele><time>2026-03-28T12:15:59.298Z</time></trkpt><trkpt lat="41.4801988" lon="1.5435474"><ele>579.5</ele><time>2026-03-28T12:16:00.298Z</time></trkpt><trkpt lat="41.4799585" lon="1.5433277"><ele>577.0</ele><time>2026-03-28T12:16:01.298Z</time></trkpt><trkpt lat="41.4797124" lon="1.5431007"><ele>577.5</ele><time>2026-03-28T12:16:02.298Z</time></trkpt><trkpt lat="41.4794649" lon="1.5428746"><ele>578.0</ele><time>2026-03-28T12:16:03.298Z</time></trkpt><trkpt lat="41.4792201" lon="1.5426553"><ele>578.0</ele><time>2026-03-28T12:16:04.298Z</time></trkpt><trkpt lat="41.4789801" lon="1.5424342"><ele>578.0</ele><time>2026-03-28T12:16:05.298Z</time></trkpt><trkpt lat="41.478742" lon="1.542213"><ele>578.5</ele><time>2026-03-28T12:16:06.298Z</time></trkpt><trkpt lat="41.4785045" lon="1.5419978"><ele>579.0</ele><time>2026-03-28T12:16:07.298Z</time></trkpt><trkpt lat="41.4782801" lon="1.5417927"><ele>579.0</ele><time>2026-03-28T12:16:08.298Z</time></trkpt><trkpt lat="41.478057" lon="1.5415836"><ele>579.0</ele><time>2026-03-28T12:16:09.298Z</time></trkpt><trkpt lat="41.477843" lon="1.5413656"><ele>581.0</ele><time>2026-03-28T12:16:10.298Z</time></trkpt><trkpt lat="41.477645" lon="1.541139"><ele>583.0</ele><time>2026-03-28T12:16:11.298Z</time></trkpt><trkpt lat="41.4774447" lon="1.5409105"><ele>583.0</ele><time>2026-03-28T12:16:12.298Z</time></trkpt><trkpt lat="41.4772402" lon="1.5406823"><ele>583.0</ele><time>2026-03-28T12:16:13.297Z</time></trkpt><trkpt lat="41.4770367" lon="1.5404459"><ele>585.5</ele><time>2026-03-28T12:16:14.298Z</time></trkpt><trkpt lat="41.4768383" lon="1.5402159"><ele>588.0</ele><time>2026-03-28T12:16:15.298Z</time></trkpt><trkpt lat="41.4766537" lon="1.5399971"><ele>588.0</ele><time>2026-03-28T12:16:16.298Z</time></trkpt><trkpt lat="41.4764793" lon="1.5397936"><ele>588.0</ele><time>2026-03-28T12:16:17.298Z</time></trkpt><trkpt lat="41.4763107" lon="1.5395993"><ele>589.6666666666666</ele><time>2026-03-28T12:16:18.297Z</time></trkpt><trkpt lat="41.4761467" lon="1.5394026"><ele>591.3333333333333</ele><time>2026-03-28T12:16:19.298Z</time></trkpt><trkpt lat="41.4759794" lon="1.5392082"><ele>593.0</ele><time>2026-03-28T12:16:20.298Z</time></trkpt><trkpt lat="41.4758162" lon="1.5390205"><ele>593.0</ele><time>2026-03-28T12:16:21.298Z</time></trkpt><trkpt lat="41.4756574" lon="1.538843"><ele>593.0</ele><time>2026-03-28T12:16:22.298Z</time></trkpt><trkpt lat="41.4755069" lon="1.538673"><ele>593.0</ele><time>2026-03-28T12:16:23.298Z</time></trkpt><trkpt lat="41.4753689" lon="1.5385141"><ele>594.6666666666666</ele><time>2026-03-28T12:16:24.298Z</time></trkpt><trkpt lat="41.4752533" lon="1.5383406"><ele>596.3333333333334</ele><time>2026-03-28T12:16:25.298Z</time></trkpt><trkpt lat="41.4751456" lon="1.538145"><ele>598.0</ele><time>2026-03-28T12:16:26.298Z</time></trkpt><trkpt lat="41.4750404" lon="1.5379386"><ele>597.3333333333334</ele><time>2026-03-28T12:16:27.298Z</time></trkpt><trkpt lat="41.4749357" lon="1.5377335"><ele>596.6666666666666</ele><time>2026-03-28T12:16:28.298Z</time></trkpt><trkpt lat="41.4748362" lon="1.5375439"><ele>596.0</ele><time>2026-03-28T12:16:29.298Z</time></trkpt><trkpt lat="41.4747452" lon="1.5373623"><ele>596.0</ele><time>2026-03-28T12:16:30.298Z</time></trkpt><trkpt lat="41.4746542" lon="1.5371897"><ele>596.0</ele><time>2026-03-28T12:16:31.298Z</time></trkpt><trkpt lat="41.4745554" lon="1.5370481"><ele>596.0</ele><time>2026-03-28T12:16:32.298Z</time></trkpt><trkpt lat="41.4744385" lon="1.5369531"><ele>596.0</ele><time>2026-03-28T12:16:33.298Z</time></trkpt><trkpt lat="41.4742971" lon="1.5369003"><ele>597.0</ele><time>2026-03-28T12:16:34.298Z</time></trkpt><trkpt lat="41.4741499" lon="1.5368716"><ele>598.0</ele><time>2026-03-28T12:16:35.297Z</time></trkpt><trkpt lat="41.4740126" lon="1.5368402"><ele>599.0</ele><time>2026-03-28T12:16:36.298Z</time></trkpt><trkpt lat="41.4738949" lon="1.5367948"><ele>600.0</ele><time>2026-03-28T12:16:37.298Z</time></trkpt><trkpt lat="41.4737992" lon="1.5367198"><ele>600.8</ele><time>2026-03-28T12:16:38.298Z</time></trkpt><trkpt lat="41.4737257" lon="1.5366225"><ele>601.6</ele><time>2026-03-28T12:16:39.297Z</time></trkpt><trkpt lat="41.4736703" lon="1.5365116"><ele>602.4</ele><time>2026-03-28T12:16:40.297Z</time></trkpt><trkpt lat="41.4736276" lon="1.5363796"><ele>603.2</ele><time>2026-03-28T12:16:41.298Z</time></trkpt><trkpt lat="41.4735907" lon="1.5362399"><ele>604.0</ele><time>2026-03-28T12:16:42.298Z</time></trkpt><trkpt lat="41.4735514" lon="1.5360946"><ele>604.5</ele><time>2026-03-28T12:16:43.298Z</time></trkpt><trkpt lat="41.4735143" lon="1.5359555"><ele>605.0</ele><time>2026-03-28T12:16:44.297Z</time></trkpt><trkpt lat="41.4734806" lon="1.5358051"><ele>605.5</ele><time>2026-03-28T12:16:45.298Z</time></trkpt><trkpt lat="41.4734416" lon="1.5356546"><ele>606.0</ele><time>2026-03-28T12:16:46.297Z</time></trkpt><trkpt lat="41.4734092" lon="1.5355034"><ele>606.75</ele><time>2026-03-28T12:16:47.298Z</time></trkpt><trkpt lat="41.4733684" lon="1.535349"><ele>607.5</ele><time>2026-03-28T12:16:48.298Z</time></trkpt><trkpt lat="41.473328" lon="1.5351865"><ele>608.25</ele><time>2026-03-28T12:16:49.298Z</time></trkpt><trkpt lat="41.4732904" lon="1.5350264"><ele>609.0</ele><time>2026-03-28T12:16:50.298Z</time></trkpt><trkpt lat="41.4732534" lon="1.5348615"><ele>609.0</ele><time>2026-03-28T12:16:51.297Z</time></trkpt><trkpt lat="41.4732284" lon="1.5346895"><ele>609.0</ele><time>2026-03-28T12:16:52.298Z</time></trkpt><trkpt lat="41.4732157" lon="1.53452"><ele>609.0</ele><time>2026-03-28T12:16:53.298Z</time></trkpt><trkpt lat="41.4732152" lon="1.5343457"><ele>609.0</ele><time>2026-03-28T12:16:54.298Z</time></trkpt><trkpt lat="41.4732251" lon="1.53417"><ele>608.75</ele><time>2026-03-28T12:16:55.297Z</time></trkpt><trkpt lat="41.4732309" lon="1.534003"><ele>608.5</ele><time>2026-03-28T12:16:56.298Z</time></trkpt><trkpt lat="41.4732347" lon="1.5338378"><ele>608.25</ele><time>2026-03-28T12:16:57.298Z</time></trkpt><trkpt lat="41.4732391" lon="1.5336707"><ele>608.0</ele><time>2026-03-28T12:16:58.298Z</time></trkpt><trkpt lat="41.473243" lon="1.5334958"><ele>608.0</ele><time>2026-03-28T12:16:59.297Z</time></trkpt><trkpt lat="41.4732504" lon="1.5333207"><ele>608.0</ele><time>2026-03-28T12:17:00.298Z</time></trkpt><trkpt lat="41.4732586" lon="1.533145"><ele>608.0</ele><time>2026-03-28T12:17:01.298Z</time></trkpt><trkpt lat="41.4732595" lon="1.5329663"><ele>608.0</ele><time>2026-03-28T12:17:02.298Z</time></trkpt><trkpt lat="41.4732444" lon="1.5327892"><ele>607.25</ele><time>2026-03-28T12:17:03.297Z</time></trkpt><trkpt lat="41.4732157" lon="1.5326148"><ele>606.5</ele><time>2026-03-28T12:17:04.298Z</time></trkpt><trkpt lat="41.4731689" lon="1.532439"><ele>605.75</ele><time>2026-03-28T12:17:05.298Z</time></trkpt><trkpt lat="41.4731161" lon="1.5322558"><ele>605.0</ele><time>2026-03-28T12:17:06.297Z</time></trkpt><trkpt lat="41.4730696" lon="1.5320687"><ele>604.8</ele><time>2026-03-28T12:17:07.298Z</time></trkpt><trkpt lat="41.4730271" lon="1.5319148"><ele>604.6</ele><time>2026-03-28T12:17:08.298Z</time></trkpt><trkpt lat="41.472988" lon="1.5317685"><ele>604.4</ele><time>2026-03-28T12:17:09.298Z</time></trkpt><trkpt lat="41.4729489" lon="1.5316341"><ele>604.2</ele><time>2026-03-28T12:17:10.298Z</time></trkpt><trkpt lat="41.4729186" lon="1.5315226"><ele>604.0</ele><time>2026-03-28T12:17:11.298Z</time></trkpt><trkpt lat="41.4728919" lon="1.5314254"><ele>604.8</ele><time>2026-03-28T12:17:12.298Z</time></trkpt><trkpt lat="41.4728598" lon="1.5312955"><ele>605.5999999999999</ele><time>2026-03-28T12:17:14.298Z</time></trkpt><trkpt lat="41.4728384" lon="1.5311919"><ele>606.4</ele><time>2026-03-28T12:17:17.298Z</time></trkpt><trkpt lat="41.4728158" lon="1.5311067"><ele>607.1999999999999</ele><time>2026-03-28T12:17:24.298Z</time></trkpt><trkpt lat="41.4727338" lon="1.5310791"><ele>608.0</ele><time>2026-03-28T12:17:26.298Z</time></trkpt><trkpt lat="41.4725986" lon="1.531155"><ele>608.0</ele><time>2026-03-28T12:17:28.298Z</time></trkpt><trkpt lat="41.472522" lon="1.5312008"><ele>608.0</ele><time>2026-03-28T12:17:29.298Z</time></trkpt><trkpt lat="41.4724355" lon="1.531255"><ele>608.0</ele><time>2026-03-28T12:17:30.298Z</time></trkpt><trkpt lat="41.4723431" lon="1.5313131"><ele>608.0</ele><time>2026-03-28T12:17:31.298Z</time></trkpt><trkpt lat="41.4722459" lon="1.5313934"><ele>608.0</ele><time>2026-03-28T12:17:32.298Z</time></trkpt><trkpt lat="41.4721542" lon="1.5314876"><ele>609.0</ele><time>2026-03-28T12:17:33.298Z</time></trkpt><trkpt lat="41.4720653" lon="1.5315949"><ele>610.0</ele><time>2026-03-28T12:17:34.298Z</time></trkpt><trkpt lat="41.4719821" lon="1.5317029"><ele>611.0</ele><time>2026-03-28T12:17:35.298Z</time></trkpt><trkpt lat="41.4718997" lon="1.5318059"><ele>612.0</ele><time>2026-03-28T12:17:36.297Z</time></trkpt><trkpt lat="41.4718117" lon="1.5319135"><ele>612.0</ele><time>2026-03-28T12:17:37.298Z</time></trkpt><trkpt lat="41.4717251" lon="1.5320245"><ele>612.0</ele><time>2026-03-28T12:17:38.298Z</time></trkpt><trkpt lat="41.4716392" lon="1.5321337"><ele>612.0</ele><time>2026-03-28T12:17:39.298Z</time></trkpt><trkpt lat="41.4715558" lon="1.5322411"><ele>612.0</ele><time>2026-03-28T12:17:40.298Z</time></trkpt><trkpt lat="41.471469" lon="1.5323522"><ele>613.25</ele><time>2026-03-28T12:17:41.298Z</time></trkpt><trkpt lat="41.4713788" lon="1.5324502"><ele>614.5</ele><time>2026-03-28T12:17:42.298Z</time></trkpt><trkpt lat="41.4712811" lon="1.5325328"><ele>615.75</ele><time>2026-03-28T12:17:43.298Z</time></trkpt><trkpt lat="41.4711788" lon="1.5326035"><ele>617.0</ele><time>2026-03-28T12:17:44.298Z</time></trkpt><trkpt lat="41.4710704" lon="1.5326258"><ele>617.0</ele><time>2026-03-28T12:17:45.298Z</time></trkpt><trkpt lat="41.4709641" lon="1.5326538"><ele>617.0</ele><time>2026-03-28T12:17:46.298Z</time></trkpt><trkpt lat="41.4708546" lon="1.5326767"><ele>617.0</ele><time>2026-03-28T12:17:47.297Z</time></trkpt><trkpt lat="41.470744" lon="1.5326986"><ele>617.0</ele><time>2026-03-28T12:17:48.298Z</time></trkpt><trkpt lat="41.4706376" lon="1.5327227"><ele>617.0</ele><time>2026-03-28T12:17:49.298Z</time></trkpt><trkpt lat="41.4705227" lon="1.5327507"><ele>618.25</ele><time>2026-03-28T12:17:50.297Z</time></trkpt><trkpt lat="41.4704015" lon="1.5327725"><ele>619.5</ele><time>2026-03-28T12:17:51.298Z</time></trkpt><trkpt lat="41.4702832" lon="1.5327705"><ele>620.75</ele><time>2026-03-28T12:17:52.298Z</time></trkpt><trkpt lat="41.4701653" lon="1.5327408"><ele>622.0</ele><time>2026-03-28T12:17:53.297Z</time></trkpt><trkpt lat="41.470048" lon="1.5327009"><ele>622.0</ele><time>2026-03-28T12:17:54.298Z</time></trkpt><trkpt lat="41.4699333" lon="1.5326604"><ele>622.0</ele><time>2026-03-28T12:17:55.298Z</time></trkpt><trkpt lat="41.4698168" lon="1.5325979"><ele>622.0</ele><time>2026-03-28T12:17:56.298Z</time></trkpt><trkpt lat="41.4697056" lon="1.5325035"><ele>622.0</ele><time>2026-03-28T12:17:57.298Z</time></trkpt><trkpt lat="41.4695923" lon="1.5323955"><ele>622.6666666666667</ele><time>2026-03-28T12:17:58.298Z</time></trkpt><trkpt lat="41.4694721" lon="1.5322762"><ele>623.3333333333334</ele><time>2026-03-28T12:17:59.297Z</time></trkpt><trkpt lat="41.4693401" lon="1.5321533"><ele>624.0</ele><time>2026-03-28T12:18:00.298Z</time></trkpt><trkpt lat="41.4692078" lon="1.532035"><ele>624.0</ele><time>2026-03-28T12:18:01.298Z</time></trkpt><trkpt lat="41.4690571" lon="1.5319324"><ele>624.0</ele><time>2026-03-28T12:18:02.298Z</time></trkpt><trkpt lat="41.4688813" lon="1.5318542"><ele>624.0</ele><time>2026-03-28T12:18:03.298Z</time></trkpt><trkpt lat="41.4686937" lon="1.5317767"><ele>627.3333333333334</ele><time>2026-03-28T12:18:04.298Z</time></trkpt><trkpt lat="41.4685168" lon="1.5316846"><ele>630.6666666666667</ele><time>2026-03-28T12:18:05.298Z</time></trkpt><trkpt lat="41.4683588" lon="1.5315714"><ele>634.0</ele><time>2026-03-28T12:18:06.298Z</time></trkpt><trkpt lat="41.4682002" lon="1.5314877"><ele>634.0</ele><time>2026-03-28T12:18:07.298Z</time></trkpt><trkpt lat="41.4680399" lon="1.5314297"><ele>634.0</ele><time>2026-03-28T12:18:08.298Z</time></trkpt><trkpt lat="41.4678788" lon="1.531381"><ele>634.0</ele><time>2026-03-28T12:18:09.298Z</time></trkpt><trkpt lat="41.467789" lon="1.5312798"><ele>634.0</ele><time>2026-03-28T12:18:10.298Z</time></trkpt><trkpt lat="41.467718" lon="1.5311505"><ele>635.0</ele><time>2026-03-28T12:18:11.298Z</time></trkpt><trkpt lat="41.4676641" lon="1.5310233"><ele>636.0</ele><time>2026-03-28T12:18:12.298Z</time></trkpt><trkpt lat="41.4675883" lon="1.5309269"><ele>637.0</ele><time>2026-03-28T12:18:13.298Z</time></trkpt><trkpt lat="41.4674812" lon="1.5308621"><ele>638.0</ele><time>2026-03-28T12:18:14.298Z</time></trkpt><trkpt lat="41.4673615" lon="1.530816"><ele>638.0</ele><time>2026-03-28T12:18:15.298Z</time></trkpt><trkpt lat="41.4672267" lon="1.5307877"><ele>638.0</ele><time>2026-03-28T12:18:16.298Z</time></trkpt><trkpt lat="41.4671022" lon="1.5307612"><ele>638.0</ele><time>2026-03-28T12:18:17.298Z</time></trkpt><trkpt lat="41.4669771" lon="1.5307327"><ele>638.0</ele><time>2026-03-28T12:18:18.298Z</time></trkpt><trkpt lat="41.466853" lon="1.5307002"><ele>639.8</ele><time>2026-03-28T12:18:19.298Z</time></trkpt><trkpt lat="41.4667402" lon="1.5306476"><ele>641.5999999999999</ele><time>2026-03-28T12:18:20.298Z</time></trkpt><trkpt lat="41.4666601" lon="1.5305662"><ele>643.4000000000001</ele><time>2026-03-28T12:18:21.298Z</time></trkpt><trkpt lat="41.4666074" lon="1.5304514"><ele>645.2</ele><time>2026-03-28T12:18:22.298Z</time></trkpt><trkpt lat="41.4666055" lon="1.5303174"><ele>647.0</ele><time>2026-03-28T12:18:23.298Z</time></trkpt><trkpt lat="41.4666326" lon="1.5301907"><ele>647.0</ele><time>2026-03-28T12:18:24.298Z</time></trkpt><trkpt lat="41.4666447" lon="1.5300669"><ele>647.0</ele><time>2026-03-28T12:18:25.298Z</time></trkpt><trkpt lat="41.4666135" lon="1.5299403"><ele>647.0</ele><time>2026-03-28T12:18:26.298Z</time></trkpt><trkpt lat="41.4665495" lon="1.5298349"><ele>647.0</ele><time>2026-03-28T12:18:27.298Z</time></trkpt><trkpt lat="41.4664518" lon="1.5297529"><ele>647.0</ele><time>2026-03-28T12:18:28.298Z</time></trkpt><trkpt lat="41.4663306" lon="1.5296862"><ele>648.3333333333333</ele><time>2026-03-28T12:18:29.298Z</time></trkpt><trkpt lat="41.4662036" lon="1.5295897"><ele>649.6666666666666</ele><time>2026-03-28T12:18:30.298Z</time></trkpt><trkpt lat="41.4660683" lon="1.529477"><ele>651.0</ele><time>2026-03-28T12:18:31.298Z</time></trkpt><trkpt lat="41.4659286" lon="1.5293526"><ele>651.0</ele><time>2026-03-28T12:18:32.298Z</time></trkpt><trkpt lat="41.4657867" lon="1.5292301"><ele>651.0</ele><time>2026-03-28T12:18:33.298Z</time></trkpt><trkpt lat="41.4656353" lon="1.5291052"><ele>651.0</ele><time>2026-03-28T12:18:34.298Z</time></trkpt><trkpt lat="41.465481" lon="1.5289799"><ele>651.0</ele><time>2026-03-28T12:18:35.298Z</time></trkpt><trkpt lat="41.4653537" lon="1.5288446"><ele>651.0</ele><time>2026-03-28T12:18:36.298Z</time></trkpt><trkpt lat="41.4652408" lon="1.5287043"><ele>651.0</ele><time>2026-03-28T12:18:37.297Z</time></trkpt><trkpt lat="41.4651463" lon="1.5286053"><ele>651.0</ele><time>2026-03-28T12:18:38.298Z</time></trkpt><trkpt lat="41.4650713" lon="1.5285757"><ele>651.0</ele><time>2026-03-28T12:18:39.298Z</time></trkpt><trkpt lat="41.4650079" lon="1.528602"><ele>651.0</ele><time>2026-03-28T12:18:40.298Z</time></trkpt><trkpt lat="41.4649668" lon="1.5286746"><ele>651.0</ele><time>2026-03-28T12:18:41.298Z</time></trkpt><trkpt lat="41.464957" lon="1.5287727"><ele>651.0</ele><time>2026-03-28T12:18:42.298Z</time></trkpt><trkpt lat="41.4649552" lon="1.5288708"><ele>651.0</ele><time>2026-03-28T12:18:43.298Z</time></trkpt><trkpt lat="41.4650422" lon="1.5289242"><ele>651.0</ele><time>2026-03-28T12:18:44.298Z</time></trkpt><trkpt lat="41.4651405" lon="1.5289559"><ele>651.0</ele><time>2026-03-28T12:18:45.298Z</time></trkpt><trkpt lat="41.4652468" lon="1.5290148"><ele>651.0</ele><time>2026-03-28T12:18:46.298Z</time></trkpt><trkpt lat="41.4653536" lon="1.5291237"><ele>651.0</ele><time>2026-03-28T12:18:47.298Z</time></trkpt><trkpt lat="41.4654649" lon="1.5292648"><ele>651.0</ele><time>2026-03-28T12:18:48.298Z</time></trkpt><trkpt lat="41.4655764" lon="1.529403"><ele>651.0</ele><time>2026-03-28T12:18:49.298Z</time></trkpt><trkpt lat="41.4656966" lon="1.5295539"><ele>651.0</ele><time>2026-03-28T12:18:50.297Z</time></trkpt><trkpt lat="41.4658036" lon="1.5296993"><ele>651.0</ele><time>2026-03-28T12:18:51.298Z</time></trkpt><trkpt lat="41.4658779" lon="1.5298437"><ele>651.0</ele><time>2026-03-28T12:18:52.298Z</time></trkpt><trkpt lat="41.4659241" lon="1.529982"><ele>655.25</ele><time>2026-03-28T12:18:53.298Z</time></trkpt><trkpt lat="41.4659389" lon="1.5301434"><ele>659.5</ele><time>2026-03-28T12:18:54.297Z</time></trkpt><trkpt lat="41.4659253" lon="1.5303128"><ele>663.75</ele><time>2026-03-28T12:18:55.298Z</time></trkpt><trkpt lat="41.4659523" lon="1.530498"><ele>668.0</ele><time>2026-03-28T12:18:56.298Z</time></trkpt><trkpt lat="41.4659609" lon="1.5306733"><ele>670.3333333333333</ele><time>2026-03-28T12:18:57.297Z</time></trkpt><trkpt lat="41.4660475" lon="1.5308559"><ele>672.6666666666666</ele><time>2026-03-28T12:18:58.298Z</time></trkpt><trkpt lat="41.4661366" lon="1.5310501"><ele>675.0</ele><time>2026-03-28T12:18:59.298Z</time></trkpt><trkpt lat="41.4662341" lon="1.5312605"><ele>672.6666666666666</ele><time>2026-03-28T12:19:00.298Z</time></trkpt><trkpt lat="41.4663488" lon="1.531475"><ele>670.3333333333333</ele><time>2026-03-28T12:19:01.298Z</time></trkpt><trkpt lat="41.4664638" lon="1.5317026"><ele>668.0</ele><time>2026-03-28T12:19:02.298Z</time></trkpt><trkpt lat="41.4665858" lon="1.5319253"><ele>671.0</ele><time>2026-03-28T12:19:03.298Z</time></trkpt><trkpt lat="41.4666986" lon="1.532156"><ele>674.0</ele><time>2026-03-28T12:19:04.297Z</time></trkpt><trkpt lat="41.466816" lon="1.5323853"><ele>677.0</ele><time>2026-03-28T12:19:05.298Z</time></trkpt><trkpt lat="41.4669451" lon="1.532581"><ele>677.0</ele><time>2026-03-28T12:19:06.298Z</time></trkpt><trkpt lat="41.4670589" lon="1.5327362"><ele>677.0</ele><time>2026-03-28T12:19:07.297Z</time></trkpt><trkpt lat="41.4671458" lon="1.5328577"><ele>677.0</ele><time>2026-03-28T12:19:08.298Z</time></trkpt><trkpt lat="41.4672025" lon="1.5329634"><ele>677.0</ele><time>2026-03-28T12:19:09.298Z</time></trkpt><trkpt lat="41.46725" lon="1.5330603"><ele>675.6</ele><time>2026-03-28T12:19:10.298Z</time></trkpt><trkpt lat="41.4672719" lon="1.5331685"><ele>674.2</ele><time>2026-03-28T12:19:11.298Z</time></trkpt><trkpt lat="41.46726" lon="1.5332713"><ele>672.8</ele><time>2026-03-28T12:19:12.298Z</time></trkpt><trkpt lat="41.4671352" lon="1.5332935"><ele>671.4</ele><time>2026-03-28T12:19:13.298Z</time></trkpt><trkpt lat="41.4670321" lon="1.533296"><ele>670.0</ele><time>2026-03-28T12:19:14.298Z</time></trkpt><trkpt lat="41.466908" lon="1.5332453"><ele>669.75</ele><time>2026-03-28T12:19:15.297Z</time></trkpt><trkpt lat="41.4667873" lon="1.5331605"><ele>669.5</ele><time>2026-03-28T12:19:16.298Z</time></trkpt><trkpt lat="41.4666841" lon="1.5330308"><ele>669.25</ele><time>2026-03-28T12:19:17.298Z</time></trkpt><trkpt lat="41.4665971" lon="1.5328739"><ele>669.0</ele><time>2026-03-28T12:19:18.298Z</time></trkpt><trkpt lat="41.4665037" lon="1.5326911"><ele>671.6666666666666</ele><time>2026-03-28T12:19:19.298Z</time></trkpt><trkpt lat="41.4663742" lon="1.5325128"><ele>674.3333333333333</ele><time>2026-03-28T12:19:20.298Z</time></trkpt><trkpt lat="41.4662212" lon="1.5323375"><ele>677.0</ele><time>2026-03-28T12:19:21.297Z</time></trkpt><trkpt lat="41.4660536" lon="1.5321605"><ele>679.6666666666666</ele><time>2026-03-28T12:19:22.298Z</time></trkpt><trkpt lat="41.4658841" lon="1.531992"><ele>682.3333333333334</ele><time>2026-03-28T12:19:23.297Z</time></trkpt><trkpt lat="41.4657233" lon="1.5318143"><ele>685.0</ele><time>2026-03-28T12:19:24.298Z</time></trkpt><trkpt lat="41.4655527" lon="1.5316298"><ele>687.3333333333334</ele><time>2026-03-28T12:19:25.298Z</time></trkpt><trkpt lat="41.4653955" lon="1.5314622"><ele>689.6666666666666</ele><time>2026-03-28T12:19:26.298Z</time></trkpt><trkpt lat="41.4652471" lon="1.5312997"><ele>692.0</ele><time>2026-03-28T12:19:27.297Z</time></trkpt><trkpt lat="41.4651036" lon="1.5311464"><ele>693.0</ele><time>2026-03-28T12:19:28.298Z</time></trkpt><trkpt lat="41.4649836" lon="1.5309793"><ele>694.0</ele><time>2026-03-28T12:19:29.298Z</time></trkpt><trkpt lat="41.4648771" lon="1.5307872"><ele>695.0</ele><time>2026-03-28T12:19:30.298Z</time></trkpt><trkpt lat="41.4647869" lon="1.5305909"><ele>695.0</ele><time>2026-03-28T12:19:31.298Z</time></trkpt><trkpt lat="41.4647134" lon="1.5304116"><ele>695.0</ele><time>2026-03-28T12:19:32.298Z</time></trkpt><trkpt lat="41.4646526" lon="1.5302764"><ele>695.0</ele><time>2026-03-28T12:19:33.298Z</time></trkpt><trkpt lat="41.4645864" lon="1.5301461"><ele>695.0</ele><time>2026-03-28T12:19:34.298Z</time></trkpt><trkpt lat="41.4644955" lon="1.5300447"><ele>697.0</ele><time>2026-03-28T12:19:35.298Z</time></trkpt><trkpt lat="41.4643757" lon="1.5299696"><ele>699.0</ele><time>2026-03-28T12:19:36.298Z</time></trkpt><trkpt lat="41.4642304" lon="1.5299026"><ele>701.0</ele><time>2026-03-28T12:19:37.298Z</time></trkpt><trkpt lat="41.4640703" lon="1.5298249"><ele>701.0</ele><time>2026-03-28T12:19:38.298Z</time></trkpt><trkpt lat="41.4639061" lon="1.5297472"><ele>701.0</ele><time>2026-03-28T12:19:39.297Z</time></trkpt><trkpt lat="41.4637536" lon="1.52967"><ele>701.0</ele><time>2026-03-28T12:19:40.298Z</time></trkpt><trkpt lat="41.4636114" lon="1.5295877"><ele>699.25</ele><time>2026-03-28T12:19:41.298Z</time></trkpt><trkpt lat="41.4634681" lon="1.529528"><ele>697.5</ele><time>2026-03-28T12:19:42.298Z</time></trkpt><trkpt lat="41.4633267" lon="1.5294819"><ele>695.75</ele><time>2026-03-28T12:19:43.298Z</time></trkpt><trkpt lat="41.463186" lon="1.5294531"><ele>694.0</ele><time>2026-03-28T12:19:44.298Z</time></trkpt><trkpt lat="41.463044" lon="1.5294203"><ele>697.25</ele><time>2026-03-28T12:19:45.298Z</time></trkpt><trkpt lat="41.4629051" lon="1.5293906"><ele>700.5</ele><time>2026-03-28T12:19:46.298Z</time></trkpt><trkpt lat="41.4627658" lon="1.5293584"><ele>703.75</ele><time>2026-03-28T12:19:47.298Z</time></trkpt><trkpt lat="41.4626312" lon="1.5293322"><ele>707.0</ele><time>2026-03-28T12:19:48.298Z</time></trkpt><trkpt lat="41.4625057" lon="1.5293061"><ele>707.0</ele><time>2026-03-28T12:19:49.297Z</time></trkpt><trkpt lat="41.4623865" lon="1.5292771"><ele>707.0</ele><time>2026-03-28T12:19:50.298Z</time></trkpt><trkpt lat="41.4622464" lon="1.529227"><ele>707.0</ele><time>2026-03-28T12:19:51.298Z</time></trkpt><trkpt lat="41.462091" lon="1.5291685"><ele>707.0</ele><time>2026-03-28T12:19:52.298Z</time></trkpt><trkpt lat="41.4619241" lon="1.5291097"><ele>712.6666666666666</ele><time>2026-03-28T12:19:53.298Z</time></trkpt><trkpt lat="41.4617517" lon="1.5290439"><ele>718.3333333333334</ele><time>2026-03-28T12:19:54.298Z</time></trkpt><trkpt lat="41.4615908" lon="1.5289856"><ele>724.0</ele><time>2026-03-28T12:19:55.298Z</time></trkpt><trkpt lat="41.4614498" lon="1.5289142"><ele>724.0</ele><time>2026-03-28T12:19:56.298Z</time></trkpt><trkpt lat="41.4613249" lon="1.5288265"><ele>724.0</ele><time>2026-03-28T12:19:57.298Z</time></trkpt><trkpt lat="41.4612099" lon="1.5287453"><ele>724.0</ele><time>2026-03-28T12:19:58.298Z</time></trkpt><trkpt lat="41.4610985" lon="1.5286657"><ele>724.0</ele><time>2026-03-28T12:19:59.298Z</time></trkpt><trkpt lat="41.4609858" lon="1.5286012"><ele>722.75</ele><time>2026-03-28T12:20:00.298Z</time></trkpt><trkpt lat="41.460852" lon="1.5286006"><ele>721.5</ele><time>2026-03-28T12:20:01.297Z</time></trkpt><trkpt lat="41.4607102" lon="1.5286241"><ele>720.25</ele><time>2026-03-28T12:20:02.297Z</time></trkpt><trkpt lat="41.4605579" lon="1.5286892"><ele>719.0</ele><time>2026-03-28T12:20:03.297Z</time></trkpt><trkpt lat="41.460414" lon="1.5287469"><ele>725.6666666666666</ele><time>2026-03-28T12:20:04.298Z</time></trkpt><trkpt lat="41.4602662" lon="1.5287782"><ele>732.3333333333334</ele><time>2026-03-28T12:20:05.297Z</time></trkpt><trkpt lat="41.4601164" lon="1.5287794"><ele>739.0</ele><time>2026-03-28T12:20:06.298Z</time></trkpt><trkpt lat="41.4599509" lon="1.5287479"><ele>737.6666666666667</ele><time>2026-03-28T12:20:07.298Z</time></trkpt><trkpt lat="41.4597881" lon="1.5286938"><ele>736.3333333333334</ele><time>2026-03-28T12:20:08.298Z</time></trkpt><trkpt lat="41.4596247" lon="1.5286423"><ele>735.0</ele><time>2026-03-28T12:20:09.298Z</time></trkpt><trkpt lat="41.4594683" lon="1.5286025"><ele>735.0</ele><time>2026-03-28T12:20:10.298Z</time></trkpt><trkpt lat="41.4593188" lon="1.528543"><ele>735.0</ele><time>2026-03-28T12:20:11.298Z</time></trkpt><trkpt lat="41.4591746" lon="1.5284441"><ele>735.0</ele><time>2026-03-28T12:20:12.298Z</time></trkpt><trkpt lat="41.4590359" lon="1.52831"><ele>735.0</ele><time>2026-03-28T12:20:13.298Z</time></trkpt><trkpt lat="41.4588985" lon="1.528185"><ele>735.0</ele><time>2026-03-28T12:20:14.298Z</time></trkpt><trkpt lat="41.4587569" lon="1.5280604"><ele>735.0</ele><time>2026-03-28T12:20:15.298Z</time></trkpt><trkpt lat="41.4586592" lon="1.5279754"><ele>736.4</ele><time>2026-03-28T12:20:16.298Z</time></trkpt><trkpt lat="41.4585667" lon="1.5279014"><ele>737.8</ele><time>2026-03-28T12:20:17.298Z</time></trkpt><trkpt lat="41.4584798" lon="1.5278605"><ele>739.2</ele><time>2026-03-28T12:20:18.298Z</time></trkpt><trkpt lat="41.4583985" lon="1.5278682"><ele>740.6</ele><time>2026-03-28T12:20:19.298Z</time></trkpt><trkpt lat="41.4583262" lon="1.5279191"><ele>742.0</ele><time>2026-03-28T12:20:20.297Z</time></trkpt><trkpt lat="41.4582855" lon="1.5280222"><ele>742.5</ele><time>2026-03-28T12:20:21.297Z</time></trkpt><trkpt lat="41.4582535" lon="1.5281213"><ele>743.0</ele><time>2026-03-28T12:20:22.298Z</time></trkpt><trkpt lat="41.458247" lon="1.5282235"><ele>743.5</ele><time>2026-03-28T12:20:23.298Z</time></trkpt><trkpt lat="41.4582488" lon="1.5283147"><ele>744.0</ele><time>2026-03-28T12:20:24.298Z</time></trkpt><trkpt lat="41.4585145" lon="1.5283789"><ele>744.0</ele><time>2026-03-28T12:20:26.297Z</time></trkpt><trkpt lat="41.4587423" lon="1.5284358"><ele>744.0</ele><time>2026-03-28T12:20:27.298Z</time></trkpt><trkpt lat="41.4589377" lon="1.5285722"><ele>746.0</ele><time>2026-03-28T12:20:28.298Z</time></trkpt><trkpt lat="41.4591029" lon="1.5286811"><ele>748.0</ele><time>2026-03-28T12:20:29.298Z</time></trkpt><trkpt lat="41.4592647" lon="1.5287903"><ele>750.0</ele><time>2026-03-28T12:20:30.298Z</time></trkpt><trkpt lat="41.4594509" lon="1.5289018"><ele>746.3333333333334</ele><time>2026-03-28T12:20:31.298Z</time></trkpt><trkpt lat="41.4596502" lon="1.5290268"><ele>742.6666666666667</ele><time>2026-03-28T12:20:32.298Z</time></trkpt><trkpt lat="41.4598413" lon="1.5291662"><ele>739.0</ele><time>2026-03-28T12:20:33.298Z</time></trkpt><trkpt lat="41.4600332" lon="1.5292964"><ele>739.0</ele><time>2026-03-28T12:20:34.298Z</time></trkpt><trkpt lat="41.460231" lon="1.5293973"><ele>739.0</ele><time>2026-03-28T12:20:35.298Z</time></trkpt><trkpt lat="41.4604124" lon="1.5294513"><ele>739.0</ele><time>2026-03-28T12:20:36.298Z</time></trkpt><trkpt lat="41.4605769" lon="1.5295241"><ele>740.75</ele><time>2026-03-28T12:20:37.298Z</time></trkpt><trkpt lat="41.4607219" lon="1.5296282"><ele>742.5</ele><time>2026-03-28T12:20:38.298Z</time></trkpt><trkpt lat="41.4608292" lon="1.5297451"><ele>744.25</ele><time>2026-03-28T12:20:39.298Z</time></trkpt><trkpt lat="41.4609018" lon="1.5298405"><ele>746.0</ele><time>2026-03-28T12:20:40.297Z</time></trkpt><trkpt lat="41.4609373" lon="1.5299555"><ele>746.0</ele><time>2026-03-28T12:20:41.298Z</time></trkpt><trkpt lat="41.4609222" lon="1.5300674"><ele>746.0</ele><time>2026-03-28T12:20:42.298Z</time></trkpt><trkpt lat="41.4608621" lon="1.5301579"><ele>746.0</ele><time>2026-03-28T12:20:43.298Z</time></trkpt><trkpt lat="41.4607787" lon="1.5301956"><ele>746.0</ele><time>2026-03-28T12:20:44.298Z</time></trkpt><trkpt lat="41.4606993" lon="1.530174"><ele>746.0</ele><time>2026-03-28T12:20:45.298Z</time></trkpt><trkpt lat="41.4606313" lon="1.5300988"><ele>746.0</ele><time>2026-03-28T12:20:46.298Z</time></trkpt><trkpt lat="41.4605761" lon="1.5299854"><ele>746.0</ele><time>2026-03-28T12:20:47.298Z</time></trkpt><trkpt lat="41.4605018" lon="1.5298899"><ele>746.0</ele><time>2026-03-28T12:20:48.298Z</time></trkpt><trkpt lat="41.4603999" lon="1.5298288"><ele>746.0</ele><time>2026-03-28T12:20:49.298Z</time></trkpt><trkpt lat="41.4602541" lon="1.5297974"><ele>746.0</ele><time>2026-03-28T12:20:50.298Z</time></trkpt><trkpt lat="41.4600964" lon="1.529776"><ele>748.6666666666666</ele><time>2026-03-28T12:20:51.298Z</time></trkpt><trkpt lat="41.459929" lon="1.5297614"><ele>751.3333333333334</ele><time>2026-03-28T12:20:52.298Z</time></trkpt><trkpt lat="41.4597387" lon="1.5297483"><ele>754.0</ele><time>2026-03-28T12:20:53.298Z</time></trkpt><trkpt lat="41.4595399" lon="1.5297323"><ele>756.6666666666667</ele><time>2026-03-28T12:20:54.298Z</time></trkpt><trkpt lat="41.4593458" lon="1.5297173"><ele>759.3333333333334</ele><time>2026-03-28T12:20:55.298Z</time></trkpt><trkpt lat="41.4591616" lon="1.5297111"><ele>762.0</ele><time>2026-03-28T12:20:56.298Z</time></trkpt><trkpt lat="41.4589978" lon="1.5296678"><ele>762.0</ele><time>2026-03-28T12:20:57.298Z</time></trkpt><trkpt lat="41.4588324" lon="1.5296283"><ele>762.0</ele><time>2026-03-28T12:20:58.298Z</time></trkpt><trkpt lat="41.4586877" lon="1.5295518"><ele>762.0</ele><time>2026-03-28T12:20:59.298Z</time></trkpt><trkpt lat="41.45855" lon="1.529477"><ele>761.0</ele><time>2026-03-28T12:21:00.298Z</time></trkpt><trkpt lat="41.4583998" lon="1.5294615"><ele>760.0</ele><time>2026-03-28T12:21:01.298Z</time></trkpt><trkpt lat="41.4582546" lon="1.5294321"><ele>759.0</ele><time>2026-03-28T12:21:02.297Z</time></trkpt><trkpt lat="41.4580984" lon="1.5294737"><ele>759.0</ele><time>2026-03-28T12:21:03.298Z</time></trkpt><trkpt lat="41.4579527" lon="1.5294732"><ele>759.0</ele><time>2026-03-28T12:21:04.297Z</time></trkpt><trkpt lat="41.4578193" lon="1.5294346"><ele>759.0</ele><time>2026-03-28T12:21:05.297Z</time></trkpt><trkpt lat="41.4576791" lon="1.5293505"><ele>759.0</ele><time>2026-03-28T12:21:06.297Z</time></trkpt><trkpt lat="41.4575522" lon="1.5292468"><ele>762.0</ele><time>2026-03-28T12:21:07.298Z</time></trkpt><trkpt lat="41.4574273" lon="1.5291577"><ele>765.0</ele><time>2026-03-28T12:21:08.298Z</time></trkpt><trkpt lat="41.4573229" lon="1.5290939"><ele>768.0</ele><time>2026-03-28T12:21:09.298Z</time></trkpt><trkpt lat="41.45723" lon="1.5290331"><ele>771.0</ele><time>2026-03-28T12:21:10.298Z</time></trkpt><trkpt lat="41.4571344" lon="1.5289863"><ele>772.25</ele><time>2026-03-28T12:21:11.298Z</time></trkpt><trkpt lat="41.4570202" lon="1.5290108"><ele>773.5</ele><time>2026-03-28T12:21:12.298Z</time></trkpt><trkpt lat="41.4569159" lon="1.5290228"><ele>774.75</ele><time>2026-03-28T12:21:13.298Z</time></trkpt><trkpt lat="41.456798" lon="1.5291487"><ele>776.0</ele><time>2026-03-28T12:21:14.298Z</time></trkpt><trkpt lat="41.4566739" lon="1.5292173"><ele>776.0</ele><time>2026-03-28T12:21:15.298Z</time></trkpt><trkpt lat="41.4565382" lon="1.5292354"><ele>776.0</ele><time>2026-03-28T12:21:16.298Z</time></trkpt><trkpt lat="41.4563883" lon="1.5292068"><ele>776.0</ele><time>2026-03-28T12:21:17.298Z</time></trkpt><trkpt lat="41.4562409" lon="1.5291502"><ele>776.0</ele><time>2026-03-28T12:21:18.297Z</time></trkpt><trkpt lat="41.4560762" lon="1.5291277"><ele>777.3333333333334</ele><time>2026-03-28T12:21:19.298Z</time></trkpt><trkpt lat="41.455914" lon="1.5290947"><ele>778.6666666666667</ele><time>2026-03-28T12:21:20.297Z</time></trkpt><trkpt lat="41.4557526" lon="1.529117"><ele>780.0</ele><time>2026-03-28T12:21:21.297Z</time></trkpt><trkpt lat="41.455605" lon="1.5291483"><ele>780.0</ele><time>2026-03-28T12:21:22.298Z</time></trkpt><trkpt lat="41.4554549" lon="1.529259"><ele>780.0</ele><time>2026-03-28T12:21:23.298Z</time></trkpt><trkpt lat="41.4553273" lon="1.5293698"><ele>780.0</ele><time>2026-03-28T12:21:24.298Z</time></trkpt><trkpt lat="41.4552216" lon="1.5294693"><ele>780.6</ele><time>2026-03-28T12:21:25.298Z</time></trkpt><trkpt lat="41.4551296" lon="1.5295639"><ele>781.2</ele><time>2026-03-28T12:21:26.298Z</time></trkpt><trkpt lat="41.4550542" lon="1.5296347"><ele>781.8</ele><time>2026-03-28T12:21:27.298Z</time></trkpt><trkpt lat="41.4549742" lon="1.5297079"><ele>782.4</ele><time>2026-03-28T12:21:28.298Z</time></trkpt><trkpt lat="41.4548911" lon="1.529792"><ele>783.0</ele><time>2026-03-28T12:21:29.298Z</time></trkpt><trkpt lat="41.4548077" lon="1.5298761"><ele>783.0</ele><time>2026-03-28T12:21:30.298Z</time></trkpt><trkpt lat="41.4547245" lon="1.5299526"><ele>783.0</ele><time>2026-03-28T12:21:31.298Z</time></trkpt><trkpt lat="41.4546427" lon="1.5300213"><ele>783.0</ele><time>2026-03-28T12:21:32.298Z</time></trkpt><trkpt lat="41.4545604" lon="1.5300668"><ele>783.0</ele><time>2026-03-28T12:21:33.298Z</time></trkpt><trkpt lat="41.4544738" lon="1.5300979"><ele>783.0</ele><time>2026-03-28T12:21:34.298Z</time></trkpt><trkpt lat="41.4543802" lon="1.5301149"><ele>784.25</ele><time>2026-03-28T12:21:35.298Z</time></trkpt><trkpt lat="41.4542824" lon="1.5301033"><ele>785.5</ele><time>2026-03-28T12:21:36.298Z</time></trkpt><trkpt lat="41.4541739" lon="1.5300589"><ele>786.75</ele><time>2026-03-28T12:21:37.297Z</time></trkpt><trkpt lat="41.4540533" lon="1.5299939"><ele>788.0</ele><time>2026-03-28T12:21:38.298Z</time></trkpt><trkpt lat="41.4539339" lon="1.529933"><ele>788.0</ele><time>2026-03-28T12:21:39.298Z</time></trkpt><trkpt lat="41.4538125" lon="1.5298744"><ele>788.0</ele><time>2026-03-28T12:21:40.298Z</time></trkpt><trkpt lat="41.4536836" lon="1.5297946"><ele>788.0</ele><time>2026-03-28T12:21:41.298Z</time></trkpt><trkpt lat="41.453558" lon="1.5296951"><ele>788.0</ele><time>2026-03-28T12:21:42.298Z</time></trkpt><trkpt lat="41.4534209" lon="1.5295691"><ele>790.3333333333334</ele><time>2026-03-28T12:21:43.298Z</time></trkpt><trkpt lat="41.4532758" lon="1.529416"><ele>792.6666666666667</ele><time>2026-03-28T12:21:44.298Z</time></trkpt><trkpt lat="41.4531421" lon="1.5292372"><ele>795.0</ele><time>2026-03-28T12:21:45.298Z</time></trkpt><trkpt lat="41.4530087" lon="1.5290392"><ele>797.0</ele><time>2026-03-28T12:21:46.298Z</time></trkpt><trkpt lat="41.4528577" lon="1.5288274"><ele>799.0</ele><time>2026-03-28T12:21:47.298Z</time></trkpt><trkpt lat="41.4527088" lon="1.5286167"><ele>801.0</ele><time>2026-03-28T12:21:48.298Z</time></trkpt><trkpt lat="41.4525717" lon="1.5283856"><ele>801.6666666666667</ele><time>2026-03-28T12:21:49.298Z</time></trkpt><trkpt lat="41.4524533" lon="1.5281654"><ele>802.3333333333334</ele><time>2026-03-28T12:21:50.297Z</time></trkpt><trkpt lat="41.4523562" lon="1.527997"><ele>803.0</ele><time>2026-03-28T12:21:51.297Z</time></trkpt><trkpt lat="41.4522709" lon="1.5278624"><ele>803.5999999999999</ele><time>2026-03-28T12:21:52.298Z</time></trkpt><trkpt lat="41.4521984" lon="1.527776"><ele>804.1999999999999</ele><time>2026-03-28T12:21:53.298Z</time></trkpt><trkpt lat="41.4521312" lon="1.5277144"><ele>804.8</ele><time>2026-03-28T12:21:54.298Z</time></trkpt><trkpt lat="41.4520397" lon="1.5277458"><ele>805.4</ele><time>2026-03-28T12:21:55.298Z</time></trkpt><trkpt lat="41.4519595" lon="1.5278415"><ele>806.0</ele><time>2026-03-28T12:21:56.297Z</time></trkpt><trkpt lat="41.4518898" lon="1.5279934"><ele>808.25</ele><time>2026-03-28T12:21:57.298Z</time></trkpt><trkpt lat="41.4518217" lon="1.5281754"><ele>810.5</ele><time>2026-03-28T12:21:58.298Z</time></trkpt><trkpt lat="41.4517745" lon="1.528349"><ele>812.75</ele><time>2026-03-28T12:21:59.297Z</time></trkpt><trkpt lat="41.4517747" lon="1.5285332"><ele>815.0</ele><time>2026-03-28T12:22:00.298Z</time></trkpt><trkpt lat="41.4517742" lon="1.528712"><ele>815.6666666666667</ele><time>2026-03-28T12:22:01.298Z</time></trkpt><trkpt lat="41.4518566" lon="1.5289104"><ele>816.3333333333333</ele><time>2026-03-28T12:22:02.298Z</time></trkpt><trkpt lat="41.4518993" lon="1.5291137"><ele>817.0</ele><time>2026-03-28T12:22:03.298Z</time></trkpt><trkpt lat="41.4519314" lon="1.5293468"><ele>817.0</ele><time>2026-03-28T12:22:04.297Z</time></trkpt><trkpt lat="41.4519626" lon="1.5296044"><ele>817.0</ele><time>2026-03-28T12:22:05.298Z</time></trkpt><trkpt lat="41.4519902" lon="1.5298443"><ele>817.0</ele><time>2026-03-28T12:22:06.298Z</time></trkpt><trkpt lat="41.4520129" lon="1.5300746"><ele>817.0</ele><time>2026-03-28T12:22:07.298Z</time></trkpt><trkpt lat="41.4520106" lon="1.5302976"><ele>817.0</ele><time>2026-03-28T12:22:08.297Z</time></trkpt><trkpt lat="41.4520003" lon="1.5304783"><ele>817.0</ele><time>2026-03-28T12:22:09.298Z</time></trkpt><trkpt lat="41.4519903" lon="1.53064"><ele>817.0</ele><time>2026-03-28T12:22:10.298Z</time></trkpt><trkpt lat="41.4519862" lon="1.5307976"><ele>816.75</ele><time>2026-03-28T12:22:11.298Z</time></trkpt><trkpt lat="41.4519833" lon="1.5309578"><ele>816.5</ele><time>2026-03-28T12:22:12.298Z</time></trkpt><trkpt lat="41.4519798" lon="1.5311205"><ele>816.25</ele><time>2026-03-28T12:22:13.298Z</time></trkpt><trkpt lat="41.4519758" lon="1.53128"><ele>816.0</ele><time>2026-03-28T12:22:14.298Z</time></trkpt><trkpt lat="41.4519685" lon="1.5314363"><ele>815.75</ele><time>2026-03-28T12:22:15.298Z</time></trkpt><trkpt lat="41.4519621" lon="1.531606"><ele>815.5</ele><time>2026-03-28T12:22:16.298Z</time></trkpt><trkpt lat="41.4519569" lon="1.5317828"><ele>815.25</ele><time>2026-03-28T12:22:17.298Z</time></trkpt><trkpt lat="41.4519507" lon="1.5319622"><ele>815.0</ele><time>2026-03-28T12:22:18.298Z</time></trkpt><trkpt lat="41.451949" lon="1.5321433"><ele>815.75</ele><time>2026-03-28T12:22:19.298Z</time></trkpt><trkpt lat="41.4519599" lon="1.5323224"><ele>816.5</ele><time>2026-03-28T12:22:20.298Z</time></trkpt><trkpt lat="41.4519861" lon="1.5324994"><ele>817.25</ele><time>2026-03-28T12:22:21.298Z</time></trkpt><trkpt lat="41.4520248" lon="1.5326832"><ele>818.0</ele><time>2026-03-28T12:22:22.298Z</time></trkpt><trkpt lat="41.4520622" lon="1.5328706"><ele>819.0</ele><time>2026-03-28T12:22:23.298Z</time></trkpt><trkpt lat="41.4521026" lon="1.5330802"><ele>820.0</ele><time>2026-03-28T12:22:24.298Z</time></trkpt><trkpt lat="41.4521479" lon="1.5332979"><ele>821.0</ele><time>2026-03-28T12:22:25.298Z</time></trkpt><trkpt lat="41.4522009" lon="1.533544"><ele>821.6666666666667</ele><time>2026-03-28T12:22:26.298Z</time></trkpt><trkpt lat="41.4522623" lon="1.5338147"><ele>822.3333333333333</ele><time>2026-03-28T12:22:27.298Z</time></trkpt><trkpt lat="41.452331" lon="1.534086"><ele>823.0</ele><time>2026-03-28T12:22:28.298Z</time></trkpt><trkpt lat="41.4523855" lon="1.5343517"><ele>821.3333333333333</ele><time>2026-03-28T12:22:29.298Z</time></trkpt><trkpt lat="41.452442" lon="1.5346094"><ele>819.6666666666667</ele><time>2026-03-28T12:22:30.298Z</time></trkpt><trkpt lat="41.4525017" lon="1.5348632"><ele>818.0</ele><time>2026-03-28T12:22:31.298Z</time></trkpt><trkpt lat="41.4525511" lon="1.5351029"><ele>818.0</ele><time>2026-03-28T12:22:32.298Z</time></trkpt><trkpt lat="41.4526001" lon="1.5353313"><ele>818.0</ele><time>2026-03-28T12:22:33.297Z</time></trkpt><trkpt lat="41.452668" lon="1.5355345"><ele>818.0</ele><time>2026-03-28T12:22:34.298Z</time></trkpt><trkpt lat="41.4527537" lon="1.5357101"><ele>816.0</ele><time>2026-03-28T12:22:35.297Z</time></trkpt><trkpt lat="41.4528474" lon="1.5358727"><ele>814.0</ele><time>2026-03-28T12:22:36.298Z</time></trkpt><trkpt lat="41.4529257" lon="1.5360301"><ele>812.0</ele><time>2026-03-28T12:22:37.298Z</time></trkpt><trkpt lat="41.4529495" lon="1.5362147"><ele>810.0</ele><time>2026-03-28T12:22:38.298Z</time></trkpt><trkpt lat="41.4529288" lon="1.5364119"><ele>807.0</ele><time>2026-03-28T12:22:39.298Z</time></trkpt><trkpt lat="41.45289" lon="1.5366127"><ele>804.0</ele><time>2026-03-28T12:22:40.298Z</time></trkpt><trkpt lat="41.4528564" lon="1.5368221"><ele>801.0</ele><time>2026-03-28T12:22:41.298Z</time></trkpt><trkpt lat="41.4528466" lon="1.5370211"><ele>800.5</ele><time>2026-03-28T12:22:42.298Z</time></trkpt><trkpt lat="41.4528547" lon="1.5372142"><ele>800.0</ele><time>2026-03-28T12:22:43.298Z</time></trkpt><trkpt lat="41.4528617" lon="1.5373898"><ele>799.5</ele><time>2026-03-28T12:22:44.298Z</time></trkpt><trkpt lat="41.4528652" lon="1.5375472"><ele>799.0</ele><time>2026-03-28T12:22:45.298Z</time></trkpt><trkpt lat="41.452899" lon="1.5376955"><ele>799.0</ele><time>2026-03-28T12:22:46.298Z</time></trkpt><trkpt lat="41.4529476" lon="1.5378402"><ele>799.0</ele><time>2026-03-28T12:22:47.298Z</time></trkpt><trkpt lat="41.4530351" lon="1.5379747"><ele>799.0</ele><time>2026-03-28T12:22:48.298Z</time></trkpt><trkpt lat="41.4531756" lon="1.5381231"><ele>799.0</ele><time>2026-03-28T12:22:49.298Z</time></trkpt><trkpt lat="41.4532992" lon="1.5382734"><ele>800.6666666666666</ele><time>2026-03-28T12:22:50.298Z</time></trkpt><trkpt lat="41.4534076" lon="1.5384304"><ele>802.3333333333333</ele><time>2026-03-28T12:22:51.298Z</time></trkpt><trkpt lat="41.4535043" lon="1.5386008"><ele>804.0</ele><time>2026-03-28T12:22:52.298Z</time></trkpt><trkpt lat="41.4535674" lon="1.5388006"><ele>799.0</ele><time>2026-03-28T12:22:53.297Z</time></trkpt><trkpt lat="41.4536334" lon="1.5390131"><ele>794.0</ele><time>2026-03-28T12:22:54.298Z</time></trkpt><trkpt lat="41.4536781" lon="1.5392639"><ele>789.0</ele><time>2026-03-28T12:22:55.298Z</time></trkpt><trkpt lat="41.4537226" lon="1.5395024"><ele>788.3333333333333</ele><time>2026-03-28T12:22:56.297Z</time></trkpt><trkpt lat="41.4537712" lon="1.5397323"><ele>787.6666666666666</ele><time>2026-03-28T12:22:57.298Z</time></trkpt><trkpt lat="41.453818" lon="1.5399368"><ele>787.0</ele><time>2026-03-28T12:22:58.298Z</time></trkpt><trkpt lat="41.4538538" lon="1.5401093"><ele>786.6</ele><time>2026-03-28T12:22:59.298Z</time></trkpt><trkpt lat="41.4538968" lon="1.5402448"><ele>786.2</ele><time>2026-03-28T12:23:00.298Z</time></trkpt><trkpt lat="41.4539574" lon="1.5403576"><ele>785.8</ele><time>2026-03-28T12:23:01.298Z</time></trkpt><trkpt lat="41.4540478" lon="1.5404271"><ele>785.4</ele><time>2026-03-28T12:23:02.298Z</time></trkpt><trkpt lat="41.4541602" lon="1.5404724"><ele>785.0</ele><time>2026-03-28T12:23:03.298Z</time></trkpt><trkpt lat="41.4542676" lon="1.5405434"><ele>785.0</ele><time>2026-03-28T12:23:04.298Z</time></trkpt><trkpt lat="41.4543627" lon="1.5406737"><ele>785.0</ele><time>2026-03-28T12:23:05.298Z</time></trkpt><trkpt lat="41.4544462" lon="1.5408505"><ele>785.0</ele><time>2026-03-28T12:23:06.298Z</time></trkpt><trkpt lat="41.4545467" lon="1.5410162"><ele>784.3333333333334</ele><time>2026-03-28T12:23:07.298Z</time></trkpt><trkpt lat="41.4546621" lon="1.5411593"><ele>783.6666666666667</ele><time>2026-03-28T12:23:08.297Z</time></trkpt><trkpt lat="41.4547924" lon="1.5412701"><ele>783.0</ele><time>2026-03-28T12:23:09.298Z</time></trkpt><trkpt lat="41.4549325" lon="1.5413481"><ele>783.0</ele><time>2026-03-28T12:23:10.297Z</time></trkpt><trkpt lat="41.455063" lon="1.5414231"><ele>783.0</ele><time>2026-03-28T12:23:11.297Z</time></trkpt><trkpt lat="41.4551737" lon="1.5415383"><ele>783.0</ele><time>2026-03-28T12:23:12.297Z</time></trkpt><trkpt lat="41.455261" lon="1.5416964"><ele>783.0</ele><time>2026-03-28T12:23:13.298Z</time></trkpt><trkpt lat="41.4553264" lon="1.5418786"><ele>784.5</ele><time>2026-03-28T12:23:14.298Z</time></trkpt><trkpt lat="41.4553519" lon="1.5420782"><ele>786.0</ele><time>2026-03-28T12:23:15.298Z</time></trkpt><trkpt lat="41.4553746" lon="1.5422697"><ele>787.5</ele><time>2026-03-28T12:23:16.298Z</time></trkpt><trkpt lat="41.4554334" lon="1.5424503"><ele>789.0</ele><time>2026-03-28T12:23:17.298Z</time></trkpt><trkpt lat="41.4555422" lon="1.5426363"><ele>789.0</ele><time>2026-03-28T12:23:18.297Z</time></trkpt><trkpt lat="41.4556725" lon="1.5428205"><ele>789.0</ele><time>2026-03-28T12:23:19.298Z</time></trkpt><trkpt lat="41.4557924" lon="1.5429966"><ele>789.0</ele><time>2026-03-28T12:23:20.298Z</time></trkpt><trkpt lat="41.4558918" lon="1.5431582"><ele>784.3333333333333</ele><time>2026-03-28T12:23:21.298Z</time></trkpt><trkpt lat="41.4559633" lon="1.5433264"><ele>779.6666666666666</ele><time>2026-03-28T12:23:22.298Z</time></trkpt><trkpt lat="41.4560039" lon="1.5435204"><ele>775.0</ele><time>2026-03-28T12:23:23.298Z</time></trkpt><trkpt lat="41.4560315" lon="1.5437422"><ele>771.6666666666666</ele><time>2026-03-28T12:23:24.298Z</time></trkpt><trkpt lat="41.4560643" lon="1.5439698"><ele>768.3333333333333</ele><time>2026-03-28T12:23:25.298Z</time></trkpt><trkpt lat="41.4561096" lon="1.5441774"><ele>765.0</ele><time>2026-03-28T12:23:26.298Z</time></trkpt><trkpt lat="41.4561699" lon="1.5443702"><ele>765.5</ele><time>2026-03-28T12:23:27.298Z</time></trkpt><trkpt lat="41.4562365" lon="1.5445503"><ele>766.0</ele><time>2026-03-28T12:23:28.298Z</time></trkpt><trkpt lat="41.4562862" lon="1.5447097"><ele>766.5</ele><time>2026-03-28T12:23:29.298Z</time></trkpt><trkpt lat="41.4563318" lon="1.5448419"><ele>767.0</ele><time>2026-03-28T12:23:30.298Z</time></trkpt><trkpt lat="41.4563653" lon="1.5449545"><ele>767.0</ele><time>2026-03-28T12:23:31.297Z</time></trkpt><trkpt lat="41.4563631" lon="1.5450636"><ele>767.0</ele><time>2026-03-28T12:23:32.298Z</time></trkpt><trkpt lat="41.4563202" lon="1.545151"><ele>767.0</ele><time>2026-03-28T12:23:33.298Z</time></trkpt><trkpt lat="41.4562687" lon="1.5452316"><ele>767.0</ele><time>2026-03-28T12:23:34.298Z</time></trkpt><trkpt lat="41.4562032" lon="1.5452891"><ele>767.0</ele><time>2026-03-28T12:23:35.298Z</time></trkpt><trkpt lat="41.4560836" lon="1.5452721"><ele>767.0</ele><time>2026-03-28T12:23:36.298Z</time></trkpt><trkpt lat="41.4559226" lon="1.545145"><ele>767.0</ele><time>2026-03-28T12:23:37.298Z</time></trkpt><trkpt lat="41.4558039" lon="1.5451244"><ele>767.0</ele><time>2026-03-28T12:23:38.298Z</time></trkpt><trkpt lat="41.4557145" lon="1.5451573"><ele>767.0</ele><time>2026-03-28T12:23:39.297Z</time></trkpt><trkpt lat="41.4556453" lon="1.5452166"><ele>767.0</ele><time>2026-03-28T12:23:40.298Z</time></trkpt><trkpt lat="41.455641" lon="1.5453592"><ele>767.0</ele><time>2026-03-28T12:23:41.298Z</time></trkpt><trkpt lat="41.4556719" lon="1.5454854"><ele>765.3333333333333</ele><time>2026-03-28T12:23:42.297Z</time></trkpt><trkpt lat="41.4557471" lon="1.5456353"><ele>763.6666666666666</ele><time>2026-03-28T12:23:43.297Z</time></trkpt><trkpt lat="41.4558312" lon="1.5457976"><ele>762.0</ele><time>2026-03-28T12:23:44.298Z</time></trkpt><trkpt lat="41.4559204" lon="1.5459996"><ele>756.6666666666666</ele><time>2026-03-28T12:23:45.298Z</time></trkpt><trkpt lat="41.4560326" lon="1.5462136"><ele>751.3333333333333</ele><time>2026-03-28T12:23:46.298Z</time></trkpt><trkpt lat="41.4561523" lon="1.5464173"><ele>746.0</ele><time>2026-03-28T12:23:47.298Z</time></trkpt><trkpt lat="41.4562579" lon="1.5466236"><ele>750.3333333333333</ele><time>2026-03-28T12:23:48.298Z</time></trkpt><trkpt lat="41.4563556" lon="1.5468349"><ele>754.6666666666666</ele><time>2026-03-28T12:23:49.298Z</time></trkpt><trkpt lat="41.4564292" lon="1.5470503"><ele>759.0</ele><time>2026-03-28T12:23:50.298Z</time></trkpt><trkpt lat="41.4564795" lon="1.5472717"><ele>759.0</ele><time>2026-03-28T12:23:51.298Z</time></trkpt><trkpt lat="41.4565327" lon="1.5474744"><ele>759.0</ele><time>2026-03-28T12:23:52.298Z</time></trkpt><trkpt lat="41.456615" lon="1.5476769"><ele>759.0</ele><time>2026-03-28T12:23:53.298Z</time></trkpt><trkpt lat="41.4567093" lon="1.547879"><ele>754.3333333333334</ele><time>2026-03-28T12:23:54.298Z</time></trkpt><trkpt lat="41.4568063" lon="1.5480896"><ele>749.6666666666667</ele><time>2026-03-28T12:23:55.298Z</time></trkpt><trkpt lat="41.4569014" lon="1.5482981"><ele>745.0</ele><time>2026-03-28T12:23:56.298Z</time></trkpt><trkpt lat="41.4569879" lon="1.5485033"><ele>749.0</ele><time>2026-03-28T12:23:57.298Z</time></trkpt><trkpt lat="41.4570664" lon="1.5487112"><ele>753.0</ele><time>2026-03-28T12:23:58.298Z</time></trkpt><trkpt lat="41.4571454" lon="1.5489208"><ele>757.0</ele><time>2026-03-28T12:23:59.298Z</time></trkpt><trkpt lat="41.4571865" lon="1.5491405"><ele>757.0</ele><time>2026-03-28T12:24:00.298Z</time></trkpt><trkpt lat="41.4571919" lon="1.5493585"><ele>757.0</ele><time>2026-03-28T12:24:01.298Z</time></trkpt><trkpt lat="41.457183" lon="1.5495771"><ele>757.0</ele><time>2026-03-28T12:24:02.297Z</time></trkpt><trkpt lat="41.4571703" lon="1.5497906"><ele>754.0</ele><time>2026-03-28T12:24:03.298Z</time></trkpt><trkpt lat="41.4571523" lon="1.5499776"><ele>751.0</ele><time>2026-03-28T12:24:04.298Z</time></trkpt><trkpt lat="41.457118" lon="1.5501436"><ele>748.0</ele><time>2026-03-28T12:24:05.298Z</time></trkpt><trkpt lat="41.4570523" lon="1.550281"><ele>745.0</ele><time>2026-03-28T12:24:06.298Z</time></trkpt><trkpt lat="41.4569488" lon="1.5503754"><ele>744.0</ele><time>2026-03-28T12:24:07.298Z</time></trkpt><trkpt lat="41.4568185" lon="1.5504397"><ele>743.0</ele><time>2026-03-28T12:24:08.298Z</time></trkpt><trkpt lat="41.4566765" lon="1.5504949"><ele>742.0</ele><time>2026-03-28T12:24:09.298Z</time></trkpt><trkpt lat="41.4565401" lon="1.5505448"><ele>741.0</ele><time>2026-03-28T12:24:10.298Z</time></trkpt><trkpt lat="41.4564021" lon="1.5505567"><ele>738.6666666666666</ele><time>2026-03-28T12:24:11.297Z</time></trkpt><trkpt lat="41.4562651" lon="1.5505165"><ele>736.3333333333333</ele><time>2026-03-28T12:24:12.298Z</time></trkpt><trkpt lat="41.45613" lon="1.5504275"><ele>734.0</ele><time>2026-03-28T12:24:13.298Z</time></trkpt><trkpt lat="41.4559836" lon="1.5503343"><ele>734.0</ele><time>2026-03-28T12:24:14.297Z</time></trkpt><trkpt lat="41.4558127" lon="1.5502397"><ele>734.0</ele><time>2026-03-28T12:24:15.298Z</time></trkpt><trkpt lat="41.4556245" lon="1.5501478"><ele>734.0</ele><time>2026-03-28T12:24:16.298Z</time></trkpt><trkpt lat="41.4554372" lon="1.5500576"><ele>736.3333333333333</ele><time>2026-03-28T12:24:17.298Z</time></trkpt><trkpt lat="41.4552502" lon="1.5499766"><ele>738.6666666666666</ele><time>2026-03-28T12:24:18.298Z</time></trkpt><trkpt lat="41.4550667" lon="1.549921"><ele>741.0</ele><time>2026-03-28T12:24:19.298Z</time></trkpt><trkpt lat="41.4548775" lon="1.5498847"><ele>741.0</ele><time>2026-03-28T12:24:20.298Z</time></trkpt><trkpt lat="41.4546954" lon="1.5498652"><ele>741.0</ele><time>2026-03-28T12:24:21.298Z</time></trkpt><trkpt lat="41.454527" lon="1.5498482"><ele>741.0</ele><time>2026-03-28T12:24:22.298Z</time></trkpt><trkpt lat="41.4543768" lon="1.549824"><ele>744.0</ele><time>2026-03-28T12:24:23.297Z</time></trkpt><trkpt lat="41.4542446" lon="1.5497502"><ele>747.0</ele><time>2026-03-28T12:24:24.298Z</time></trkpt><trkpt lat="41.4541213" lon="1.5496153"><ele>750.0</ele><time>2026-03-28T12:24:25.298Z</time></trkpt><trkpt lat="41.4540112" lon="1.5494547"><ele>745.0</ele><time>2026-03-28T12:24:26.297Z</time></trkpt><trkpt lat="41.4539017" lon="1.5492914"><ele>740.0</ele><time>2026-03-28T12:24:27.298Z</time></trkpt><trkpt lat="41.4537932" lon="1.5491426"><ele>735.0</ele><time>2026-03-28T12:24:28.298Z</time></trkpt><trkpt lat="41.4536768" lon="1.549026"><ele>735.0</ele><time>2026-03-28T12:24:29.297Z</time></trkpt><trkpt lat="41.4535445" lon="1.5489549"><ele>735.0</ele><time>2026-03-28T12:24:30.297Z</time></trkpt><trkpt lat="41.4533971" lon="1.5489238"><ele>735.0</ele><time>2026-03-28T12:24:31.298Z</time></trkpt><trkpt lat="41.4532522" lon="1.5488936"><ele>735.0</ele><time>2026-03-28T12:24:32.298Z</time></trkpt><trkpt lat="41.4531267" lon="1.5488256"><ele>735.0</ele><time>2026-03-28T12:24:33.298Z</time></trkpt><trkpt lat="41.4530292" lon="1.5487141"><ele>735.0</ele><time>2026-03-28T12:24:34.297Z</time></trkpt><trkpt lat="41.452963" lon="1.5485695"><ele>735.0</ele><time>2026-03-28T12:24:35.298Z</time></trkpt><trkpt lat="41.4529112" lon="1.5484078"><ele>735.0</ele><time>2026-03-28T12:24:36.298Z</time></trkpt><trkpt lat="41.4528394" lon="1.5482701"><ele>733.0</ele><time>2026-03-28T12:24:37.298Z</time></trkpt><trkpt lat="41.4527316" lon="1.548162"><ele>731.0</ele><time>2026-03-28T12:24:38.298Z</time></trkpt><trkpt lat="41.4525994" lon="1.5480881"><ele>729.0</ele><time>2026-03-28T12:24:39.298Z</time></trkpt><trkpt lat="41.4524458" lon="1.548037"><ele>727.0</ele><time>2026-03-28T12:24:40.298Z</time></trkpt><trkpt lat="41.4522816" lon="1.548044"><ele>727.0</ele><time>2026-03-28T12:24:41.298Z</time></trkpt><trkpt lat="41.4521253" lon="1.5480736"><ele>727.0</ele><time>2026-03-28T12:24:42.298Z</time></trkpt><trkpt lat="41.4519892" lon="1.5481087"><ele>727.0</ele><time>2026-03-28T12:24:43.298Z</time></trkpt><trkpt lat="41.4518813" lon="1.5481734"><ele>727.0</ele><time>2026-03-28T12:24:44.298Z</time></trkpt><trkpt lat="41.451803" lon="1.5482778"><ele>726.0</ele><time>2026-03-28T12:24:45.297Z</time></trkpt><trkpt lat="41.4517459" lon="1.5484317"><ele>725.0</ele><time>2026-03-28T12:24:46.298Z</time></trkpt><trkpt lat="41.4517027" lon="1.5486272"><ele>724.0</ele><time>2026-03-28T12:24:47.297Z</time></trkpt><trkpt lat="41.4516684" lon="1.5488407"><ele>723.0</ele><time>2026-03-28T12:24:48.298Z</time></trkpt><trkpt lat="41.4516315" lon="1.5490826"><ele>723.0</ele><time>2026-03-28T12:24:49.298Z</time></trkpt><trkpt lat="41.4515822" lon="1.5493425"><ele>723.0</ele><time>2026-03-28T12:24:50.297Z</time></trkpt><trkpt lat="41.4515336" lon="1.5495879"><ele>723.0</ele><time>2026-03-28T12:24:51.298Z</time></trkpt><trkpt lat="41.4514876" lon="1.5498302"><ele>723.6666666666666</ele><time>2026-03-28T12:24:52.298Z</time></trkpt><trkpt lat="41.4514469" lon="1.5500646"><ele>724.3333333333333</ele><time>2026-03-28T12:24:53.298Z</time></trkpt><trkpt lat="41.4514059" lon="1.5502965"><ele>725.0</ele><time>2026-03-28T12:24:54.298Z</time></trkpt><trkpt lat="41.4513672" lon="1.5505177"><ele>726.3333333333333</ele><time>2026-03-28T12:24:55.298Z</time></trkpt><trkpt lat="41.4513265" lon="1.5507335"><ele>727.6666666666666</ele><time>2026-03-28T12:24:56.298Z</time></trkpt><trkpt lat="41.4512885" lon="1.550943"><ele>729.0</ele><time>2026-03-28T12:24:57.297Z</time></trkpt><trkpt lat="41.4512508" lon="1.5511588"><ele>721.0</ele><time>2026-03-28T12:24:58.297Z</time></trkpt><trkpt lat="41.4512131" lon="1.5513692"><ele>713.0</ele><time>2026-03-28T12:24:59.297Z</time></trkpt><trkpt lat="41.4511798" lon="1.551575"><ele>705.0</ele><time>2026-03-28T12:25:00.298Z</time></trkpt><trkpt lat="41.4511832" lon="1.5517611"><ele>705.0</ele><time>2026-03-28T12:25:01.298Z</time></trkpt><trkpt lat="41.4512114" lon="1.5519387"><ele>705.0</ele><time>2026-03-28T12:25:02.298Z</time></trkpt><trkpt lat="41.4512249" lon="1.5521095"><ele>705.0</ele><time>2026-03-28T12:25:03.298Z</time></trkpt><trkpt lat="41.4511927" lon="1.5522692"><ele>705.0</ele><time>2026-03-28T12:25:04.298Z</time></trkpt><trkpt lat="41.4511376" lon="1.5523988"><ele>707.25</ele><time>2026-03-28T12:25:05.298Z</time></trkpt><trkpt lat="41.4510715" lon="1.552502"><ele>709.5</ele><time>2026-03-28T12:25:06.298Z</time></trkpt><trkpt lat="41.4509956" lon="1.5525722"><ele>711.75</ele><time>2026-03-28T12:25:07.298Z</time></trkpt><trkpt lat="41.4508801" lon="1.5525947"><ele>714.0</ele><time>2026-03-28T12:25:08.298Z</time></trkpt><trkpt lat="41.450677" lon="1.5524812"><ele>714.0</ele><time>2026-03-28T12:25:09.298Z</time></trkpt><trkpt lat="41.4505249" lon="1.5524462"><ele>714.0</ele><time>2026-03-28T12:25:10.298Z</time></trkpt><trkpt lat="41.4503652" lon="1.5524517"><ele>714.0</ele><time>2026-03-28T12:25:11.298Z</time></trkpt><trkpt lat="41.4502059" lon="1.55249"><ele>710.6666666666666</ele><time>2026-03-28T12:25:12.298Z</time></trkpt><trkpt lat="41.4500424" lon="1.5525868"><ele>707.3333333333333</ele><time>2026-03-28T12:25:13.298Z</time></trkpt><trkpt lat="41.4498916" lon="1.5526921"><ele>704.0</ele><time>2026-03-28T12:25:14.298Z</time></trkpt><trkpt lat="41.4497457" lon="1.5527816"><ele>701.75</ele><time>2026-03-28T12:25:15.298Z</time></trkpt><trkpt lat="41.4496134" lon="1.5528309"><ele>699.5</ele><time>2026-03-28T12:25:16.297Z</time></trkpt><trkpt lat="41.4494915" lon="1.5528208"><ele>697.25</ele><time>2026-03-28T12:25:17.298Z</time></trkpt><trkpt lat="41.4493874" lon="1.5527489"><ele>695.0</ele><time>2026-03-28T12:25:18.298Z</time></trkpt><trkpt lat="41.4492876" lon="1.5526822"><ele>695.0</ele><time>2026-03-28T12:25:19.298Z</time></trkpt><trkpt lat="41.4491778" lon="1.5526689"><ele>695.0</ele><time>2026-03-28T12:25:20.298Z</time></trkpt><trkpt lat="41.4490476" lon="1.5527144"><ele>695.0</ele><time>2026-03-28T12:25:21.298Z</time></trkpt><trkpt lat="41.4489153" lon="1.5527956"><ele>695.0</ele><time>2026-03-28T12:25:22.297Z</time></trkpt><trkpt lat="41.4487984" lon="1.5529098"><ele>692.75</ele><time>2026-03-28T12:25:23.298Z</time></trkpt><trkpt lat="41.448714" lon="1.5530653"><ele>690.5</ele><time>2026-03-28T12:25:24.298Z</time></trkpt><trkpt lat="41.4486585" lon="1.5532417"><ele>688.25</ele><time>2026-03-28T12:25:25.298Z</time></trkpt><trkpt lat="41.448616" lon="1.5534485"><ele>686.0</ele><time>2026-03-28T12:25:26.298Z</time></trkpt><trkpt lat="41.4485717" lon="1.5536734"><ele>687.6666666666666</ele><time>2026-03-28T12:25:27.298Z</time></trkpt><trkpt lat="41.4485001" lon="1.5538762"><ele>689.3333333333334</ele><time>2026-03-28T12:25:28.298Z</time></trkpt><trkpt lat="41.4484066" lon="1.5540501"><ele>691.0</ele><time>2026-03-28T12:25:29.298Z</time></trkpt><trkpt lat="41.4483312" lon="1.5541944"><ele>691.0</ele><time>2026-03-28T12:25:30.298Z</time></trkpt><trkpt lat="41.4482705" lon="1.5543344"><ele>691.0</ele><time>2026-03-28T12:25:31.298Z</time></trkpt><trkpt lat="41.4482031" lon="1.55444"><ele>691.0</ele><time>2026-03-28T12:25:32.298Z</time></trkpt><trkpt lat="41.4481227" lon="1.5544824"><ele>691.0</ele><time>2026-03-28T12:25:33.298Z</time></trkpt><trkpt lat="41.4480428" lon="1.5544636"><ele>691.0</ele><time>2026-03-28T12:25:34.298Z</time></trkpt><trkpt lat="41.4479798" lon="1.5543888"><ele>691.0</ele><time>2026-03-28T12:25:35.298Z</time></trkpt><trkpt lat="41.4479536" lon="1.5542841"><ele>691.0</ele><time>2026-03-28T12:25:36.298Z</time></trkpt><trkpt lat="41.4479743" lon="1.5541665"><ele>691.0</ele><time>2026-03-28T12:25:37.298Z</time></trkpt><trkpt lat="41.4480354" lon="1.5540558"><ele>691.0</ele><time>2026-03-28T12:25:38.298Z</time></trkpt><trkpt lat="41.4481332" lon="1.5539642"><ele>691.0</ele><time>2026-03-28T12:25:39.298Z</time></trkpt><trkpt lat="41.4482462" lon="1.5538804"><ele>691.0</ele><time>2026-03-28T12:25:40.298Z</time></trkpt><trkpt lat="41.4483448" lon="1.5537865"><ele>691.0</ele><time>2026-03-28T12:25:41.298Z</time></trkpt><trkpt lat="41.4484104" lon="1.5536542"><ele>691.0</ele><time>2026-03-28T12:25:42.298Z</time></trkpt><trkpt lat="41.4484342" lon="1.5534988"><ele>691.0</ele><time>2026-03-28T12:25:43.298Z</time></trkpt><trkpt lat="41.4484245" lon="1.5533166"><ele>689.75</ele><time>2026-03-28T12:25:44.297Z</time></trkpt><trkpt lat="41.4484036" lon="1.5531283"><ele>688.5</ele><time>2026-03-28T12:25:45.298Z</time></trkpt><trkpt lat="41.4484001" lon="1.5529389"><ele>687.25</ele><time>2026-03-28T12:25:46.298Z</time></trkpt><trkpt lat="41.4484393" lon="1.5527521"><ele>686.0</ele><time>2026-03-28T12:25:47.298Z</time></trkpt><trkpt lat="41.4485108" lon="1.5525842"><ele>684.5</ele><time>2026-03-28T12:25:48.298Z</time></trkpt><trkpt lat="41.4485899" lon="1.5524363"><ele>683.0</ele><time>2026-03-28T12:25:49.298Z</time></trkpt><trkpt lat="41.4486587" lon="1.5522988"><ele>681.5</ele><time>2026-03-28T12:25:50.298Z</time></trkpt><trkpt lat="41.4487058" lon="1.5521667"><ele>680.0</ele><time>2026-03-28T12:25:51.298Z</time></trkpt><trkpt lat="41.4487145" lon="1.5520274"><ele>679.4</ele><time>2026-03-28T12:25:52.298Z</time></trkpt><trkpt lat="41.4486831" lon="1.5519084"><ele>678.8</ele><time>2026-03-28T12:25:53.298Z</time></trkpt><trkpt lat="41.4486232" lon="1.5518269"><ele>678.2</ele><time>2026-03-28T12:25:54.298Z</time></trkpt><trkpt lat="41.448541" lon="1.5517843"><ele>677.6</ele><time>2026-03-28T12:25:55.298Z</time></trkpt><trkpt lat="41.4484408" lon="1.5517938"><ele>677.0</ele><time>2026-03-28T12:25:56.298Z</time></trkpt><trkpt lat="41.4483398" lon="1.5518501"><ele>677.0</ele><time>2026-03-28T12:25:57.298Z</time></trkpt><trkpt lat="41.4482362" lon="1.5519514"><ele>677.0</ele><time>2026-03-28T12:25:58.298Z</time></trkpt><trkpt lat="41.4481182" lon="1.5520746"><ele>677.0</ele><time>2026-03-28T12:25:59.298Z</time></trkpt><trkpt lat="41.4479915" lon="1.5521975"><ele>677.0</ele><time>2026-03-28T12:26:00.298Z</time></trkpt><trkpt lat="41.4478511" lon="1.5523325"><ele>675.6666666666666</ele><time>2026-03-28T12:26:01.298Z</time></trkpt><trkpt lat="41.4477" lon="1.5524754"><ele>674.3333333333334</ele><time>2026-03-28T12:26:02.298Z</time></trkpt><trkpt lat="41.4475444" lon="1.552609"><ele>673.0</ele><time>2026-03-28T12:26:03.298Z</time></trkpt><trkpt lat="41.4473906" lon="1.5527568"><ele>673.3333333333334</ele><time>2026-03-28T12:26:04.298Z</time></trkpt><trkpt lat="41.4472399" lon="1.5529062"><ele>673.6666666666666</ele><time>2026-03-28T12:26:05.298Z</time></trkpt><trkpt lat="41.447088" lon="1.5530512"><ele>674.0</ele><time>2026-03-28T12:26:06.298Z</time></trkpt><trkpt lat="41.4469326" lon="1.5531955"><ele>674.0</ele><time>2026-03-28T12:26:07.297Z</time></trkpt><trkpt lat="41.4467752" lon="1.5533512"><ele>674.0</ele><time>2026-03-28T12:26:08.298Z</time></trkpt><trkpt lat="41.446615" lon="1.5534869"><ele>674.0</ele><time>2026-03-28T12:26:09.298Z</time></trkpt><trkpt lat="41.446459" lon="1.5536488"><ele>671.0</ele><time>2026-03-28T12:26:10.298Z</time></trkpt><trkpt lat="41.4463002" lon="1.5538016"><ele>668.0</ele><time>2026-03-28T12:26:11.298Z</time></trkpt><trkpt lat="41.4461378" lon="1.5539546"><ele>665.0</ele><time>2026-03-28T12:26:12.298Z</time></trkpt><trkpt lat="41.4459772" lon="1.5541104"><ele>665.0</ele><time>2026-03-28T12:26:13.297Z</time></trkpt><trkpt lat="41.4458236" lon="1.5542644"><ele>665.0</ele><time>2026-03-28T12:26:14.297Z</time></trkpt><trkpt lat="41.4456707" lon="1.5544119"><ele>665.0</ele><time>2026-03-28T12:26:15.298Z</time></trkpt><trkpt lat="41.4455167" lon="1.5545588"><ele>662.3333333333333</ele><time>2026-03-28T12:26:16.298Z</time></trkpt><trkpt lat="41.4453668" lon="1.5547037"><ele>659.6666666666666</ele><time>2026-03-28T12:26:17.298Z</time></trkpt><trkpt lat="41.4452013" lon="1.5548394"><ele>657.0</ele><time>2026-03-28T12:26:18.298Z</time></trkpt><trkpt lat="41.4450729" lon="1.5549808"><ele>657.0</ele><time>2026-03-28T12:26:19.298Z</time></trkpt><trkpt lat="41.4449339" lon="1.5551131"><ele>657.0</ele><time>2026-03-28T12:26:20.298Z</time></trkpt><trkpt lat="41.4448049" lon="1.5552489"><ele>657.0</ele><time>2026-03-28T12:26:21.298Z</time></trkpt><trkpt lat="41.4447" lon="1.555406"><ele>656.0</ele><time>2026-03-28T12:26:22.298Z</time></trkpt><trkpt lat="41.4446218" lon="1.5555854"><ele>655.0</ele><time>2026-03-28T12:26:23.298Z</time></trkpt><trkpt lat="41.4445521" lon="1.5557833"><ele>654.0</ele><time>2026-03-28T12:26:24.298Z</time></trkpt><trkpt lat="41.4444766" lon="1.5559897"><ele>654.0</ele><time>2026-03-28T12:26:25.298Z</time></trkpt><trkpt lat="41.4444001" lon="1.5561996"><ele>654.0</ele><time>2026-03-28T12:26:26.298Z</time></trkpt><trkpt lat="41.4443226" lon="1.5564112"><ele>654.0</ele><time>2026-03-28T12:26:27.298Z</time></trkpt><trkpt lat="41.4442466" lon="1.5566248"><ele>653.3333333333334</ele><time>2026-03-28T12:26:28.298Z</time></trkpt><trkpt lat="41.4441726" lon="1.5568397"><ele>652.6666666666667</ele><time>2026-03-28T12:26:29.298Z</time></trkpt><trkpt lat="41.4440952" lon="1.557056"><ele>652.0</ele><time>2026-03-28T12:26:30.298Z</time></trkpt><trkpt lat="41.4440189" lon="1.5572637"><ele>650.3333333333334</ele><time>2026-03-28T12:26:31.298Z</time></trkpt><trkpt lat="41.4439299" lon="1.5574512"><ele>648.6666666666666</ele><time>2026-03-28T12:26:32.298Z</time></trkpt><trkpt lat="41.4438159" lon="1.5576108"><ele>647.0</ele><time>2026-03-28T12:26:33.298Z</time></trkpt><trkpt lat="41.4436708" lon="1.5577455"><ele>647.0</ele><time>2026-03-28T12:26:34.298Z</time></trkpt><trkpt lat="41.443496" lon="1.5578596"><ele>647.0</ele><time>2026-03-28T12:26:35.298Z</time></trkpt><trkpt lat="41.4433178" lon="1.5579646"><ele>647.0</ele><time>2026-03-28T12:26:36.298Z</time></trkpt><trkpt lat="41.4431452" lon="1.5580698"><ele>644.3333333333333</ele><time>2026-03-28T12:26:37.298Z</time></trkpt><trkpt lat="41.4429759" lon="1.5581819"><ele>641.6666666666666</ele><time>2026-03-28T12:26:38.298Z</time></trkpt><trkpt lat="41.4428052" lon="1.5582888"><ele>639.0</ele><time>2026-03-28T12:26:39.298Z</time></trkpt><trkpt lat="41.4426346" lon="1.5583954"><ele>638.6666666666666</ele><time>2026-03-28T12:26:40.298Z</time></trkpt><trkpt lat="41.442462" lon="1.5584983"><ele>638.3333333333333</ele><time>2026-03-28T12:26:41.298Z</time></trkpt><trkpt lat="41.4422913" lon="1.5586068"><ele>638.0</ele><time>2026-03-28T12:26:42.298Z</time></trkpt><trkpt lat="41.4421207" lon="1.5587164"><ele>636.6666666666666</ele><time>2026-03-28T12:26:43.298Z</time></trkpt><trkpt lat="41.4419489" lon="1.558828"><ele>635.3333333333334</ele><time>2026-03-28T12:26:44.297Z</time></trkpt><trkpt lat="41.4417766" lon="1.5589415"><ele>634.0</ele><time>2026-03-28T12:26:45.298Z</time></trkpt><trkpt lat="41.4415996" lon="1.5590436"><ele>634.0</ele><time>2026-03-28T12:26:46.298Z</time></trkpt><trkpt lat="41.4414259" lon="1.5591485"><ele>634.0</ele><time>2026-03-28T12:26:47.298Z</time></trkpt><trkpt lat="41.4412522" lon="1.5592601"><ele>634.0</ele><time>2026-03-28T12:26:48.298Z</time></trkpt><trkpt lat="41.4410835" lon="1.5593735"><ele>634.0</ele><time>2026-03-28T12:26:49.298Z</time></trkpt><trkpt lat="41.4409186" lon="1.5594747"><ele>634.0</ele><time>2026-03-28T12:26:50.298Z</time></trkpt><trkpt lat="41.4407551" lon="1.5595791"><ele>634.0</ele><time>2026-03-28T12:26:51.298Z</time></trkpt><trkpt lat="41.4405813" lon="1.5596913"><ele>632.6666666666667</ele><time>2026-03-28T12:26:52.298Z</time></trkpt><trkpt lat="41.4404158" lon="1.5597945"><ele>631.3333333333334</ele><time>2026-03-28T12:26:53.298Z</time></trkpt><trkpt lat="41.4402544" lon="1.559898"><ele>630.0</ele><time>2026-03-28T12:26:54.298Z</time></trkpt><trkpt lat="41.4401027" lon="1.5599916"><ele>630.0</ele><time>2026-03-28T12:26:55.298Z</time></trkpt><trkpt lat="41.4399513" lon="1.5600809"><ele>630.0</ele><time>2026-03-28T12:26:56.298Z</time></trkpt><trkpt lat="41.4398046" lon="1.5601672"><ele>630.0</ele><time>2026-03-28T12:26:57.298Z</time></trkpt><trkpt lat="41.4396594" lon="1.5602601"><ele>630.0</ele><time>2026-03-28T12:26:58.298Z</time></trkpt><trkpt lat="41.4395068" lon="1.5603575"><ele>630.0</ele><time>2026-03-28T12:26:59.298Z</time></trkpt><trkpt lat="41.4393471" lon="1.5604628"><ele>630.0</ele><time>2026-03-28T12:27:00.298Z</time></trkpt><trkpt lat="41.4391861" lon="1.5605873"><ele>628.6666666666666</ele><time>2026-03-28T12:27:01.298Z</time></trkpt><trkpt lat="41.4390222" lon="1.5607314"><ele>627.3333333333333</ele><time>2026-03-28T12:27:02.298Z</time></trkpt><trkpt lat="41.4388661" lon="1.560865"><ele>626.0</ele><time>2026-03-28T12:27:03.298Z</time></trkpt><trkpt lat="41.4387171" lon="1.5609919"><ele>623.6666666666666</ele><time>2026-03-28T12:27:04.298Z</time></trkpt><trkpt lat="41.4385555" lon="1.561074"><ele>621.3333333333334</ele><time>2026-03-28T12:27:05.298Z</time></trkpt><trkpt lat="41.4384024" lon="1.5611346"><ele>619.0</ele><time>2026-03-28T12:27:06.298Z</time></trkpt><trkpt lat="41.4382487" lon="1.5611497"><ele>619.0</ele><time>2026-03-28T12:27:07.298Z</time></trkpt><trkpt lat="41.4380442" lon="1.5610137"><ele>619.0</ele><time>2026-03-28T12:27:08.298Z</time></trkpt><trkpt lat="41.4378444" lon="1.5609206"><ele>619.0</ele><time>2026-03-28T12:27:09.298Z</time></trkpt><trkpt lat="41.4376562" lon="1.5608415"><ele>621.6666666666667</ele><time>2026-03-28T12:27:10.297Z</time></trkpt><trkpt lat="41.4374762" lon="1.5607746"><ele>624.3333333333334</ele><time>2026-03-28T12:27:11.298Z</time></trkpt><trkpt lat="41.4373174" lon="1.5607114"><ele>627.0</ele><time>2026-03-28T12:27:12.298Z</time></trkpt><trkpt lat="41.4371792" lon="1.5606207"><ele>628.3333333333334</ele><time>2026-03-28T12:27:13.298Z</time></trkpt><trkpt lat="41.437069" lon="1.5604931"><ele>629.6666666666667</ele><time>2026-03-28T12:27:14.298Z</time></trkpt><trkpt lat="41.4369744" lon="1.5603159"><ele>631.0</ele><time>2026-03-28T12:27:15.298Z</time></trkpt><trkpt lat="41.4368891" lon="1.560128"><ele>631.0</ele><time>2026-03-28T12:27:16.298Z</time></trkpt><trkpt lat="41.4367904" lon="1.5599142"><ele>631.0</ele><time>2026-03-28T12:27:17.297Z</time></trkpt><trkpt lat="41.4366941" lon="1.5596617"><ele>631.0</ele><time>2026-03-28T12:27:18.298Z</time></trkpt><trkpt lat="41.4365937" lon="1.5593919"><ele>627.0</ele><time>2026-03-28T12:27:19.298Z</time></trkpt><trkpt lat="41.4365013" lon="1.5591158"><ele>623.0</ele><time>2026-03-28T12:27:20.298Z</time></trkpt><trkpt lat="41.4364041" lon="1.558825"><ele>621.0</ele><time>2026-03-28T12:27:21.298Z</time></trkpt><trkpt lat="41.4363151" lon="1.5585566"><ele>619.0</ele><time>2026-03-28T12:27:22.298Z</time></trkpt><trkpt lat="41.4362298" lon="1.5582999"><ele>617.0</ele><time>2026-03-28T12:27:23.298Z</time></trkpt><trkpt lat="41.4361496" lon="1.5580649"><ele>619.0</ele><time>2026-03-28T12:27:24.298Z</time></trkpt><trkpt lat="41.4360832" lon="1.5578641"><ele>621.0</ele><time>2026-03-28T12:27:25.298Z</time></trkpt><trkpt lat="41.4360105" lon="1.5576904"><ele>623.0</ele><time>2026-03-28T12:27:26.298Z</time></trkpt><trkpt lat="41.4359159" lon="1.5575762"><ele>625.0</ele><time>2026-03-28T12:27:27.298Z</time></trkpt><trkpt lat="41.4358191" lon="1.5574654"><ele>625.0</ele><time>2026-03-28T12:27:28.297Z</time></trkpt><trkpt lat="41.435698" lon="1.5574086"><ele>625.0</ele><time>2026-03-28T12:27:29.298Z</time></trkpt><trkpt lat="41.4355182" lon="1.5574739"><ele>625.0</ele><time>2026-03-28T12:27:30.297Z</time></trkpt><trkpt lat="41.4353452" lon="1.5575318"><ele>623.3333333333334</ele><time>2026-03-28T12:27:31.298Z</time></trkpt><trkpt lat="41.435175" lon="1.5575818"><ele>621.6666666666666</ele><time>2026-03-28T12:27:32.298Z</time></trkpt><trkpt lat="41.4350072" lon="1.5576331"><ele>620.0</ele><time>2026-03-28T12:27:33.298Z</time></trkpt><trkpt lat="41.4348356" lon="1.5576676"><ele>620.0</ele><time>2026-03-28T12:27:34.298Z</time></trkpt><trkpt lat="41.4346701" lon="1.5576418"><ele>620.0</ele><time>2026-03-28T12:27:35.298Z</time></trkpt><trkpt lat="41.434511" lon="1.5575921"><ele>620.0</ele><time>2026-03-28T12:27:36.297Z</time></trkpt><trkpt lat="41.4343019" lon="1.5574642"><ele>620.6666666666666</ele><time>2026-03-28T12:27:37.298Z</time></trkpt><trkpt lat="41.4341019" lon="1.5573344"><ele>621.3333333333334</ele><time>2026-03-28T12:27:38.298Z</time></trkpt><trkpt lat="41.433894" lon="1.5572143"><ele>622.0</ele><time>2026-03-28T12:27:39.298Z</time></trkpt><trkpt lat="41.4336628" lon="1.5570968"><ele>614.0</ele><time>2026-03-28T12:27:40.298Z</time></trkpt><trkpt lat="41.4334369" lon="1.5569689"><ele>606.0</ele><time>2026-03-28T12:27:41.298Z</time></trkpt><trkpt lat="41.4332224" lon="1.5568433"><ele>606.0</ele><time>2026-03-28T12:27:42.298Z</time></trkpt><trkpt lat="41.4330137" lon="1.5567136"><ele>606.0</ele><time>2026-03-28T12:27:43.298Z</time></trkpt><trkpt lat="41.4328092" lon="1.5565749"><ele>607.3333333333334</ele><time>2026-03-28T12:27:44.298Z</time></trkpt><trkpt lat="41.4326178" lon="1.5564433"><ele>608.6666666666667</ele><time>2026-03-28T12:27:45.298Z</time></trkpt><trkpt lat="41.4324319" lon="1.5563137"><ele>610.0</ele><time>2026-03-28T12:27:46.298Z</time></trkpt><trkpt lat="41.4322516" lon="1.5561922"><ele>606.6666666666667</ele><time>2026-03-28T12:27:47.298Z</time></trkpt><trkpt lat="41.4320753" lon="1.5560713"><ele>603.3333333333334</ele><time>2026-03-28T12:27:48.298Z</time></trkpt><trkpt lat="41.4319052" lon="1.5559593"><ele>600.0</ele><time>2026-03-28T12:27:49.298Z</time></trkpt><trkpt lat="41.431743" lon="1.5558509"><ele>600.0</ele><time>2026-03-28T12:27:50.298Z</time></trkpt><trkpt lat="41.4315923" lon="1.5557406"><ele>600.0</ele><time>2026-03-28T12:27:51.298Z</time></trkpt><trkpt lat="41.4314639" lon="1.5556484"><ele>600.0</ele><time>2026-03-28T12:27:52.298Z</time></trkpt><trkpt lat="41.4313368" lon="1.5555787"><ele>599.0</ele><time>2026-03-28T12:27:53.298Z</time></trkpt><trkpt lat="41.4312085" lon="1.5555326"><ele>598.0</ele><time>2026-03-28T12:27:54.297Z</time></trkpt><trkpt lat="41.4310669" lon="1.5555243"><ele>597.0</ele><time>2026-03-28T12:27:55.298Z</time></trkpt><trkpt lat="41.4309194" lon="1.5555302"><ele>596.0</ele><time>2026-03-28T12:27:56.298Z</time></trkpt><trkpt lat="41.4307876" lon="1.5555969"><ele>596.0</ele><time>2026-03-28T12:27:57.297Z</time></trkpt><trkpt lat="41.4306622" lon="1.5557179"><ele>596.0</ele><time>2026-03-28T12:27:58.299Z</time></trkpt><trkpt lat="41.4305384" lon="1.555883"><ele>596.0</ele><time>2026-03-28T12:27:59.3Z</time></trkpt><trkpt lat="41.4304226" lon="1.5560531"><ele>591.25</ele><time>2026-03-28T12:28:00.3Z</time></trkpt><trkpt lat="41.4303121" lon="1.5562058"><ele>586.5</ele><time>2026-03-28T12:28:01.3Z</time></trkpt><trkpt lat="41.4302219" lon="1.5563353"><ele>581.75</ele><time>2026-03-28T12:28:02.299Z</time></trkpt><trkpt lat="41.4301419" lon="1.5564565"><ele>577.0</ele><time>2026-03-28T12:28:03.3Z</time></trkpt><trkpt lat="41.4300814" lon="1.5565648"><ele>577.0</ele><time>2026-03-28T12:28:04.3Z</time></trkpt><trkpt lat="41.4300989" lon="1.5566831"><ele>577.0</ele><time>2026-03-28T12:28:05.3Z</time></trkpt><trkpt lat="41.4302522" lon="1.5568326"><ele>577.0</ele><time>2026-03-28T12:28:06.3Z</time></trkpt><trkpt lat="41.4303676" lon="1.5570061"><ele>579.3333333333334</ele><time>2026-03-28T12:28:07.3Z</time></trkpt><trkpt lat="41.4304598" lon="1.557178"><ele>581.6666666666666</ele><time>2026-03-28T12:28:08.3Z</time></trkpt><trkpt lat="41.4305193" lon="1.5573827"><ele>584.0</ele><time>2026-03-28T12:28:09.3Z</time></trkpt><trkpt lat="41.4305552" lon="1.5575855"><ele>589.25</ele><time>2026-03-28T12:28:10.3Z</time></trkpt><trkpt lat="41.4305832" lon="1.5577753"><ele>594.5</ele><time>2026-03-28T12:28:11.299Z</time></trkpt><trkpt lat="41.4305958" lon="1.5579337"><ele>599.75</ele><time>2026-03-28T12:28:12.3Z</time></trkpt><trkpt lat="41.4305752" lon="1.5580643"><ele>605.0</ele><time>2026-03-28T12:28:13.3Z</time></trkpt><trkpt lat="41.4305349" lon="1.5581729"><ele>605.0</ele><time>2026-03-28T12:28:14.3Z</time></trkpt><trkpt lat="41.4304461" lon="1.5581687"><ele>605.0</ele><time>2026-03-28T12:28:15.3Z</time></trkpt><trkpt lat="41.4303676" lon="1.5581148"><ele>605.0</ele><time>2026-03-28T12:28:16.3Z</time></trkpt><trkpt lat="41.4302902" lon="1.558021"><ele>605.0</ele><time>2026-03-28T12:28:17.3Z</time></trkpt><trkpt lat="41.4302067" lon="1.557923"><ele>605.0</ele><time>2026-03-28T12:28:18.3Z</time></trkpt><trkpt lat="41.4300952" lon="1.5578655"><ele>598.0</ele><time>2026-03-28T12:28:19.3Z</time></trkpt><trkpt lat="41.4299403" lon="1.5578133"><ele>591.0</ele><time>2026-03-28T12:28:20.299Z</time></trkpt><trkpt lat="41.4297836" lon="1.5578191"><ele>584.0</ele><time>2026-03-28T12:28:21.3Z</time></trkpt><trkpt lat="41.4296419" lon="1.5578477"><ele>588.0</ele><time>2026-03-28T12:28:22.3Z</time></trkpt><trkpt lat="41.4294837" lon="1.557972"><ele>592.0</ele><time>2026-03-28T12:28:23.3Z</time></trkpt><trkpt lat="41.4293287" lon="1.5581044"><ele>596.0</ele><time>2026-03-28T12:28:24.3Z</time></trkpt><trkpt lat="41.4291594" lon="1.5582612"><ele>596.0</ele><time>2026-03-28T12:28:25.3Z</time></trkpt><trkpt lat="41.4289671" lon="1.5584083"><ele>596.0</ele><time>2026-03-28T12:28:26.3Z</time></trkpt><trkpt lat="41.428786" lon="1.5585624"><ele>596.0</ele><time>2026-03-28T12:28:27.3Z</time></trkpt><trkpt lat="41.4286021" lon="1.5587081"><ele>596.3333333333333</ele><time>2026-03-28T12:28:28.3Z</time></trkpt><trkpt lat="41.4284237" lon="1.5588604"><ele>596.6666666666666</ele><time>2026-03-28T12:28:29.3Z</time></trkpt><trkpt lat="41.428243" lon="1.5589964"><ele>597.0</ele><time>2026-03-28T12:28:30.3Z</time></trkpt><trkpt lat="41.4280899" lon="1.5591666"><ele>592.3333333333334</ele><time>2026-03-28T12:28:31.3Z</time></trkpt><trkpt lat="41.4279536" lon="1.5593343"><ele>587.6666666666667</ele><time>2026-03-28T12:28:32.299Z</time></trkpt><trkpt lat="41.4278149" lon="1.5595027"><ele>583.0</ele><time>2026-03-28T12:28:33.3Z</time></trkpt><trkpt lat="41.4277135" lon="1.559727"><ele>583.0</ele><time>2026-03-28T12:28:34.3Z</time></trkpt><trkpt lat="41.4276029" lon="1.5599435"><ele>583.0</ele><time>2026-03-28T12:28:35.299Z</time></trkpt><trkpt lat="41.4274895" lon="1.5601332"><ele>583.0</ele><time>2026-03-28T12:28:36.3Z</time></trkpt><trkpt lat="41.4273841" lon="1.5603004"><ele>586.0</ele><time>2026-03-28T12:28:37.3Z</time></trkpt><trkpt lat="41.4272995" lon="1.5604691"><ele>589.0</ele><time>2026-03-28T12:28:38.3Z</time></trkpt><trkpt lat="41.4272109" lon="1.5606431"><ele>592.0</ele><time>2026-03-28T12:28:39.3Z</time></trkpt><trkpt lat="41.4271325" lon="1.5608599"><ele>592.6666666666667</ele><time>2026-03-28T12:28:40.3Z</time></trkpt><trkpt lat="41.4270948" lon="1.5611047"><ele>593.3333333333334</ele><time>2026-03-28T12:28:41.3Z</time></trkpt><trkpt lat="41.4271445" lon="1.5613699"><ele>594.0</ele><time>2026-03-28T12:28:42.299Z</time></trkpt><trkpt lat="41.4271374" lon="1.5615744"><ele>594.4</ele><time>2026-03-28T12:28:43.3Z</time></trkpt><trkpt lat="41.4271278" lon="1.5617463"><ele>594.8</ele><time>2026-03-28T12:28:44.3Z</time></trkpt><trkpt lat="41.4270983" lon="1.5618854"><ele>595.2</ele><time>2026-03-28T12:28:45.299Z</time></trkpt><trkpt lat="41.4270302" lon="1.5619781"><ele>595.6</ele><time>2026-03-28T12:28:46.3Z</time></trkpt><trkpt lat="41.4269327" lon="1.5620327"><ele>596.0</ele><time>2026-03-28T12:28:47.3Z</time></trkpt><trkpt lat="41.4268014" lon="1.5620303"><ele>590.0</ele><time>2026-03-28T12:28:48.299Z</time></trkpt><trkpt lat="41.4266507" lon="1.5620037"><ele>584.0</ele><time>2026-03-28T12:28:49.3Z</time></trkpt><trkpt lat="41.4264872" lon="1.5620099"><ele>578.0</ele><time>2026-03-28T12:28:50.3Z</time></trkpt><trkpt lat="41.4263047" lon="1.5620303"><ele>579.6666666666666</ele><time>2026-03-28T12:28:51.3Z</time></trkpt><trkpt lat="41.426129" lon="1.5620924"><ele>581.3333333333334</ele><time>2026-03-28T12:28:52.3Z</time></trkpt><trkpt lat="41.4259603" lon="1.5621525"><ele>583.0</ele><time>2026-03-28T12:28:53.3Z</time></trkpt><trkpt lat="41.4257948" lon="1.5622083"><ele>583.0</ele><time>2026-03-28T12:28:54.3Z</time></trkpt><trkpt lat="41.4256481" lon="1.5622708"><ele>583.0</ele><time>2026-03-28T12:28:55.3Z</time></trkpt><trkpt lat="41.4255214" lon="1.5623766"><ele>583.0</ele><time>2026-03-28T12:28:56.3Z</time></trkpt><trkpt lat="41.4254031" lon="1.5625377"><ele>580.3333333333334</ele><time>2026-03-28T12:28:57.3Z</time></trkpt><trkpt lat="41.4252928" lon="1.5627287"><ele>577.6666666666666</ele><time>2026-03-28T12:28:58.3Z</time></trkpt><trkpt lat="41.4251862" lon="1.5629186"><ele>575.0</ele><time>2026-03-28T12:28:59.3Z</time></trkpt><trkpt lat="41.4250797" lon="1.5631077"><ele>575.0</ele><time>2026-03-28T12:29:00.299Z</time></trkpt><trkpt lat="41.4249684" lon="1.5632915"><ele>575.0</ele><time>2026-03-28T12:29:01.3Z</time></trkpt><trkpt lat="41.42486" lon="1.563484"><ele>575.0</ele><time>2026-03-28T12:29:02.3Z</time></trkpt><trkpt lat="41.4247488" lon="1.5636768"><ele>571.3333333333333</ele><time>2026-03-28T12:29:03.3Z</time></trkpt><trkpt lat="41.4246342" lon="1.5638657"><ele>567.6666666666666</ele><time>2026-03-28T12:29:04.3Z</time></trkpt><trkpt lat="41.4245268" lon="1.5640519"><ele>564.0</ele><time>2026-03-28T12:29:05.299Z</time></trkpt><trkpt lat="41.4244254" lon="1.5642244"><ele>564.0</ele><time>2026-03-28T12:29:06.3Z</time></trkpt><trkpt lat="41.424334" lon="1.5643903"><ele>564.0</ele><time>2026-03-28T12:29:07.3Z</time></trkpt><trkpt lat="41.4242627" lon="1.5645532"><ele>564.0</ele><time>2026-03-28T12:29:08.3Z</time></trkpt><trkpt lat="41.4242252" lon="1.5647378"><ele>564.0</ele><time>2026-03-28T12:29:09.3Z</time></trkpt><trkpt lat="41.4241914" lon="1.5649148"><ele>564.0</ele><time>2026-03-28T12:29:10.3Z</time></trkpt><trkpt lat="41.4242535" lon="1.5651498"><ele>564.0</ele><time>2026-03-28T12:29:11.3Z</time></trkpt><trkpt lat="41.4242868" lon="1.5653661"><ele>564.0</ele><time>2026-03-28T12:29:12.3Z</time></trkpt><trkpt lat="41.4243232" lon="1.5655971"><ele>562.0</ele><time>2026-03-28T12:29:13.3Z</time></trkpt><trkpt lat="41.4243864" lon="1.5658276"><ele>560.0</ele><time>2026-03-28T12:29:14.3Z</time></trkpt><trkpt lat="41.4244864" lon="1.5660378"><ele>558.0</ele><time>2026-03-28T12:29:15.3Z</time></trkpt><trkpt lat="41.4246174" lon="1.5662309"><ele>562.0</ele><time>2026-03-28T12:29:16.3Z</time></trkpt><trkpt lat="41.4247376" lon="1.5664366"><ele>566.0</ele><time>2026-03-28T12:29:17.3Z</time></trkpt><trkpt lat="41.4248979" lon="1.5665568"><ele>570.0</ele><time>2026-03-28T12:29:18.3Z</time></trkpt><trkpt lat="41.4250218" lon="1.5666424"><ele>570.0</ele><time>2026-03-28T12:29:19.3Z</time></trkpt><trkpt lat="41.4251115" lon="1.5667195"><ele>570.0</ele><time>2026-03-28T12:29:20.3Z</time></trkpt><trkpt lat="41.4251709" lon="1.5668159"><ele>570.0</ele><time>2026-03-28T12:29:21.3Z</time></trkpt><trkpt lat="41.425196" lon="1.566947"><ele>570.0</ele><time>2026-03-28T12:29:22.3Z</time></trkpt><trkpt lat="41.4252098" lon="1.5670901"><ele>570.0</ele><time>2026-03-28T12:29:23.3Z</time></trkpt><trkpt lat="41.425193" lon="1.5672835"><ele>567.6666666666666</ele><time>2026-03-28T12:29:24.3Z</time></trkpt><trkpt lat="41.4251135" lon="1.5675137"><ele>565.3333333333333</ele><time>2026-03-28T12:29:25.3Z</time></trkpt><trkpt lat="41.425019" lon="1.5677424"><ele>563.0</ele><time>2026-03-28T12:29:26.3Z</time></trkpt><trkpt lat="41.424917" lon="1.5679949"><ele>563.0</ele><time>2026-03-28T12:29:27.3Z</time></trkpt><trkpt lat="41.4248355" lon="1.5682701"><ele>563.0</ele><time>2026-03-28T12:29:28.3Z</time></trkpt><trkpt lat="41.4247548" lon="1.5685421"><ele>563.0</ele><time>2026-03-28T12:29:29.3Z</time></trkpt><trkpt lat="41.4246857" lon="1.5688034"><ele>556.3333333333333</ele><time>2026-03-28T12:29:30.3Z</time></trkpt><trkpt lat="41.4246233" lon="1.5690644"><ele>549.6666666666666</ele><time>2026-03-28T12:29:31.3Z</time></trkpt><trkpt lat="41.4245882" lon="1.5692919"><ele>543.0</ele><time>2026-03-28T12:29:32.3Z</time></trkpt><trkpt lat="41.4245602" lon="1.5695126"><ele>543.3333333333334</ele><time>2026-03-28T12:29:33.3Z</time></trkpt><trkpt lat="41.4245609" lon="1.5697189"><ele>543.6666666666667</ele><time>2026-03-28T12:29:34.3Z</time></trkpt><trkpt lat="41.4245865" lon="1.5699251"><ele>544.0</ele><time>2026-03-28T12:29:35.3Z</time></trkpt><trkpt lat="41.4246507" lon="1.5701227"><ele>543.5</ele><time>2026-03-28T12:29:36.3Z</time></trkpt><trkpt lat="41.4246887" lon="1.5702966"><ele>543.0</ele><time>2026-03-28T12:29:37.3Z</time></trkpt><trkpt lat="41.4246885" lon="1.5704574"><ele>542.5</ele><time>2026-03-28T12:29:38.3Z</time></trkpt><trkpt lat="41.4246461" lon="1.5706171"><ele>542.0</ele><time>2026-03-28T12:29:39.3Z</time></trkpt><trkpt lat="41.424575" lon="1.5707858"><ele>542.0</ele><time>2026-03-28T12:29:40.3Z</time></trkpt><trkpt lat="41.4244855" lon="1.5709704"><ele>542.0</ele><time>2026-03-28T12:29:41.3Z</time></trkpt><trkpt lat="41.4244119" lon="1.5711853"><ele>542.0</ele><time>2026-03-28T12:29:42.3Z</time></trkpt><trkpt lat="41.4243576" lon="1.5714305"><ele>541.6666666666666</ele><time>2026-03-28T12:29:43.3Z</time></trkpt><trkpt lat="41.4243001" lon="1.5716637"><ele>541.3333333333334</ele><time>2026-03-28T12:29:44.3Z</time></trkpt><trkpt lat="41.4242414" lon="1.5718849"><ele>541.0</ele><time>2026-03-28T12:29:45.3Z</time></trkpt><trkpt lat="41.4242028" lon="1.5720786"><ele>541.0</ele><time>2026-03-28T12:29:46.3Z</time></trkpt><trkpt lat="41.4241708" lon="1.5722429"><ele>541.0</ele><time>2026-03-28T12:29:47.3Z</time></trkpt><trkpt lat="41.4241725" lon="1.5724051"><ele>541.0</ele><time>2026-03-28T12:29:48.3Z</time></trkpt><trkpt lat="41.4242037" lon="1.5725694"><ele>541.0</ele><time>2026-03-28T12:29:49.3Z</time></trkpt><trkpt lat="41.4242459" lon="1.572726"><ele>541.2</ele><time>2026-03-28T12:29:50.3Z</time></trkpt><trkpt lat="41.4242811" lon="1.5728824"><ele>541.4000000000001</ele><time>2026-03-28T12:29:51.3Z</time></trkpt><trkpt lat="41.4242905" lon="1.5730256"><ele>541.6</ele><time>2026-03-28T12:29:52.3Z</time></trkpt><trkpt lat="41.4242673" lon="1.5731634"><ele>541.8000000000001</ele><time>2026-03-28T12:29:53.3Z</time></trkpt><trkpt lat="41.4242362" lon="1.5732909"><ele>542.0</ele><time>2026-03-28T12:29:54.3Z</time></trkpt><trkpt lat="41.4241519" lon="1.5733973"><ele>542.0</ele><time>2026-03-28T12:29:55.3Z</time></trkpt><trkpt lat="41.4240401" lon="1.5734954"><ele>542.0</ele><time>2026-03-28T12:29:56.3Z</time></trkpt><trkpt lat="41.4239651" lon="1.5736354"><ele>542.0</ele><time>2026-03-28T12:29:57.3Z</time></trkpt><trkpt lat="41.4239171" lon="1.5738165"><ele>542.0</ele><time>2026-03-28T12:29:58.3Z</time></trkpt><trkpt lat="41.4238728" lon="1.5739855"><ele>544.0</ele><time>2026-03-28T12:29:59.3Z</time></trkpt><trkpt lat="41.423842" lon="1.574159"><ele>546.0</ele><time>2026-03-28T12:30:00.299Z</time></trkpt><trkpt lat="41.4238348" lon="1.5743248"><ele>548.0</ele><time>2026-03-28T12:30:01.299Z</time></trkpt><trkpt lat="41.4238726" lon="1.5745421"><ele>550.0</ele><time>2026-03-28T12:30:02.3Z</time></trkpt><trkpt lat="41.4239082" lon="1.5747566"><ele>550.0</ele><time>2026-03-28T12:30:03.299Z</time></trkpt><trkpt lat="41.4239446" lon="1.574998"><ele>550.0</ele><time>2026-03-28T12:30:04.3Z</time></trkpt><trkpt lat="41.4239752" lon="1.5752312"><ele>550.0</ele><time>2026-03-28T12:30:05.3Z</time></trkpt><trkpt lat="41.42401" lon="1.5754619"><ele>547.0</ele><time>2026-03-28T12:30:06.3Z</time></trkpt><trkpt lat="41.4240385" lon="1.5756833"><ele>544.0</ele><time>2026-03-28T12:30:07.3Z</time></trkpt><trkpt lat="41.424085" lon="1.5758941"><ele>541.0</ele><time>2026-03-28T12:30:08.299Z</time></trkpt><trkpt lat="41.4241685" lon="1.5760871"><ele>537.6666666666667</ele><time>2026-03-28T12:30:09.3Z</time></trkpt><trkpt lat="41.4242828" lon="1.576251"><ele>534.3333333333334</ele><time>2026-03-28T12:30:10.3Z</time></trkpt><trkpt lat="41.4244276" lon="1.5764063"><ele>531.0</ele><time>2026-03-28T12:30:11.3Z</time></trkpt><trkpt lat="41.4245602" lon="1.5765615"><ele>532.75</ele><time>2026-03-28T12:30:12.3Z</time></trkpt><trkpt lat="41.4246803" lon="1.5767037"><ele>534.5</ele><time>2026-03-28T12:30:13.3Z</time></trkpt><trkpt lat="41.4247916" lon="1.5768132"><ele>536.25</ele><time>2026-03-28T12:30:14.3Z</time></trkpt><trkpt lat="41.4249197" lon="1.5768736"><ele>538.0</ele><time>2026-03-28T12:30:15.3Z</time></trkpt><trkpt lat="41.4250485" lon="1.5769099"><ele>538.0</ele><time>2026-03-28T12:30:16.3Z</time></trkpt><trkpt lat="41.4252014" lon="1.576874"><ele>538.0</ele><time>2026-03-28T12:30:17.3Z</time></trkpt><trkpt lat="41.4253572" lon="1.5768442"><ele>538.0</ele><time>2026-03-28T12:30:18.3Z</time></trkpt><trkpt lat="41.4255214" lon="1.5768211"><ele>537.6666666666667</ele><time>2026-03-28T12:30:19.3Z</time></trkpt><trkpt lat="41.4256813" lon="1.5768308"><ele>537.3333333333334</ele><time>2026-03-28T12:30:20.3Z</time></trkpt><trkpt lat="41.4258427" lon="1.576883"><ele>537.0</ele><time>2026-03-28T12:30:21.3Z</time></trkpt><trkpt lat="41.4260111" lon="1.5769654"><ele>531.3333333333334</ele><time>2026-03-28T12:30:22.3Z</time></trkpt><trkpt lat="41.4261814" lon="1.5770519"><ele>525.6666666666667</ele><time>2026-03-28T12:30:23.3Z</time></trkpt><trkpt lat="41.4263368" lon="1.5771274"><ele>520.0</ele><time>2026-03-28T12:30:24.3Z</time></trkpt><trkpt lat="41.4264752" lon="1.577184"><ele>519.75</ele><time>2026-03-28T12:30:25.3Z</time></trkpt><trkpt lat="41.4265961" lon="1.5772044"><ele>519.5</ele><time>2026-03-28T12:30:26.3Z</time></trkpt><trkpt lat="41.4267144" lon="1.5771844"><ele>519.25</ele><time>2026-03-28T12:30:27.3Z</time></trkpt><trkpt lat="41.4268205" lon="1.5771422"><ele>519.0</ele><time>2026-03-28T12:30:28.3Z</time></trkpt><trkpt lat="41.4269223" lon="1.5770459"><ele>522.75</ele><time>2026-03-28T12:30:29.3Z</time></trkpt><trkpt lat="41.4270198" lon="1.5769023"><ele>526.5</ele><time>2026-03-28T12:30:30.299Z</time></trkpt><trkpt lat="41.4271014" lon="1.5767371"><ele>530.25</ele><time>2026-03-28T12:30:31.3Z</time></trkpt><trkpt lat="41.4271602" lon="1.5766033"><ele>534.0</ele><time>2026-03-28T12:30:32.3Z</time></trkpt><trkpt lat="41.4272345" lon="1.5765106"><ele>534.0</ele><time>2026-03-28T12:30:33.3Z</time></trkpt><trkpt lat="41.4273154" lon="1.5764915"><ele>534.0</ele><time>2026-03-28T12:30:34.3Z</time></trkpt><trkpt lat="41.4274151" lon="1.5765295"><ele>534.0</ele><time>2026-03-28T12:30:35.3Z</time></trkpt><trkpt lat="41.4275436" lon="1.5766228"><ele>534.0</ele><time>2026-03-28T12:30:36.3Z</time></trkpt><trkpt lat="41.4276781" lon="1.5767434"><ele>534.0</ele><time>2026-03-28T12:30:37.3Z</time></trkpt><trkpt lat="41.4278138" lon="1.5768499"><ele>534.0</ele><time>2026-03-28T12:30:38.3Z</time></trkpt><trkpt lat="41.4279432" lon="1.5769597"><ele>534.0</ele><time>2026-03-28T12:30:39.3Z</time></trkpt><trkpt lat="41.428048" lon="1.577066"><ele>534.0</ele><time>2026-03-28T12:30:40.3Z</time></trkpt><trkpt lat="41.4281154" lon="1.5771857"><ele>536.25</ele><time>2026-03-28T12:30:41.3Z</time></trkpt><trkpt lat="41.4281343" lon="1.577327"><ele>538.5</ele><time>2026-03-28T12:30:42.3Z</time></trkpt><trkpt lat="41.428107" lon="1.5774751"><ele>540.75</ele><time>2026-03-28T12:30:43.3Z</time></trkpt><trkpt lat="41.4280908" lon="1.5776205"><ele>543.0</ele><time>2026-03-28T12:30:44.3Z</time></trkpt><trkpt lat="41.4280153" lon="1.5777765"><ele>533.0</ele><time>2026-03-28T12:30:45.3Z</time></trkpt><trkpt lat="41.4278513" lon="1.5779438"><ele>523.0</ele><time>2026-03-28T12:30:46.3Z</time></trkpt><trkpt lat="41.4277297" lon="1.5781191"><ele>513.0</ele><time>2026-03-28T12:30:47.3Z</time></trkpt><trkpt lat="41.4276307" lon="1.5782975"><ele>513.0</ele><time>2026-03-28T12:30:48.3Z</time></trkpt><trkpt lat="41.4275643" lon="1.57845"><ele>513.0</ele><time>2026-03-28T12:30:49.3Z</time></trkpt><trkpt lat="41.4275323" lon="1.5786172"><ele>513.0</ele><time>2026-03-28T12:30:50.3Z</time></trkpt><trkpt lat="41.4274841" lon="1.5787829"><ele>513.0</ele><time>2026-03-28T12:30:51.3Z</time></trkpt><trkpt lat="41.4273985" lon="1.5789327"><ele>514.6666666666666</ele><time>2026-03-28T12:30:52.3Z</time></trkpt><trkpt lat="41.4272809" lon="1.5790657"><ele>516.3333333333333</ele><time>2026-03-28T12:30:53.3Z</time></trkpt><trkpt lat="41.4271433" lon="1.5792225"><ele>518.0</ele><time>2026-03-28T12:30:54.299Z</time></trkpt><trkpt lat="41.4269981" lon="1.5794034"><ele>514.0</ele><time>2026-03-28T12:30:55.3Z</time></trkpt><trkpt lat="41.4268586" lon="1.5796017"><ele>510.0</ele><time>2026-03-28T12:30:56.3Z</time></trkpt><trkpt lat="41.426724" lon="1.5797895"><ele>506.0</ele><time>2026-03-28T12:30:57.3Z</time></trkpt><trkpt lat="41.4265972" lon="1.5799751"><ele>506.0</ele><time>2026-03-28T12:30:58.3Z</time></trkpt><trkpt lat="41.426466" lon="1.5801362"><ele>506.0</ele><time>2026-03-28T12:30:59.3Z</time></trkpt><trkpt lat="41.4263582" lon="1.5802941"><ele>506.0</ele><time>2026-03-28T12:31:00.3Z</time></trkpt><trkpt lat="41.4262566" lon="1.5804505"><ele>501.3333333333333</ele><time>2026-03-28T12:31:01.299Z</time></trkpt><trkpt lat="41.426163" lon="1.5806252"><ele>496.66666666666663</ele><time>2026-03-28T12:31:02.3Z</time></trkpt><trkpt lat="41.4260848" lon="1.5808061"><ele>492.0</ele><time>2026-03-28T12:31:03.3Z</time></trkpt><trkpt lat="41.4260222" lon="1.5810017"><ele>492.25</ele><time>2026-03-28T12:31:04.3Z</time></trkpt><trkpt lat="41.4259652" lon="1.5811895"><ele>492.5</ele><time>2026-03-28T12:31:05.3Z</time></trkpt><trkpt lat="41.4259166" lon="1.5813491"><ele>492.75</ele><time>2026-03-28T12:31:06.3Z</time></trkpt><trkpt lat="41.4258808" lon="1.5814957"><ele>493.0</ele><time>2026-03-28T12:31:07.3Z</time></trkpt><trkpt lat="41.4258713" lon="1.581637"><ele>493.0</ele><time>2026-03-28T12:31:08.3Z</time></trkpt><trkpt lat="41.4258939" lon="1.5817741"><ele>493.0</ele><time>2026-03-28T12:31:09.3Z</time></trkpt><trkpt lat="41.4259561" lon="1.5819034"><ele>493.0</ele><time>2026-03-28T12:31:10.3Z</time></trkpt><trkpt lat="41.4260181" lon="1.5820299"><ele>493.0</ele><time>2026-03-28T12:31:11.3Z</time></trkpt><trkpt lat="41.4261493" lon="1.582123"><ele>493.0</ele><time>2026-03-28T12:31:12.3Z</time></trkpt><trkpt lat="41.4262549" lon="1.5822196"><ele>493.0</ele><time>2026-03-28T12:31:13.3Z</time></trkpt><trkpt lat="41.4263574" lon="1.5823158"><ele>493.0</ele><time>2026-03-28T12:31:14.3Z</time></trkpt><trkpt lat="41.4264553" lon="1.5824071"><ele>493.0</ele><time>2026-03-28T12:31:15.3Z</time></trkpt><trkpt lat="41.426558" lon="1.5825049"><ele>492.5</ele><time>2026-03-28T12:31:16.299Z</time></trkpt><trkpt lat="41.4266658" lon="1.5826045"><ele>492.0</ele><time>2026-03-28T12:31:17.3Z</time></trkpt><trkpt lat="41.4267767" lon="1.5827029"><ele>491.5</ele><time>2026-03-28T12:31:18.3Z</time></trkpt><trkpt lat="41.426889" lon="1.5828057"><ele>491.0</ele><time>2026-03-28T12:31:19.3Z</time></trkpt><trkpt lat="41.4270066" lon="1.5829055"><ele>490.0</ele><time>2026-03-28T12:31:20.3Z</time></trkpt><trkpt lat="41.4271256" lon="1.5830179"><ele>489.0</ele><time>2026-03-28T12:31:21.299Z</time></trkpt><trkpt lat="41.427241" lon="1.5831318"><ele>488.0</ele><time>2026-03-28T12:31:22.3Z</time></trkpt><trkpt lat="41.4273571" lon="1.583243"><ele>487.0</ele><time>2026-03-28T12:31:23.3Z</time></trkpt><trkpt lat="41.4274717" lon="1.5833472"><ele>487.0</ele><time>2026-03-28T12:31:24.3Z</time></trkpt><trkpt lat="41.4275751" lon="1.583443"><ele>487.00000000000006</ele><time>2026-03-28T12:31:25.3Z</time></trkpt><trkpt lat="41.427659" lon="1.5835211"><ele>487.00000000000006</ele><time>2026-03-28T12:31:26.3Z</time></trkpt><trkpt lat="41.4277283" lon="1.583588"><ele>487.0</ele><time>2026-03-28T12:31:27.299Z</time></trkpt><trkpt lat="41.4277887" lon="1.5836431"><ele>487.0</ele><time>2026-03-28T12:31:28.299Z</time></trkpt><trkpt lat="41.4278879" lon="1.583729"><ele>477.0</ele><time>2026-03-28T12:31:30.299Z</time></trkpt><trkpt lat="41.4279528" lon="1.5838002"><ele>477.0</ele><time>2026-03-28T12:31:33.3Z</time></trkpt><trkpt lat="41.4279635" lon="1.5838903"><ele>477.0</ele><time>2026-03-28T12:31:37.3Z</time></trkpt></trkseg></trk></gpx>